<?xml version='1.0' encoding='UTF-8'?><gpx version="1.1" creator="JPX - https://github.com/jenetics/jpx" xmlns="http://www.topografix.com/GPX/1/1"><trk><trkseg><trkpt lat="45.6100277" lon="9.427223"><ele>200.33333333333334</ele><time>2026-04-16T12:19:44.61Z</time></trkpt><trkpt lat="45.6099466" lon="9.4270963"><ele>200.66666666666669</ele><time>2026-04-16T12:39:59.608Z</time></trkpt><trkpt lat="45.6099403" lon="9.4269738"><ele>201.0</ele><time>2026-04-16T12:40:02.608Z</time></trkpt><trkpt lat="45.6099564" lon="9.4268542"><ele>201.33333333333331</ele><time>2026-04-16T12:40:05.608Z</time></trkpt><trkpt lat="45.6099595" lon="9.4267562"><ele>201.66666666666666</ele><time>2026-04-16T12:40:07.608Z</time></trkpt><trkpt lat="45.6099006" lon="9.4266638"><ele>202.0</ele><time>2026-04-16T12:40:10.608Z</time></trkpt><trkpt lat="45.609837" lon="9.4266476"><ele>202.0</ele><time>2026-04-16T12:40:12.608Z</time></trkpt><trkpt lat="45.6097689" lon="9.4266349"><ele>202.0</ele><time>2026-04-16T12:40:14.609Z</time></trkpt><trkpt lat="45.6097292" lon="9.426526"><ele>202.0</ele><time>2026-04-16T12:40:17.608Z</time></trkpt><trkpt lat="45.609733" lon="9.4264307"><ele>202.0</ele><time>2026-04-16T12:40:19.608Z</time></trkpt><trkpt lat="45.6097386" lon="9.4263253"><ele>202.0</ele><time>2026-04-16T12:40:21.608Z</time></trkpt><trkpt lat="45.609738" lon="9.4262145"><ele>202.0</ele><time>2026-04-16T12:40:23.608Z</time></trkpt><trkpt lat="45.6097098" lon="9.42613"><ele>202.0</ele><time>2026-04-16T12:40:25.609Z</time></trkpt><trkpt lat="45.6097016" lon="9.4260277"><ele>201.99999999999997</ele><time>2026-04-16T12:40:34.608Z</time></trkpt><trkpt lat="45.6096138" lon="9.4260062"><ele>202.0</ele><time>2026-04-16T12:40:38.609Z</time></trkpt><trkpt lat="45.6095508" lon="9.4260135"><ele>202.0</ele><time>2026-04-16T12:40:40.608Z</time></trkpt><trkpt lat="45.609487" lon="9.426035"><ele>202.0</ele><time>2026-04-16T12:40:42.608Z</time></trkpt><trkpt lat="45.6094111" lon="9.4260335"><ele>201.99999999999997</ele><time>2026-04-16T12:40:44.608Z</time></trkpt><trkpt lat="45.6093321" lon="9.4260269"><ele>202.0</ele><time>2026-04-16T12:40:46.609Z</time></trkpt><trkpt lat="45.6092494" lon="9.4260156"><ele>201.39999999999998</ele><time>2026-04-16T12:40:48.609Z</time></trkpt><trkpt lat="45.6091664" lon="9.4260114"><ele>200.79999999999998</ele><time>2026-04-16T12:40:50.608Z</time></trkpt><trkpt lat="45.609078" lon="9.4260162"><ele>200.2</ele><time>2026-04-16T12:40:52.608Z</time></trkpt><trkpt lat="45.6089922" lon="9.4260183"><ele>199.6</ele><time>2026-04-16T12:40:54.608Z</time></trkpt><trkpt lat="45.6088967" lon="9.4260114"><ele>199.0</ele><time>2026-04-16T12:40:56.609Z</time></trkpt><trkpt lat="45.6087988" lon="9.426005"><ele>199.0</ele><time>2026-04-16T12:40:58.608Z</time></trkpt><trkpt lat="45.6087032" lon="9.4260033"><ele>199.0</ele><time>2026-04-16T12:41:00.608Z</time></trkpt><trkpt lat="45.6086067" lon="9.4259958"><ele>199.0</ele><time>2026-04-16T12:41:02.608Z</time></trkpt><trkpt lat="45.6085114" lon="9.4259955"><ele>199.0</ele><time>2026-04-16T12:41:04.608Z</time></trkpt><trkpt lat="45.6084043" lon="9.4259883"><ele>199.0</ele><time>2026-04-16T12:41:06.608Z</time></trkpt><trkpt lat="45.6083017" lon="9.425984"><ele>198.39999999999998</ele><time>2026-04-16T12:41:08.608Z</time></trkpt><trkpt lat="45.6081975" lon="9.4259847"><ele>197.8</ele><time>2026-04-16T12:41:10.608Z</time></trkpt><trkpt lat="45.608095" lon="9.4259937"><ele>197.2</ele><time>2026-04-16T12:41:12.608Z</time></trkpt><trkpt lat="45.6079821" lon="9.425989"><ele>196.60000000000002</ele><time>2026-04-16T12:41:14.608Z</time></trkpt><trkpt lat="45.6078787" lon="9.4259794"><ele>196.0</ele><time>2026-04-16T12:41:16.609Z</time></trkpt><trkpt lat="45.6077682" lon="9.425968"><ele>195.8</ele><time>2026-04-16T12:41:18.608Z</time></trkpt><trkpt lat="45.6076572" lon="9.4259595"><ele>195.60000000000002</ele><time>2026-04-16T12:41:20.608Z</time></trkpt><trkpt lat="45.6075663" lon="9.4259581"><ele>195.4</ele><time>2026-04-16T12:41:22.608Z</time></trkpt><trkpt lat="45.6075006" lon="9.426025"><ele>195.2</ele><time>2026-04-16T12:41:24.608Z</time></trkpt><trkpt lat="45.6074697" lon="9.4261274"><ele>195.0</ele><time>2026-04-16T12:41:26.608Z</time></trkpt><trkpt lat="45.6074451" lon="9.4262528"><ele>195.0</ele><time>2026-04-16T12:41:28.608Z</time></trkpt><trkpt lat="45.6074286" lon="9.4263904"><ele>195.0</ele><time>2026-04-16T12:41:30.609Z</time></trkpt><trkpt lat="45.6074199" lon="9.4265346"><ele>195.0</ele><time>2026-04-16T12:41:32.609Z</time></trkpt><trkpt lat="45.6074158" lon="9.4266849"><ele>195.0</ele><time>2026-04-16T12:41:34.609Z</time></trkpt><trkpt lat="45.6074116" lon="9.4268313"><ele>195.0</ele><time>2026-04-16T12:41:36.608Z</time></trkpt><trkpt lat="45.6074126" lon="9.4269835"><ele>195.0</ele><time>2026-04-16T12:41:38.608Z</time></trkpt><trkpt lat="45.6074087" lon="9.4271372"><ele>195.0</ele><time>2026-04-16T12:41:40.608Z</time></trkpt><trkpt lat="45.6073916" lon="9.4272891"><ele>195.0</ele><time>2026-04-16T12:41:42.608Z</time></trkpt><trkpt lat="45.6073769" lon="9.4274452"><ele>195.0</ele><time>2026-04-16T12:41:44.609Z</time></trkpt><trkpt lat="45.6073508" lon="9.4275849"><ele>195.0</ele><time>2026-04-16T12:41:46.609Z</time></trkpt><trkpt lat="45.6073307" lon="9.427734"><ele>195.0</ele><time>2026-04-16T12:41:48.608Z</time></trkpt><trkpt lat="45.6073293" lon="9.4278887"><ele>195.0</ele><time>2026-04-16T12:41:50.608Z</time></trkpt><trkpt lat="45.6073291" lon="9.4280555"><ele>195.0</ele><time>2026-04-16T12:41:52.608Z</time></trkpt><trkpt lat="45.6073379" lon="9.4282071"><ele>195.0</ele><time>2026-04-16T12:41:54.608Z</time></trkpt><trkpt lat="45.6073289" lon="9.4283445"><ele>195.0</ele><time>2026-04-16T12:41:56.608Z</time></trkpt><trkpt lat="45.607315" lon="9.428482"><ele>195.0</ele><time>2026-04-16T12:41:58.608Z</time></trkpt><trkpt lat="45.6073128" lon="9.4286414"><ele>195.0</ele><time>2026-04-16T12:42:00.608Z</time></trkpt><trkpt lat="45.6073039" lon="9.4288002"><ele>195.0</ele><time>2026-04-16T12:42:02.609Z</time></trkpt><trkpt lat="45.6073059" lon="9.428961"><ele>195.0</ele><time>2026-04-16T12:42:04.609Z</time></trkpt><trkpt lat="45.6073102" lon="9.4291323"><ele>195.0</ele><time>2026-04-16T12:42:06.609Z</time></trkpt><trkpt lat="45.6073091" lon="9.429262"><ele>195.0</ele><time>2026-04-16T12:42:08.609Z</time></trkpt><trkpt lat="45.6072935" lon="9.4294282"><ele>195.0</ele><time>2026-04-16T12:42:10.608Z</time></trkpt><trkpt lat="45.6072771" lon="9.4295955"><ele>195.0</ele><time>2026-04-16T12:42:12.608Z</time></trkpt><trkpt lat="45.6072897" lon="9.4296883"><ele>195.0</ele><time>2026-04-16T12:42:13.609Z</time></trkpt><trkpt lat="45.6072788" lon="9.4298598"><ele>195.2</ele><time>2026-04-16T12:42:15.609Z</time></trkpt><trkpt lat="45.6072256" lon="9.4300232"><ele>195.4</ele><time>2026-04-16T12:42:17.608Z</time></trkpt><trkpt lat="45.6071485" lon="9.4301398"><ele>195.60000000000002</ele><time>2026-04-16T12:42:19.609Z</time></trkpt><trkpt lat="45.607076" lon="9.4302129"><ele>195.8</ele><time>2026-04-16T12:42:21.608Z</time></trkpt><trkpt lat="45.6070171" lon="9.4303636"><ele>196.0</ele><time>2026-04-16T12:42:23.608Z</time></trkpt><trkpt lat="45.6069991" lon="9.4304602"><ele>196.20000000000002</ele><time>2026-04-16T12:42:24.608Z</time></trkpt><trkpt lat="45.6070054" lon="9.4305536"><ele>196.4</ele><time>2026-04-16T12:42:25.608Z</time></trkpt><trkpt lat="45.6069954" lon="9.4306482"><ele>196.6</ele><time>2026-04-16T12:42:26.608Z</time></trkpt><trkpt lat="45.606966" lon="9.4308225"><ele>196.8</ele><time>2026-04-16T12:42:28.608Z</time></trkpt><trkpt lat="45.6069254" lon="9.4309595"><ele>197.0</ele><time>2026-04-16T12:42:30.608Z</time></trkpt><trkpt lat="45.6069137" lon="9.4310983"><ele>197.0</ele><time>2026-04-16T12:42:32.608Z</time></trkpt><trkpt lat="45.6069424" lon="9.4312146"><ele>197.0</ele><time>2026-04-16T12:42:34.609Z</time></trkpt><trkpt lat="45.6070747" lon="9.4312469"><ele>197.0</ele><time>2026-04-16T12:42:37.608Z</time></trkpt><trkpt lat="45.6071312" lon="9.4312905"><ele>197.0</ele><time>2026-04-16T12:42:38.608Z</time></trkpt><trkpt lat="45.6072003" lon="9.4313525"><ele>197.0</ele><time>2026-04-16T12:42:40.608Z</time></trkpt><trkpt lat="45.6072697" lon="9.4314375"><ele>197.00000000000003</ele><time>2026-04-16T12:42:42.608Z</time></trkpt><trkpt lat="45.6072965" lon="9.4315639"><ele>197.0</ele><time>2026-04-16T12:42:44.608Z</time></trkpt><trkpt lat="45.6072937" lon="9.4316588"><ele>197.0</ele><time>2026-04-16T12:42:46.608Z</time></trkpt><trkpt lat="45.607302" lon="9.4317559"><ele>197.0</ele><time>2026-04-16T12:42:48.608Z</time></trkpt><trkpt lat="45.6073459" lon="9.4318332"><ele>197.00000000000003</ele><time>2026-04-16T12:42:50.608Z</time></trkpt><trkpt lat="45.6074046" lon="9.4318687"><ele>197.0</ele><time>2026-04-16T12:42:51.608Z</time></trkpt><trkpt lat="45.6075193" lon="9.4319242"><ele>197.0</ele><time>2026-04-16T12:42:53.608Z</time></trkpt><trkpt lat="45.6075813" lon="9.4319483"><ele>197.0</ele><time>2026-04-16T12:42:54.608Z</time></trkpt><trkpt lat="45.6076465" lon="9.4319738"><ele>197.0</ele><time>2026-04-16T12:42:55.608Z</time></trkpt><trkpt lat="45.6077579" lon="9.4320201"><ele>197.0</ele><time>2026-04-16T12:42:57.608Z</time></trkpt><trkpt lat="45.6078572" lon="9.4320584"><ele>197.0</ele><time>2026-04-16T12:42:59.608Z</time></trkpt><trkpt lat="45.6079632" lon="9.4320557"><ele>197.2</ele><time>2026-04-16T12:43:01.608Z</time></trkpt><trkpt lat="45.6080693" lon="9.4320035"><ele>197.39999999999998</ele><time>2026-04-16T12:43:03.608Z</time></trkpt><trkpt lat="45.6081633" lon="9.4319254"><ele>197.60000000000002</ele><time>2026-04-16T12:43:05.608Z</time></trkpt><trkpt lat="45.6082788" lon="9.4318658"><ele>197.8</ele><time>2026-04-16T12:43:07.608Z</time></trkpt><trkpt lat="45.6083575" lon="9.4318564"><ele>198.0</ele><time>2026-04-16T12:43:08.608Z</time></trkpt><trkpt lat="45.6084404" lon="9.4318548"><ele>198.0</ele><time>2026-04-16T12:43:09.609Z</time></trkpt><trkpt lat="45.6085142" lon="9.4318557"><ele>198.0</ele><time>2026-04-16T12:43:10.608Z</time></trkpt><trkpt lat="45.60858" lon="9.4318658"><ele>198.0</ele><time>2026-04-16T12:43:11.608Z</time></trkpt><trkpt lat="45.6086706" lon="9.4318659"><ele>198.0</ele><time>2026-04-16T12:43:12.608Z</time></trkpt><trkpt lat="45.6087339" lon="9.431887"><ele>198.0</ele><time>2026-04-16T12:43:13.609Z</time></trkpt><trkpt lat="45.6087946" lon="9.4319137"><ele>198.0</ele><time>2026-04-16T12:43:14.608Z</time></trkpt><trkpt lat="45.6088555" lon="9.4319414"><ele>198.0</ele><time>2026-04-16T12:43:15.608Z</time></trkpt><trkpt lat="45.6089264" lon="9.4319741"><ele>197.5</ele><time>2026-04-16T12:43:16.608Z</time></trkpt><trkpt lat="45.6090343" lon="9.4320319"><ele>197.0</ele><time>2026-04-16T12:43:18.608Z</time></trkpt><trkpt lat="45.6091473" lon="9.4320935"><ele>196.5</ele><time>2026-04-16T12:43:20.609Z</time></trkpt><trkpt lat="45.6092623" lon="9.4321433"><ele>196.0</ele><time>2026-04-16T12:43:22.608Z</time></trkpt><trkpt lat="45.6093797" lon="9.4322037"><ele>196.0</ele><time>2026-04-16T12:43:24.608Z</time></trkpt><trkpt lat="45.6094909" lon="9.4322449"><ele>196.0</ele><time>2026-04-16T12:43:26.608Z</time></trkpt><trkpt lat="45.6096001" lon="9.4322701"><ele>196.0</ele><time>2026-04-16T12:43:28.608Z</time></trkpt><trkpt lat="45.6096676" lon="9.4322831"><ele>196.0</ele><time>2026-04-16T12:43:29.608Z</time></trkpt><trkpt lat="45.6097798" lon="9.4323228"><ele>196.0</ele><time>2026-04-16T12:43:31.608Z</time></trkpt><trkpt lat="45.609891" lon="9.432319"><ele>196.0</ele><time>2026-04-16T12:43:33.609Z</time></trkpt><trkpt lat="45.6099904" lon="9.4322705"><ele>196.0</ele><time>2026-04-16T12:43:35.608Z</time></trkpt><trkpt lat="45.6101091" lon="9.4322528"><ele>196.0</ele><time>2026-04-16T12:43:37.608Z</time></trkpt><trkpt lat="45.6102243" lon="9.4322789"><ele>196.0</ele><time>2026-04-16T12:43:39.609Z</time></trkpt><trkpt lat="45.6103332" lon="9.4322443"><ele>196.20000000000002</ele><time>2026-04-16T12:43:41.608Z</time></trkpt><trkpt lat="45.6104117" lon="9.4321583"><ele>196.4</ele><time>2026-04-16T12:43:43.608Z</time></trkpt><trkpt lat="45.6105027" lon="9.4320701"><ele>196.6</ele><time>2026-04-16T12:43:45.608Z</time></trkpt><trkpt lat="45.6105969" lon="9.4319866"><ele>196.8</ele><time>2026-04-16T12:43:47.609Z</time></trkpt><trkpt lat="45.6107051" lon="9.4319525"><ele>197.0</ele><time>2026-04-16T12:43:49.608Z</time></trkpt><trkpt lat="45.6108154" lon="9.4319592"><ele>197.39999999999998</ele><time>2026-04-16T12:43:51.608Z</time></trkpt><trkpt lat="45.610923" lon="9.4319792"><ele>197.79999999999998</ele><time>2026-04-16T12:43:53.609Z</time></trkpt><trkpt lat="45.6110301" lon="9.4320003"><ele>198.2</ele><time>2026-04-16T12:43:55.608Z</time></trkpt><trkpt lat="45.611132" lon="9.4320255"><ele>198.6</ele><time>2026-04-16T12:43:57.609Z</time></trkpt><trkpt lat="45.6112412" lon="9.4320199"><ele>199.0</ele><time>2026-04-16T12:43:59.608Z</time></trkpt><trkpt lat="45.611352" lon="9.4320122"><ele>199.75</ele><time>2026-04-16T12:44:01.608Z</time></trkpt><trkpt lat="45.6114789" lon="9.4320173"><ele>200.5</ele><time>2026-04-16T12:44:03.608Z</time></trkpt><trkpt lat="45.611661" lon="9.4321113"><ele>201.25</ele><time>2026-04-16T12:44:07.608Z</time></trkpt><trkpt lat="45.6117334" lon="9.4322038"><ele>202.0</ele><time>2026-04-16T12:44:09.608Z</time></trkpt><trkpt lat="45.61179" lon="9.4322539"><ele>202.0</ele><time>2026-04-16T12:44:10.608Z</time></trkpt><trkpt lat="45.6118524" lon="9.4322753"><ele>202.0</ele><time>2026-04-16T12:44:11.609Z</time></trkpt><trkpt lat="45.611969" lon="9.4322779"><ele>202.0</ele><time>2026-04-16T12:44:13.608Z</time></trkpt><trkpt lat="45.6120937" lon="9.4322944"><ele>202.0</ele><time>2026-04-16T12:44:15.609Z</time></trkpt><trkpt lat="45.6122154" lon="9.4323074"><ele>202.0</ele><time>2026-04-16T12:44:17.609Z</time></trkpt><trkpt lat="45.6123428" lon="9.4323381"><ele>202.2</ele><time>2026-04-16T12:44:19.608Z</time></trkpt><trkpt lat="45.6124711" lon="9.4323526"><ele>202.39999999999998</ele><time>2026-04-16T12:44:21.609Z</time></trkpt><trkpt lat="45.6125352" lon="9.4323633"><ele>202.60000000000002</ele><time>2026-04-16T12:44:22.608Z</time></trkpt><trkpt lat="45.6126516" lon="9.4323874"><ele>202.8</ele><time>2026-04-16T12:44:24.609Z</time></trkpt><trkpt lat="45.612764" lon="9.4324315"><ele>203.0</ele><time>2026-04-16T12:44:26.608Z</time></trkpt><trkpt lat="45.6128827" lon="9.4324827"><ele>203.0</ele><time>2026-04-16T12:44:28.608Z</time></trkpt><trkpt lat="45.6129956" lon="9.4325319"><ele>203.0</ele><time>2026-04-16T12:44:30.609Z</time></trkpt><trkpt lat="45.6131102" lon="9.4325888"><ele>203.0</ele><time>2026-04-16T12:44:32.608Z</time></trkpt><trkpt lat="45.6132224" lon="9.4326478"><ele>203.0</ele><time>2026-04-16T12:44:34.608Z</time></trkpt><trkpt lat="45.6133381" lon="9.4327027"><ele>203.0</ele><time>2026-04-16T12:44:36.609Z</time></trkpt><trkpt lat="45.6133994" lon="9.4327263"><ele>203.0</ele><time>2026-04-16T12:44:37.608Z</time></trkpt><trkpt lat="45.61346" lon="9.4327585"><ele>203.0</ele><time>2026-04-16T12:44:38.608Z</time></trkpt><trkpt lat="45.6135804" lon="9.4328115"><ele>203.0</ele><time>2026-04-16T12:44:40.608Z</time></trkpt><trkpt lat="45.6137022" lon="9.4328395"><ele>203.0</ele><time>2026-04-16T12:44:42.608Z</time></trkpt><trkpt lat="45.6138064" lon="9.4328007"><ele>203.0</ele><time>2026-04-16T12:44:44.608Z</time></trkpt><trkpt lat="45.6139107" lon="9.4327523"><ele>203.0</ele><time>2026-04-16T12:44:46.608Z</time></trkpt><trkpt lat="45.6140327" lon="9.4327669"><ele>203.0</ele><time>2026-04-16T12:44:48.609Z</time></trkpt><trkpt lat="45.6141404" lon="9.4328138"><ele>203.0</ele><time>2026-04-16T12:44:50.609Z</time></trkpt><trkpt lat="45.6142522" lon="9.4328666"><ele>203.0</ele><time>2026-04-16T12:44:52.609Z</time></trkpt><trkpt lat="45.614362" lon="9.432919"><ele>203.0</ele><time>2026-04-16T12:44:54.608Z</time></trkpt><trkpt lat="45.6144696" lon="9.4329798"><ele>203.0</ele><time>2026-04-16T12:44:56.609Z</time></trkpt><trkpt lat="45.6145718" lon="9.4330482"><ele>203.0</ele><time>2026-04-16T12:44:58.608Z</time></trkpt><trkpt lat="45.614668" lon="9.4330956"><ele>203.0</ele><time>2026-04-16T12:45:00.609Z</time></trkpt><trkpt lat="45.6147764" lon="9.433138"><ele>203.4</ele><time>2026-04-16T12:45:02.609Z</time></trkpt><trkpt lat="45.6148826" lon="9.4331697"><ele>203.8</ele><time>2026-04-16T12:45:04.608Z</time></trkpt><trkpt lat="45.6149788" lon="9.4332434"><ele>204.2</ele><time>2026-04-16T12:45:06.608Z</time></trkpt><trkpt lat="45.615079" lon="9.4332934"><ele>204.6</ele><time>2026-04-16T12:45:08.608Z</time></trkpt><trkpt lat="45.6151905" lon="9.4333521"><ele>205.0</ele><time>2026-04-16T12:45:10.608Z</time></trkpt><trkpt lat="45.6153031" lon="9.4334034"><ele>204.8</ele><time>2026-04-16T12:45:12.609Z</time></trkpt><trkpt lat="45.6154086" lon="9.4334539"><ele>204.6</ele><time>2026-04-16T12:45:14.608Z</time></trkpt><trkpt lat="45.6155133" lon="9.4334972"><ele>204.39999999999998</ele><time>2026-04-16T12:45:16.608Z</time></trkpt><trkpt lat="45.6155877" lon="9.4334765"><ele>204.2</ele><time>2026-04-16T12:45:18.608Z</time></trkpt><trkpt lat="45.6156077" lon="9.4333731"><ele>204.0</ele><time>2026-04-16T12:45:20.608Z</time></trkpt><trkpt lat="45.6156" lon="9.4332285"><ele>204.0</ele><time>2026-04-16T12:45:22.609Z</time></trkpt><trkpt lat="45.6156042" lon="9.4330903"><ele>204.0</ele><time>2026-04-16T12:45:24.609Z</time></trkpt><trkpt lat="45.6156364" lon="9.4329771"><ele>204.0</ele><time>2026-04-16T12:45:26.608Z</time></trkpt><trkpt lat="45.6156862" lon="9.4329013"><ele>204.0</ele><time>2026-04-16T12:45:28.609Z</time></trkpt><trkpt lat="45.6159022" lon="9.4324549"><ele>204.0</ele><time>2026-04-16T12:45:39.619Z</time></trkpt><trkpt lat="45.6159439" lon="9.4323071"><ele>204.0</ele><time>2026-04-16T12:45:41.62Z</time></trkpt><trkpt lat="45.6159556" lon="9.4321675"><ele>204.0</ele><time>2026-04-16T12:45:43.616Z</time></trkpt><trkpt lat="45.615985" lon="9.4320443"><ele>204.0</ele><time>2026-04-16T12:45:45.616Z</time></trkpt><trkpt lat="45.6160604" lon="9.4320176"><ele>204.0</ele><time>2026-04-16T12:45:47.617Z</time></trkpt><trkpt lat="45.6161283" lon="9.4320634"><ele>204.0</ele><time>2026-04-16T12:45:49.616Z</time></trkpt><trkpt lat="45.6161441" lon="9.432177"><ele>204.0</ele><time>2026-04-16T12:45:51.616Z</time></trkpt><trkpt lat="45.6161414" lon="9.4323038"><ele>204.0</ele><time>2026-04-16T12:45:53.616Z</time></trkpt><trkpt lat="45.6161468" lon="9.4324404"><ele>204.0</ele><time>2026-04-16T12:45:55.617Z</time></trkpt><trkpt lat="45.6161598" lon="9.432587"><ele>204.0</ele><time>2026-04-16T12:45:57.616Z</time></trkpt><trkpt lat="45.6161753" lon="9.4327289"><ele>204.25</ele><time>2026-04-16T12:45:59.617Z</time></trkpt><trkpt lat="45.6161939" lon="9.4328846"><ele>204.5</ele><time>2026-04-16T12:46:01.617Z</time></trkpt><trkpt lat="45.6162108" lon="9.4330384"><ele>204.75</ele><time>2026-04-16T12:46:03.617Z</time></trkpt><trkpt lat="45.6162254" lon="9.433199"><ele>205.0</ele><time>2026-04-16T12:46:05.617Z</time></trkpt><trkpt lat="45.6162549" lon="9.4333735"><ele>204.99999999999997</ele><time>2026-04-16T12:46:07.617Z</time></trkpt><trkpt lat="45.6162771" lon="9.4334597"><ele>205.0</ele><time>2026-04-16T12:46:08.616Z</time></trkpt><trkpt lat="45.6163035" lon="9.4335441"><ele>205.0</ele><time>2026-04-16T12:46:09.616Z</time></trkpt><trkpt lat="45.6163276" lon="9.4336289"><ele>205.0</ele><time>2026-04-16T12:46:10.616Z</time></trkpt><trkpt lat="45.6163908" lon="9.4337768"><ele>204.99999999999997</ele><time>2026-04-16T12:46:12.617Z</time></trkpt><trkpt lat="45.6164724" lon="9.4338915"><ele>205.0</ele><time>2026-04-16T12:46:14.616Z</time></trkpt><trkpt lat="45.6165856" lon="9.433938"><ele>205.0</ele><time>2026-04-16T12:46:16.616Z</time></trkpt><trkpt lat="45.6166967" lon="9.4339008"><ele>205.0</ele><time>2026-04-16T12:46:18.617Z</time></trkpt><trkpt lat="45.6167822" lon="9.4338079"><ele>205.0</ele><time>2026-04-16T12:46:20.616Z</time></trkpt><trkpt lat="45.616854" lon="9.4336668"><ele>205.0</ele><time>2026-04-16T12:46:22.616Z</time></trkpt><trkpt lat="45.6169005" lon="9.4336015"><ele>205.0</ele><time>2026-04-16T12:46:23.616Z</time></trkpt><trkpt lat="45.6169519" lon="9.4335418"><ele>205.16666666666666</ele><time>2026-04-16T12:46:24.617Z</time></trkpt><trkpt lat="45.6169957" lon="9.4334717"><ele>205.33333333333331</ele><time>2026-04-16T12:46:25.616Z</time></trkpt><trkpt lat="45.6170787" lon="9.4333339"><ele>205.5</ele><time>2026-04-16T12:46:27.617Z</time></trkpt><trkpt lat="45.6171215" lon="9.4332654"><ele>205.66666666666669</ele><time>2026-04-16T12:46:28.616Z</time></trkpt><trkpt lat="45.6171685" lon="9.4332004"><ele>205.83333333333334</ele><time>2026-04-16T12:46:29.616Z</time></trkpt><trkpt lat="45.6172487" lon="9.4330707"><ele>206.0</ele><time>2026-04-16T12:46:31.616Z</time></trkpt><trkpt lat="45.6172933" lon="9.4329976"><ele>206.0</ele><time>2026-04-16T12:46:32.616Z</time></trkpt><trkpt lat="45.6173405" lon="9.432919"><ele>206.0</ele><time>2026-04-16T12:46:33.616Z</time></trkpt><trkpt lat="45.6174217" lon="9.4327847"><ele>206.0</ele><time>2026-04-16T12:46:35.616Z</time></trkpt><trkpt lat="45.617496" lon="9.4326679"><ele>206.0</ele><time>2026-04-16T12:46:37.616Z</time></trkpt><trkpt lat="45.6175579" lon="9.4325367"><ele>206.0</ele><time>2026-04-16T12:46:39.616Z</time></trkpt><trkpt lat="45.6176171" lon="9.4323883"><ele>206.0</ele><time>2026-04-16T12:46:41.616Z</time></trkpt><trkpt lat="45.6176754" lon="9.4322441"><ele>206.0</ele><time>2026-04-16T12:46:43.616Z</time></trkpt><trkpt lat="45.6177293" lon="9.432093"><ele>206.0</ele><time>2026-04-16T12:46:45.616Z</time></trkpt><trkpt lat="45.6177757" lon="9.4319325"><ele>206.0</ele><time>2026-04-16T12:46:47.616Z</time></trkpt><trkpt lat="45.6178163" lon="9.4318443"><ele>206.0</ele><time>2026-04-16T12:46:48.616Z</time></trkpt><trkpt lat="45.6178726" lon="9.4316792"><ele>206.20000000000002</ele><time>2026-04-16T12:46:50.616Z</time></trkpt><trkpt lat="45.6179081" lon="9.4315985"><ele>206.4</ele><time>2026-04-16T12:46:51.616Z</time></trkpt><trkpt lat="45.6179615" lon="9.4314485"><ele>206.6</ele><time>2026-04-16T12:46:53.616Z</time></trkpt><trkpt lat="45.6179924" lon="9.4313642"><ele>206.8</ele><time>2026-04-16T12:46:54.616Z</time></trkpt><trkpt lat="45.6180193" lon="9.4312741"><ele>207.0</ele><time>2026-04-16T12:46:55.616Z</time></trkpt><trkpt lat="45.6180824" lon="9.4311094"><ele>207.16666666666666</ele><time>2026-04-16T12:46:57.616Z</time></trkpt><trkpt lat="45.6181189" lon="9.4310348"><ele>207.33333333333331</ele><time>2026-04-16T12:46:58.617Z</time></trkpt><trkpt lat="45.6181591" lon="9.4309594"><ele>207.5</ele><time>2026-04-16T12:46:59.616Z</time></trkpt><trkpt lat="45.6182374" lon="9.4308219"><ele>207.66666666666666</ele><time>2026-04-16T12:47:01.617Z</time></trkpt><trkpt lat="45.6182851" lon="9.4307627"><ele>207.83333333333331</ele><time>2026-04-16T12:47:02.616Z</time></trkpt><trkpt lat="45.6183861" lon="9.4306719"><ele>208.0</ele><time>2026-04-16T12:47:04.617Z</time></trkpt><trkpt lat="45.6184502" lon="9.4306465"><ele>208.0</ele><time>2026-04-16T12:47:05.616Z</time></trkpt><trkpt lat="45.6185762" lon="9.4306037"><ele>208.0</ele><time>2026-04-16T12:47:07.616Z</time></trkpt><trkpt lat="45.6186974" lon="9.4305577"><ele>208.0</ele><time>2026-04-16T12:47:09.616Z</time></trkpt><trkpt lat="45.6187602" lon="9.4305291"><ele>208.0</ele><time>2026-04-16T12:47:10.617Z</time></trkpt><trkpt lat="45.6188199" lon="9.4304988"><ele>208.0</ele><time>2026-04-16T12:47:11.616Z</time></trkpt><trkpt lat="45.6188844" lon="9.4304737"><ele>207.99999999999997</ele><time>2026-04-16T12:47:12.617Z</time></trkpt><trkpt lat="45.6189479" lon="9.4304489"><ele>208.0</ele><time>2026-04-16T12:47:13.616Z</time></trkpt><trkpt lat="45.6190179" lon="9.4304227"><ele>208.0</ele><time>2026-04-16T12:47:14.616Z</time></trkpt><trkpt lat="45.6191338" lon="9.4303757"><ele>208.0</ele><time>2026-04-16T12:47:16.616Z</time></trkpt><trkpt lat="45.6192499" lon="9.4303171"><ele>207.99999999999997</ele><time>2026-04-16T12:47:18.616Z</time></trkpt><trkpt lat="45.6193067" lon="9.4302767"><ele>208.0</ele><time>2026-04-16T12:47:19.617Z</time></trkpt><trkpt lat="45.6193626" lon="9.4302324"><ele>208.4</ele><time>2026-04-16T12:47:20.617Z</time></trkpt><trkpt lat="45.6194864" lon="9.4301284"><ele>208.8</ele><time>2026-04-16T12:47:22.616Z</time></trkpt><trkpt lat="45.6195881" lon="9.4300334"><ele>209.2</ele><time>2026-04-16T12:47:24.617Z</time></trkpt><trkpt lat="45.6196473" lon="9.4299688"><ele>209.6</ele><time>2026-04-16T12:47:25.616Z</time></trkpt><trkpt lat="45.6196903" lon="9.4299022"><ele>210.0</ele><time>2026-04-16T12:47:26.617Z</time></trkpt><trkpt lat="45.6197208" lon="9.4298229"><ele>210.0</ele><time>2026-04-16T12:47:27.617Z</time></trkpt><trkpt lat="45.6197562" lon="9.4296602"><ele>210.0</ele><time>2026-04-16T12:47:29.617Z</time></trkpt><trkpt lat="45.6197838" lon="9.4294892"><ele>210.0</ele><time>2026-04-16T12:47:31.617Z</time></trkpt><trkpt lat="45.6198033" lon="9.4294005"><ele>210.0</ele><time>2026-04-16T12:47:32.616Z</time></trkpt><trkpt lat="45.6198167" lon="9.4293106"><ele>210.0</ele><time>2026-04-16T12:47:33.616Z</time></trkpt><trkpt lat="45.6198567" lon="9.4291327"><ele>209.71428571428572</ele><time>2026-04-16T12:47:35.617Z</time></trkpt><trkpt lat="45.6198856" lon="9.4290463"><ele>209.42857142857144</ele><time>2026-04-16T12:47:36.616Z</time></trkpt><trkpt lat="45.6198966" lon="9.4289562"><ele>209.14285714285714</ele><time>2026-04-16T12:47:37.616Z</time></trkpt><trkpt lat="45.6199135" lon="9.4288643"><ele>208.85714285714286</ele><time>2026-04-16T12:47:38.617Z</time></trkpt><trkpt lat="45.6199351" lon="9.4287716"><ele>208.57142857142858</ele><time>2026-04-16T12:47:39.616Z</time></trkpt><trkpt lat="45.6199479" lon="9.428683"><ele>208.28571428571428</ele><time>2026-04-16T12:47:40.616Z</time></trkpt><trkpt lat="45.6199554" lon="9.4285932"><ele>208.0</ele><time>2026-04-16T12:47:41.616Z</time></trkpt><trkpt lat="45.6199363" lon="9.4284235"><ele>207.99999999999997</ele><time>2026-04-16T12:47:43.616Z</time></trkpt><trkpt lat="45.6198792" lon="9.4282656"><ele>208.0</ele><time>2026-04-16T12:47:45.617Z</time></trkpt><trkpt lat="45.6198419" lon="9.4281892"><ele>208.0</ele><time>2026-04-16T12:47:46.616Z</time></trkpt><trkpt lat="45.6198" lon="9.4281158"><ele>208.0</ele><time>2026-04-16T12:47:47.616Z</time></trkpt><trkpt lat="45.6197514" lon="9.4280501"><ele>207.99999999999997</ele><time>2026-04-16T12:47:48.616Z</time></trkpt><trkpt lat="45.6197094" lon="9.42798"><ele>208.0</ele><time>2026-04-16T12:47:49.616Z</time></trkpt><trkpt lat="45.6196208" lon="9.4278535"><ele>208.0</ele><time>2026-04-16T12:47:51.617Z</time></trkpt><trkpt lat="45.6195454" lon="9.4277235"><ele>208.0</ele><time>2026-04-16T12:47:53.617Z</time></trkpt><trkpt lat="45.6194715" lon="9.4275933"><ele>208.0</ele><time>2026-04-16T12:47:55.616Z</time></trkpt><trkpt lat="45.6194278" lon="9.4274462"><ele>208.0</ele><time>2026-04-16T12:47:57.616Z</time></trkpt><trkpt lat="45.6194129" lon="9.4273575"><ele>208.0</ele><time>2026-04-16T12:47:58.617Z</time></trkpt><trkpt lat="45.619418" lon="9.4271825"><ele>208.2</ele><time>2026-04-16T12:48:00.616Z</time></trkpt><trkpt lat="45.6194158" lon="9.4270206"><ele>208.4</ele><time>2026-04-16T12:48:02.616Z</time></trkpt><trkpt lat="45.6194261" lon="9.4268387"><ele>208.6</ele><time>2026-04-16T12:48:04.616Z</time></trkpt><trkpt lat="45.6194297" lon="9.4267488"><ele>208.79999999999998</ele><time>2026-04-16T12:48:05.616Z</time></trkpt><trkpt lat="45.6194295" lon="9.4266486"><ele>209.0</ele><time>2026-04-16T12:48:06.616Z</time></trkpt><trkpt lat="45.6194289" lon="9.4264751"><ele>209.0</ele><time>2026-04-16T12:48:08.616Z</time></trkpt><trkpt lat="45.6194374" lon="9.4263842"><ele>209.0</ele><time>2026-04-16T12:48:09.616Z</time></trkpt><trkpt lat="45.6194394" lon="9.4262093"><ele>209.0</ele><time>2026-04-16T12:48:11.616Z</time></trkpt><trkpt lat="45.6194437" lon="9.4260371"><ele>209.0</ele><time>2026-04-16T12:48:13.616Z</time></trkpt><trkpt lat="45.6194387" lon="9.4259442"><ele>209.0</ele><time>2026-04-16T12:48:14.616Z</time></trkpt><trkpt lat="45.6194576" lon="9.4257979"><ele>209.0</ele><time>2026-04-16T12:48:16.616Z</time></trkpt><trkpt lat="45.6194714" lon="9.4256354"><ele>209.0</ele><time>2026-04-16T12:48:18.616Z</time></trkpt><trkpt lat="45.6194783" lon="9.4254664"><ele>209.0</ele><time>2026-04-16T12:48:20.616Z</time></trkpt><trkpt lat="45.619488" lon="9.425284"><ele>209.0</ele><time>2026-04-16T12:48:22.616Z</time></trkpt><trkpt lat="45.6194925" lon="9.4251816"><ele>209.0</ele><time>2026-04-16T12:48:23.616Z</time></trkpt><trkpt lat="45.6195007" lon="9.425018"><ele>209.0</ele><time>2026-04-16T12:48:25.616Z</time></trkpt><trkpt lat="45.619503" lon="9.4249244"><ele>209.0</ele><time>2026-04-16T12:48:26.616Z</time></trkpt><trkpt lat="45.6195074" lon="9.424829"><ele>209.0</ele><time>2026-04-16T12:48:27.616Z</time></trkpt><trkpt lat="45.619503" lon="9.4246538"><ele>209.0</ele><time>2026-04-16T12:48:29.616Z</time></trkpt><trkpt lat="45.6195133" lon="9.4244783"><ele>209.0</ele><time>2026-04-16T12:48:31.616Z</time></trkpt><trkpt lat="45.6195106" lon="9.4243115"><ele>209.00000000000003</ele><time>2026-04-16T12:48:33.616Z</time></trkpt><trkpt lat="45.6195102" lon="9.4242187"><ele>209.0</ele><time>2026-04-16T12:48:34.617Z</time></trkpt><trkpt lat="45.6195167" lon="9.4241262"><ele>209.0</ele><time>2026-04-16T12:48:35.617Z</time></trkpt><trkpt lat="45.6195254" lon="9.4240257"><ele>209.0</ele><time>2026-04-16T12:48:36.617Z</time></trkpt><trkpt lat="45.6195353" lon="9.4238608"><ele>209.00000000000003</ele><time>2026-04-16T12:48:38.616Z</time></trkpt><trkpt lat="45.6195433" lon="9.4236956"><ele>209.0</ele><time>2026-04-16T12:48:40.616Z</time></trkpt><trkpt lat="45.6195541" lon="9.4235731"><ele>209.16666666666669</ele><time>2026-04-16T12:48:42.616Z</time></trkpt><trkpt lat="45.6195902" lon="9.4234799"><ele>209.33333333333334</ele><time>2026-04-16T12:48:44.616Z</time></trkpt><trkpt lat="45.6196583" lon="9.423424"><ele>209.5</ele><time>2026-04-16T12:48:46.617Z</time></trkpt><trkpt lat="45.6197239" lon="9.4233872"><ele>209.66666666666669</ele><time>2026-04-16T12:48:47.617Z</time></trkpt><trkpt lat="45.619828" lon="9.4233675"><ele>209.83333333333334</ele><time>2026-04-16T12:48:49.616Z</time></trkpt><trkpt lat="45.6199413" lon="9.4233452"><ele>210.0</ele><time>2026-04-16T12:48:51.617Z</time></trkpt><trkpt lat="45.6200507" lon="9.423311"><ele>210.0</ele><time>2026-04-16T12:48:53.617Z</time></trkpt><trkpt lat="45.6201645" lon="9.423274"><ele>210.0</ele><time>2026-04-16T12:48:55.616Z</time></trkpt><trkpt lat="45.6202844" lon="9.42324"><ele>210.0</ele><time>2026-04-16T12:48:57.616Z</time></trkpt><trkpt lat="45.6204082" lon="9.423195"><ele>210.0</ele><time>2026-04-16T12:48:59.616Z</time></trkpt><trkpt lat="45.6205239" lon="9.4231552"><ele>210.2</ele><time>2026-04-16T12:49:01.617Z</time></trkpt><trkpt lat="45.6205882" lon="9.4231271"><ele>210.4</ele><time>2026-04-16T12:49:02.616Z</time></trkpt><trkpt lat="45.6207028" lon="9.4230716"><ele>210.60000000000002</ele><time>2026-04-16T12:49:04.616Z</time></trkpt><trkpt lat="45.6208202" lon="9.4230235"><ele>210.8</ele><time>2026-04-16T12:49:06.617Z</time></trkpt><trkpt lat="45.6209342" lon="9.4229617"><ele>211.0</ele><time>2026-04-16T12:49:08.616Z</time></trkpt><trkpt lat="45.6210372" lon="9.4228791"><ele>210.99999999999997</ele><time>2026-04-16T12:49:10.616Z</time></trkpt><trkpt lat="45.621103" lon="9.4228407"><ele>211.0</ele><time>2026-04-16T12:49:11.616Z</time></trkpt><trkpt lat="45.6211617" lon="9.4227966"><ele>211.0</ele><time>2026-04-16T12:49:12.617Z</time></trkpt><trkpt lat="45.621218" lon="9.4227529"><ele>211.0</ele><time>2026-04-16T12:49:13.617Z</time></trkpt><trkpt lat="45.6213311" lon="9.4226648"><ele>210.99999999999997</ele><time>2026-04-16T12:49:15.616Z</time></trkpt><trkpt lat="45.6213872" lon="9.4226166"><ele>211.0</ele><time>2026-04-16T12:49:16.617Z</time></trkpt><trkpt lat="45.6214469" lon="9.4225726"><ele>210.99999999999997</ele><time>2026-04-16T12:49:17.616Z</time></trkpt><trkpt lat="45.6215481" lon="9.4224748"><ele>211.0</ele><time>2026-04-16T12:49:19.617Z</time></trkpt><trkpt lat="45.6216053" lon="9.4224167"><ele>211.0</ele><time>2026-04-16T12:49:20.617Z</time></trkpt><trkpt lat="45.6216638" lon="9.4223656"><ele>211.0</ele><time>2026-04-16T12:49:21.616Z</time></trkpt><trkpt lat="45.621723" lon="9.4223139"><ele>210.99999999999997</ele><time>2026-04-16T12:49:22.616Z</time></trkpt><trkpt lat="45.6217813" lon="9.4222569"><ele>211.0</ele><time>2026-04-16T12:49:23.616Z</time></trkpt><trkpt lat="45.6218379" lon="9.4222032"><ele>211.0</ele><time>2026-04-16T12:49:24.617Z</time></trkpt><trkpt lat="45.6218988" lon="9.4221447"><ele>211.0</ele><time>2026-04-16T12:49:25.616Z</time></trkpt><trkpt lat="45.6219569" lon="9.4220872"><ele>211.0</ele><time>2026-04-16T12:49:26.617Z</time></trkpt><trkpt lat="45.6220092" lon="9.4220311"><ele>211.0</ele><time>2026-04-16T12:49:27.616Z</time></trkpt><trkpt lat="45.6220673" lon="9.4219706"><ele>211.0</ele><time>2026-04-16T12:49:28.616Z</time></trkpt><trkpt lat="45.6221193" lon="9.4219077"><ele>211.0</ele><time>2026-04-16T12:49:29.616Z</time></trkpt><trkpt lat="45.6221674" lon="9.4218388"><ele>211.0</ele><time>2026-04-16T12:49:30.616Z</time></trkpt><trkpt lat="45.6222154" lon="9.4217773"><ele>210.99999999999997</ele><time>2026-04-16T12:49:31.617Z</time></trkpt><trkpt lat="45.6222644" lon="9.4217084"><ele>211.0</ele><time>2026-04-16T12:49:32.617Z</time></trkpt><trkpt lat="45.6223209" lon="9.4216408"><ele>211.0</ele><time>2026-04-16T12:49:33.617Z</time></trkpt><trkpt lat="45.6223698" lon="9.421572"><ele>211.0</ele><time>2026-04-16T12:49:34.617Z</time></trkpt><trkpt lat="45.6224182" lon="9.4215067"><ele>210.99999999999997</ele><time>2026-04-16T12:49:35.616Z</time></trkpt><trkpt lat="45.6224666" lon="9.4214282"><ele>211.0</ele><time>2026-04-16T12:49:36.616Z</time></trkpt><trkpt lat="45.6225548" lon="9.4212885"><ele>211.16666666666666</ele><time>2026-04-16T12:49:38.616Z</time></trkpt><trkpt lat="45.622603" lon="9.4212148"><ele>211.33333333333331</ele><time>2026-04-16T12:49:39.616Z</time></trkpt><trkpt lat="45.6226542" lon="9.4211413"><ele>211.5</ele><time>2026-04-16T12:49:40.616Z</time></trkpt><trkpt lat="45.6227089" lon="9.4210743"><ele>211.66666666666669</ele><time>2026-04-16T12:49:41.616Z</time></trkpt><trkpt lat="45.6227576" lon="9.4210061"><ele>211.83333333333334</ele><time>2026-04-16T12:49:42.616Z</time></trkpt><trkpt lat="45.6228506" lon="9.4208801"><ele>212.0</ele><time>2026-04-16T12:49:44.616Z</time></trkpt><trkpt lat="45.6228979" lon="9.4208095"><ele>212.14285714285714</ele><time>2026-04-16T12:49:45.617Z</time></trkpt><trkpt lat="45.6229505" lon="9.4207472"><ele>212.28571428571428</ele><time>2026-04-16T12:49:46.616Z</time></trkpt><trkpt lat="45.6230038" lon="9.4206804"><ele>212.42857142857142</ele><time>2026-04-16T12:49:47.617Z</time></trkpt><trkpt lat="45.623045" lon="9.42061"><ele>212.57142857142856</ele><time>2026-04-16T12:49:48.616Z</time></trkpt><trkpt lat="45.6230923" lon="9.4205254"><ele>212.71428571428572</ele><time>2026-04-16T12:49:49.616Z</time></trkpt><trkpt lat="45.623137" lon="9.420456"><ele>212.85714285714283</ele><time>2026-04-16T12:49:50.617Z</time></trkpt><trkpt lat="45.6231889" lon="9.4203877"><ele>213.0</ele><time>2026-04-16T12:49:51.617Z</time></trkpt><trkpt lat="45.6232394" lon="9.4203112"><ele>213.0</ele><time>2026-04-16T12:49:52.616Z</time></trkpt><trkpt lat="45.6232825" lon="9.4202421"><ele>213.0</ele><time>2026-04-16T12:49:53.616Z</time></trkpt><trkpt lat="45.6233347" lon="9.4201663"><ele>213.0</ele><time>2026-04-16T12:49:54.616Z</time></trkpt><trkpt lat="45.6234199" lon="9.420032"><ele>213.0</ele><time>2026-04-16T12:49:56.616Z</time></trkpt><trkpt lat="45.6234689" lon="9.4199576"><ele>213.0</ele><time>2026-04-16T12:49:57.616Z</time></trkpt><trkpt lat="45.6235497" lon="9.4198328"><ele>213.0</ele><time>2026-04-16T12:49:59.616Z</time></trkpt><trkpt lat="45.6236146" lon="9.4197585"><ele>213.0</ele><time>2026-04-16T12:50:00.616Z</time></trkpt><trkpt lat="45.6236638" lon="9.4196828"><ele>213.0</ele><time>2026-04-16T12:50:01.616Z</time></trkpt><trkpt lat="45.6237136" lon="9.4196107"><ele>213.0</ele><time>2026-04-16T12:50:02.616Z</time></trkpt><trkpt lat="45.6238149" lon="9.4194671"><ele>213.0</ele><time>2026-04-16T12:50:04.616Z</time></trkpt><trkpt lat="45.6238702" lon="9.4193907"><ele>213.0</ele><time>2026-04-16T12:50:05.617Z</time></trkpt><trkpt lat="45.6239164" lon="9.4193215"><ele>214.0</ele><time>2026-04-16T12:50:06.616Z</time></trkpt><trkpt lat="45.6239647" lon="9.419248"><ele>215.0</ele><time>2026-04-16T12:50:07.616Z</time></trkpt><trkpt lat="45.6240087" lon="9.4191785"><ele>216.0</ele><time>2026-04-16T12:50:08.616Z</time></trkpt><trkpt lat="45.6240598" lon="9.4191105"><ele>217.0</ele><time>2026-04-16T12:50:09.617Z</time></trkpt><trkpt lat="45.6241056" lon="9.4190403"><ele>218.0</ele><time>2026-04-16T12:50:10.616Z</time></trkpt><trkpt lat="45.6241491" lon="9.4189721"><ele>219.0</ele><time>2026-04-16T12:50:11.616Z</time></trkpt><trkpt lat="45.6242373" lon="9.4188422"><ele>218.79999999999998</ele><time>2026-04-16T12:50:13.617Z</time></trkpt><trkpt lat="45.6243295" lon="9.418701"><ele>218.59999999999997</ele><time>2026-04-16T12:50:15.617Z</time></trkpt><trkpt lat="45.6243822" lon="9.4186468"><ele>218.4</ele><time>2026-04-16T12:50:16.616Z</time></trkpt><trkpt lat="45.6244304" lon="9.4185874"><ele>218.2</ele><time>2026-04-16T12:50:17.616Z</time></trkpt><trkpt lat="45.6244787" lon="9.4185268"><ele>218.0</ele><time>2026-04-16T12:50:18.616Z</time></trkpt><trkpt lat="45.6245638" lon="9.4184001"><ele>217.5</ele><time>2026-04-16T12:50:20.617Z</time></trkpt><trkpt lat="45.6246508" lon="9.4182682"><ele>217.0</ele><time>2026-04-16T12:50:22.617Z</time></trkpt><trkpt lat="45.6247306" lon="9.4181366"><ele>216.5</ele><time>2026-04-16T12:50:24.617Z</time></trkpt><trkpt lat="45.6248233" lon="9.4180316"><ele>216.0</ele><time>2026-04-16T12:50:26.616Z</time></trkpt><trkpt lat="45.6249382" lon="9.4179738"><ele>216.0</ele><time>2026-04-16T12:50:28.616Z</time></trkpt><trkpt lat="45.6250017" lon="9.4179695"><ele>216.00000000000003</ele><time>2026-04-16T12:50:29.616Z</time></trkpt><trkpt lat="45.6251117" lon="9.4180094"><ele>216.00000000000003</ele><time>2026-04-16T12:50:31.616Z</time></trkpt><trkpt lat="45.625223" lon="9.4180675"><ele>216.0</ele><time>2026-04-16T12:50:33.617Z</time></trkpt><trkpt lat="45.6253393" lon="9.4181191"><ele>216.0</ele><time>2026-04-16T12:50:35.617Z</time></trkpt><trkpt lat="45.6254046" lon="9.4181428"><ele>215.60000000000002</ele><time>2026-04-16T12:50:36.617Z</time></trkpt><trkpt lat="45.6255191" lon="9.4181586"><ele>215.20000000000002</ele><time>2026-04-16T12:50:38.617Z</time></trkpt><trkpt lat="45.6256434" lon="9.4181783"><ele>214.79999999999998</ele><time>2026-04-16T12:50:40.616Z</time></trkpt><trkpt lat="45.6257607" lon="9.418201"><ele>214.39999999999998</ele><time>2026-04-16T12:50:42.616Z</time></trkpt><trkpt lat="45.6258269" lon="9.4182151"><ele>214.0</ele><time>2026-04-16T12:50:43.616Z</time></trkpt><trkpt lat="45.6259519" lon="9.4182362"><ele>213.99999999999997</ele><time>2026-04-16T12:50:45.616Z</time></trkpt><trkpt lat="45.6260688" lon="9.4182404"><ele>214.0</ele><time>2026-04-16T12:50:47.616Z</time></trkpt><trkpt lat="45.626143" lon="9.4182621"><ele>214.0</ele><time>2026-04-16T12:50:48.616Z</time></trkpt><trkpt lat="45.6262066" lon="9.4182719"><ele>214.0</ele><time>2026-04-16T12:50:49.616Z</time></trkpt><trkpt lat="45.6263329" lon="9.4182847"><ele>213.99999999999997</ele><time>2026-04-16T12:50:51.616Z</time></trkpt><trkpt lat="45.6263964" lon="9.4182928"><ele>214.0</ele><time>2026-04-16T12:50:52.617Z</time></trkpt><trkpt lat="45.6264634" lon="9.4182996"><ele>214.33333333333331</ele><time>2026-04-16T12:50:53.617Z</time></trkpt><trkpt lat="45.6265308" lon="9.4183167"><ele>214.66666666666666</ele><time>2026-04-16T12:50:54.616Z</time></trkpt><trkpt lat="45.6266041" lon="9.418328"><ele>215.0</ele><time>2026-04-16T12:50:55.616Z</time></trkpt><trkpt lat="45.6266719" lon="9.4183295"><ele>215.33333333333331</ele><time>2026-04-16T12:50:56.617Z</time></trkpt><trkpt lat="45.6267415" lon="9.4183334"><ele>215.66666666666666</ele><time>2026-04-16T12:50:57.616Z</time></trkpt><trkpt lat="45.6268624" lon="9.4183383"><ele>216.0</ele><time>2026-04-16T12:50:59.616Z</time></trkpt><trkpt lat="45.6269296" lon="9.4183435"><ele>215.83333333333334</ele><time>2026-04-16T12:51:00.617Z</time></trkpt><trkpt lat="45.626997" lon="9.4183522"><ele>215.66666666666669</ele><time>2026-04-16T12:51:01.616Z</time></trkpt><trkpt lat="45.627117" lon="9.4183451"><ele>215.5</ele><time>2026-04-16T12:51:03.616Z</time></trkpt><trkpt lat="45.6271846" lon="9.4183509"><ele>215.33333333333334</ele><time>2026-04-16T12:51:04.616Z</time></trkpt><trkpt lat="45.6272511" lon="9.4183482"><ele>215.16666666666669</ele><time>2026-04-16T12:51:05.616Z</time></trkpt><trkpt lat="45.6273189" lon="9.41836"><ele>215.0</ele><time>2026-04-16T12:51:06.616Z</time></trkpt><trkpt lat="45.6274563" lon="9.4183803"><ele>215.00000000000003</ele><time>2026-04-16T12:51:08.617Z</time></trkpt><trkpt lat="45.6275264" lon="9.4183885"><ele>215.0</ele><time>2026-04-16T12:51:09.616Z</time></trkpt><trkpt lat="45.6276003" lon="9.4184052"><ele>215.0</ele><time>2026-04-16T12:51:10.617Z</time></trkpt><trkpt lat="45.6277185" lon="9.4184002"><ele>215.0</ele><time>2026-04-16T12:51:12.616Z</time></trkpt><trkpt lat="45.6277859" lon="9.4184121"><ele>215.00000000000003</ele><time>2026-04-16T12:51:13.616Z</time></trkpt><trkpt lat="45.6278505" lon="9.418423"><ele>215.0</ele><time>2026-04-16T12:51:14.616Z</time></trkpt><trkpt lat="45.6279702" lon="9.4184209"><ele>215.0</ele><time>2026-04-16T12:51:16.617Z</time></trkpt><trkpt lat="45.6280351" lon="9.4184274"><ele>215.0</ele><time>2026-04-16T12:51:17.616Z</time></trkpt><trkpt lat="45.6281623" lon="9.4184388"><ele>215.0</ele><time>2026-04-16T12:51:19.617Z</time></trkpt><trkpt lat="45.6282289" lon="9.4184533"><ele>215.0</ele><time>2026-04-16T12:51:20.617Z</time></trkpt><trkpt lat="45.628295" lon="9.4184625"><ele>215.0</ele><time>2026-04-16T12:51:21.617Z</time></trkpt><trkpt lat="45.6284207" lon="9.4184575"><ele>215.00000000000003</ele><time>2026-04-16T12:51:23.617Z</time></trkpt><trkpt lat="45.6285396" lon="9.4184694"><ele>215.0</ele><time>2026-04-16T12:51:25.617Z</time></trkpt><trkpt lat="45.6286134" lon="9.4184806"><ele>215.0</ele><time>2026-04-16T12:51:26.616Z</time></trkpt><trkpt lat="45.628677" lon="9.4184742"><ele>215.0</ele><time>2026-04-16T12:51:27.616Z</time></trkpt><trkpt lat="45.6287426" lon="9.4184572"><ele>215.00000000000003</ele><time>2026-04-16T12:51:28.616Z</time></trkpt><trkpt lat="45.6288071" lon="9.4184482"><ele>215.0</ele><time>2026-04-16T12:51:29.617Z</time></trkpt><trkpt lat="45.6288698" lon="9.4184311"><ele>215.8</ele><time>2026-04-16T12:51:30.616Z</time></trkpt><trkpt lat="45.6289963" lon="9.4184035"><ele>216.6</ele><time>2026-04-16T12:51:32.617Z</time></trkpt><trkpt lat="45.6290647" lon="9.4183916"><ele>217.39999999999998</ele><time>2026-04-16T12:51:33.616Z</time></trkpt><trkpt lat="45.6291946" lon="9.4183567"><ele>218.2</ele><time>2026-04-16T12:51:35.616Z</time></trkpt><trkpt lat="45.6292616" lon="9.4183511"><ele>219.0</ele><time>2026-04-16T12:51:36.616Z</time></trkpt><trkpt lat="45.6293344" lon="9.4183326"><ele>219.0</ele><time>2026-04-16T12:51:37.617Z</time></trkpt><trkpt lat="45.6294026" lon="9.4183271"><ele>218.99999999999997</ele><time>2026-04-16T12:51:38.617Z</time></trkpt><trkpt lat="45.6295271" lon="9.4182993"><ele>218.99999999999997</ele><time>2026-04-16T12:51:40.616Z</time></trkpt><trkpt lat="45.6295904" lon="9.4183052"><ele>219.0</ele><time>2026-04-16T12:51:41.616Z</time></trkpt><trkpt lat="45.6297165" lon="9.4183483"><ele>219.0</ele><time>2026-04-16T12:51:43.616Z</time></trkpt><trkpt lat="45.6297829" lon="9.4183517"><ele>219.33333333333334</ele><time>2026-04-16T12:51:44.616Z</time></trkpt><trkpt lat="45.629847" lon="9.4183238"><ele>219.66666666666669</ele><time>2026-04-16T12:51:45.616Z</time></trkpt><trkpt lat="45.6299107" lon="9.4182857"><ele>220.0</ele><time>2026-04-16T12:51:46.616Z</time></trkpt><trkpt lat="45.6299733" lon="9.418244"><ele>220.33333333333334</ele><time>2026-04-16T12:51:47.617Z</time></trkpt><trkpt lat="45.630087" lon="9.4181762"><ele>220.66666666666669</ele><time>2026-04-16T12:51:49.616Z</time></trkpt><trkpt lat="45.6301557" lon="9.4181722"><ele>221.0</ele><time>2026-04-16T12:51:50.616Z</time></trkpt><trkpt lat="45.6302243" lon="9.4181717"><ele>221.00000000000003</ele><time>2026-04-16T12:51:51.616Z</time></trkpt><trkpt lat="45.6302868" lon="9.4181522"><ele>221.0</ele><time>2026-04-16T12:51:52.616Z</time></trkpt><trkpt lat="45.6303513" lon="9.4181552"><ele>221.0</ele><time>2026-04-16T12:51:53.616Z</time></trkpt><trkpt lat="45.6304741" lon="9.4181612"><ele>221.0</ele><time>2026-04-16T12:51:55.616Z</time></trkpt><trkpt lat="45.630539" lon="9.4181468"><ele>221.00000000000003</ele><time>2026-04-16T12:51:56.616Z</time></trkpt><trkpt lat="45.6306006" lon="9.4181264"><ele>221.0</ele><time>2026-04-16T12:51:57.617Z</time></trkpt><trkpt lat="45.6306723" lon="9.4181062"><ele>221.33333333333334</ele><time>2026-04-16T12:51:58.617Z</time></trkpt><trkpt lat="45.6307397" lon="9.4180985"><ele>221.66666666666669</ele><time>2026-04-16T12:51:59.617Z</time></trkpt><trkpt lat="45.6308198" lon="9.4180941"><ele>222.0</ele><time>2026-04-16T12:52:00.616Z</time></trkpt><trkpt lat="45.6308971" lon="9.4180731"><ele>222.33333333333331</ele><time>2026-04-16T12:52:01.616Z</time></trkpt><trkpt lat="45.6309626" lon="9.4180794"><ele>222.66666666666666</ele><time>2026-04-16T12:52:02.617Z</time></trkpt><trkpt lat="45.6310327" lon="9.4180752"><ele>223.0</ele><time>2026-04-16T12:52:03.617Z</time></trkpt><trkpt lat="45.6311526" lon="9.4180805"><ele>223.0</ele><time>2026-04-16T12:52:05.616Z</time></trkpt><trkpt lat="45.6312247" lon="9.4181053"><ele>223.0</ele><time>2026-04-16T12:52:06.616Z</time></trkpt><trkpt lat="45.6313499" lon="9.4181324"><ele>223.0</ele><time>2026-04-16T12:52:08.616Z</time></trkpt><trkpt lat="45.631474" lon="9.4181597"><ele>223.0</ele><time>2026-04-16T12:52:10.616Z</time></trkpt><trkpt lat="45.6315965" lon="9.4181755"><ele>223.0</ele><time>2026-04-16T12:52:12.616Z</time></trkpt><trkpt lat="45.6316596" lon="9.4181941"><ele>222.99999999999997</ele><time>2026-04-16T12:52:13.616Z</time></trkpt><trkpt lat="45.6317875" lon="9.4182081"><ele>223.0</ele><time>2026-04-16T12:52:15.616Z</time></trkpt><trkpt lat="45.6318567" lon="9.4182184"><ele>223.0</ele><time>2026-04-16T12:52:16.616Z</time></trkpt><trkpt lat="45.6319198" lon="9.4182318"><ele>223.0</ele><time>2026-04-16T12:52:17.616Z</time></trkpt><trkpt lat="45.6319878" lon="9.4182407"><ele>222.99999999999997</ele><time>2026-04-16T12:52:18.616Z</time></trkpt><trkpt lat="45.6320551" lon="9.4182569"><ele>223.0</ele><time>2026-04-16T12:52:19.616Z</time></trkpt><trkpt lat="45.6321244" lon="9.418281"><ele>223.2</ele><time>2026-04-16T12:52:20.617Z</time></trkpt><trkpt lat="45.6321927" lon="9.4182932"><ele>223.4</ele><time>2026-04-16T12:52:21.616Z</time></trkpt><trkpt lat="45.6322641" lon="9.4183032"><ele>223.59999999999997</ele><time>2026-04-16T12:52:22.616Z</time></trkpt><trkpt lat="45.632391" lon="9.4183293"><ele>223.79999999999998</ele><time>2026-04-16T12:52:24.617Z</time></trkpt><trkpt lat="45.6325032" lon="9.4183587"><ele>224.0</ele><time>2026-04-16T12:52:26.616Z</time></trkpt><trkpt lat="45.6326254" lon="9.418386"><ele>224.00000000000003</ele><time>2026-04-16T12:52:28.616Z</time></trkpt><trkpt lat="45.6326905" lon="9.4183987"><ele>224.0</ele><time>2026-04-16T12:52:29.617Z</time></trkpt><trkpt lat="45.632753" lon="9.4184144"><ele>224.0</ele><time>2026-04-16T12:52:30.616Z</time></trkpt><trkpt lat="45.6328787" lon="9.4184508"><ele>224.0</ele><time>2026-04-16T12:52:32.617Z</time></trkpt><trkpt lat="45.6329983" lon="9.418468"><ele>224.00000000000003</ele><time>2026-04-16T12:52:34.616Z</time></trkpt><trkpt lat="45.6330675" lon="9.4184792"><ele>224.0</ele><time>2026-04-16T12:52:35.616Z</time></trkpt><trkpt lat="45.6331306" lon="9.4184872"><ele>223.79999999999998</ele><time>2026-04-16T12:52:36.617Z</time></trkpt><trkpt lat="45.6331951" lon="9.4184724"><ele>223.59999999999997</ele><time>2026-04-16T12:52:37.616Z</time></trkpt><trkpt lat="45.6332621" lon="9.4184688"><ele>223.4</ele><time>2026-04-16T12:52:38.617Z</time></trkpt><trkpt lat="45.6333669" lon="9.4184658"><ele>223.2</ele><time>2026-04-16T12:52:40.616Z</time></trkpt><trkpt lat="45.63348" lon="9.4184806"><ele>223.0</ele><time>2026-04-16T12:52:42.617Z</time></trkpt><trkpt lat="45.6335946" lon="9.41854"><ele>223.25</ele><time>2026-04-16T12:52:44.616Z</time></trkpt><trkpt lat="45.6337162" lon="9.418568"><ele>223.5</ele><time>2026-04-16T12:52:46.616Z</time></trkpt><trkpt lat="45.6338233" lon="9.4186002"><ele>223.75</ele><time>2026-04-16T12:52:48.616Z</time></trkpt><trkpt lat="45.6339364" lon="9.4186344"><ele>224.0</ele><time>2026-04-16T12:52:50.616Z</time></trkpt><trkpt lat="45.6340489" lon="9.4186702"><ele>224.0</ele><time>2026-04-16T12:52:52.616Z</time></trkpt><trkpt lat="45.6341649" lon="9.4186978"><ele>223.99999999999997</ele><time>2026-04-16T12:52:54.616Z</time></trkpt><trkpt lat="45.6342769" lon="9.4187352"><ele>223.99999999999997</ele><time>2026-04-16T12:52:56.616Z</time></trkpt><trkpt lat="45.6343354" lon="9.4187771"><ele>224.0</ele><time>2026-04-16T12:52:57.616Z</time></trkpt><trkpt lat="45.6344526" lon="9.418817"><ele>224.0</ele><time>2026-04-16T12:52:59.617Z</time></trkpt><trkpt lat="45.6345675" lon="9.4188872"><ele>225.25</ele><time>2026-04-16T12:53:01.617Z</time></trkpt><trkpt lat="45.6346753" lon="9.4189559"><ele>226.5</ele><time>2026-04-16T12:53:03.616Z</time></trkpt><trkpt lat="45.6347847" lon="9.4190192"><ele>227.75</ele><time>2026-04-16T12:53:05.616Z</time></trkpt><trkpt lat="45.6348927" lon="9.4190787"><ele>229.0</ele><time>2026-04-16T12:53:07.616Z</time></trkpt><trkpt lat="45.6349996" lon="9.4191459"><ele>229.0</ele><time>2026-04-16T12:53:09.617Z</time></trkpt><trkpt lat="45.6350679" lon="9.4191492"><ele>228.99999999999997</ele><time>2026-04-16T12:53:10.617Z</time></trkpt><trkpt lat="45.635176" lon="9.4192349"><ele>228.99999999999997</ele><time>2026-04-16T12:53:12.616Z</time></trkpt><trkpt lat="45.6352857" lon="9.4192871"><ele>229.0</ele><time>2026-04-16T12:53:14.617Z</time></trkpt><trkpt lat="45.6353393" lon="9.4193554"><ele>229.0</ele><time>2026-04-16T12:53:15.616Z</time></trkpt><trkpt lat="45.6354269" lon="9.4194123"><ele>228.66666666666666</ele><time>2026-04-16T12:53:17.617Z</time></trkpt><trkpt lat="45.6355097" lon="9.4194097"><ele>228.33333333333331</ele><time>2026-04-16T12:53:21.617Z</time></trkpt><trkpt lat="45.6355406" lon="9.4193259"><ele>228.0</ele><time>2026-04-16T12:53:23.616Z</time></trkpt><trkpt lat="45.6355773" lon="9.4192149"><ele>227.66666666666669</ele><time>2026-04-16T12:53:25.617Z</time></trkpt><trkpt lat="45.6356235" lon="9.4191086"><ele>227.33333333333334</ele><time>2026-04-16T12:53:27.616Z</time></trkpt><trkpt lat="45.6356787" lon="9.4189729"><ele>227.0</ele><time>2026-04-16T12:53:29.616Z</time></trkpt><trkpt lat="45.6357075" lon="9.4188924"><ele>226.5</ele><time>2026-04-16T12:53:30.617Z</time></trkpt><trkpt lat="45.635764" lon="9.4187727"><ele>226.0</ele><time>2026-04-16T12:53:32.617Z</time></trkpt><trkpt lat="45.6358167" lon="9.4186097"><ele>225.5</ele><time>2026-04-16T12:53:34.616Z</time></trkpt><trkpt lat="45.6358837" lon="9.418497"><ele>225.0</ele><time>2026-04-16T12:53:36.616Z</time></trkpt><trkpt lat="45.6359469" lon="9.4183507"><ele>225.0</ele><time>2026-04-16T12:53:38.616Z</time></trkpt><trkpt lat="45.6360307" lon="9.4182098"><ele>225.0</ele><time>2026-04-16T12:53:40.616Z</time></trkpt><trkpt lat="45.6360821" lon="9.4180542"><ele>225.0</ele><time>2026-04-16T12:53:42.616Z</time></trkpt><trkpt lat="45.6361122" lon="9.4179717"><ele>225.0</ele><time>2026-04-16T12:53:43.616Z</time></trkpt><trkpt lat="45.6361649" lon="9.4178219"><ele>225.0</ele><time>2026-04-16T12:53:45.616Z</time></trkpt><trkpt lat="45.6362043" lon="9.4177392"><ele>224.5</ele><time>2026-04-16T12:53:46.616Z</time></trkpt><trkpt lat="45.6362676" lon="9.4176012"><ele>224.0</ele><time>2026-04-16T12:53:48.617Z</time></trkpt><trkpt lat="45.6363421" lon="9.4175186"><ele>223.5</ele><time>2026-04-16T12:53:50.616Z</time></trkpt><trkpt lat="45.6364739" lon="9.4175671"><ele>223.0</ele><time>2026-04-16T12:53:53.616Z</time></trkpt><trkpt lat="45.6365824" lon="9.4176137"><ele>223.0</ele><time>2026-04-16T12:53:55.616Z</time></trkpt><trkpt lat="45.6366832" lon="9.4176835"><ele>223.0</ele><time>2026-04-16T12:53:57.617Z</time></trkpt><trkpt lat="45.6367852" lon="9.417755"><ele>223.0</ele><time>2026-04-16T12:53:59.616Z</time></trkpt><trkpt lat="45.6368937" lon="9.4178346"><ele>223.0</ele><time>2026-04-16T12:54:01.616Z</time></trkpt><trkpt lat="45.6370047" lon="9.4179009"><ele>223.2</ele><time>2026-04-16T12:54:03.616Z</time></trkpt><trkpt lat="45.6371215" lon="9.4179464"><ele>223.4</ele><time>2026-04-16T12:54:05.616Z</time></trkpt><trkpt lat="45.6372402" lon="9.4179752"><ele>223.59999999999997</ele><time>2026-04-16T12:54:07.617Z</time></trkpt><trkpt lat="45.6373039" lon="9.4179896"><ele>223.79999999999998</ele><time>2026-04-16T12:54:08.616Z</time></trkpt><trkpt lat="45.6374242" lon="9.4180031"><ele>224.0</ele><time>2026-04-16T12:54:10.616Z</time></trkpt><trkpt lat="45.6375455" lon="9.4180234"><ele>224.0</ele><time>2026-04-16T12:54:12.616Z</time></trkpt><trkpt lat="45.6376597" lon="9.4180652"><ele>223.99999999999997</ele><time>2026-04-16T12:54:14.616Z</time></trkpt><trkpt lat="45.6377795" lon="9.4180873"><ele>223.99999999999997</ele><time>2026-04-16T12:54:16.616Z</time></trkpt><trkpt lat="45.637841" lon="9.4181137"><ele>224.0</ele><time>2026-04-16T12:54:17.617Z</time></trkpt><trkpt lat="45.6379026" lon="9.4181377"><ele>224.0</ele><time>2026-04-16T12:54:18.616Z</time></trkpt><trkpt lat="45.6380274" lon="9.4181593"><ele>223.79999999999998</ele><time>2026-04-16T12:54:20.616Z</time></trkpt><trkpt lat="45.6380973" lon="9.4181704"><ele>223.59999999999997</ele><time>2026-04-16T12:54:21.616Z</time></trkpt><trkpt lat="45.6381647" lon="9.418204"><ele>223.4</ele><time>2026-04-16T12:54:22.616Z</time></trkpt><trkpt lat="45.638279" lon="9.4182184"><ele>223.2</ele><time>2026-04-16T12:54:24.617Z</time></trkpt><trkpt lat="45.6383915" lon="9.4182242"><ele>223.0</ele><time>2026-04-16T12:54:26.616Z</time></trkpt><trkpt lat="45.638483" lon="9.418144"><ele>223.0</ele><time>2026-04-16T12:54:28.616Z</time></trkpt><trkpt lat="45.6385461" lon="9.4180218"><ele>223.0</ele><time>2026-04-16T12:54:30.616Z</time></trkpt><trkpt lat="45.6386565" lon="9.4179858"><ele>223.0</ele><time>2026-04-16T12:54:32.616Z</time></trkpt><trkpt lat="45.6387211" lon="9.4180046"><ele>223.0</ele><time>2026-04-16T12:54:33.616Z</time></trkpt><trkpt lat="45.6388408" lon="9.4180337"><ele>223.0</ele><time>2026-04-16T12:54:35.616Z</time></trkpt><trkpt lat="45.6389553" lon="9.4180574"><ele>223.66666666666666</ele><time>2026-04-16T12:54:37.616Z</time></trkpt><trkpt lat="45.6390238" lon="9.4180654"><ele>224.33333333333331</ele><time>2026-04-16T12:54:38.616Z</time></trkpt><trkpt lat="45.6391321" lon="9.4180888"><ele>225.0</ele><time>2026-04-16T12:54:40.617Z</time></trkpt><trkpt lat="45.6391955" lon="9.4180954"><ele>225.66666666666669</ele><time>2026-04-16T12:54:41.617Z</time></trkpt><trkpt lat="45.6392655" lon="9.4181168"><ele>226.33333333333334</ele><time>2026-04-16T12:54:42.617Z</time></trkpt><trkpt lat="45.6393331" lon="9.4181382"><ele>227.0</ele><time>2026-04-16T12:54:43.616Z</time></trkpt><trkpt lat="45.6394541" lon="9.4181739"><ele>227.39999999999998</ele><time>2026-04-16T12:54:45.616Z</time></trkpt><trkpt lat="45.6395798" lon="9.4181919"><ele>227.79999999999998</ele><time>2026-04-16T12:54:47.616Z</time></trkpt><trkpt lat="45.6396909" lon="9.41821"><ele>228.2</ele><time>2026-04-16T12:54:49.616Z</time></trkpt><trkpt lat="45.6398028" lon="9.4182276"><ele>228.6</ele><time>2026-04-16T12:54:51.616Z</time></trkpt><trkpt lat="45.6398756" lon="9.4182354"><ele>229.0</ele><time>2026-04-16T12:54:52.616Z</time></trkpt><trkpt lat="45.6399867" lon="9.4182372"><ele>228.99999999999997</ele><time>2026-04-16T12:54:54.616Z</time></trkpt><trkpt lat="45.6401081" lon="9.4182464"><ele>229.0</ele><time>2026-04-16T12:54:56.616Z</time></trkpt><trkpt lat="45.6401728" lon="9.4182452"><ele>229.0</ele><time>2026-04-16T12:54:57.617Z</time></trkpt><trkpt lat="45.6402376" lon="9.4182435"><ele>229.0</ele><time>2026-04-16T12:54:58.616Z</time></trkpt><trkpt lat="45.6403072" lon="9.4182432"><ele>228.99999999999997</ele><time>2026-04-16T12:54:59.617Z</time></trkpt><trkpt lat="45.640365" lon="9.4182004"><ele>229.0</ele><time>2026-04-16T12:55:00.616Z</time></trkpt><trkpt lat="45.6404292" lon="9.4181562"><ele>228.99999999999997</ele><time>2026-04-16T12:55:01.617Z</time></trkpt><trkpt lat="45.6404834" lon="9.4181075"><ele>229.0</ele><time>2026-04-16T12:55:02.616Z</time></trkpt><trkpt lat="45.6405388" lon="9.4180459"><ele>229.0</ele><time>2026-04-16T12:55:03.616Z</time></trkpt><trkpt lat="45.6406209" lon="9.4179378"><ele>229.0</ele><time>2026-04-16T12:55:05.616Z</time></trkpt><trkpt lat="45.6406977" lon="9.4178163"><ele>228.99999999999997</ele><time>2026-04-16T12:55:07.616Z</time></trkpt><trkpt lat="45.6407456" lon="9.4177494"><ele>229.0</ele><time>2026-04-16T12:55:08.616Z</time></trkpt><trkpt lat="45.6407834" lon="9.4176683"><ele>228.99999999999997</ele><time>2026-04-16T12:55:09.617Z</time></trkpt><trkpt lat="45.640844" lon="9.4175147"><ele>229.0</ele><time>2026-04-16T12:55:11.617Z</time></trkpt><trkpt lat="45.6408713" lon="9.4174305"><ele>229.0</ele><time>2026-04-16T12:55:12.616Z</time></trkpt><trkpt lat="45.6409094" lon="9.4173324"><ele>229.0</ele><time>2026-04-16T12:55:13.616Z</time></trkpt><trkpt lat="45.6409381" lon="9.4172442"><ele>228.99999999999997</ele><time>2026-04-16T12:55:14.617Z</time></trkpt><trkpt lat="45.6409801" lon="9.417163"><ele>229.0</ele><time>2026-04-16T12:55:15.617Z</time></trkpt><trkpt lat="45.6410451" lon="9.4169956"><ele>229.0</ele><time>2026-04-16T12:55:17.616Z</time></trkpt><trkpt lat="45.6410942" lon="9.4168164"><ele>229.0</ele><time>2026-04-16T12:55:19.616Z</time></trkpt><trkpt lat="45.6411293" lon="9.4167139"><ele>229.0</ele><time>2026-04-16T12:55:20.616Z</time></trkpt><trkpt lat="45.6411793" lon="9.4165528"><ele>229.0</ele><time>2026-04-16T12:55:22.616Z</time></trkpt><trkpt lat="45.6412443" lon="9.4163925"><ele>229.0</ele><time>2026-04-16T12:55:24.616Z</time></trkpt><trkpt lat="45.6413386" lon="9.4163138"><ele>228.99999999999997</ele><time>2026-04-16T12:55:26.616Z</time></trkpt><trkpt lat="45.641453" lon="9.4163661"><ele>228.99999999999997</ele><time>2026-04-16T12:55:28.616Z</time></trkpt><trkpt lat="45.6415624" lon="9.4164344"><ele>229.0</ele><time>2026-04-16T12:55:30.616Z</time></trkpt><trkpt lat="45.6416235" lon="9.4164755"><ele>229.0</ele><time>2026-04-16T12:55:31.616Z</time></trkpt><trkpt lat="45.6417424" lon="9.4165473"><ele>229.0</ele><time>2026-04-16T12:55:33.616Z</time></trkpt><trkpt lat="45.641803" lon="9.4165745"><ele>229.0</ele><time>2026-04-16T12:55:34.616Z</time></trkpt><trkpt lat="45.6419155" lon="9.4166461"><ele>229.0</ele><time>2026-04-16T12:55:36.616Z</time></trkpt><trkpt lat="45.6419715" lon="9.4166949"><ele>229.0</ele><time>2026-04-16T12:55:37.616Z</time></trkpt><trkpt lat="45.6420304" lon="9.416729"><ele>229.0</ele><time>2026-04-16T12:55:38.617Z</time></trkpt><trkpt lat="45.6420894" lon="9.4167685"><ele>229.0</ele><time>2026-04-16T12:55:39.616Z</time></trkpt><trkpt lat="45.6421471" lon="9.4168113"><ele>229.0</ele><time>2026-04-16T12:55:40.617Z</time></trkpt><trkpt lat="45.6422079" lon="9.4168544"><ele>229.0</ele><time>2026-04-16T12:55:41.616Z</time></trkpt><trkpt lat="45.6422736" lon="9.416888"><ele>229.0</ele><time>2026-04-16T12:55:42.616Z</time></trkpt><trkpt lat="45.6423329" lon="9.4169233"><ele>229.0</ele><time>2026-04-16T12:55:43.616Z</time></trkpt><trkpt lat="45.6423951" lon="9.4169614"><ele>229.0</ele><time>2026-04-16T12:55:44.616Z</time></trkpt><trkpt lat="45.642458" lon="9.4170006"><ele>229.0</ele><time>2026-04-16T12:55:45.616Z</time></trkpt><trkpt lat="45.6425169" lon="9.4170411"><ele>229.0</ele><time>2026-04-16T12:55:46.616Z</time></trkpt><trkpt lat="45.6425786" lon="9.4170852"><ele>229.0</ele><time>2026-04-16T12:55:47.616Z</time></trkpt><trkpt lat="45.6426428" lon="9.4171342"><ele>228.99999999999997</ele><time>2026-04-16T12:55:48.617Z</time></trkpt><trkpt lat="45.6427035" lon="9.4171756"><ele>229.0</ele><time>2026-04-16T12:55:49.616Z</time></trkpt><trkpt lat="45.6428197" lon="9.4172422"><ele>229.0</ele><time>2026-04-16T12:55:51.616Z</time></trkpt><trkpt lat="45.6428782" lon="9.4172864"><ele>229.0</ele><time>2026-04-16T12:55:52.617Z</time></trkpt><trkpt lat="45.6429401" lon="9.4173243"><ele>228.99999999999997</ele><time>2026-04-16T12:55:53.616Z</time></trkpt><trkpt lat="45.6430023" lon="9.417364"><ele>229.0</ele><time>2026-04-16T12:55:54.617Z</time></trkpt><trkpt lat="45.6430612" lon="9.4174007"><ele>229.0</ele><time>2026-04-16T12:55:55.617Z</time></trkpt><trkpt lat="45.6431238" lon="9.4174456"><ele>229.0</ele><time>2026-04-16T12:55:56.616Z</time></trkpt><trkpt lat="45.6431917" lon="9.4174997"><ele>229.0</ele><time>2026-04-16T12:55:57.617Z</time></trkpt><trkpt lat="45.6432546" lon="9.4175394"><ele>229.0</ele><time>2026-04-16T12:55:58.616Z</time></trkpt><trkpt lat="45.6433144" lon="9.4175833"><ele>229.0</ele><time>2026-04-16T12:55:59.616Z</time></trkpt><trkpt lat="45.6433751" lon="9.4176159"><ele>229.0</ele><time>2026-04-16T12:56:00.617Z</time></trkpt><trkpt lat="45.6434392" lon="9.417667"><ele>229.0</ele><time>2026-04-16T12:56:01.616Z</time></trkpt><trkpt lat="45.6435032" lon="9.4177066"><ele>229.0</ele><time>2026-04-16T12:56:02.617Z</time></trkpt><trkpt lat="45.643562" lon="9.4177536"><ele>228.99999999999997</ele><time>2026-04-16T12:56:03.617Z</time></trkpt><trkpt lat="45.6436219" lon="9.4177925"><ele>228.99999999999997</ele><time>2026-04-16T12:56:04.616Z</time></trkpt><trkpt lat="45.6437387" lon="9.4178588"><ele>229.0</ele><time>2026-04-16T12:56:06.616Z</time></trkpt><trkpt lat="45.6438583" lon="9.4179315"><ele>229.0</ele><time>2026-04-16T12:56:08.617Z</time></trkpt><trkpt lat="45.643918" lon="9.4179726"><ele>228.85714285714283</ele><time>2026-04-16T12:56:09.617Z</time></trkpt><trkpt lat="45.6439788" lon="9.418014"><ele>228.71428571428572</ele><time>2026-04-16T12:56:10.616Z</time></trkpt><trkpt lat="45.6440321" lon="9.4180708"><ele>228.57142857142856</ele><time>2026-04-16T12:56:11.617Z</time></trkpt><trkpt lat="45.6440849" lon="9.4181723"><ele>228.42857142857142</ele><time>2026-04-16T12:56:12.616Z</time></trkpt><trkpt lat="45.6441298" lon="9.4182491"><ele>228.28571428571428</ele><time>2026-04-16T12:56:13.617Z</time></trkpt><trkpt lat="45.6441623" lon="9.4183415"><ele>228.14285714285714</ele><time>2026-04-16T12:56:14.616Z</time></trkpt><trkpt lat="45.6441916" lon="9.4184222"><ele>228.0</ele><time>2026-04-16T12:56:15.617Z</time></trkpt><trkpt lat="45.6442269" lon="9.4185077"><ele>228.0</ele><time>2026-04-16T12:56:16.616Z</time></trkpt><trkpt lat="45.6442606" lon="9.4185967"><ele>227.99999999999997</ele><time>2026-04-16T12:56:17.617Z</time></trkpt><trkpt lat="45.6442919" lon="9.4186768"><ele>228.0</ele><time>2026-04-16T12:56:18.617Z</time></trkpt><trkpt lat="45.6443262" lon="9.4187639"><ele>228.0</ele><time>2026-04-16T12:56:19.616Z</time></trkpt><trkpt lat="45.6443563" lon="9.4188482"><ele>227.99999999999997</ele><time>2026-04-16T12:56:20.617Z</time></trkpt><trkpt lat="45.6443854" lon="9.4189286"><ele>228.0</ele><time>2026-04-16T12:56:21.617Z</time></trkpt><trkpt lat="45.644417" lon="9.4190242"><ele>228.0</ele><time>2026-04-16T12:56:22.616Z</time></trkpt><trkpt lat="45.6444467" lon="9.4191184"><ele>227.8</ele><time>2026-04-16T12:56:23.616Z</time></trkpt><trkpt lat="45.6444756" lon="9.4192056"><ele>227.60000000000002</ele><time>2026-04-16T12:56:24.617Z</time></trkpt><trkpt lat="45.6445346" lon="9.4193731"><ele>227.39999999999998</ele><time>2026-04-16T12:56:26.617Z</time></trkpt><trkpt lat="45.6445586" lon="9.4194589"><ele>227.2</ele><time>2026-04-16T12:56:27.616Z</time></trkpt><trkpt lat="45.6445913" lon="9.4195506"><ele>227.0</ele><time>2026-04-16T12:56:28.616Z</time></trkpt><trkpt lat="45.6446436" lon="9.4197075"><ele>228.2</ele><time>2026-04-16T12:56:30.616Z</time></trkpt><trkpt lat="45.6446877" lon="9.4198414"><ele>229.39999999999998</ele><time>2026-04-16T12:56:32.617Z</time></trkpt><trkpt lat="45.6447404" lon="9.4199851"><ele>230.60000000000002</ele><time>2026-04-16T12:56:34.617Z</time></trkpt><trkpt lat="45.644786" lon="9.4201195"><ele>231.8</ele><time>2026-04-16T12:56:36.616Z</time></trkpt><trkpt lat="45.6448236" lon="9.4202461"><ele>233.0</ele><time>2026-04-16T12:56:38.616Z</time></trkpt><trkpt lat="45.6448522" lon="9.4203437"><ele>233.00000000000003</ele><time>2026-04-16T12:56:40.616Z</time></trkpt><trkpt lat="45.6448947" lon="9.4204593"><ele>233.0</ele><time>2026-04-16T12:56:42.616Z</time></trkpt><trkpt lat="45.6449347" lon="9.4205686"><ele>233.0</ele><time>2026-04-16T12:56:44.616Z</time></trkpt><trkpt lat="45.6449794" lon="9.4206749"><ele>233.0</ele><time>2026-04-16T12:56:46.616Z</time></trkpt><trkpt lat="45.6450216" lon="9.4208024"><ele>233.00000000000003</ele><time>2026-04-16T12:56:48.617Z</time></trkpt><trkpt lat="45.6450575" lon="9.420912"><ele>233.0</ele><time>2026-04-16T12:56:50.617Z</time></trkpt><trkpt lat="45.645099" lon="9.4210173"><ele>233.33333333333334</ele><time>2026-04-16T12:56:52.616Z</time></trkpt><trkpt lat="45.6451403" lon="9.4211206"><ele>233.66666666666669</ele><time>2026-04-16T12:56:54.617Z</time></trkpt><trkpt lat="45.6451799" lon="9.4212294"><ele>234.0</ele><time>2026-04-16T12:56:56.616Z</time></trkpt><trkpt lat="45.6452185" lon="9.4213445"><ele>234.33333333333331</ele><time>2026-04-16T12:56:58.617Z</time></trkpt><trkpt lat="45.6452624" lon="9.421451"><ele>234.66666666666666</ele><time>2026-04-16T12:57:00.616Z</time></trkpt><trkpt lat="45.6453024" lon="9.4215527"><ele>235.0</ele><time>2026-04-16T12:57:02.616Z</time></trkpt><trkpt lat="45.6453391" lon="9.4216615"><ele>235.0</ele><time>2026-04-16T12:57:04.616Z</time></trkpt><trkpt lat="45.6453793" lon="9.421768"><ele>235.0</ele><time>2026-04-16T12:57:06.616Z</time></trkpt><trkpt lat="45.6454203" lon="9.4218774"><ele>235.0</ele><time>2026-04-16T12:57:08.616Z</time></trkpt><trkpt lat="45.6454675" lon="9.4219973"><ele>235.0</ele><time>2026-04-16T12:57:10.617Z</time></trkpt><trkpt lat="45.6455314" lon="9.4221133"><ele>235.0</ele><time>2026-04-16T12:57:12.616Z</time></trkpt><trkpt lat="45.6455992" lon="9.4222099"><ele>235.83333333333331</ele><time>2026-04-16T12:57:14.616Z</time></trkpt><trkpt lat="45.6456791" lon="9.4223037"><ele>236.66666666666666</ele><time>2026-04-16T12:57:16.616Z</time></trkpt><trkpt lat="45.6457631" lon="9.4223791"><ele>237.5</ele><time>2026-04-16T12:57:18.616Z</time></trkpt><trkpt lat="45.6458353" lon="9.4224268"><ele>238.33333333333331</ele><time>2026-04-16T12:57:20.616Z</time></trkpt><trkpt lat="45.6459093" lon="9.4224684"><ele>239.16666666666666</ele><time>2026-04-16T12:57:22.616Z</time></trkpt><trkpt lat="45.6459847" lon="9.42252"><ele>240.0</ele><time>2026-04-16T12:57:24.617Z</time></trkpt><trkpt lat="45.6460663" lon="9.422593"><ele>239.66666666666669</ele><time>2026-04-16T12:57:26.616Z</time></trkpt><trkpt lat="45.6461504" lon="9.4226591"><ele>239.33333333333334</ele><time>2026-04-16T12:57:28.617Z</time></trkpt><trkpt lat="45.6463645" lon="9.4229042"><ele>239.0</ele><time>2026-04-16T12:57:30.616Z</time></trkpt><trkpt lat="45.646463" lon="9.4229848"><ele>239.0</ele><time>2026-04-16T12:57:32.616Z</time></trkpt><trkpt lat="45.6465651" lon="9.42307"><ele>239.0</ele><time>2026-04-16T12:57:34.616Z</time></trkpt><trkpt lat="45.6466617" lon="9.4231506"><ele>239.0</ele><time>2026-04-16T12:57:36.617Z</time></trkpt><trkpt lat="45.6467615" lon="9.4232288"><ele>239.0</ele><time>2026-04-16T12:57:38.616Z</time></trkpt><trkpt lat="45.6468621" lon="9.4233209"><ele>238.79999999999998</ele><time>2026-04-16T12:57:40.616Z</time></trkpt><trkpt lat="45.6469748" lon="9.4234036"><ele>238.59999999999997</ele><time>2026-04-16T12:57:42.616Z</time></trkpt><trkpt lat="45.6470869" lon="9.4234863"><ele>238.4</ele><time>2026-04-16T12:57:44.616Z</time></trkpt><trkpt lat="45.6471475" lon="9.423511"><ele>238.2</ele><time>2026-04-16T12:57:45.616Z</time></trkpt><trkpt lat="45.6472708" lon="9.423548"><ele>238.0</ele><time>2026-04-16T12:57:47.617Z</time></trkpt><trkpt lat="45.6473371" lon="9.423553"><ele>238.0</ele><time>2026-04-16T12:57:48.616Z</time></trkpt><trkpt lat="45.6474023" lon="9.4235501"><ele>238.0</ele><time>2026-04-16T12:57:49.616Z</time></trkpt><trkpt lat="45.6474688" lon="9.4235537"><ele>238.0</ele><time>2026-04-16T12:57:50.616Z</time></trkpt><trkpt lat="45.6475343" lon="9.423549"><ele>238.0</ele><time>2026-04-16T12:57:51.616Z</time></trkpt><trkpt lat="45.6476099" lon="9.423541"><ele>238.0</ele><time>2026-04-16T12:57:52.616Z</time></trkpt><trkpt lat="45.6476883" lon="9.4235403"><ele>238.0</ele><time>2026-04-16T12:57:53.616Z</time></trkpt><trkpt lat="45.6477735" lon="9.4235315"><ele>238.0</ele><time>2026-04-16T12:57:54.616Z</time></trkpt><trkpt lat="45.6479083" lon="9.4234946"><ele>237.83333333333331</ele><time>2026-04-16T12:57:56.616Z</time></trkpt><trkpt lat="45.6479775" lon="9.4234818"><ele>237.66666666666666</ele><time>2026-04-16T12:57:57.617Z</time></trkpt><trkpt lat="45.6480453" lon="9.4234703"><ele>237.5</ele><time>2026-04-16T12:57:58.617Z</time></trkpt><trkpt lat="45.6481303" lon="9.4234878"><ele>237.33333333333331</ele><time>2026-04-16T12:57:59.616Z</time></trkpt><trkpt lat="45.648198" lon="9.4234894"><ele>237.16666666666666</ele><time>2026-04-16T12:58:00.616Z</time></trkpt><trkpt lat="45.6483452" lon="9.4234752"><ele>237.0</ele><time>2026-04-16T12:58:02.616Z</time></trkpt><trkpt lat="45.6484132" lon="9.4234793"><ele>237.0</ele><time>2026-04-16T12:58:03.616Z</time></trkpt><trkpt lat="45.6484797" lon="9.4234707"><ele>237.0</ele><time>2026-04-16T12:58:04.617Z</time></trkpt><trkpt lat="45.6485488" lon="9.4234688"><ele>237.0</ele><time>2026-04-16T12:58:05.617Z</time></trkpt><trkpt lat="45.6486206" lon="9.423466"><ele>237.0</ele><time>2026-04-16T12:58:06.616Z</time></trkpt><trkpt lat="45.6486888" lon="9.42346"><ele>237.0</ele><time>2026-04-16T12:58:07.616Z</time></trkpt><trkpt lat="45.6488116" lon="9.4234481"><ele>237.0</ele><time>2026-04-16T12:58:09.617Z</time></trkpt><trkpt lat="45.6489335" lon="9.4234182"><ele>236.99999999999997</ele><time>2026-04-16T12:58:11.616Z</time></trkpt><trkpt lat="45.6489692" lon="9.4232847"><ele>237.0</ele><time>2026-04-16T12:58:13.616Z</time></trkpt><trkpt lat="45.6489666" lon="9.423189"><ele>236.99999999999997</ele><time>2026-04-16T12:58:14.616Z</time></trkpt><trkpt lat="45.6489648" lon="9.4230892"><ele>236.99999999999997</ele><time>2026-04-16T12:58:15.617Z</time></trkpt><trkpt lat="45.6489585" lon="9.4229912"><ele>237.0</ele><time>2026-04-16T12:58:16.616Z</time></trkpt><trkpt lat="45.6489466" lon="9.4228941"><ele>236.99999999999997</ele><time>2026-04-16T12:58:17.616Z</time></trkpt><trkpt lat="45.6489343" lon="9.4227904"><ele>236.99999999999997</ele><time>2026-04-16T12:58:18.616Z</time></trkpt><trkpt lat="45.6489359" lon="9.4226957"><ele>236.16666666666666</ele><time>2026-04-16T12:58:19.616Z</time></trkpt><trkpt lat="45.6489446" lon="9.4226006"><ele>235.33333333333331</ele><time>2026-04-16T12:58:20.617Z</time></trkpt><trkpt lat="45.6489393" lon="9.4225061"><ele>234.5</ele><time>2026-04-16T12:58:21.617Z</time></trkpt><trkpt lat="45.6489445" lon="9.4223398"><ele>233.66666666666666</ele><time>2026-04-16T12:58:23.616Z</time></trkpt><trkpt lat="45.6489982" lon="9.4222581"><ele>232.83333333333331</ele><time>2026-04-16T12:58:25.617Z</time></trkpt><trkpt lat="45.6490909" lon="9.4222485"><ele>232.0</ele><time>2026-04-16T12:58:27.616Z</time></trkpt><trkpt lat="45.6491907" lon="9.4222615"><ele>232.0</ele><time>2026-04-16T12:58:29.616Z</time></trkpt><trkpt lat="45.6493032" lon="9.4222655"><ele>232.0</ele><time>2026-04-16T12:58:31.617Z</time></trkpt><trkpt lat="45.6494249" lon="9.4222692"><ele>232.0</ele><time>2026-04-16T12:58:33.616Z</time></trkpt><trkpt lat="45.6495438" lon="9.4222806"><ele>232.0</ele><time>2026-04-16T12:58:35.616Z</time></trkpt><trkpt lat="45.6496117" lon="9.422278"><ele>232.0</ele><time>2026-04-16T12:58:36.616Z</time></trkpt><trkpt lat="45.6497275" lon="9.4223101"><ele>232.2</ele><time>2026-04-16T12:58:38.617Z</time></trkpt><trkpt lat="45.6498207" lon="9.4223375"><ele>232.39999999999998</ele><time>2026-04-16T12:58:40.616Z</time></trkpt><trkpt lat="45.6499214" lon="9.4223975"><ele>232.60000000000002</ele><time>2026-04-16T12:58:42.616Z</time></trkpt><trkpt lat="45.650023" lon="9.4224075"><ele>232.8</ele><time>2026-04-16T12:58:44.616Z</time></trkpt><trkpt lat="45.6501403" lon="9.4224343"><ele>233.0</ele><time>2026-04-16T12:58:46.617Z</time></trkpt><trkpt lat="45.6503144" lon="9.42236"><ele>233.00000000000003</ele><time>2026-04-16T12:58:50.617Z</time></trkpt><trkpt lat="45.650391" lon="9.4223638"><ele>233.0</ele><time>2026-04-16T12:58:51.616Z</time></trkpt><trkpt lat="45.6505269" lon="9.4223971"><ele>233.0</ele><time>2026-04-16T12:58:53.616Z</time></trkpt><trkpt lat="45.6505923" lon="9.4224147"><ele>233.0</ele><time>2026-04-16T12:58:54.617Z</time></trkpt><trkpt lat="45.6506577" lon="9.4224335"><ele>233.00000000000003</ele><time>2026-04-16T12:58:55.616Z</time></trkpt><trkpt lat="45.650725" lon="9.4224394"><ele>233.0</ele><time>2026-04-16T12:58:56.616Z</time></trkpt><trkpt lat="45.6507983" lon="9.4224438"><ele>233.0</ele><time>2026-04-16T12:58:57.616Z</time></trkpt><trkpt lat="45.650931" lon="9.4224707"><ele>233.0</ele><time>2026-04-16T12:58:59.617Z</time></trkpt><trkpt lat="45.6510013" lon="9.4224857"><ele>233.0</ele><time>2026-04-16T12:59:00.616Z</time></trkpt><trkpt lat="45.6511283" lon="9.422502"><ele>233.0</ele><time>2026-04-16T12:59:02.616Z</time></trkpt><trkpt lat="45.6511922" lon="9.422518"><ele>233.0</ele><time>2026-04-16T12:59:03.617Z</time></trkpt><trkpt lat="45.6513148" lon="9.422553"><ele>232.8</ele><time>2026-04-16T12:59:05.616Z</time></trkpt><trkpt lat="45.6514034" lon="9.4225648"><ele>232.60000000000002</ele><time>2026-04-16T12:59:07.616Z</time></trkpt><trkpt lat="45.6514822" lon="9.4224191"><ele>232.39999999999998</ele><time>2026-04-16T12:59:10.616Z</time></trkpt><trkpt lat="45.6515017" lon="9.4223273"><ele>232.2</ele><time>2026-04-16T12:59:11.616Z</time></trkpt><trkpt lat="45.6515123" lon="9.4222278"><ele>232.0</ele><time>2026-04-16T12:59:12.616Z</time></trkpt><trkpt lat="45.6515151" lon="9.4220591"><ele>232.66666666666666</ele><time>2026-04-16T12:59:14.616Z</time></trkpt><trkpt lat="45.6515395" lon="9.4219121"><ele>233.33333333333331</ele><time>2026-04-16T12:59:16.616Z</time></trkpt><trkpt lat="45.651568" lon="9.4217748"><ele>234.0</ele><time>2026-04-16T12:59:18.616Z</time></trkpt><trkpt lat="45.6515818" lon="9.4216504"><ele>234.66666666666669</ele><time>2026-04-16T12:59:20.616Z</time></trkpt><trkpt lat="45.6516215" lon="9.4215804"><ele>235.33333333333334</ele><time>2026-04-16T12:59:23.616Z</time></trkpt><trkpt lat="45.6516871" lon="9.4215916"><ele>236.0</ele><time>2026-04-16T12:59:25.616Z</time></trkpt><trkpt lat="45.6517623" lon="9.4216049"><ele>236.00000000000003</ele><time>2026-04-16T12:59:27.616Z</time></trkpt><trkpt lat="45.651837" lon="9.4216198"><ele>236.0</ele><time>2026-04-16T12:59:29.616Z</time></trkpt><trkpt lat="45.6519136" lon="9.4216463"><ele>236.0</ele><time>2026-04-16T12:59:31.616Z</time></trkpt><trkpt lat="45.6520004" lon="9.421694"><ele>236.0</ele><time>2026-04-16T12:59:33.616Z</time></trkpt><trkpt lat="45.6520712" lon="9.4217322"><ele>236.00000000000003</ele><time>2026-04-16T12:59:35.616Z</time></trkpt><trkpt lat="45.6521465" lon="9.4217644"><ele>236.0</ele><time>2026-04-16T12:59:37.617Z</time></trkpt><trkpt lat="45.6522288" lon="9.4217915"><ele>236.33333333333334</ele><time>2026-04-16T12:59:39.616Z</time></trkpt><trkpt lat="45.6522974" lon="9.4217886"><ele>236.66666666666669</ele><time>2026-04-16T12:59:40.617Z</time></trkpt><trkpt lat="45.6524084" lon="9.421802"><ele>237.0</ele><time>2026-04-16T12:59:42.616Z</time></trkpt><trkpt lat="45.6524826" lon="9.4218254"><ele>237.33333333333331</ele><time>2026-04-16T12:59:44.616Z</time></trkpt><trkpt lat="45.6525587" lon="9.4218673"><ele>237.66666666666666</ele><time>2026-04-16T12:59:46.616Z</time></trkpt><trkpt lat="45.6526326" lon="9.4218866"><ele>238.0</ele><time>2026-04-16T12:59:48.616Z</time></trkpt><trkpt lat="45.6527009" lon="9.4218806"><ele>237.66666666666666</ele><time>2026-04-16T12:59:49.616Z</time></trkpt><trkpt lat="45.6529348" lon="9.4218735"><ele>237.33333333333331</ele><time>2026-04-16T12:59:53.616Z</time></trkpt><trkpt lat="45.653069" lon="9.4218948"><ele>237.0</ele><time>2026-04-16T12:59:56.616Z</time></trkpt><trkpt lat="45.6531746" lon="9.4219032"><ele>237.0</ele><time>2026-04-16T12:59:58.616Z</time></trkpt><trkpt lat="45.6532595" lon="9.4218964"><ele>237.0</ele><time>2026-04-16T13:00:00.616Z</time></trkpt><trkpt lat="45.6534486" lon="9.4219549"><ele>237.0</ele><time>2026-04-16T13:00:04.617Z</time></trkpt><trkpt lat="45.6535135" lon="9.421975"><ele>237.0</ele><time>2026-04-16T13:00:05.616Z</time></trkpt><trkpt lat="45.6536123" lon="9.4219625"><ele>237.0</ele><time>2026-04-16T13:00:07.616Z</time></trkpt><trkpt lat="45.653689" lon="9.4219784"><ele>236.5</ele><time>2026-04-16T13:00:08.616Z</time></trkpt><trkpt lat="45.6538031" lon="9.4219528"><ele>236.0</ele><time>2026-04-16T13:00:10.616Z</time></trkpt><trkpt lat="45.653923" lon="9.4219159"><ele>235.5</ele><time>2026-04-16T13:00:12.616Z</time></trkpt><trkpt lat="45.6540309" lon="9.4218772"><ele>235.0</ele><time>2026-04-16T13:00:14.616Z</time></trkpt><trkpt lat="45.6542737" lon="9.421846"><ele>235.0</ele><time>2026-04-16T13:00:19.616Z</time></trkpt><trkpt lat="45.6543723" lon="9.4217999"><ele>235.0</ele><time>2026-04-16T13:00:21.617Z</time></trkpt><trkpt lat="45.6544841" lon="9.4217657"><ele>235.0</ele><time>2026-04-16T13:00:23.616Z</time></trkpt><trkpt lat="45.6546016" lon="9.4217239"><ele>235.0</ele><time>2026-04-16T13:00:25.616Z</time></trkpt><trkpt lat="45.6547173" lon="9.421726"><ele>235.2</ele><time>2026-04-16T13:00:27.616Z</time></trkpt><trkpt lat="45.6548311" lon="9.4217844"><ele>235.4</ele><time>2026-04-16T13:00:29.616Z</time></trkpt><trkpt lat="45.6549003" lon="9.4217877"><ele>235.60000000000002</ele><time>2026-04-16T13:00:30.616Z</time></trkpt><trkpt lat="45.654969" lon="9.4218088"><ele>235.8</ele><time>2026-04-16T13:00:31.616Z</time></trkpt><trkpt lat="45.6550956" lon="9.4218448"><ele>236.0</ele><time>2026-04-16T13:00:33.616Z</time></trkpt><trkpt lat="45.6552216" lon="9.4218895"><ele>235.8</ele><time>2026-04-16T13:00:35.616Z</time></trkpt><trkpt lat="45.6552904" lon="9.4219309"><ele>235.60000000000002</ele><time>2026-04-16T13:00:36.617Z</time></trkpt><trkpt lat="45.655376" lon="9.4219997"><ele>235.4</ele><time>2026-04-16T13:00:38.616Z</time></trkpt><trkpt lat="45.6554366" lon="9.422032"><ele>235.2</ele><time>2026-04-16T13:00:39.616Z</time></trkpt><trkpt lat="45.6555444" lon="9.4220976"><ele>235.0</ele><time>2026-04-16T13:00:41.616Z</time></trkpt><trkpt lat="45.6556596" lon="9.4221687"><ele>235.0</ele><time>2026-04-16T13:00:43.617Z</time></trkpt><trkpt lat="45.6557282" lon="9.4222171"><ele>234.99999999999997</ele><time>2026-04-16T13:00:44.616Z</time></trkpt><trkpt lat="45.6557907" lon="9.4222553"><ele>235.0</ele><time>2026-04-16T13:00:45.616Z</time></trkpt><trkpt lat="45.6558565" lon="9.4223034"><ele>235.0</ele><time>2026-04-16T13:00:46.616Z</time></trkpt><trkpt lat="45.655931" lon="9.422335"><ele>234.99999999999997</ele><time>2026-04-16T13:00:47.616Z</time></trkpt><trkpt lat="45.6560024" lon="9.4223619"><ele>235.0</ele><time>2026-04-16T13:00:48.617Z</time></trkpt><trkpt lat="45.6560718" lon="9.4223923"><ele>235.0</ele><time>2026-04-16T13:00:49.616Z</time></trkpt><trkpt lat="45.6561362" lon="9.4224097"><ele>235.2</ele><time>2026-04-16T13:00:50.616Z</time></trkpt><trkpt lat="45.656252" lon="9.422463"><ele>235.4</ele><time>2026-04-16T13:00:52.616Z</time></trkpt><trkpt lat="45.6563181" lon="9.4224893"><ele>235.60000000000002</ele><time>2026-04-16T13:00:53.617Z</time></trkpt><trkpt lat="45.6564342" lon="9.4225574"><ele>235.8</ele><time>2026-04-16T13:00:55.616Z</time></trkpt><trkpt lat="45.6565007" lon="9.4226012"><ele>236.0</ele><time>2026-04-16T13:00:56.616Z</time></trkpt><trkpt lat="45.6566077" lon="9.4226512"><ele>236.0</ele><time>2026-04-16T13:00:58.617Z</time></trkpt><trkpt lat="45.6566738" lon="9.4226984"><ele>236.00000000000003</ele><time>2026-04-16T13:00:59.616Z</time></trkpt><trkpt lat="45.6567994" lon="9.4227383"><ele>236.00000000000003</ele><time>2026-04-16T13:01:01.617Z</time></trkpt><trkpt lat="45.6569083" lon="9.4227922"><ele>236.0</ele><time>2026-04-16T13:01:03.616Z</time></trkpt><trkpt lat="45.6569818" lon="9.4228103"><ele>236.0</ele><time>2026-04-16T13:01:04.616Z</time></trkpt><trkpt lat="45.6571078" lon="9.4228634"><ele>236.00000000000003</ele><time>2026-04-16T13:01:06.617Z</time></trkpt><trkpt lat="45.6572294" lon="9.4229059"><ele>236.0</ele><time>2026-04-16T13:01:08.617Z</time></trkpt><trkpt lat="45.657296" lon="9.4229282"><ele>236.0</ele><time>2026-04-16T13:01:09.616Z</time></trkpt><trkpt lat="45.6573637" lon="9.4229522"><ele>236.0</ele><time>2026-04-16T13:01:10.616Z</time></trkpt><trkpt lat="45.6574333" lon="9.4229675"><ele>236.00000000000003</ele><time>2026-04-16T13:01:11.617Z</time></trkpt><trkpt lat="45.6575098" lon="9.422976"><ele>236.0</ele><time>2026-04-16T13:01:12.616Z</time></trkpt><trkpt lat="45.6575849" lon="9.4229868"><ele>236.0</ele><time>2026-04-16T13:01:13.616Z</time></trkpt><trkpt lat="45.6577069" lon="9.422979"><ele>236.00000000000003</ele><time>2026-04-16T13:01:15.617Z</time></trkpt><trkpt lat="45.6577698" lon="9.422992"><ele>236.00000000000003</ele><time>2026-04-16T13:01:16.616Z</time></trkpt><trkpt lat="45.6578308" lon="9.4230228"><ele>236.0</ele><time>2026-04-16T13:01:17.616Z</time></trkpt><trkpt lat="45.65795" lon="9.4230483"><ele>236.0</ele><time>2026-04-16T13:01:19.616Z</time></trkpt><trkpt lat="45.6580333" lon="9.4231157"><ele>235.8</ele><time>2026-04-16T13:01:20.616Z</time></trkpt><trkpt lat="45.6580946" lon="9.4231709"><ele>235.60000000000002</ele><time>2026-04-16T13:01:21.616Z</time></trkpt><trkpt lat="45.6582105" lon="9.4232446"><ele>235.4</ele><time>2026-04-16T13:01:23.616Z</time></trkpt><trkpt lat="45.6582637" lon="9.4233041"><ele>235.2</ele><time>2026-04-16T13:01:24.616Z</time></trkpt><trkpt lat="45.6583673" lon="9.4233834"><ele>235.0</ele><time>2026-04-16T13:01:26.616Z</time></trkpt><trkpt lat="45.658425" lon="9.4234357"><ele>235.0</ele><time>2026-04-16T13:01:27.616Z</time></trkpt><trkpt lat="45.6585318" lon="9.4235196"><ele>235.0</ele><time>2026-04-16T13:01:29.616Z</time></trkpt><trkpt lat="45.6586361" lon="9.4236136"><ele>235.0</ele><time>2026-04-16T13:01:31.616Z</time></trkpt><trkpt lat="45.6587365" lon="9.4236916"><ele>235.0</ele><time>2026-04-16T13:01:33.616Z</time></trkpt><trkpt lat="45.6587931" lon="9.4237362"><ele>235.0</ele><time>2026-04-16T13:01:34.616Z</time></trkpt><trkpt lat="45.658903" lon="9.4238329"><ele>235.0</ele><time>2026-04-16T13:01:36.616Z</time></trkpt><trkpt lat="45.6589958" lon="9.4239312"><ele>235.0</ele><time>2026-04-16T13:01:38.616Z</time></trkpt><trkpt lat="45.6590743" lon="9.4240531"><ele>235.0</ele><time>2026-04-16T13:01:40.616Z</time></trkpt><trkpt lat="45.6591113" lon="9.4241746"><ele>235.0</ele><time>2026-04-16T13:01:42.617Z</time></trkpt><trkpt lat="45.6590909" lon="9.4242946"><ele>235.0</ele><time>2026-04-16T13:01:44.616Z</time></trkpt><trkpt lat="45.6590454" lon="9.4244061"><ele>235.0</ele><time>2026-04-16T13:01:46.616Z</time></trkpt><trkpt lat="45.659065" lon="9.4245444"><ele>235.0</ele><time>2026-04-16T13:01:48.616Z</time></trkpt><trkpt lat="45.6591326" lon="9.4246444"><ele>235.0</ele><time>2026-04-16T13:01:50.617Z</time></trkpt><trkpt lat="45.6592135" lon="9.4247321"><ele>235.0</ele><time>2026-04-16T13:01:52.616Z</time></trkpt><trkpt lat="45.6592841" lon="9.4248355"><ele>235.0</ele><time>2026-04-16T13:01:54.616Z</time></trkpt><trkpt lat="45.6593759" lon="9.4249187"><ele>235.2</ele><time>2026-04-16T13:01:56.616Z</time></trkpt><trkpt lat="45.6594648" lon="9.4249994"><ele>235.4</ele><time>2026-04-16T13:01:58.617Z</time></trkpt><trkpt lat="45.659562" lon="9.4250802"><ele>235.60000000000002</ele><time>2026-04-16T13:02:00.616Z</time></trkpt><trkpt lat="45.6596577" lon="9.4251542"><ele>235.8</ele><time>2026-04-16T13:02:02.617Z</time></trkpt><trkpt lat="45.6597602" lon="9.4252239"><ele>236.0</ele><time>2026-04-16T13:02:04.616Z</time></trkpt><trkpt lat="45.6598163" lon="9.4252821"><ele>236.0</ele><time>2026-04-16T13:02:05.617Z</time></trkpt><trkpt lat="45.6598962" lon="9.42536"><ele>236.00000000000003</ele><time>2026-04-16T13:02:07.616Z</time></trkpt><trkpt lat="45.6599887" lon="9.4254492"><ele>236.00000000000003</ele><time>2026-04-16T13:02:09.616Z</time></trkpt><trkpt lat="45.660095" lon="9.4255509"><ele>236.0</ele><time>2026-04-16T13:02:11.616Z</time></trkpt><trkpt lat="45.6601521" lon="9.4256007"><ele>236.0</ele><time>2026-04-16T13:02:12.616Z</time></trkpt><trkpt lat="45.6602503" lon="9.4256779"><ele>236.00000000000003</ele><time>2026-04-16T13:02:14.616Z</time></trkpt><trkpt lat="45.6603049" lon="9.4257259"><ele>236.0</ele><time>2026-04-16T13:02:15.616Z</time></trkpt><trkpt lat="45.6603937" lon="9.4258166"><ele>236.0</ele><time>2026-04-16T13:02:17.617Z</time></trkpt><trkpt lat="45.6604447" lon="9.4258777"><ele>236.0</ele><time>2026-04-16T13:02:18.617Z</time></trkpt><trkpt lat="45.6604978" lon="9.4259292"><ele>236.00000000000003</ele><time>2026-04-16T13:02:19.616Z</time></trkpt><trkpt lat="45.6605966" lon="9.4260151"><ele>236.0</ele><time>2026-04-16T13:02:21.616Z</time></trkpt><trkpt lat="45.6606947" lon="9.4261255"><ele>236.00000000000003</ele><time>2026-04-16T13:02:23.616Z</time></trkpt><trkpt lat="45.6607885" lon="9.4262349"><ele>236.0</ele><time>2026-04-16T13:02:25.616Z</time></trkpt><trkpt lat="45.660838" lon="9.4262935"><ele>236.0</ele><time>2026-04-16T13:02:26.616Z</time></trkpt><trkpt lat="45.6608919" lon="9.4263427"><ele>236.0</ele><time>2026-04-16T13:02:27.617Z</time></trkpt><trkpt lat="45.6609916" lon="9.4264522"><ele>236.00000000000003</ele><time>2026-04-16T13:02:29.617Z</time></trkpt><trkpt lat="45.6610418" lon="9.426508"><ele>236.0</ele><time>2026-04-16T13:02:30.616Z</time></trkpt><trkpt lat="45.6611342" lon="9.4266067"><ele>236.5</ele><time>2026-04-16T13:02:32.616Z</time></trkpt><trkpt lat="45.6612334" lon="9.426698"><ele>237.0</ele><time>2026-04-16T13:02:34.617Z</time></trkpt><trkpt lat="45.6613264" lon="9.4267939"><ele>237.5</ele><time>2026-04-16T13:02:36.617Z</time></trkpt><trkpt lat="45.6614279" lon="9.4268527"><ele>238.0</ele><time>2026-04-16T13:02:38.616Z</time></trkpt><trkpt lat="45.6615305" lon="9.4269396"><ele>237.99999999999997</ele><time>2026-04-16T13:02:40.617Z</time></trkpt><trkpt lat="45.6616127" lon="9.4270108"><ele>238.0</ele><time>2026-04-16T13:02:42.617Z</time></trkpt><trkpt lat="45.6616682" lon="9.4270727"><ele>238.0</ele><time>2026-04-16T13:02:43.616Z</time></trkpt><trkpt lat="45.6617203" lon="9.4271316"><ele>238.0</ele><time>2026-04-16T13:02:44.616Z</time></trkpt><trkpt lat="45.6618113" lon="9.4272721"><ele>237.99999999999997</ele><time>2026-04-16T13:02:46.616Z</time></trkpt><trkpt lat="45.6618756" lon="9.427305"><ele>238.0</ele><time>2026-04-16T13:02:47.616Z</time></trkpt><trkpt lat="45.6619714" lon="9.4274035"><ele>237.83333333333331</ele><time>2026-04-16T13:02:49.616Z</time></trkpt><trkpt lat="45.6620527" lon="9.4274856"><ele>237.66666666666666</ele><time>2026-04-16T13:02:51.616Z</time></trkpt><trkpt lat="45.6621202" lon="9.4275712"><ele>237.5</ele><time>2026-04-16T13:02:53.616Z</time></trkpt><trkpt lat="45.6621703" lon="9.4276277"><ele>237.33333333333331</ele><time>2026-04-16T13:02:54.616Z</time></trkpt><trkpt lat="45.6622673" lon="9.427717"><ele>237.16666666666666</ele><time>2026-04-16T13:02:56.616Z</time></trkpt><trkpt lat="45.6623264" lon="9.4277659"><ele>237.0</ele><time>2026-04-16T13:02:57.616Z</time></trkpt><trkpt lat="45.6623787" lon="9.4278266"><ele>237.0</ele><time>2026-04-16T13:02:58.616Z</time></trkpt><trkpt lat="45.662486" lon="9.427907"><ele>237.0</ele><time>2026-04-16T13:03:00.617Z</time></trkpt><trkpt lat="45.6625841" lon="9.4279826"><ele>237.0</ele><time>2026-04-16T13:03:02.616Z</time></trkpt><trkpt lat="45.6626746" lon="9.4280957"><ele>237.0</ele><time>2026-04-16T13:03:04.616Z</time></trkpt><trkpt lat="45.6627848" lon="9.4281645"><ele>237.39999999999998</ele><time>2026-04-16T13:03:06.617Z</time></trkpt><trkpt lat="45.6628894" lon="9.4282826"><ele>237.79999999999998</ele><time>2026-04-16T13:03:08.617Z</time></trkpt><trkpt lat="45.6629528" lon="9.4283555"><ele>238.2</ele><time>2026-04-16T13:03:09.616Z</time></trkpt><trkpt lat="45.6630194" lon="9.4284774"><ele>238.6</ele><time>2026-04-16T13:03:11.616Z</time></trkpt><trkpt lat="45.6630542" lon="9.4286231"><ele>239.0</ele><time>2026-04-16T13:03:13.616Z</time></trkpt><trkpt lat="45.6631418" lon="9.4287091"><ele>239.0</ele><time>2026-04-16T13:03:15.617Z</time></trkpt><trkpt lat="45.6632528" lon="9.4287537"><ele>238.99999999999997</ele><time>2026-04-16T13:03:17.616Z</time></trkpt><trkpt lat="45.6633157" lon="9.4287761"><ele>238.99999999999997</ele><time>2026-04-16T13:03:18.616Z</time></trkpt><trkpt lat="45.6634275" lon="9.428843"><ele>239.0</ele><time>2026-04-16T13:03:20.616Z</time></trkpt><trkpt lat="45.6634858" lon="9.4288908"><ele>239.0</ele><time>2026-04-16T13:03:21.617Z</time></trkpt><trkpt lat="45.6635894" lon="9.4289838"><ele>238.83333333333334</ele><time>2026-04-16T13:03:23.616Z</time></trkpt><trkpt lat="45.6636942" lon="9.4290798"><ele>238.66666666666669</ele><time>2026-04-16T13:03:25.617Z</time></trkpt><trkpt lat="45.6637491" lon="9.4291354"><ele>238.5</ele><time>2026-04-16T13:03:26.617Z</time></trkpt><trkpt lat="45.663803" lon="9.4291902"><ele>238.33333333333331</ele><time>2026-04-16T13:03:27.616Z</time></trkpt><trkpt lat="45.6638613" lon="9.4292427"><ele>238.16666666666666</ele><time>2026-04-16T13:03:28.617Z</time></trkpt><trkpt lat="45.6639191" lon="9.4293085"><ele>238.0</ele><time>2026-04-16T13:03:29.616Z</time></trkpt><trkpt lat="45.6640157" lon="9.4293902"><ele>237.99999999999997</ele><time>2026-04-16T13:03:31.616Z</time></trkpt><trkpt lat="45.6640736" lon="9.4294355"><ele>238.0</ele><time>2026-04-16T13:03:32.616Z</time></trkpt><trkpt lat="45.6641306" lon="9.4294803"><ele>238.0</ele><time>2026-04-16T13:03:33.616Z</time></trkpt><trkpt lat="45.664185" lon="9.4295285"><ele>238.0</ele><time>2026-04-16T13:03:34.616Z</time></trkpt><trkpt lat="45.6642923" lon="9.429638"><ele>237.99999999999997</ele><time>2026-04-16T13:03:36.617Z</time></trkpt><trkpt lat="45.6643525" lon="9.4297024"><ele>238.0</ele><time>2026-04-16T13:03:37.616Z</time></trkpt><trkpt lat="45.6644038" lon="9.4297548"><ele>238.49999999999997</ele><time>2026-04-16T13:03:38.616Z</time></trkpt><trkpt lat="45.6644557" lon="9.4298065"><ele>239.0</ele><time>2026-04-16T13:03:39.616Z</time></trkpt><trkpt lat="45.6645121" lon="9.4298601"><ele>239.5</ele><time>2026-04-16T13:03:40.617Z</time></trkpt><trkpt lat="45.6646076" lon="9.4299441"><ele>240.0</ele><time>2026-04-16T13:03:42.616Z</time></trkpt><trkpt lat="45.6646616" lon="9.4299971"><ele>240.49999999999997</ele><time>2026-04-16T13:03:43.617Z</time></trkpt><trkpt lat="45.6647137" lon="9.4300776"><ele>241.0</ele><time>2026-04-16T13:03:44.617Z</time></trkpt><trkpt lat="45.6647695" lon="9.4301296"><ele>240.99999999999997</ele><time>2026-04-16T13:03:45.617Z</time></trkpt><trkpt lat="45.6648237" lon="9.4301799"><ele>241.0</ele><time>2026-04-16T13:03:46.616Z</time></trkpt><trkpt lat="45.6649276" lon="9.4302795"><ele>241.0</ele><time>2026-04-16T13:03:48.616Z</time></trkpt><trkpt lat="45.6649853" lon="9.430338"><ele>241.0</ele><time>2026-04-16T13:03:49.617Z</time></trkpt><trkpt lat="45.6650338" lon="9.430406"><ele>240.99999999999997</ele><time>2026-04-16T13:03:50.616Z</time></trkpt><trkpt lat="45.6650902" lon="9.4304522"><ele>241.0</ele><time>2026-04-16T13:03:51.616Z</time></trkpt><trkpt lat="45.6651958" lon="9.4305639"><ele>241.20000000000002</ele><time>2026-04-16T13:03:53.616Z</time></trkpt><trkpt lat="45.6652523" lon="9.4306257"><ele>241.40000000000003</ele><time>2026-04-16T13:03:54.616Z</time></trkpt><trkpt lat="45.6653616" lon="9.4307407"><ele>241.6</ele><time>2026-04-16T13:03:56.616Z</time></trkpt><trkpt lat="45.6654697" lon="9.4308345"><ele>241.8</ele><time>2026-04-16T13:03:58.616Z</time></trkpt><trkpt lat="45.6655232" lon="9.4308847"><ele>242.0</ele><time>2026-04-16T13:03:59.616Z</time></trkpt><trkpt lat="45.6656289" lon="9.4309764"><ele>242.00000000000003</ele><time>2026-04-16T13:04:01.616Z</time></trkpt><trkpt lat="45.6657294" lon="9.4310444"><ele>242.0</ele><time>2026-04-16T13:04:03.616Z</time></trkpt><trkpt lat="45.6657843" lon="9.4310919"><ele>242.0</ele><time>2026-04-16T13:04:04.616Z</time></trkpt><trkpt lat="45.6658394" lon="9.4311369"><ele>242.0</ele><time>2026-04-16T13:04:05.616Z</time></trkpt><trkpt lat="45.6659087" lon="9.4311862"><ele>242.00000000000003</ele><time>2026-04-16T13:04:06.616Z</time></trkpt><trkpt lat="45.6660014" lon="9.4312961"><ele>242.0</ele><time>2026-04-16T13:04:08.616Z</time></trkpt><trkpt lat="45.6660495" lon="9.4313553"><ele>241.8</ele><time>2026-04-16T13:04:09.617Z</time></trkpt><trkpt lat="45.6661506" lon="9.4314439"><ele>241.6</ele><time>2026-04-16T13:04:11.616Z</time></trkpt><trkpt lat="45.6662591" lon="9.4315274"><ele>241.40000000000003</ele><time>2026-04-16T13:04:13.616Z</time></trkpt><trkpt lat="45.6663555" lon="9.4316303"><ele>241.20000000000002</ele><time>2026-04-16T13:04:15.616Z</time></trkpt><trkpt lat="45.6664064" lon="9.4316882"><ele>241.0</ele><time>2026-04-16T13:04:16.616Z</time></trkpt><trkpt lat="45.6664571" lon="9.4317461"><ele>241.0</ele><time>2026-04-16T13:04:17.616Z</time></trkpt><trkpt lat="45.6665554" lon="9.431848"><ele>241.0</ele><time>2026-04-16T13:04:19.616Z</time></trkpt><trkpt lat="45.6666561" lon="9.4319411"><ele>241.0</ele><time>2026-04-16T13:04:21.976Z</time></trkpt><trkpt lat="45.666762" lon="9.4320189"><ele>241.0</ele><time>2026-04-16T13:04:23.614Z</time></trkpt><trkpt lat="45.6668344" lon="9.432105"><ele>241.4</ele><time>2026-04-16T13:04:25.615Z</time></trkpt><trkpt lat="45.6668919" lon="9.4321825"><ele>241.8</ele><time>2026-04-16T13:04:29.614Z</time></trkpt><trkpt lat="45.6669657" lon="9.4322449"><ele>242.20000000000002</ele><time>2026-04-16T13:04:32.615Z</time></trkpt><trkpt lat="45.6670338" lon="9.4323107"><ele>242.60000000000002</ele><time>2026-04-16T13:04:34.614Z</time></trkpt><trkpt lat="45.6671202" lon="9.4324307"><ele>243.0</ele><time>2026-04-16T13:04:36.614Z</time></trkpt><trkpt lat="45.6672026" lon="9.4325251"><ele>243.0</ele><time>2026-04-16T13:04:38.614Z</time></trkpt><trkpt lat="45.6673051" lon="9.432645"><ele>243.0</ele><time>2026-04-16T13:04:40.614Z</time></trkpt><trkpt lat="45.6673582" lon="9.4326967"><ele>243.0</ele><time>2026-04-16T13:04:41.614Z</time></trkpt><trkpt lat="45.6674536" lon="9.4327855"><ele>243.0</ele><time>2026-04-16T13:04:43.614Z</time></trkpt><trkpt lat="45.6675498" lon="9.4328814"><ele>243.0</ele><time>2026-04-16T13:04:45.614Z</time></trkpt><trkpt lat="45.667642" lon="9.4329763"><ele>243.4</ele><time>2026-04-16T13:04:47.615Z</time></trkpt><trkpt lat="45.6677389" lon="9.4330592"><ele>243.8</ele><time>2026-04-16T13:04:49.615Z</time></trkpt><trkpt lat="45.6678311" lon="9.4331519"><ele>244.2</ele><time>2026-04-16T13:04:51.614Z</time></trkpt><trkpt lat="45.6678812" lon="9.4332073"><ele>244.6</ele><time>2026-04-16T13:04:52.614Z</time></trkpt><trkpt lat="45.6679839" lon="9.4333054"><ele>245.0</ele><time>2026-04-16T13:04:54.614Z</time></trkpt><trkpt lat="45.6680807" lon="9.4333977"><ele>245.2</ele><time>2026-04-16T13:04:56.614Z</time></trkpt><trkpt lat="45.6681781" lon="9.4334993"><ele>245.4</ele><time>2026-04-16T13:04:58.614Z</time></trkpt><trkpt lat="45.6682818" lon="9.4335956"><ele>245.60000000000002</ele><time>2026-04-16T13:05:00.614Z</time></trkpt><trkpt lat="45.668382" lon="9.4336916"><ele>245.8</ele><time>2026-04-16T13:05:02.614Z</time></trkpt><trkpt lat="45.6684362" lon="9.433738"><ele>246.0</ele><time>2026-04-16T13:05:03.614Z</time></trkpt><trkpt lat="45.6685379" lon="9.4338343"><ele>245.5</ele><time>2026-04-16T13:05:05.614Z</time></trkpt><trkpt lat="45.6686339" lon="9.4339353"><ele>245.0</ele><time>2026-04-16T13:05:07.614Z</time></trkpt><trkpt lat="45.6687308" lon="9.4340272"><ele>244.5</ele><time>2026-04-16T13:05:09.614Z</time></trkpt><trkpt lat="45.6688372" lon="9.4341197"><ele>244.0</ele><time>2026-04-16T13:05:11.614Z</time></trkpt><trkpt lat="45.6689355" lon="9.4342169"><ele>244.0</ele><time>2026-04-16T13:05:13.614Z</time></trkpt><trkpt lat="45.6690369" lon="9.4343064"><ele>243.99999999999997</ele><time>2026-04-16T13:05:15.614Z</time></trkpt><trkpt lat="45.6690895" lon="9.4343559"><ele>243.99999999999997</ele><time>2026-04-16T13:05:16.614Z</time></trkpt><trkpt lat="45.6691927" lon="9.4344539"><ele>244.0</ele><time>2026-04-16T13:05:18.614Z</time></trkpt><trkpt lat="45.6692927" lon="9.4345565"><ele>244.0</ele><time>2026-04-16T13:05:20.615Z</time></trkpt><trkpt lat="45.669346" lon="9.4346118"><ele>244.16666666666666</ele><time>2026-04-16T13:05:21.615Z</time></trkpt><trkpt lat="45.6693974" lon="9.4346655"><ele>244.33333333333331</ele><time>2026-04-16T13:05:22.614Z</time></trkpt><trkpt lat="45.6694473" lon="9.4347243"><ele>244.5</ele><time>2026-04-16T13:05:23.615Z</time></trkpt><trkpt lat="45.669545" lon="9.4348364"><ele>244.66666666666669</ele><time>2026-04-16T13:05:25.615Z</time></trkpt><trkpt lat="45.6695958" lon="9.4348929"><ele>244.83333333333334</ele><time>2026-04-16T13:05:26.614Z</time></trkpt><trkpt lat="45.66965" lon="9.4349533"><ele>245.0</ele><time>2026-04-16T13:05:27.614Z</time></trkpt><trkpt lat="45.6697014" lon="9.4350055"><ele>245.2</ele><time>2026-04-16T13:05:28.614Z</time></trkpt><trkpt lat="45.6698071" lon="9.4351224"><ele>245.4</ele><time>2026-04-16T13:05:30.614Z</time></trkpt><trkpt lat="45.6698625" lon="9.4351928"><ele>245.60000000000002</ele><time>2026-04-16T13:05:31.614Z</time></trkpt><trkpt lat="45.6699151" lon="9.4352633"><ele>245.8</ele><time>2026-04-16T13:05:32.614Z</time></trkpt><trkpt lat="45.6699677" lon="9.4353172"><ele>246.0</ele><time>2026-04-16T13:05:33.615Z</time></trkpt><trkpt lat="45.6700662" lon="9.4354208"><ele>246.20000000000002</ele><time>2026-04-16T13:05:35.614Z</time></trkpt><trkpt lat="45.6701656" lon="9.4355267"><ele>246.40000000000003</ele><time>2026-04-16T13:05:37.614Z</time></trkpt><trkpt lat="45.6702172" lon="9.4355815"><ele>246.6</ele><time>2026-04-16T13:05:38.614Z</time></trkpt><trkpt lat="45.6703104" lon="9.4356957"><ele>246.8</ele><time>2026-04-16T13:05:40.614Z</time></trkpt><trkpt lat="45.6704044" lon="9.4358201"><ele>247.0</ele><time>2026-04-16T13:05:42.615Z</time></trkpt><trkpt lat="45.6704719" lon="9.4359364"><ele>247.39999999999998</ele><time>2026-04-16T13:05:44.614Z</time></trkpt><trkpt lat="45.670543" lon="9.4360585"><ele>247.79999999999998</ele><time>2026-04-16T13:05:46.614Z</time></trkpt><trkpt lat="45.6704826" lon="9.4361436"><ele>248.2</ele><time>2026-04-16T13:05:49.614Z</time></trkpt><trkpt lat="45.6704303" lon="9.436245"><ele>248.6</ele><time>2026-04-16T13:05:51.614Z</time></trkpt><trkpt lat="45.6703834" lon="9.4363809"><ele>249.0</ele><time>2026-04-16T13:05:53.614Z</time></trkpt><trkpt lat="45.6703249" lon="9.4365197"><ele>248.75</ele><time>2026-04-16T13:05:55.615Z</time></trkpt><trkpt lat="45.6702731" lon="9.4366551"><ele>248.5</ele><time>2026-04-16T13:05:57.614Z</time></trkpt><trkpt lat="45.6701916" lon="9.4367979"><ele>248.25</ele><time>2026-04-16T13:05:59.614Z</time></trkpt><trkpt lat="45.6701253" lon="9.4369332"><ele>248.0</ele><time>2026-04-16T13:06:01.615Z</time></trkpt><trkpt lat="45.6700619" lon="9.4370789"><ele>248.00000000000003</ele><time>2026-04-16T13:06:03.614Z</time></trkpt><trkpt lat="45.6700256" lon="9.4371561"><ele>248.0</ele><time>2026-04-16T13:06:04.614Z</time></trkpt><trkpt lat="45.6699739" lon="9.437232"><ele>248.0</ele><time>2026-04-16T13:06:05.614Z</time></trkpt><trkpt lat="45.6699099" lon="9.4373667"><ele>248.0</ele><time>2026-04-16T13:06:07.614Z</time></trkpt><trkpt lat="45.6698744" lon="9.4374438"><ele>248.00000000000003</ele><time>2026-04-16T13:06:08.614Z</time></trkpt><trkpt lat="45.6698041" lon="9.4375855"><ele>248.0</ele><time>2026-04-16T13:06:10.614Z</time></trkpt><trkpt lat="45.6697583" lon="9.4376517"><ele>248.0</ele><time>2026-04-16T13:06:11.614Z</time></trkpt><trkpt lat="45.6697113" lon="9.4377213"><ele>248.0</ele><time>2026-04-16T13:06:12.614Z</time></trkpt><trkpt lat="45.6696346" lon="9.4378478"><ele>248.0</ele><time>2026-04-16T13:06:14.614Z</time></trkpt><trkpt lat="45.6696057" lon="9.4379843"><ele>248.0</ele><time>2026-04-16T13:06:16.615Z</time></trkpt><trkpt lat="45.6696898" lon="9.438065"><ele>248.0</ele><time>2026-04-16T13:06:18.614Z</time></trkpt><trkpt lat="45.6697634" lon="9.438177"><ele>248.4</ele><time>2026-04-16T13:06:20.614Z</time></trkpt><trkpt lat="45.6698491" lon="9.438306"><ele>248.8</ele><time>2026-04-16T13:06:22.615Z</time></trkpt><trkpt lat="45.6699049" lon="9.4383691"><ele>249.2</ele><time>2026-04-16T13:06:23.615Z</time></trkpt><trkpt lat="45.6699931" lon="9.4384732"><ele>249.6</ele><time>2026-04-16T13:06:25.614Z</time></trkpt><trkpt lat="45.6701022" lon="9.438575"><ele>250.0</ele><time>2026-04-16T13:06:27.614Z</time></trkpt><trkpt lat="45.6701586" lon="9.4386383"><ele>250.0</ele><time>2026-04-16T13:06:28.614Z</time></trkpt><trkpt lat="45.6702273" lon="9.4386981"><ele>250.0</ele><time>2026-04-16T13:06:29.615Z</time></trkpt><trkpt lat="45.6702861" lon="9.4387598"><ele>250.0</ele><time>2026-04-16T13:06:30.614Z</time></trkpt><trkpt lat="45.6703415" lon="9.4388217"><ele>250.0</ele><time>2026-04-16T13:06:31.614Z</time></trkpt><trkpt lat="45.6703956" lon="9.4388774"><ele>250.0</ele><time>2026-04-16T13:06:32.615Z</time></trkpt><trkpt lat="45.6704568" lon="9.4389292"><ele>250.0</ele><time>2026-04-16T13:06:33.614Z</time></trkpt><trkpt lat="45.6705158" lon="9.4389836"><ele>250.0</ele><time>2026-04-16T13:06:34.614Z</time></trkpt><trkpt lat="45.6705759" lon="9.4390329"><ele>250.6</ele><time>2026-04-16T13:06:35.614Z</time></trkpt><trkpt lat="45.6706854" lon="9.4391206"><ele>251.2</ele><time>2026-04-16T13:06:37.614Z</time></trkpt><trkpt lat="45.6707459" lon="9.4391738"><ele>251.8</ele><time>2026-04-16T13:06:38.614Z</time></trkpt><trkpt lat="45.6708023" lon="9.4392316"><ele>252.4</ele><time>2026-04-16T13:06:39.614Z</time></trkpt><trkpt lat="45.6708621" lon="9.4392937"><ele>253.0</ele><time>2026-04-16T13:06:40.614Z</time></trkpt><trkpt lat="45.6709731" lon="9.439391"><ele>253.00000000000003</ele><time>2026-04-16T13:06:42.614Z</time></trkpt><trkpt lat="45.6710303" lon="9.4394499"><ele>253.0</ele><time>2026-04-16T13:06:43.614Z</time></trkpt><trkpt lat="45.6710876" lon="9.4395062"><ele>253.00000000000003</ele><time>2026-04-16T13:06:44.614Z</time></trkpt><trkpt lat="45.6711434" lon="9.4395604"><ele>253.00000000000003</ele><time>2026-04-16T13:06:45.614Z</time></trkpt><trkpt lat="45.6712026" lon="9.4396084"><ele>253.0</ele><time>2026-04-16T13:06:46.614Z</time></trkpt><trkpt lat="45.6712587" lon="9.4396576"><ele>253.00000000000003</ele><time>2026-04-16T13:06:47.614Z</time></trkpt><trkpt lat="45.6713172" lon="9.4397126"><ele>253.00000000000003</ele><time>2026-04-16T13:06:48.615Z</time></trkpt><trkpt lat="45.6713749" lon="9.4397615"><ele>253.28571428571433</ele><time>2026-04-16T13:06:49.615Z</time></trkpt><trkpt lat="45.6714359" lon="9.4398268"><ele>253.57142857142858</ele><time>2026-04-16T13:06:50.614Z</time></trkpt><trkpt lat="45.6714907" lon="9.4398816"><ele>253.8571428571429</ele><time>2026-04-16T13:06:51.614Z</time></trkpt><trkpt lat="45.6715522" lon="9.4399385"><ele>254.14285714285717</ele><time>2026-04-16T13:06:52.614Z</time></trkpt><trkpt lat="45.671617" lon="9.4400043"><ele>254.42857142857144</ele><time>2026-04-16T13:06:53.614Z</time></trkpt><trkpt lat="45.671674" lon="9.4400571"><ele>254.71428571428572</ele><time>2026-04-16T13:06:54.615Z</time></trkpt><trkpt lat="45.6717366" lon="9.4401165"><ele>255.0</ele><time>2026-04-16T13:06:55.614Z</time></trkpt><trkpt lat="45.6717927" lon="9.440176"><ele>255.0</ele><time>2026-04-16T13:06:56.614Z</time></trkpt><trkpt lat="45.6718504" lon="9.4402227"><ele>255.0</ele><time>2026-04-16T13:06:57.615Z</time></trkpt><trkpt lat="45.6719128" lon="9.4402946"><ele>255.0</ele><time>2026-04-16T13:06:58.614Z</time></trkpt><trkpt lat="45.6720382" lon="9.4403566"><ele>255.0</ele><time>2026-04-16T13:07:00.614Z</time></trkpt><trkpt lat="45.6720932" lon="9.4404089"><ele>255.0</ele><time>2026-04-16T13:07:01.615Z</time></trkpt><trkpt lat="45.6721505" lon="9.4404619"><ele>255.0</ele><time>2026-04-16T13:07:02.614Z</time></trkpt><trkpt lat="45.6722024" lon="9.4405236"><ele>255.4</ele><time>2026-04-16T13:07:03.615Z</time></trkpt><trkpt lat="45.6722574" lon="9.4405721"><ele>255.8</ele><time>2026-04-16T13:07:04.614Z</time></trkpt><trkpt lat="45.6723093" lon="9.4406253"><ele>256.2</ele><time>2026-04-16T13:07:05.614Z</time></trkpt><trkpt lat="45.6723732" lon="9.4407083"><ele>256.6</ele><time>2026-04-16T13:07:06.614Z</time></trkpt><trkpt lat="45.6724829" lon="9.4407975"><ele>257.0</ele><time>2026-04-16T13:07:08.614Z</time></trkpt><trkpt lat="45.6725791" lon="9.4409059"><ele>257.0</ele><time>2026-04-16T13:07:10.614Z</time></trkpt><trkpt lat="45.6726305" lon="9.4409894"><ele>257.0</ele><time>2026-04-16T13:07:11.614Z</time></trkpt><trkpt lat="45.6727351" lon="9.4410838"><ele>257.0</ele><time>2026-04-16T13:07:13.614Z</time></trkpt><trkpt lat="45.6728214" lon="9.4412056"><ele>257.0</ele><time>2026-04-16T13:07:15.614Z</time></trkpt><trkpt lat="45.6729007" lon="9.4412999"><ele>257.0</ele><time>2026-04-16T13:07:17.614Z</time></trkpt><trkpt lat="45.6729373" lon="9.4413827"><ele>257.6</ele><time>2026-04-16T13:07:18.615Z</time></trkpt><trkpt lat="45.6729972" lon="9.4414988"><ele>258.2</ele><time>2026-04-16T13:07:20.614Z</time></trkpt><trkpt lat="45.6730581" lon="9.4416136"><ele>258.8</ele><time>2026-04-16T13:07:22.615Z</time></trkpt><trkpt lat="45.6731058" lon="9.4416879"><ele>259.4</ele><time>2026-04-16T13:07:23.614Z</time></trkpt><trkpt lat="45.673175" lon="9.4418012"><ele>260.0</ele><time>2026-04-16T13:07:25.614Z</time></trkpt><trkpt lat="45.6732408" lon="9.4418899"><ele>260.0</ele><time>2026-04-16T13:07:27.614Z</time></trkpt><trkpt lat="45.6733076" lon="9.4419951"><ele>260.0</ele><time>2026-04-16T13:07:29.614Z</time></trkpt><trkpt lat="45.6733784" lon="9.4420859"><ele>260.0</ele><time>2026-04-16T13:07:31.615Z</time></trkpt><trkpt lat="45.6734421" lon="9.4421716"><ele>260.0</ele><time>2026-04-16T13:07:33.614Z</time></trkpt><trkpt lat="45.6735137" lon="9.4422529"><ele>260.0</ele><time>2026-04-16T13:07:35.614Z</time></trkpt><trkpt lat="45.6735756" lon="9.4423249"><ele>260.2</ele><time>2026-04-16T13:07:37.614Z</time></trkpt><trkpt lat="45.6736385" lon="9.4424303"><ele>260.4</ele><time>2026-04-16T13:07:39.615Z</time></trkpt><trkpt lat="45.6737054" lon="9.4425133"><ele>260.6</ele><time>2026-04-16T13:07:41.614Z</time></trkpt><trkpt lat="45.6737805" lon="9.4426361"><ele>260.8</ele><time>2026-04-16T13:07:43.615Z</time></trkpt><trkpt lat="45.6738577" lon="9.4427511"><ele>261.0</ele><time>2026-04-16T13:07:45.615Z</time></trkpt><trkpt lat="45.6739166" lon="9.4428814"><ele>261.0</ele><time>2026-04-16T13:07:47.614Z</time></trkpt><trkpt lat="45.6739728" lon="9.4430232"><ele>261.0</ele><time>2026-04-16T13:07:49.614Z</time></trkpt><trkpt lat="45.6740452" lon="9.4431582"><ele>261.0</ele><time>2026-04-16T13:07:51.614Z</time></trkpt><trkpt lat="45.6741185" lon="9.4432998"><ele>261.0</ele><time>2026-04-16T13:07:53.615Z</time></trkpt><trkpt lat="45.6741826" lon="9.4434397"><ele>261.0</ele><time>2026-04-16T13:07:55.614Z</time></trkpt><trkpt lat="45.6742451" lon="9.4435689"><ele>261.0</ele><time>2026-04-16T13:07:57.614Z</time></trkpt><trkpt lat="45.6743146" lon="9.4437024"><ele>261.0</ele><time>2026-04-16T13:07:59.615Z</time></trkpt><trkpt lat="45.6743828" lon="9.4438344"><ele>261.0</ele><time>2026-04-16T13:08:01.614Z</time></trkpt><trkpt lat="45.6744542" lon="9.4439681"><ele>261.6</ele><time>2026-04-16T13:08:03.614Z</time></trkpt><trkpt lat="45.6744945" lon="9.4440421"><ele>262.20000000000005</ele><time>2026-04-16T13:08:04.614Z</time></trkpt><trkpt lat="45.67457" lon="9.4441619"><ele>262.79999999999995</ele><time>2026-04-16T13:08:06.615Z</time></trkpt><trkpt lat="45.6746307" lon="9.4442691"><ele>263.4</ele><time>2026-04-16T13:08:08.614Z</time></trkpt><trkpt lat="45.6747054" lon="9.4444081"><ele>264.0</ele><time>2026-04-16T13:08:10.614Z</time></trkpt><trkpt lat="45.6747504" lon="9.4444907"><ele>263.6666666666667</ele><time>2026-04-16T13:08:11.614Z</time></trkpt><trkpt lat="45.6748183" lon="9.444636"><ele>263.3333333333333</ele><time>2026-04-16T13:08:13.614Z</time></trkpt><trkpt lat="45.6748559" lon="9.4447141"><ele>263.0</ele><time>2026-04-16T13:08:14.614Z</time></trkpt><trkpt lat="45.6748908" lon="9.4447902"><ele>262.66666666666663</ele><time>2026-04-16T13:08:15.614Z</time></trkpt><trkpt lat="45.6749578" lon="9.4449339"><ele>262.3333333333333</ele><time>2026-04-16T13:08:17.614Z</time></trkpt><trkpt lat="45.6749892" lon="9.4450258"><ele>262.0</ele><time>2026-04-16T13:08:18.615Z</time></trkpt><trkpt lat="45.6750567" lon="9.4451585"><ele>262.0</ele><time>2026-04-16T13:08:20.614Z</time></trkpt><trkpt lat="45.6750962" lon="9.4452399"><ele>262.0</ele><time>2026-04-16T13:08:21.614Z</time></trkpt><trkpt lat="45.6751697" lon="9.4453757"><ele>262.0</ele><time>2026-04-16T13:08:23.615Z</time></trkpt><trkpt lat="45.6752362" lon="9.445518"><ele>262.0</ele><time>2026-04-16T13:08:25.614Z</time></trkpt><trkpt lat="45.6752745" lon="9.4455931"><ele>262.0</ele><time>2026-04-16T13:08:26.615Z</time></trkpt><trkpt lat="45.6753099" lon="9.4456731"><ele>262.0</ele><time>2026-04-16T13:08:27.614Z</time></trkpt><trkpt lat="45.6753825" lon="9.445825"><ele>262.0</ele><time>2026-04-16T13:08:29.614Z</time></trkpt><trkpt lat="45.6754198" lon="9.4458982"><ele>262.0</ele><time>2026-04-16T13:08:30.614Z</time></trkpt><trkpt lat="45.6754918" lon="9.4460433"><ele>262.0</ele><time>2026-04-16T13:08:32.615Z</time></trkpt><trkpt lat="45.6755283" lon="9.4461289"><ele>262.0</ele><time>2026-04-16T13:08:33.615Z</time></trkpt><trkpt lat="45.6756007" lon="9.4462656"><ele>262.0</ele><time>2026-04-16T13:08:35.614Z</time></trkpt><trkpt lat="45.6756386" lon="9.4463462"><ele>262.0</ele><time>2026-04-16T13:08:36.615Z</time></trkpt><trkpt lat="45.6756951" lon="9.4464497"><ele>262.4</ele><time>2026-04-16T13:08:38.614Z</time></trkpt><trkpt lat="45.6757384" lon="9.4465384"><ele>262.79999999999995</ele><time>2026-04-16T13:08:40.614Z</time></trkpt><trkpt lat="45.6758049" lon="9.4466118"><ele>263.2</ele><time>2026-04-16T13:08:57.614Z</time></trkpt><trkpt lat="45.675849" lon="9.446734"><ele>263.59999999999997</ele><time>2026-04-16T13:08:59.614Z</time></trkpt><trkpt lat="45.6758944" lon="9.4468239"><ele>264.0</ele><time>2026-04-16T13:09:00.614Z</time></trkpt><trkpt lat="45.6759626" lon="9.4469646"><ele>264.0</ele><time>2026-04-16T13:09:02.614Z</time></trkpt><trkpt lat="45.676021" lon="9.4470837"><ele>264.0</ele><time>2026-04-16T13:09:04.615Z</time></trkpt><trkpt lat="45.6760864" lon="9.4472184"><ele>264.0</ele><time>2026-04-16T13:09:06.615Z</time></trkpt><trkpt lat="45.6761222" lon="9.4472931"><ele>264.0</ele><time>2026-04-16T13:09:07.614Z</time></trkpt><trkpt lat="45.6761872" lon="9.4474273"><ele>264.0</ele><time>2026-04-16T13:09:09.615Z</time></trkpt><trkpt lat="45.6762217" lon="9.4475087"><ele>264.0</ele><time>2026-04-16T13:09:10.615Z</time></trkpt><trkpt lat="45.6762929" lon="9.4476582"><ele>264.0</ele><time>2026-04-16T13:09:12.614Z</time></trkpt><trkpt lat="45.676366" lon="9.4478007"><ele>264.0</ele><time>2026-04-16T13:09:14.615Z</time></trkpt><trkpt lat="45.676397" lon="9.4478797"><ele>264.0</ele><time>2026-04-16T13:09:15.614Z</time></trkpt><trkpt lat="45.6764347" lon="9.4479553"><ele>264.0</ele><time>2026-04-16T13:09:16.614Z</time></trkpt><trkpt lat="45.6764982" lon="9.4481066"><ele>264.1428571428571</ele><time>2026-04-16T13:09:18.614Z</time></trkpt><trkpt lat="45.67654" lon="9.4481875"><ele>264.2857142857143</ele><time>2026-04-16T13:09:19.615Z</time></trkpt><trkpt lat="45.6765885" lon="9.4482466"><ele>264.42857142857144</ele><time>2026-04-16T13:09:20.614Z</time></trkpt><trkpt lat="45.6766286" lon="9.4483263"><ele>264.57142857142856</ele><time>2026-04-16T13:09:21.614Z</time></trkpt><trkpt lat="45.6766714" lon="9.4484027"><ele>264.7142857142857</ele><time>2026-04-16T13:09:22.614Z</time></trkpt><trkpt lat="45.67671" lon="9.4484755"><ele>264.85714285714283</ele><time>2026-04-16T13:09:23.614Z</time></trkpt><trkpt lat="45.6767466" lon="9.4485515"><ele>265.0</ele><time>2026-04-16T13:09:24.614Z</time></trkpt><trkpt lat="45.6767938" lon="9.4486322"><ele>264.99999999999994</ele><time>2026-04-16T13:09:25.614Z</time></trkpt><trkpt lat="45.6768338" lon="9.4487162"><ele>265.0</ele><time>2026-04-16T13:09:26.614Z</time></trkpt><trkpt lat="45.6768796" lon="9.4487962"><ele>265.0</ele><time>2026-04-16T13:09:27.614Z</time></trkpt><trkpt lat="45.6769187" lon="9.4488751"><ele>265.0</ele><time>2026-04-16T13:09:28.614Z</time></trkpt><trkpt lat="45.6769602" lon="9.4489572"><ele>265.0</ele><time>2026-04-16T13:09:29.614Z</time></trkpt><trkpt lat="45.6769979" lon="9.4490328"><ele>264.99999999999994</ele><time>2026-04-16T13:09:30.614Z</time></trkpt><trkpt lat="45.6770403" lon="9.4491255"><ele>265.0</ele><time>2026-04-16T13:09:31.614Z</time></trkpt><trkpt lat="45.6770812" lon="9.4492338"><ele>264.3333333333333</ele><time>2026-04-16T13:09:32.614Z</time></trkpt><trkpt lat="45.6771356" lon="9.4493189"><ele>263.66666666666663</ele><time>2026-04-16T13:09:33.615Z</time></trkpt><trkpt lat="45.6771779" lon="9.4494185"><ele>263.0</ele><time>2026-04-16T13:09:34.614Z</time></trkpt><trkpt lat="45.6772225" lon="9.4495131"><ele>262.3333333333333</ele><time>2026-04-16T13:09:35.614Z</time></trkpt><trkpt lat="45.6772645" lon="9.449598"><ele>261.6666666666667</ele><time>2026-04-16T13:09:36.614Z</time></trkpt><trkpt lat="45.6773081" lon="9.4496871"><ele>261.0</ele><time>2026-04-16T13:09:37.614Z</time></trkpt><trkpt lat="45.6773496" lon="9.4497639"><ele>260.8333333333333</ele><time>2026-04-16T13:09:38.614Z</time></trkpt><trkpt lat="45.6773968" lon="9.4498528"><ele>260.6666666666667</ele><time>2026-04-16T13:09:39.615Z</time></trkpt><trkpt lat="45.6774466" lon="9.4499491"><ele>260.5</ele><time>2026-04-16T13:09:40.614Z</time></trkpt><trkpt lat="45.677493" lon="9.4500345"><ele>260.33333333333337</ele><time>2026-04-16T13:09:41.614Z</time></trkpt><trkpt lat="45.677536" lon="9.450119"><ele>260.1666666666667</ele><time>2026-04-16T13:09:42.614Z</time></trkpt><trkpt lat="45.6775786" lon="9.4502013"><ele>260.0</ele><time>2026-04-16T13:09:43.615Z</time></trkpt><trkpt lat="45.6776204" lon="9.4502827"><ele>260.0</ele><time>2026-04-16T13:09:44.614Z</time></trkpt><trkpt lat="45.6776662" lon="9.450363"><ele>260.0</ele><time>2026-04-16T13:09:45.614Z</time></trkpt><trkpt lat="45.6777092" lon="9.4504582"><ele>260.0</ele><time>2026-04-16T13:09:46.615Z</time></trkpt><trkpt lat="45.6777655" lon="9.4505491"><ele>260.0</ele><time>2026-04-16T13:09:47.614Z</time></trkpt><trkpt lat="45.6778249" lon="9.450656"><ele>260.0</ele><time>2026-04-16T13:09:48.614Z</time></trkpt><trkpt lat="45.6778752" lon="9.4507399"><ele>260.0</ele><time>2026-04-16T13:09:49.615Z</time></trkpt><trkpt lat="45.6779323" lon="9.4508145"><ele>260.0</ele><time>2026-04-16T13:09:50.614Z</time></trkpt><trkpt lat="45.6779948" lon="9.450877"><ele>260.0</ele><time>2026-04-16T13:09:51.614Z</time></trkpt><trkpt lat="45.6780607" lon="9.4509491"><ele>260.0</ele><time>2026-04-16T13:09:52.615Z</time></trkpt><trkpt lat="45.6781074" lon="9.4510193"><ele>260.0</ele><time>2026-04-16T13:09:53.615Z</time></trkpt><trkpt lat="45.678176" lon="9.4510791"><ele>260.0</ele><time>2026-04-16T13:09:54.614Z</time></trkpt><trkpt lat="45.6782308" lon="9.4511301"><ele>260.0</ele><time>2026-04-16T13:09:55.614Z</time></trkpt><trkpt lat="45.6783135" lon="9.4511906"><ele>260.0</ele><time>2026-04-16T13:09:56.614Z</time></trkpt><trkpt lat="45.6783826" lon="9.4512439"><ele>260.0</ele><time>2026-04-16T13:09:57.614Z</time></trkpt><trkpt lat="45.6784616" lon="9.4512969"><ele>260.0</ele><time>2026-04-16T13:09:58.614Z</time></trkpt><trkpt lat="45.6785463" lon="9.4513601"><ele>260.0</ele><time>2026-04-16T13:09:59.615Z</time></trkpt><trkpt lat="45.678628" lon="9.4514002"><ele>260.0</ele><time>2026-04-16T13:10:00.614Z</time></trkpt><trkpt lat="45.6787074" lon="9.4514267"><ele>260.0</ele><time>2026-04-16T13:10:01.614Z</time></trkpt><trkpt lat="45.6787831" lon="9.4514484"><ele>259.6666666666667</ele><time>2026-04-16T13:10:02.614Z</time></trkpt><trkpt lat="45.6788615" lon="9.4514663"><ele>259.33333333333337</ele><time>2026-04-16T13:10:03.614Z</time></trkpt><trkpt lat="45.6789413" lon="9.4514766"><ele>259.0</ele><time>2026-04-16T13:10:04.614Z</time></trkpt><trkpt lat="45.6790217" lon="9.4514755"><ele>258.6666666666667</ele><time>2026-04-16T13:10:05.615Z</time></trkpt><trkpt lat="45.6791061" lon="9.4514718"><ele>258.3333333333333</ele><time>2026-04-16T13:10:06.614Z</time></trkpt><trkpt lat="45.6791863" lon="9.4514793"><ele>258.0</ele><time>2026-04-16T13:10:07.614Z</time></trkpt><trkpt lat="45.6792675" lon="9.4514937"><ele>258.0</ele><time>2026-04-16T13:10:08.614Z</time></trkpt><trkpt lat="45.6793471" lon="9.4514974"><ele>258.0</ele><time>2026-04-16T13:10:09.614Z</time></trkpt><trkpt lat="45.6794279" lon="9.4514937"><ele>258.0</ele><time>2026-04-16T13:10:10.614Z</time></trkpt><trkpt lat="45.6795121" lon="9.4515031"><ele>258.0</ele><time>2026-04-16T13:10:11.614Z</time></trkpt><trkpt lat="45.6796047" lon="9.4515125"><ele>258.0</ele><time>2026-04-16T13:10:12.614Z</time></trkpt><trkpt lat="45.6796894" lon="9.4515154"><ele>258.0</ele><time>2026-04-16T13:10:13.614Z</time></trkpt><trkpt lat="45.6797688" lon="9.4515128"><ele>258.5</ele><time>2026-04-16T13:10:14.614Z</time></trkpt><trkpt lat="45.679847" lon="9.4515049"><ele>259.0</ele><time>2026-04-16T13:10:15.614Z</time></trkpt><trkpt lat="45.679924" lon="9.4515068"><ele>259.5</ele><time>2026-04-16T13:10:16.614Z</time></trkpt><trkpt lat="45.6800047" lon="9.4515105"><ele>260.0</ele><time>2026-04-16T13:10:17.614Z</time></trkpt><trkpt lat="45.6801005" lon="9.4515094"><ele>260.5</ele><time>2026-04-16T13:10:18.614Z</time></trkpt><trkpt lat="45.6801948" lon="9.4515131"><ele>261.0</ele><time>2026-04-16T13:10:19.614Z</time></trkpt><trkpt lat="45.6802776" lon="9.4515059"><ele>261.3333333333333</ele><time>2026-04-16T13:10:20.614Z</time></trkpt><trkpt lat="45.680358" lon="9.4515137"><ele>261.6666666666667</ele><time>2026-04-16T13:10:21.615Z</time></trkpt><trkpt lat="45.6804257" lon="9.4514962"><ele>262.0</ele><time>2026-04-16T13:10:22.614Z</time></trkpt><trkpt lat="45.6805106" lon="9.451504"><ele>262.33333333333337</ele><time>2026-04-16T13:10:23.614Z</time></trkpt><trkpt lat="45.6805887" lon="9.4514879"><ele>262.6666666666667</ele><time>2026-04-16T13:10:24.614Z</time></trkpt><trkpt lat="45.6806665" lon="9.4514606"><ele>263.0</ele><time>2026-04-16T13:10:25.615Z</time></trkpt><trkpt lat="45.6807404" lon="9.4514497"><ele>263.0</ele><time>2026-04-16T13:10:26.614Z</time></trkpt><trkpt lat="45.6808065" lon="9.4514513"><ele>263.0</ele><time>2026-04-16T13:10:27.614Z</time></trkpt><trkpt lat="45.6808768" lon="9.4514273"><ele>263.0</ele><time>2026-04-16T13:10:28.614Z</time></trkpt><trkpt lat="45.6809624" lon="9.4514686"><ele>263.0</ele><time>2026-04-16T13:10:29.614Z</time></trkpt><trkpt lat="45.6810285" lon="9.4514714"><ele>263.0</ele><time>2026-04-16T13:10:30.615Z</time></trkpt><trkpt lat="45.6811105" lon="9.4515152"><ele>263.0</ele><time>2026-04-16T13:10:31.614Z</time></trkpt><trkpt lat="45.6811835" lon="9.4515404"><ele>262.1666666666667</ele><time>2026-04-16T13:10:32.614Z</time></trkpt><trkpt lat="45.6812499" lon="9.4515223"><ele>261.33333333333337</ele><time>2026-04-16T13:10:33.615Z</time></trkpt><trkpt lat="45.6813172" lon="9.4514554"><ele>260.5</ele><time>2026-04-16T13:10:34.614Z</time></trkpt><trkpt lat="45.6814033" lon="9.4514602"><ele>259.6666666666667</ele><time>2026-04-16T13:10:35.614Z</time></trkpt><trkpt lat="45.6814712" lon="9.45139"><ele>258.8333333333333</ele><time>2026-04-16T13:10:37.614Z</time></trkpt><trkpt lat="45.6815341" lon="9.4512979"><ele>258.0</ele><time>2026-04-16T13:10:39.614Z</time></trkpt><trkpt lat="45.6815865" lon="9.4512399"><ele>257.99999999999994</ele><time>2026-04-16T13:10:40.614Z</time></trkpt><trkpt lat="45.6816359" lon="9.4511802"><ele>258.0</ele><time>2026-04-16T13:10:41.614Z</time></trkpt><trkpt lat="45.6816831" lon="9.4511018"><ele>258.0</ele><time>2026-04-16T13:10:42.614Z</time></trkpt><trkpt lat="45.681729" lon="9.4510213"><ele>258.0</ele><time>2026-04-16T13:10:43.615Z</time></trkpt><trkpt lat="45.6817755" lon="9.4509397"><ele>258.0</ele><time>2026-04-16T13:10:44.614Z</time></trkpt><trkpt lat="45.6818181" lon="9.4508572"><ele>257.99999999999994</ele><time>2026-04-16T13:10:45.614Z</time></trkpt><trkpt lat="45.6818667" lon="9.4507775"><ele>258.0</ele><time>2026-04-16T13:10:46.614Z</time></trkpt><trkpt lat="45.6819083" lon="9.4506942"><ele>257.0</ele><time>2026-04-16T13:10:47.614Z</time></trkpt><trkpt lat="45.6819569" lon="9.4506025"><ele>256.0</ele><time>2026-04-16T13:10:48.614Z</time></trkpt><trkpt lat="45.681994" lon="9.4505142"><ele>255.0</ele><time>2026-04-16T13:10:49.614Z</time></trkpt><trkpt lat="45.6820405" lon="9.450436"><ele>254.0</ele><time>2026-04-16T13:10:50.614Z</time></trkpt><trkpt lat="45.6820811" lon="9.4503538"><ele>253.0</ele><time>2026-04-16T13:10:51.614Z</time></trkpt><trkpt lat="45.6821769" lon="9.4502515"><ele>252.0</ele><time>2026-04-16T13:10:53.614Z</time></trkpt><trkpt lat="45.6822875" lon="9.4501615"><ele>252.0</ele><time>2026-04-16T13:10:55.615Z</time></trkpt><trkpt lat="45.6823475" lon="9.4501166"><ele>252.0</ele><time>2026-04-16T13:10:56.615Z</time></trkpt><trkpt lat="45.6824114" lon="9.4500795"><ele>252.0</ele><time>2026-04-16T13:10:57.614Z</time></trkpt><trkpt lat="45.6824736" lon="9.450039"><ele>252.0</ele><time>2026-04-16T13:10:58.615Z</time></trkpt><trkpt lat="45.682531" lon="9.4499816"><ele>252.0</ele><time>2026-04-16T13:10:59.614Z</time></trkpt><trkpt lat="45.6826077" lon="9.4499319"><ele>252.0</ele><time>2026-04-16T13:11:00.614Z</time></trkpt><trkpt lat="45.6826762" lon="9.4498848"><ele>252.0</ele><time>2026-04-16T13:11:01.615Z</time></trkpt><trkpt lat="45.6827428" lon="9.4498576"><ele>247.0</ele><time>2026-04-16T13:11:02.614Z</time></trkpt><trkpt lat="45.6828378" lon="9.4498406"><ele>242.0</ele><time>2026-04-16T13:11:03.614Z</time></trkpt><trkpt lat="45.6829225" lon="9.4498032"><ele>237.0</ele><time>2026-04-16T13:11:04.614Z</time></trkpt><trkpt lat="45.6830116" lon="9.449759"><ele>232.0</ele><time>2026-04-16T13:11:05.615Z</time></trkpt><trkpt lat="45.6830908" lon="9.4497145"><ele>227.0</ele><time>2026-04-16T13:11:06.615Z</time></trkpt><trkpt lat="45.6831547" lon="9.4496933"><ele>222.0</ele><time>2026-04-16T13:11:07.614Z</time></trkpt><trkpt lat="45.6832345" lon="9.4496547"><ele>226.33333333333334</ele><time>2026-04-16T13:11:08.614Z</time></trkpt><trkpt lat="45.6833133" lon="9.4496084"><ele>230.66666666666669</ele><time>2026-04-16T13:11:09.614Z</time></trkpt><trkpt lat="45.6834015" lon="9.4495911"><ele>235.0</ele><time>2026-04-16T13:11:10.615Z</time></trkpt><trkpt lat="45.6834574" lon="9.4495491"><ele>239.33333333333334</ele><time>2026-04-16T13:11:11.614Z</time></trkpt><trkpt lat="45.6835479" lon="9.4495465"><ele>243.66666666666669</ele><time>2026-04-16T13:11:12.615Z</time></trkpt><trkpt lat="45.6836192" lon="9.4495162"><ele>248.0</ele><time>2026-04-16T13:11:13.614Z</time></trkpt><trkpt lat="45.6837051" lon="9.4495191"><ele>248.00000000000003</ele><time>2026-04-16T13:11:14.614Z</time></trkpt><trkpt lat="45.6837908" lon="9.4495282"><ele>248.0</ele><time>2026-04-16T13:11:15.614Z</time></trkpt><trkpt lat="45.6838761" lon="9.4495223"><ele>248.0</ele><time>2026-04-16T13:11:16.615Z</time></trkpt><trkpt lat="45.6839535" lon="9.4495273"><ele>248.0</ele><time>2026-04-16T13:11:17.615Z</time></trkpt><trkpt lat="45.684024" lon="9.4495505"><ele>248.00000000000003</ele><time>2026-04-16T13:11:18.615Z</time></trkpt><trkpt lat="45.684102" lon="9.4495778"><ele>248.0</ele><time>2026-04-16T13:11:19.614Z</time></trkpt><trkpt lat="45.6841825" lon="9.4495959"><ele>248.00000000000003</ele><time>2026-04-16T13:11:20.615Z</time></trkpt><trkpt lat="45.6842471" lon="9.4496094"><ele>248.0</ele><time>2026-04-16T13:11:21.615Z</time></trkpt><trkpt lat="45.6843194" lon="9.449627"><ele>248.0</ele><time>2026-04-16T13:11:22.614Z</time></trkpt><trkpt lat="45.6844082" lon="9.4496082"><ele>248.0</ele><time>2026-04-16T13:11:23.614Z</time></trkpt><trkpt lat="45.6844983" lon="9.4496062"><ele>248.00000000000003</ele><time>2026-04-16T13:11:24.615Z</time></trkpt><trkpt lat="45.6845903" lon="9.4495825"><ele>248.0</ele><time>2026-04-16T13:11:25.614Z</time></trkpt><trkpt lat="45.6846675" lon="9.44957"><ele>247.66666666666669</ele><time>2026-04-16T13:11:26.615Z</time></trkpt><trkpt lat="45.684743" lon="9.4495657"><ele>247.33333333333334</ele><time>2026-04-16T13:11:27.614Z</time></trkpt><trkpt lat="45.6848187" lon="9.4495818"><ele>247.0</ele><time>2026-04-16T13:11:28.614Z</time></trkpt><trkpt lat="45.6848902" lon="9.4496001"><ele>246.66666666666669</ele><time>2026-04-16T13:11:29.615Z</time></trkpt><trkpt lat="45.6849563" lon="9.4496435"><ele>246.33333333333334</ele><time>2026-04-16T13:11:30.615Z</time></trkpt><trkpt lat="45.6850344" lon="9.449684"><ele>246.0</ele><time>2026-04-16T13:11:31.615Z</time></trkpt><trkpt lat="45.6851056" lon="9.4497375"><ele>240.16666666666666</ele><time>2026-04-16T13:11:32.614Z</time></trkpt><trkpt lat="45.6851668" lon="9.449794"><ele>234.33333333333331</ele><time>2026-04-16T13:11:33.614Z</time></trkpt><trkpt lat="45.6852399" lon="9.4498442"><ele>228.5</ele><time>2026-04-16T13:11:34.614Z</time></trkpt><trkpt lat="45.6853218" lon="9.4498697"><ele>222.66666666666666</ele><time>2026-04-16T13:11:35.615Z</time></trkpt><trkpt lat="45.6853975" lon="9.4499071"><ele>216.83333333333331</ele><time>2026-04-16T13:11:36.614Z</time></trkpt><trkpt lat="45.6854816" lon="9.4499671"><ele>211.0</ele><time>2026-04-16T13:11:37.614Z</time></trkpt><trkpt lat="45.6855966" lon="9.4499829"><ele>210.99999999999997</ele><time>2026-04-16T13:11:38.614Z</time></trkpt><trkpt lat="45.6856593" lon="9.4500706"><ele>211.0</ele><time>2026-04-16T13:11:39.614Z</time></trkpt><trkpt lat="45.6857287" lon="9.4500657"><ele>211.0</ele><time>2026-04-16T13:11:40.614Z</time></trkpt><trkpt lat="45.6857939" lon="9.4500802"><ele>211.0</ele><time>2026-04-16T13:11:41.615Z</time></trkpt><trkpt lat="45.6858603" lon="9.4501226"><ele>210.99999999999997</ele><time>2026-04-16T13:11:42.615Z</time></trkpt><trkpt lat="45.6859761" lon="9.4502121"><ele>211.0</ele><time>2026-04-16T13:11:44.615Z</time></trkpt><trkpt lat="45.6860892" lon="9.4502866"><ele>213.20000000000002</ele><time>2026-04-16T13:11:46.614Z</time></trkpt><trkpt lat="45.686187" lon="9.4503601"><ele>215.4</ele><time>2026-04-16T13:11:48.614Z</time></trkpt><trkpt lat="45.6862401" lon="9.4504269"><ele>217.6</ele><time>2026-04-16T13:11:49.614Z</time></trkpt><trkpt lat="45.6863186" lon="9.4504862"><ele>219.8</ele><time>2026-04-16T13:11:51.614Z</time></trkpt><trkpt lat="45.6864053" lon="9.4505491"><ele>222.0</ele><time>2026-04-16T13:11:53.614Z</time></trkpt><trkpt lat="45.686498" lon="9.450632"><ele>220.14285714285714</ele><time>2026-04-16T13:11:55.615Z</time></trkpt><trkpt lat="45.6865527" lon="9.4506942"><ele>218.2857142857143</ele><time>2026-04-16T13:11:56.614Z</time></trkpt><trkpt lat="45.6866205" lon="9.450736"><ele>216.42857142857144</ele><time>2026-04-16T13:11:57.615Z</time></trkpt><trkpt lat="45.686687" lon="9.4507882"><ele>214.57142857142856</ele><time>2026-04-16T13:11:58.614Z</time></trkpt><trkpt lat="45.6867535" lon="9.4508314"><ele>212.71428571428572</ele><time>2026-04-16T13:11:59.614Z</time></trkpt><trkpt lat="45.686812" lon="9.4508707"><ele>210.85714285714286</ele><time>2026-04-16T13:12:00.614Z</time></trkpt><trkpt lat="45.6868754" lon="9.4509253"><ele>209.0</ele><time>2026-04-16T13:12:01.615Z</time></trkpt><trkpt lat="45.6869952" lon="9.450984"><ele>209.0</ele><time>2026-04-16T13:12:03.615Z</time></trkpt><trkpt lat="45.6870689" lon="9.4510064"><ele>209.0</ele><time>2026-04-16T13:12:04.615Z</time></trkpt><trkpt lat="45.6871407" lon="9.4510318"><ele>209.0</ele><time>2026-04-16T13:12:05.614Z</time></trkpt><trkpt lat="45.6872091" lon="9.451044"><ele>209.0</ele><time>2026-04-16T13:12:06.614Z</time></trkpt><trkpt lat="45.6872806" lon="9.4510655"><ele>209.0</ele><time>2026-04-16T13:12:07.614Z</time></trkpt><trkpt lat="45.6873494" lon="9.4510572"><ele>209.0</ele><time>2026-04-16T13:12:08.614Z</time></trkpt><trkpt lat="45.6874208" lon="9.4510754"><ele>209.0</ele><time>2026-04-16T13:12:09.615Z</time></trkpt><trkpt lat="45.6875593" lon="9.4510746"><ele>209.00000000000003</ele><time>2026-04-16T13:12:11.615Z</time></trkpt><trkpt lat="45.6876347" lon="9.4510678"><ele>209.0</ele><time>2026-04-16T13:12:12.614Z</time></trkpt><trkpt lat="45.6877088" lon="9.4510647"><ele>209.0</ele><time>2026-04-16T13:12:13.614Z</time></trkpt><trkpt lat="45.6877984" lon="9.4510456"><ele>209.0</ele><time>2026-04-16T13:12:14.614Z</time></trkpt><trkpt lat="45.6878685" lon="9.4510417"><ele>209.00000000000003</ele><time>2026-04-16T13:12:15.614Z</time></trkpt><trkpt lat="45.687939" lon="9.4510383"><ele>209.0</ele><time>2026-04-16T13:12:16.614Z</time></trkpt><trkpt lat="45.6880631" lon="9.4510274"><ele>210.00000000000003</ele><time>2026-04-16T13:12:18.614Z</time></trkpt><trkpt lat="45.6881267" lon="9.4510165"><ele>211.0</ele><time>2026-04-16T13:12:19.615Z</time></trkpt><trkpt lat="45.6881931" lon="9.4510054"><ele>212.0</ele><time>2026-04-16T13:12:20.615Z</time></trkpt><trkpt lat="45.6883163" lon="9.4509706"><ele>213.0</ele><time>2026-04-16T13:12:22.615Z</time></trkpt><trkpt lat="45.6884136" lon="9.450932"><ele>214.00000000000003</ele><time>2026-04-16T13:12:24.614Z</time></trkpt><trkpt lat="45.6884781" lon="9.4509169"><ele>215.0</ele><time>2026-04-16T13:12:25.615Z</time></trkpt><trkpt lat="45.6885764" lon="9.4509099"><ele>214.8</ele><time>2026-04-16T13:12:27.614Z</time></trkpt><trkpt lat="45.6886838" lon="9.4508934"><ele>214.6</ele><time>2026-04-16T13:12:29.614Z</time></trkpt><trkpt lat="45.6887969" lon="9.4508779"><ele>214.39999999999998</ele><time>2026-04-16T13:12:31.614Z</time></trkpt><trkpt lat="45.6888635" lon="9.4508603"><ele>214.2</ele><time>2026-04-16T13:12:32.614Z</time></trkpt><trkpt lat="45.688971" lon="9.4508728"><ele>214.0</ele><time>2026-04-16T13:12:34.614Z</time></trkpt><trkpt lat="45.6890833" lon="9.4508667"><ele>214.0</ele><time>2026-04-16T13:12:36.615Z</time></trkpt><trkpt lat="45.6891849" lon="9.450873"><ele>213.99999999999997</ele><time>2026-04-16T13:12:38.615Z</time></trkpt><trkpt lat="45.6892424" lon="9.4509106"><ele>213.99999999999997</ele><time>2026-04-16T13:12:39.614Z</time></trkpt><trkpt lat="45.6893441" lon="9.4509687"><ele>214.0</ele><time>2026-04-16T13:12:41.614Z</time></trkpt><trkpt lat="45.6894678" lon="9.451045"><ele>214.0</ele><time>2026-04-16T13:12:43.614Z</time></trkpt><trkpt lat="45.6895222" lon="9.451097"><ele>213.16666666666666</ele><time>2026-04-16T13:12:44.615Z</time></trkpt><trkpt lat="45.6895998" lon="9.4511325"><ele>212.33333333333331</ele><time>2026-04-16T13:12:45.615Z</time></trkpt><trkpt lat="45.6896537" lon="9.4511996"><ele>211.5</ele><time>2026-04-16T13:12:46.614Z</time></trkpt><trkpt lat="45.6896977" lon="9.4512705"><ele>210.66666666666669</ele><time>2026-04-16T13:12:47.615Z</time></trkpt><trkpt lat="45.6897487" lon="9.4513677"><ele>209.83333333333334</ele><time>2026-04-16T13:12:48.614Z</time></trkpt><trkpt lat="45.6898133" lon="9.451417"><ele>209.0</ele><time>2026-04-16T13:12:49.615Z</time></trkpt><trkpt lat="45.6898896" lon="9.4515609"><ele>209.00000000000003</ele><time>2026-04-16T13:12:51.615Z</time></trkpt><trkpt lat="45.6899181" lon="9.4516709"><ele>209.0</ele><time>2026-04-16T13:12:52.614Z</time></trkpt><trkpt lat="45.6900084" lon="9.4517597"><ele>209.0</ele><time>2026-04-16T13:12:54.614Z</time></trkpt><trkpt lat="45.6900567" lon="9.4518187"><ele>209.0</ele><time>2026-04-16T13:12:55.614Z</time></trkpt><trkpt lat="45.6901325" lon="9.4518792"><ele>209.00000000000003</ele><time>2026-04-16T13:12:57.614Z</time></trkpt><trkpt lat="45.6901849" lon="9.4519634"><ele>209.0</ele><time>2026-04-16T13:12:58.615Z</time></trkpt><trkpt lat="45.690241" lon="9.4520182"><ele>208.6</ele><time>2026-04-16T13:12:59.614Z</time></trkpt><trkpt lat="45.6903105" lon="9.4521244"><ele>208.2</ele><time>2026-04-16T13:13:01.614Z</time></trkpt><trkpt lat="45.690401" lon="9.4521947"><ele>207.79999999999998</ele><time>2026-04-16T13:13:03.615Z</time></trkpt><trkpt lat="45.6905176" lon="9.4522197"><ele>207.39999999999998</ele><time>2026-04-16T13:13:05.614Z</time></trkpt><trkpt lat="45.6905901" lon="9.4522578"><ele>207.0</ele><time>2026-04-16T13:13:06.614Z</time></trkpt><trkpt lat="45.6906649" lon="9.4522751"><ele>207.0</ele><time>2026-04-16T13:13:07.614Z</time></trkpt><trkpt lat="45.690733" lon="9.4522924"><ele>207.0</ele><time>2026-04-16T13:13:08.614Z</time></trkpt><trkpt lat="45.6907866" lon="9.4523479"><ele>207.0</ele><time>2026-04-16T13:13:09.614Z</time></trkpt><trkpt lat="45.690917" lon="9.4523783"><ele>207.0</ele><time>2026-04-16T13:13:11.614Z</time></trkpt><trkpt lat="45.6909808" lon="9.4523796"><ele>207.0</ele><time>2026-04-16T13:13:12.615Z</time></trkpt><trkpt lat="45.6910773" lon="9.4523617"><ele>207.0</ele><time>2026-04-16T13:13:13.614Z</time></trkpt><trkpt lat="45.6912109" lon="9.4524204"><ele>208.8</ele><time>2026-04-16T13:13:15.614Z</time></trkpt><trkpt lat="45.691333" lon="9.4524558"><ele>210.6</ele><time>2026-04-16T13:13:17.615Z</time></trkpt><trkpt lat="45.6914308" lon="9.4525684"><ele>212.40000000000003</ele><time>2026-04-16T13:13:19.614Z</time></trkpt><trkpt lat="45.6915406" lon="9.4526434"><ele>214.20000000000002</ele><time>2026-04-16T13:13:21.614Z</time></trkpt><trkpt lat="45.6916122" lon="9.4526783"><ele>216.0</ele><time>2026-04-16T13:13:22.614Z</time></trkpt><trkpt lat="45.6916912" lon="9.4527138"><ele>216.0</ele><time>2026-04-16T13:13:23.615Z</time></trkpt><trkpt lat="45.6917944" lon="9.4527444"><ele>216.00000000000003</ele><time>2026-04-16T13:13:24.614Z</time></trkpt><trkpt lat="45.691864" lon="9.4527495"><ele>216.00000000000003</ele><time>2026-04-16T13:13:25.614Z</time></trkpt><trkpt lat="45.6919189" lon="9.4528068"><ele>216.0</ele><time>2026-04-16T13:13:27.614Z</time></trkpt><trkpt lat="45.6920933" lon="9.4528329"><ele>216.0</ele><time>2026-04-16T13:13:31.614Z</time></trkpt><trkpt lat="45.6921816" lon="9.4529216"><ele>214.0</ele><time>2026-04-16T13:13:33.614Z</time></trkpt><trkpt lat="45.6922793" lon="9.4530001"><ele>212.00000000000003</ele><time>2026-04-16T13:13:35.615Z</time></trkpt><trkpt lat="45.6923358" lon="9.4530421"><ele>210.0</ele><time>2026-04-16T13:13:36.615Z</time></trkpt><trkpt lat="45.6924353" lon="9.4531662"><ele>208.0</ele><time>2026-04-16T13:13:38.615Z</time></trkpt><trkpt lat="45.6925391" lon="9.4532302"><ele>206.0</ele><time>2026-04-16T13:13:40.614Z</time></trkpt><trkpt lat="45.692642" lon="9.4533288"><ele>210.20000000000002</ele><time>2026-04-16T13:13:42.614Z</time></trkpt><trkpt lat="45.6927574" lon="9.4533983"><ele>214.4</ele><time>2026-04-16T13:13:44.614Z</time></trkpt><trkpt lat="45.6928672" lon="9.4534688"><ele>218.6</ele><time>2026-04-16T13:13:46.614Z</time></trkpt><trkpt lat="45.6929291" lon="9.4535043"><ele>222.8</ele><time>2026-04-16T13:13:47.615Z</time></trkpt><trkpt lat="45.6930365" lon="9.4536101"><ele>227.0</ele><time>2026-04-16T13:13:49.614Z</time></trkpt><trkpt lat="45.6931093" lon="9.4536342"><ele>227.0</ele><time>2026-04-16T13:13:50.614Z</time></trkpt><trkpt lat="45.6932085" lon="9.4536849"><ele>227.0</ele><time>2026-04-16T13:13:52.614Z</time></trkpt><trkpt lat="45.6932882" lon="9.4537584"><ele>227.0</ele><time>2026-04-16T13:13:54.614Z</time></trkpt><trkpt lat="45.6933916" lon="9.4538189"><ele>227.0</ele><time>2026-04-16T13:13:56.615Z</time></trkpt><trkpt lat="45.6934563" lon="9.4538802"><ele>227.0</ele><time>2026-04-16T13:13:57.614Z</time></trkpt><trkpt lat="45.6935246" lon="9.4539033"><ele>226.16666666666669</ele><time>2026-04-16T13:13:58.614Z</time></trkpt><trkpt lat="45.6935922" lon="9.4539411"><ele>225.33333333333334</ele><time>2026-04-16T13:13:59.615Z</time></trkpt><trkpt lat="45.6936663" lon="9.4540032"><ele>224.5</ele><time>2026-04-16T13:14:00.614Z</time></trkpt><trkpt lat="45.693732" lon="9.4540507"><ele>223.66666666666669</ele><time>2026-04-16T13:14:01.614Z</time></trkpt><trkpt lat="45.6938656" lon="9.4541063"><ele>222.83333333333334</ele><time>2026-04-16T13:14:03.614Z</time></trkpt><trkpt lat="45.693928" lon="9.4541701"><ele>222.0</ele><time>2026-04-16T13:14:04.615Z</time></trkpt><trkpt lat="45.6940151" lon="9.4542361"><ele>222.0</ele><time>2026-04-16T13:14:06.614Z</time></trkpt><trkpt lat="45.6940808" lon="9.4542506"><ele>222.0</ele><time>2026-04-16T13:14:07.614Z</time></trkpt><trkpt lat="45.6941381" lon="9.4543104"><ele>222.0</ele><time>2026-04-16T13:14:08.614Z</time></trkpt><trkpt lat="45.6942495" lon="9.4544062"><ele>222.0</ele><time>2026-04-16T13:14:10.615Z</time></trkpt><trkpt lat="45.6943098" lon="9.4544706"><ele>222.0</ele><time>2026-04-16T13:14:11.614Z</time></trkpt><trkpt lat="45.6943674" lon="9.4545114"><ele>222.0</ele><time>2026-04-16T13:14:12.614Z</time></trkpt><trkpt lat="45.694465" lon="9.4545724"><ele>223.83333333333334</ele><time>2026-04-16T13:14:13.614Z</time></trkpt><trkpt lat="45.6945313" lon="9.4546119"><ele>225.66666666666669</ele><time>2026-04-16T13:14:14.614Z</time></trkpt><trkpt lat="45.6946056" lon="9.4547027"><ele>227.5</ele><time>2026-04-16T13:14:15.615Z</time></trkpt><trkpt lat="45.6946599" lon="9.4547767"><ele>229.33333333333334</ele><time>2026-04-16T13:14:16.615Z</time></trkpt><trkpt lat="45.6947819" lon="9.4548049"><ele>231.16666666666669</ele><time>2026-04-16T13:14:18.615Z</time></trkpt><trkpt lat="45.6948586" lon="9.4548246"><ele>233.0</ele><time>2026-04-16T13:14:19.614Z</time></trkpt><trkpt lat="45.6949635" lon="9.4548445"><ele>229.50000000000003</ele><time>2026-04-16T13:14:21.614Z</time></trkpt><trkpt lat="45.6950221" lon="9.4548859"><ele>226.0</ele><time>2026-04-16T13:14:22.614Z</time></trkpt><trkpt lat="45.6951142" lon="9.4549402"><ele>222.5</ele><time>2026-04-16T13:14:23.614Z</time></trkpt><trkpt lat="45.6952366" lon="9.4549578"><ele>219.0</ele><time>2026-04-16T13:14:25.614Z</time></trkpt><trkpt lat="45.6953076" lon="9.4549563"><ele>215.50000000000003</ele><time>2026-04-16T13:14:26.615Z</time></trkpt><trkpt lat="45.6953762" lon="9.4549751"><ele>212.0</ele><time>2026-04-16T13:14:27.614Z</time></trkpt><trkpt lat="45.6954435" lon="9.4549966"><ele>212.0</ele><time>2026-04-16T13:14:28.615Z</time></trkpt><trkpt lat="45.6955183" lon="9.4550221"><ele>212.0</ele><time>2026-04-16T13:14:30.615Z</time></trkpt><trkpt lat="45.6956489" lon="9.4550508"><ele>212.0</ele><time>2026-04-16T13:14:32.614Z</time></trkpt><trkpt lat="45.6957242" lon="9.455085"><ele>212.0</ele><time>2026-04-16T13:14:33.614Z</time></trkpt><trkpt lat="45.6958585" lon="9.4551299"><ele>212.0</ele><time>2026-04-16T13:14:35.614Z</time></trkpt><trkpt lat="45.6959376" lon="9.4551561"><ele>212.0</ele><time>2026-04-16T13:14:36.615Z</time></trkpt><trkpt lat="45.6959957" lon="9.4552201"><ele>212.0</ele><time>2026-04-16T13:14:37.614Z</time></trkpt><trkpt lat="45.6961113" lon="9.4552795"><ele>212.0</ele><time>2026-04-16T13:14:39.615Z</time></trkpt><trkpt lat="45.696252" lon="9.4552733"><ele>212.0</ele><time>2026-04-16T13:14:41.615Z</time></trkpt><trkpt lat="45.6963813" lon="9.4552921"><ele>212.0</ele><time>2026-04-16T13:14:43.614Z</time></trkpt><trkpt lat="45.6964962" lon="9.4552957"><ele>212.0</ele><time>2026-04-16T13:14:45.614Z</time></trkpt><trkpt lat="45.6965613" lon="9.4552982"><ele>212.0</ele><time>2026-04-16T13:14:46.614Z</time></trkpt><trkpt lat="45.6966349" lon="9.4552651"><ele>212.0</ele><time>2026-04-16T13:14:47.615Z</time></trkpt><trkpt lat="45.6967316" lon="9.4552644"><ele>212.0</ele><time>2026-04-16T13:14:48.614Z</time></trkpt><trkpt lat="45.6968527" lon="9.4552536"><ele>212.0</ele><time>2026-04-16T13:14:50.614Z</time></trkpt><trkpt lat="45.696959" lon="9.455224"><ele>212.0</ele><time>2026-04-16T13:14:52.614Z</time></trkpt><trkpt lat="45.6970395" lon="9.4552238"><ele>212.0</ele><time>2026-04-16T13:14:53.615Z</time></trkpt><trkpt lat="45.6971161" lon="9.4552209"><ele>212.0</ele><time>2026-04-16T13:14:54.614Z</time></trkpt><trkpt lat="45.6972509" lon="9.455156"><ele>212.0</ele><time>2026-04-16T13:14:56.614Z</time></trkpt><trkpt lat="45.6973777" lon="9.4551236"><ele>212.00000000000003</ele><time>2026-04-16T13:14:58.614Z</time></trkpt><trkpt lat="45.697445" lon="9.4550614"><ele>212.0</ele><time>2026-04-16T13:14:59.614Z</time></trkpt><trkpt lat="45.6975154" lon="9.4550493"><ele>212.0</ele><time>2026-04-16T13:15:00.614Z</time></trkpt><trkpt lat="45.6976279" lon="9.4550135"><ele>212.0</ele><time>2026-04-16T13:15:02.614Z</time></trkpt><trkpt lat="45.6977028" lon="9.4550182"><ele>212.00000000000003</ele><time>2026-04-16T13:15:03.614Z</time></trkpt><trkpt lat="45.6977679" lon="9.4549958"><ele>212.0</ele><time>2026-04-16T13:15:04.614Z</time></trkpt><trkpt lat="45.6978327" lon="9.4549549"><ele>211.16666666666669</ele><time>2026-04-16T13:15:05.614Z</time></trkpt><trkpt lat="45.6978965" lon="9.454956"><ele>210.33333333333334</ele><time>2026-04-16T13:15:06.614Z</time></trkpt><trkpt lat="45.6980048" lon="9.4549549"><ele>209.5</ele><time>2026-04-16T13:15:08.614Z</time></trkpt><trkpt lat="45.6980814" lon="9.4549675"><ele>208.66666666666669</ele><time>2026-04-16T13:15:09.614Z</time></trkpt><trkpt lat="45.6982119" lon="9.4549578"><ele>207.83333333333334</ele><time>2026-04-16T13:15:11.614Z</time></trkpt><trkpt lat="45.6982793" lon="9.4549719"><ele>207.0</ele><time>2026-04-16T13:15:12.614Z</time></trkpt><trkpt lat="45.6984137" lon="9.455013"><ele>207.0</ele><time>2026-04-16T13:15:14.615Z</time></trkpt><trkpt lat="45.6985409" lon="9.4550099"><ele>207.0</ele><time>2026-04-16T13:15:16.614Z</time></trkpt><trkpt lat="45.6986129" lon="9.4550145"><ele>207.0</ele><time>2026-04-16T13:15:17.614Z</time></trkpt><trkpt lat="45.6986729" lon="9.4550641"><ele>207.0</ele><time>2026-04-16T13:15:18.615Z</time></trkpt><trkpt lat="45.6987407" lon="9.455053"><ele>207.0</ele><time>2026-04-16T13:15:19.614Z</time></trkpt><trkpt lat="45.6988189" lon="9.4550625"><ele>207.0</ele><time>2026-04-16T13:15:20.614Z</time></trkpt><trkpt lat="45.6989501" lon="9.4551048"><ele>207.16666666666666</ele><time>2026-04-16T13:15:22.615Z</time></trkpt><trkpt lat="45.6990116" lon="9.455146"><ele>207.33333333333331</ele><time>2026-04-16T13:15:23.614Z</time></trkpt><trkpt lat="45.6990794" lon="9.4552044"><ele>207.5</ele><time>2026-04-16T13:15:25.615Z</time></trkpt><trkpt lat="45.6991597" lon="9.4552492"><ele>207.66666666666666</ele><time>2026-04-16T13:15:27.614Z</time></trkpt><trkpt lat="45.6992616" lon="9.4552922"><ele>207.83333333333331</ele><time>2026-04-16T13:15:29.614Z</time></trkpt><trkpt lat="45.6993312" lon="9.4553348"><ele>208.0</ele><time>2026-04-16T13:15:30.615Z</time></trkpt><trkpt lat="45.6994401" lon="9.4553366"><ele>207.99999999999997</ele><time>2026-04-16T13:15:32.614Z</time></trkpt><trkpt lat="45.6995076" lon="9.4553071"><ele>208.0</ele><time>2026-04-16T13:15:33.614Z</time></trkpt><trkpt lat="45.6996298" lon="9.4553028"><ele>208.0</ele><time>2026-04-16T13:15:35.614Z</time></trkpt><trkpt lat="45.6996935" lon="9.455333"><ele>208.0</ele><time>2026-04-16T13:15:36.614Z</time></trkpt><trkpt lat="45.6997631" lon="9.4553895"><ele>207.99999999999997</ele><time>2026-04-16T13:15:37.615Z</time></trkpt><trkpt lat="45.6998248" lon="9.4554253"><ele>208.0</ele><time>2026-04-16T13:15:38.615Z</time></trkpt><trkpt lat="45.6999119" lon="9.4555029"><ele>206.66666666666666</ele><time>2026-04-16T13:15:40.615Z</time></trkpt><trkpt lat="45.6999739" lon="9.4555316"><ele>205.33333333333331</ele><time>2026-04-16T13:15:41.615Z</time></trkpt><trkpt lat="45.7000154" lon="9.4556118"><ele>204.0</ele><time>2026-04-16T13:15:42.614Z</time></trkpt><trkpt lat="45.7000836" lon="9.4557187"><ele>202.66666666666669</ele><time>2026-04-16T13:15:44.615Z</time></trkpt><trkpt lat="45.7001298" lon="9.4557992"><ele>201.33333333333334</ele><time>2026-04-16T13:15:45.615Z</time></trkpt><trkpt lat="45.7002086" lon="9.4558691"><ele>200.0</ele><time>2026-04-16T13:15:46.614Z</time></trkpt><trkpt lat="45.7003033" lon="9.4559616"><ele>200.00000000000003</ele><time>2026-04-16T13:15:48.614Z</time></trkpt><trkpt lat="45.7003709" lon="9.4560128"><ele>200.0</ele><time>2026-04-16T13:15:49.614Z</time></trkpt><trkpt lat="45.7004307" lon="9.4560738"><ele>200.0</ele><time>2026-04-16T13:15:50.614Z</time></trkpt><trkpt lat="45.70048" lon="9.4561537"><ele>200.0</ele><time>2026-04-16T13:15:51.614Z</time></trkpt><trkpt lat="45.7005413" lon="9.456226"><ele>200.00000000000003</ele><time>2026-04-16T13:15:52.614Z</time></trkpt><trkpt lat="45.7006119" lon="9.4563006"><ele>200.0</ele><time>2026-04-16T13:15:53.615Z</time></trkpt><trkpt lat="45.7007006" lon="9.4563991"><ele>199.0</ele><time>2026-04-16T13:15:55.614Z</time></trkpt><trkpt lat="45.7007727" lon="9.4564827"><ele>198.0</ele><time>2026-04-16T13:15:57.614Z</time></trkpt><trkpt lat="45.7008299" lon="9.4565341"><ele>197.0</ele><time>2026-04-16T13:15:58.614Z</time></trkpt><trkpt lat="45.7008885" lon="9.4566266"><ele>196.0</ele><time>2026-04-16T13:16:00.614Z</time></trkpt><trkpt lat="45.7009791" lon="9.4567389"><ele>195.0</ele><time>2026-04-16T13:16:02.614Z</time></trkpt><trkpt lat="45.701078" lon="9.4568636"><ele>195.66666666666666</ele><time>2026-04-16T13:16:04.615Z</time></trkpt><trkpt lat="45.7011489" lon="9.4569818"><ele>196.33333333333331</ele><time>2026-04-16T13:16:06.615Z</time></trkpt><trkpt lat="45.7012251" lon="9.4571109"><ele>197.0</ele><time>2026-04-16T13:16:08.614Z</time></trkpt><trkpt lat="45.7012806" lon="9.4571889"><ele>197.66666666666666</ele><time>2026-04-16T13:16:09.614Z</time></trkpt><trkpt lat="45.7013348" lon="9.4572625"><ele>198.33333333333331</ele><time>2026-04-16T13:16:10.614Z</time></trkpt><trkpt lat="45.7013959" lon="9.4573074"><ele>199.0</ele><time>2026-04-16T13:16:11.614Z</time></trkpt><trkpt lat="45.7014549" lon="9.4574005"><ele>198.99999999999997</ele><time>2026-04-16T13:16:12.614Z</time></trkpt><trkpt lat="45.7015113" lon="9.4574758"><ele>199.0</ele><time>2026-04-16T13:16:13.614Z</time></trkpt><trkpt lat="45.7015652" lon="9.4575337"><ele>199.0</ele><time>2026-04-16T13:16:14.614Z</time></trkpt><trkpt lat="45.7016558" lon="9.4576132"><ele>199.0</ele><time>2026-04-16T13:16:16.615Z</time></trkpt><trkpt lat="45.7017211" lon="9.4576632"><ele>198.99999999999997</ele><time>2026-04-16T13:16:17.614Z</time></trkpt><trkpt lat="45.7018057" lon="9.4577356"><ele>199.0</ele><time>2026-04-16T13:16:19.614Z</time></trkpt><trkpt lat="45.7019108" lon="9.4577991"><ele>199.39999999999998</ele><time>2026-04-16T13:16:21.615Z</time></trkpt><trkpt lat="45.7020256" lon="9.4578698"><ele>199.8</ele><time>2026-04-16T13:16:23.615Z</time></trkpt><trkpt lat="45.702092" lon="9.4579126"><ele>200.2</ele><time>2026-04-16T13:16:24.614Z</time></trkpt><trkpt lat="45.7022233" lon="9.4579498"><ele>200.60000000000002</ele><time>2026-04-16T13:16:26.614Z</time></trkpt><trkpt lat="45.7023005" lon="9.4579694"><ele>201.0</ele><time>2026-04-16T13:16:27.615Z</time></trkpt><trkpt lat="45.7023682" lon="9.4579832"><ele>201.0</ele><time>2026-04-16T13:16:28.614Z</time></trkpt><trkpt lat="45.7024371" lon="9.4580155"><ele>201.0</ele><time>2026-04-16T13:16:29.614Z</time></trkpt><trkpt lat="45.7025288" lon="9.4580268"><ele>201.0</ele><time>2026-04-16T13:16:30.614Z</time></trkpt><trkpt lat="45.7026529" lon="9.4580396"><ele>201.0</ele><time>2026-04-16T13:16:32.614Z</time></trkpt><trkpt lat="45.7027326" lon="9.4580468"><ele>201.0</ele><time>2026-04-16T13:16:33.614Z</time></trkpt><trkpt lat="45.702824" lon="9.4580432"><ele>201.5</ele><time>2026-04-16T13:16:34.614Z</time></trkpt><trkpt lat="45.7029083" lon="9.4580511"><ele>202.0</ele><time>2026-04-16T13:16:35.614Z</time></trkpt><trkpt lat="45.7029768" lon="9.4580402"><ele>202.5</ele><time>2026-04-16T13:16:36.614Z</time></trkpt><trkpt lat="45.7030484" lon="9.4580268"><ele>203.0</ele><time>2026-04-16T13:16:37.614Z</time></trkpt><trkpt lat="45.7031273" lon="9.4580146"><ele>203.5</ele><time>2026-04-16T13:16:38.615Z</time></trkpt><trkpt lat="45.7032509" lon="9.4579937"><ele>204.0</ele><time>2026-04-16T13:16:40.615Z</time></trkpt><trkpt lat="45.7033203" lon="9.4579779"><ele>204.6</ele><time>2026-04-16T13:16:41.614Z</time></trkpt><trkpt lat="45.7033847" lon="9.4579147"><ele>205.2</ele><time>2026-04-16T13:16:42.615Z</time></trkpt><trkpt lat="45.7034916" lon="9.4578501"><ele>205.79999999999998</ele><time>2026-04-16T13:16:44.614Z</time></trkpt><trkpt lat="45.7035622" lon="9.4578041"><ele>206.39999999999998</ele><time>2026-04-16T13:16:45.614Z</time></trkpt><trkpt lat="45.703617" lon="9.4577557"><ele>207.0</ele><time>2026-04-16T13:16:46.614Z</time></trkpt><trkpt lat="45.7037241" lon="9.4576408"><ele>207.0</ele><time>2026-04-16T13:16:48.614Z</time></trkpt><trkpt lat="45.7037946" lon="9.4575086"><ele>207.0</ele><time>2026-04-16T13:16:50.614Z</time></trkpt><trkpt lat="45.7038608" lon="9.4574403"><ele>207.0</ele><time>2026-04-16T13:16:51.614Z</time></trkpt><trkpt lat="45.7039084" lon="9.4573494"><ele>207.0</ele><time>2026-04-16T13:16:52.614Z</time></trkpt><trkpt lat="45.7040182" lon="9.4572667"><ele>207.0</ele><time>2026-04-16T13:16:54.615Z</time></trkpt><trkpt lat="45.7040806" lon="9.457233"><ele>207.0</ele><time>2026-04-16T13:16:55.614Z</time></trkpt><trkpt lat="45.7041741" lon="9.4571399"><ele>207.0</ele><time>2026-04-16T13:16:57.614Z</time></trkpt><trkpt lat="45.7042323" lon="9.4570709"><ele>207.0</ele><time>2026-04-16T13:16:58.614Z</time></trkpt><trkpt lat="45.7042989" lon="9.4570246"><ele>207.0</ele><time>2026-04-16T13:16:59.614Z</time></trkpt><trkpt lat="45.7043789" lon="9.4570146"><ele>207.0</ele><time>2026-04-16T13:17:00.614Z</time></trkpt><trkpt lat="45.7044278" lon="9.4569303"><ele>207.0</ele><time>2026-04-16T13:17:01.615Z</time></trkpt><trkpt lat="45.7044869" lon="9.4568635"><ele>206.8</ele><time>2026-04-16T13:17:02.614Z</time></trkpt><trkpt lat="45.7045551" lon="9.4568187"><ele>206.6</ele><time>2026-04-16T13:17:03.614Z</time></trkpt><trkpt lat="45.7046558" lon="9.4567955"><ele>206.4</ele><time>2026-04-16T13:17:05.614Z</time></trkpt><trkpt lat="45.7047365" lon="9.4567887"><ele>206.20000000000002</ele><time>2026-04-16T13:17:08.615Z</time></trkpt><trkpt lat="45.7048609" lon="9.456792"><ele>206.0</ele><time>2026-04-16T13:17:10.614Z</time></trkpt><trkpt lat="45.7049246" lon="9.456823"><ele>206.0</ele><time>2026-04-16T13:17:11.614Z</time></trkpt><trkpt lat="45.7050011" lon="9.4568605"><ele>206.0</ele><time>2026-04-16T13:17:12.615Z</time></trkpt><trkpt lat="45.7051249" lon="9.4569458"><ele>206.0</ele><time>2026-04-16T13:17:14.614Z</time></trkpt><trkpt lat="45.7052451" lon="9.4569832"><ele>206.0</ele><time>2026-04-16T13:17:16.615Z</time></trkpt><trkpt lat="45.7053182" lon="9.4569829"><ele>206.0</ele><time>2026-04-16T13:17:17.614Z</time></trkpt><trkpt lat="45.7053794" lon="9.4569261"><ele>205.8</ele><time>2026-04-16T13:17:18.614Z</time></trkpt><trkpt lat="45.7055217" lon="9.4569142"><ele>205.60000000000002</ele><time>2026-04-16T13:17:20.614Z</time></trkpt><trkpt lat="45.7055939" lon="9.4569144"><ele>205.4</ele><time>2026-04-16T13:17:21.614Z</time></trkpt><trkpt lat="45.7056726" lon="9.4568964"><ele>205.2</ele><time>2026-04-16T13:17:22.614Z</time></trkpt><trkpt lat="45.7057474" lon="9.4568627"><ele>205.0</ele><time>2026-04-16T13:17:23.615Z</time></trkpt><trkpt lat="45.7058883" lon="9.4568408"><ele>204.99999999999997</ele><time>2026-04-16T13:17:25.614Z</time></trkpt><trkpt lat="45.705952" lon="9.4568571"><ele>205.0</ele><time>2026-04-16T13:17:26.614Z</time></trkpt><trkpt lat="45.7060129" lon="9.4568229"><ele>205.0</ele><time>2026-04-16T13:17:27.615Z</time></trkpt><trkpt lat="45.7061085" lon="9.4568401"><ele>205.0</ele><time>2026-04-16T13:17:29.615Z</time></trkpt><trkpt lat="45.7062095" lon="9.4568886"><ele>204.99999999999997</ele><time>2026-04-16T13:17:31.614Z</time></trkpt><trkpt lat="45.7063185" lon="9.4569118"><ele>205.0</ele><time>2026-04-16T13:17:33.614Z</time></trkpt><trkpt lat="45.7064533" lon="9.4568983"><ele>204.33333333333331</ele><time>2026-04-16T13:17:35.614Z</time></trkpt><trkpt lat="45.7065307" lon="9.4568922"><ele>203.66666666666666</ele><time>2026-04-16T13:17:36.615Z</time></trkpt><trkpt lat="45.7065978" lon="9.4568866"><ele>203.0</ele><time>2026-04-16T13:17:37.615Z</time></trkpt><trkpt lat="45.7066631" lon="9.4568718"><ele>202.33333333333331</ele><time>2026-04-16T13:17:38.614Z</time></trkpt><trkpt lat="45.7067306" lon="9.4568592"><ele>201.66666666666666</ele><time>2026-04-16T13:17:39.614Z</time></trkpt><trkpt lat="45.7068492" lon="9.456828"><ele>201.0</ele><time>2026-04-16T13:17:41.614Z</time></trkpt><trkpt lat="45.7069838" lon="9.456795"><ele>200.16666666666666</ele><time>2026-04-16T13:17:43.614Z</time></trkpt><trkpt lat="45.7070748" lon="9.4567867"><ele>199.33333333333331</ele><time>2026-04-16T13:17:46.614Z</time></trkpt><trkpt lat="45.7071206" lon="9.4567101"><ele>198.5</ele><time>2026-04-16T13:17:48.615Z</time></trkpt><trkpt lat="45.7071672" lon="9.4566429"><ele>197.66666666666666</ele><time>2026-04-16T13:17:51.614Z</time></trkpt><trkpt lat="45.7072598" lon="9.4566114"><ele>196.83333333333331</ele><time>2026-04-16T13:17:54.615Z</time></trkpt><trkpt lat="45.7073618" lon="9.4565384"><ele>196.0</ele><time>2026-04-16T13:17:56.614Z</time></trkpt><trkpt lat="45.7074142" lon="9.4564824"><ele>195.99999999999997</ele><time>2026-04-16T13:17:57.615Z</time></trkpt><trkpt lat="45.7074838" lon="9.4564526"><ele>196.0</ele><time>2026-04-16T13:17:59.615Z</time></trkpt><trkpt lat="45.7075596" lon="9.4563806"><ele>196.0</ele><time>2026-04-16T13:18:01.614Z</time></trkpt><trkpt lat="45.7075824" lon="9.4562733"><ele>196.0</ele><time>2026-04-16T13:18:03.614Z</time></trkpt><trkpt lat="45.7075707" lon="9.4561788"><ele>195.99999999999997</ele><time>2026-04-16T13:18:05.615Z</time></trkpt><trkpt lat="45.7075439" lon="9.4560813"><ele>196.0</ele><time>2026-04-16T13:18:07.614Z</time></trkpt><trkpt lat="45.7075167" lon="9.4559873"><ele>196.99999999999997</ele><time>2026-04-16T13:18:09.614Z</time></trkpt><trkpt lat="45.7074759" lon="9.455888"><ele>198.0</ele><time>2026-04-16T13:18:12.614Z</time></trkpt><trkpt lat="45.7074358" lon="9.4558124"><ele>199.0</ele><time>2026-04-16T13:18:14.614Z</time></trkpt><trkpt lat="45.7073864" lon="9.4557143"><ele>200.0</ele><time>2026-04-16T13:18:17.614Z</time></trkpt><trkpt lat="45.7073439" lon="9.4556137"><ele>200.99999999999997</ele><time>2026-04-16T13:18:20.615Z</time></trkpt><trkpt lat="45.7073182" lon="9.4554949"><ele>202.0</ele><time>2026-04-16T13:18:23.614Z</time></trkpt><trkpt lat="45.7072861" lon="9.4553794"><ele>203.33333333333331</ele><time>2026-04-16T13:18:26.614Z</time></trkpt><trkpt lat="45.7072528" lon="9.4552599"><ele>204.66666666666666</ele><time>2026-04-16T13:18:29.614Z</time></trkpt><trkpt lat="45.7072306" lon="9.4551466"><ele>206.0</ele><time>2026-04-16T13:18:32.615Z</time></trkpt><trkpt lat="45.7071993" lon="9.4550533"><ele>207.33333333333331</ele><time>2026-04-16T13:18:35.614Z</time></trkpt><trkpt lat="45.7071663" lon="9.4549459"><ele>208.66666666666666</ele><time>2026-04-16T13:18:38.614Z</time></trkpt><trkpt lat="45.7071278" lon="9.4548373"><ele>210.0</ele><time>2026-04-16T13:18:41.615Z</time></trkpt><trkpt lat="45.7070952" lon="9.4547599"><ele>210.0</ele><time>2026-04-16T13:18:43.615Z</time></trkpt><trkpt lat="45.7070506" lon="9.4546631"><ele>210.0</ele><time>2026-04-16T13:18:46.614Z</time></trkpt><trkpt lat="45.7070054" lon="9.4545781"><ele>210.0</ele><time>2026-04-16T13:18:49.615Z</time></trkpt><trkpt lat="45.7069616" lon="9.4544896"><ele>210.0</ele><time>2026-04-16T13:18:52.614Z</time></trkpt><trkpt lat="45.7069202" lon="9.4544012"><ele>210.0</ele><time>2026-04-16T13:18:55.614Z</time></trkpt><trkpt lat="45.7068781" lon="9.4543057"><ele>210.0</ele><time>2026-04-16T13:18:59.615Z</time></trkpt><trkpt lat="45.7068546" lon="9.454216"><ele>212.66666666666666</ele><time>2026-04-16T13:19:02.615Z</time></trkpt><trkpt lat="45.7068133" lon="9.4541183"><ele>215.33333333333331</ele><time>2026-04-16T13:19:06.614Z</time></trkpt><trkpt lat="45.7067876" lon="9.4540175"><ele>218.0</ele><time>2026-04-16T13:19:09.615Z</time></trkpt><trkpt lat="45.7067511" lon="9.4539054"><ele>220.66666666666666</ele><time>2026-04-16T13:19:12.614Z</time></trkpt><trkpt lat="45.7066965" lon="9.4538484"><ele>223.33333333333331</ele><time>2026-04-16T13:19:16.614Z</time></trkpt><trkpt lat="45.7066907" lon="9.4537219"><ele>226.0</ele><time>2026-04-16T13:19:20.614Z</time></trkpt><trkpt lat="45.7067066" lon="9.453607"><ele>227.0</ele><time>2026-04-16T13:19:23.614Z</time></trkpt><trkpt lat="45.7067214" lon="9.4535182"><ele>228.0</ele><time>2026-04-16T13:19:26.614Z</time></trkpt><trkpt lat="45.7067191" lon="9.4534173"><ele>229.0</ele><time>2026-04-16T13:19:30.614Z</time></trkpt><trkpt lat="45.7067509" lon="9.4533147"><ele>230.0</ele><time>2026-04-16T13:19:34.614Z</time></trkpt><trkpt lat="45.7067704" lon="9.4532236"><ele>231.0</ele><time>2026-04-16T13:19:38.615Z</time></trkpt><trkpt lat="45.7067714" lon="9.4531198"><ele>232.0</ele><time>2026-04-16T13:19:41.614Z</time></trkpt><trkpt lat="45.7067874" lon="9.4530018"><ele>233.0</ele><time>2026-04-16T13:19:45.615Z</time></trkpt><trkpt lat="45.7067886" lon="9.4529051"><ele>233.57142857142858</ele><time>2026-04-16T13:19:49.614Z</time></trkpt><trkpt lat="45.7068117" lon="9.4528162"><ele>234.1428571428571</ele><time>2026-04-16T13:19:53.614Z</time></trkpt><trkpt lat="45.7068223" lon="9.4527091"><ele>234.7142857142857</ele><time>2026-04-16T13:19:56.615Z</time></trkpt><trkpt lat="45.7068277" lon="9.4526161"><ele>235.28571428571428</ele><time>2026-04-16T13:19:59.614Z</time></trkpt><trkpt lat="45.7068501" lon="9.4525202"><ele>235.85714285714283</ele><time>2026-04-16T13:20:04.614Z</time></trkpt><trkpt lat="45.7068671" lon="9.4524039"><ele>236.4285714285714</ele><time>2026-04-16T13:20:08.615Z</time></trkpt><trkpt lat="45.7068751" lon="9.4522904"><ele>236.99999999999997</ele><time>2026-04-16T13:20:12.614Z</time></trkpt><trkpt lat="45.7068908" lon="9.4522009"><ele>236.66666666666666</ele><time>2026-04-16T13:20:15.614Z</time></trkpt><trkpt lat="45.7069072" lon="9.4521075"><ele>236.33333333333331</ele><time>2026-04-16T13:20:18.614Z</time></trkpt><trkpt lat="45.7069228" lon="9.4519954"><ele>236.0</ele><time>2026-04-16T13:20:21.614Z</time></trkpt><trkpt lat="45.7069238" lon="9.45187"><ele>235.66666666666666</ele><time>2026-04-16T13:20:24.614Z</time></trkpt><trkpt lat="45.7069181" lon="9.4517641"><ele>235.33333333333331</ele><time>2026-04-16T13:20:27.614Z</time></trkpt><trkpt lat="45.706913" lon="9.4516457"><ele>235.0</ele><time>2026-04-16T13:20:30.614Z</time></trkpt><trkpt lat="45.7069011" lon="9.4515355"><ele>235.7142857142857</ele><time>2026-04-16T13:20:33.614Z</time></trkpt><trkpt lat="45.7068853" lon="9.4514165"><ele>236.4285714285714</ele><time>2026-04-16T13:20:36.614Z</time></trkpt><trkpt lat="45.7068769" lon="9.4512764"><ele>237.14285714285714</ele><time>2026-04-16T13:20:39.615Z</time></trkpt><trkpt lat="45.7068661" lon="9.4511863"><ele>237.85714285714283</ele><time>2026-04-16T13:20:41.615Z</time></trkpt><trkpt lat="45.7068512" lon="9.4510873"><ele>238.57142857142856</ele><time>2026-04-16T13:20:43.614Z</time></trkpt><trkpt lat="45.7068383" lon="9.4509981"><ele>239.28571428571428</ele><time>2026-04-16T13:20:45.614Z</time></trkpt><trkpt lat="45.7068294" lon="9.4509047"><ele>240.0</ele><time>2026-04-16T13:20:47.614Z</time></trkpt><trkpt lat="45.7068185" lon="9.4508062"><ele>240.0</ele><time>2026-04-16T13:20:49.614Z</time></trkpt><trkpt lat="45.7068035" lon="9.4507131"><ele>240.0</ele><time>2026-04-16T13:20:51.614Z</time></trkpt><trkpt lat="45.7067812" lon="9.4505772"><ele>240.0</ele><time>2026-04-16T13:20:54.615Z</time></trkpt><trkpt lat="45.706772" lon="9.4504686"><ele>240.0</ele><time>2026-04-16T13:20:56.614Z</time></trkpt><trkpt lat="45.7067639" lon="9.4503687"><ele>240.0</ele><time>2026-04-16T13:20:58.614Z</time></trkpt><trkpt lat="45.706757" lon="9.4502614"><ele>240.0</ele><time>2026-04-16T13:21:00.614Z</time></trkpt><trkpt lat="45.7067529" lon="9.4501613"><ele>240.5</ele><time>2026-04-16T13:21:02.614Z</time></trkpt><trkpt lat="45.7067517" lon="9.4500539"><ele>241.0</ele><time>2026-04-16T13:21:04.614Z</time></trkpt><trkpt lat="45.7067497" lon="9.4499518"><ele>241.5</ele><time>2026-04-16T13:21:06.614Z</time></trkpt><trkpt lat="45.7067462" lon="9.4498441"><ele>242.0</ele><time>2026-04-16T13:21:08.614Z</time></trkpt><trkpt lat="45.7067555" lon="9.4497298"><ele>242.5</ele><time>2026-04-16T13:21:10.614Z</time></trkpt><trkpt lat="45.7067891" lon="9.4496144"><ele>243.0</ele><time>2026-04-16T13:21:12.615Z</time></trkpt><trkpt lat="45.706855" lon="9.4495386"><ele>243.33333333333334</ele><time>2026-04-16T13:21:14.614Z</time></trkpt><trkpt lat="45.7069335" lon="9.449517"><ele>243.66666666666669</ele><time>2026-04-16T13:21:16.614Z</time></trkpt><trkpt lat="45.7070117" lon="9.4495005"><ele>244.0</ele><time>2026-04-16T13:21:18.614Z</time></trkpt><trkpt lat="45.7070914" lon="9.4494748"><ele>244.33333333333334</ele><time>2026-04-16T13:21:20.614Z</time></trkpt><trkpt lat="45.7071751" lon="9.449444"><ele>244.66666666666669</ele><time>2026-04-16T13:21:22.614Z</time></trkpt><trkpt lat="45.7072583" lon="9.4493959"><ele>245.0</ele><time>2026-04-16T13:21:24.614Z</time></trkpt><trkpt lat="45.7073477" lon="9.4493717"><ele>245.0</ele><time>2026-04-16T13:21:26.614Z</time></trkpt><trkpt lat="45.7074367" lon="9.4493476"><ele>245.0</ele><time>2026-04-16T13:21:28.615Z</time></trkpt><trkpt lat="45.70753" lon="9.4492978"><ele>245.0</ele><time>2026-04-16T13:21:30.614Z</time></trkpt><trkpt lat="45.7076317" lon="9.4492558"><ele>245.0</ele><time>2026-04-16T13:21:32.615Z</time></trkpt><trkpt lat="45.7078992" lon="9.4492351"><ele>244.83333333333334</ele><time>2026-04-16T13:21:34.614Z</time></trkpt><trkpt lat="45.7080224" lon="9.4492004"><ele>244.66666666666669</ele><time>2026-04-16T13:21:36.614Z</time></trkpt><trkpt lat="45.7080845" lon="9.4491806"><ele>244.5</ele><time>2026-04-16T13:21:37.614Z</time></trkpt><trkpt lat="45.7081999" lon="9.4491567"><ele>244.33333333333331</ele><time>2026-04-16T13:21:39.615Z</time></trkpt><trkpt lat="45.7082633" lon="9.4491451"><ele>244.16666666666666</ele><time>2026-04-16T13:21:40.615Z</time></trkpt><trkpt lat="45.708332" lon="9.4491312"><ele>244.0</ele><time>2026-04-16T13:21:41.615Z</time></trkpt><trkpt lat="45.7084605" lon="9.4491047"><ele>243.99999999999997</ele><time>2026-04-16T13:21:43.614Z</time></trkpt><trkpt lat="45.7085255" lon="9.4491"><ele>244.0</ele><time>2026-04-16T13:21:44.614Z</time></trkpt><trkpt lat="45.708588" lon="9.4490855"><ele>244.0</ele><time>2026-04-16T13:21:45.614Z</time></trkpt><trkpt lat="45.7086591" lon="9.4490745"><ele>244.0</ele><time>2026-04-16T13:21:46.614Z</time></trkpt><trkpt lat="45.7087279" lon="9.4490698"><ele>243.99999999999997</ele><time>2026-04-16T13:21:47.615Z</time></trkpt><trkpt lat="45.7088515" lon="9.4490336"><ele>244.0</ele><time>2026-04-16T13:21:49.614Z</time></trkpt><trkpt lat="45.7089163" lon="9.4490157"><ele>243.79999999999998</ele><time>2026-04-16T13:21:50.614Z</time></trkpt><trkpt lat="45.7090427" lon="9.4489867"><ele>243.59999999999997</ele><time>2026-04-16T13:21:52.614Z</time></trkpt><trkpt lat="45.709108" lon="9.4489655"><ele>243.4</ele><time>2026-04-16T13:21:53.614Z</time></trkpt><trkpt lat="45.7091754" lon="9.4489696"><ele>243.2</ele><time>2026-04-16T13:21:54.614Z</time></trkpt><trkpt lat="45.7093139" lon="9.4489581"><ele>243.0</ele><time>2026-04-16T13:21:56.614Z</time></trkpt><trkpt lat="45.7093829" lon="9.448957"><ele>243.33333333333334</ele><time>2026-04-16T13:21:57.614Z</time></trkpt><trkpt lat="45.7094489" lon="9.448947"><ele>243.66666666666669</ele><time>2026-04-16T13:21:58.614Z</time></trkpt><trkpt lat="45.7095132" lon="9.4489332"><ele>244.0</ele><time>2026-04-16T13:21:59.614Z</time></trkpt><trkpt lat="45.7095942" lon="9.4489288"><ele>244.33333333333334</ele><time>2026-04-16T13:22:00.614Z</time></trkpt><trkpt lat="45.7096733" lon="9.448921"><ele>244.66666666666669</ele><time>2026-04-16T13:22:01.614Z</time></trkpt><trkpt lat="45.7097531" lon="9.4489064"><ele>245.0</ele><time>2026-04-16T13:22:02.614Z</time></trkpt><trkpt lat="45.7098311" lon="9.4488941"><ele>245.00000000000003</ele><time>2026-04-16T13:22:03.614Z</time></trkpt><trkpt lat="45.70991" lon="9.4488763"><ele>245.0</ele><time>2026-04-16T13:22:04.615Z</time></trkpt><trkpt lat="45.7099937" lon="9.44886"><ele>245.0</ele><time>2026-04-16T13:22:05.614Z</time></trkpt><trkpt lat="45.7100612" lon="9.4488388"><ele>245.0</ele><time>2026-04-16T13:22:06.615Z</time></trkpt><trkpt lat="45.7101412" lon="9.448813"><ele>245.00000000000003</ele><time>2026-04-16T13:22:07.614Z</time></trkpt><trkpt lat="45.7102152" lon="9.4487786"><ele>245.0</ele><time>2026-04-16T13:22:08.614Z</time></trkpt><trkpt lat="45.7102835" lon="9.4487421"><ele>245.33333333333334</ele><time>2026-04-16T13:22:09.614Z</time></trkpt><trkpt lat="45.7103603" lon="9.4486988"><ele>245.66666666666669</ele><time>2026-04-16T13:22:10.614Z</time></trkpt><trkpt lat="45.710423" lon="9.4486472"><ele>246.0</ele><time>2026-04-16T13:22:11.615Z</time></trkpt><trkpt lat="45.7104799" lon="9.4485952"><ele>246.33333333333331</ele><time>2026-04-16T13:22:12.614Z</time></trkpt><trkpt lat="45.710548" lon="9.4485425"><ele>246.66666666666666</ele><time>2026-04-16T13:22:13.615Z</time></trkpt><trkpt lat="45.7106631" lon="9.4484268"><ele>247.0</ele><time>2026-04-16T13:22:15.615Z</time></trkpt><trkpt lat="45.7107222" lon="9.4483761"><ele>247.0</ele><time>2026-04-16T13:22:16.614Z</time></trkpt><trkpt lat="45.7107803" lon="9.4483326"><ele>247.0</ele><time>2026-04-16T13:22:17.615Z</time></trkpt><trkpt lat="45.7108817" lon="9.4482439"><ele>247.0</ele><time>2026-04-16T13:22:19.614Z</time></trkpt><trkpt lat="45.7109042" lon="9.4481179"><ele>247.0</ele><time>2026-04-16T13:22:21.615Z</time></trkpt><trkpt lat="45.7108416" lon="9.4479747"><ele>247.0</ele><time>2026-04-16T13:22:23.614Z</time></trkpt><trkpt lat="45.7108264" lon="9.4478553"><ele>247.85714285714286</ele><time>2026-04-16T13:22:25.614Z</time></trkpt><trkpt lat="45.7108396" lon="9.4477661"><ele>248.71428571428572</ele><time>2026-04-16T13:22:27.614Z</time></trkpt><trkpt lat="45.7108788" lon="9.4476877"><ele>249.57142857142858</ele><time>2026-04-16T13:22:30.614Z</time></trkpt><trkpt lat="45.7109241" lon="9.4475857"><ele>250.42857142857144</ele><time>2026-04-16T13:22:34.614Z</time></trkpt><trkpt lat="45.7109641" lon="9.4475151"><ele>251.28571428571428</ele><time>2026-04-16T13:22:37.615Z</time></trkpt><trkpt lat="45.7110122" lon="9.4474471"><ele>252.14285714285717</ele><time>2026-04-16T13:22:41.614Z</time></trkpt><trkpt lat="45.7110548" lon="9.4473646"><ele>253.00000000000003</ele><time>2026-04-16T13:22:46.614Z</time></trkpt><trkpt lat="45.7111038" lon="9.447297"><ele>253.00000000000003</ele><time>2026-04-16T13:22:50.614Z</time></trkpt><trkpt lat="45.7111622" lon="9.4472224"><ele>253.0</ele><time>2026-04-16T13:22:54.614Z</time></trkpt><trkpt lat="45.7112189" lon="9.4471545"><ele>253.00000000000003</ele><time>2026-04-16T13:22:57.614Z</time></trkpt><trkpt lat="45.7112707" lon="9.4470761"><ele>253.00000000000003</ele><time>2026-04-16T13:23:00.614Z</time></trkpt><trkpt lat="45.711324" lon="9.4470083"><ele>253.0</ele><time>2026-04-16T13:23:03.614Z</time></trkpt><trkpt lat="45.7113777" lon="9.4469568"><ele>253.00000000000003</ele><time>2026-04-16T13:23:06.614Z</time></trkpt><trkpt lat="45.7114365" lon="9.4468847"><ele>253.00000000000003</ele><time>2026-04-16T13:23:10.614Z</time></trkpt><trkpt lat="45.7114931" lon="9.4468327"><ele>254.8571428571429</ele><time>2026-04-16T13:23:13.614Z</time></trkpt><trkpt lat="45.7115446" lon="9.4467695"><ele>256.7142857142857</ele><time>2026-04-16T13:23:16.614Z</time></trkpt><trkpt lat="45.7115863" lon="9.4467007"><ele>258.57142857142856</ele><time>2026-04-16T13:23:18.614Z</time></trkpt><trkpt lat="45.7116309" lon="9.4466296"><ele>260.42857142857144</ele><time>2026-04-16T13:23:20.615Z</time></trkpt><trkpt lat="45.7116808" lon="9.4465502"><ele>262.2857142857143</ele><time>2026-04-16T13:23:23.614Z</time></trkpt><trkpt lat="45.7117383" lon="9.4464847"><ele>264.14285714285717</ele><time>2026-04-16T13:23:26.614Z</time></trkpt><trkpt lat="45.7117982" lon="9.4464184"><ele>266.0</ele><time>2026-04-16T13:23:29.614Z</time></trkpt><trkpt lat="45.7118531" lon="9.4463446"><ele>266.42857142857144</ele><time>2026-04-16T13:23:32.614Z</time></trkpt><trkpt lat="45.7119027" lon="9.4462852"><ele>266.8571428571429</ele><time>2026-04-16T13:23:35.614Z</time></trkpt><trkpt lat="45.7119596" lon="9.4462194"><ele>267.2857142857143</ele><time>2026-04-16T13:23:38.614Z</time></trkpt><trkpt lat="45.7120133" lon="9.4461577"><ele>267.7142857142857</ele><time>2026-04-16T13:23:41.615Z</time></trkpt><trkpt lat="45.7120664" lon="9.4460875"><ele>268.14285714285717</ele><time>2026-04-16T13:23:44.614Z</time></trkpt><trkpt lat="45.7121182" lon="9.4460185"><ele>268.57142857142856</ele><time>2026-04-16T13:23:47.614Z</time></trkpt><trkpt lat="45.7121638" lon="9.445936"><ele>269.0</ele><time>2026-04-16T13:23:50.615Z</time></trkpt><trkpt lat="45.7122106" lon="9.4458645"><ele>269.0</ele><time>2026-04-16T13:23:53.614Z</time></trkpt><trkpt lat="45.7122653" lon="9.4457906"><ele>269.0</ele><time>2026-04-16T13:23:56.614Z</time></trkpt><trkpt lat="45.7123225" lon="9.4457241"><ele>269.0</ele><time>2026-04-16T13:23:59.615Z</time></trkpt><trkpt lat="45.7123806" lon="9.4456547"><ele>269.0</ele><time>2026-04-16T13:24:02.614Z</time></trkpt><trkpt lat="45.7124275" lon="9.4455841"><ele>269.0</ele><time>2026-04-16T13:24:05.615Z</time></trkpt><trkpt lat="45.7124831" lon="9.4455262"><ele>269.0</ele><time>2026-04-16T13:24:09.615Z</time></trkpt><trkpt lat="45.7125416" lon="9.4454435"><ele>269.0</ele><time>2026-04-16T13:24:12.614Z</time></trkpt><trkpt lat="45.7126011" lon="9.4453649"><ele>268.7142857142857</ele><time>2026-04-16T13:24:15.615Z</time></trkpt><trkpt lat="45.7126543" lon="9.4453025"><ele>268.42857142857144</ele><time>2026-04-16T13:24:18.614Z</time></trkpt><trkpt lat="45.7127008" lon="9.4452283"><ele>268.14285714285717</ele><time>2026-04-16T13:24:21.614Z</time></trkpt><trkpt lat="45.7127689" lon="9.4451599"><ele>267.8571428571429</ele><time>2026-04-16T13:24:23.614Z</time></trkpt><trkpt lat="45.7128225" lon="9.4450733"><ele>267.57142857142856</ele><time>2026-04-16T13:24:26.614Z</time></trkpt><trkpt lat="45.7128852" lon="9.4450189"><ele>267.28571428571433</ele><time>2026-04-16T13:24:29.614Z</time></trkpt><trkpt lat="45.7129399" lon="9.4449485"><ele>267.0</ele><time>2026-04-16T13:24:32.614Z</time></trkpt><trkpt lat="45.7129974" lon="9.444872"><ele>267.00000000000006</ele><time>2026-04-16T13:24:35.614Z</time></trkpt><trkpt lat="45.7130578" lon="9.4447978"><ele>267.0</ele><time>2026-04-16T13:24:38.614Z</time></trkpt><trkpt lat="45.7131107" lon="9.444726"><ele>267.0</ele><time>2026-04-16T13:24:40.614Z</time></trkpt><trkpt lat="45.7131301" lon="9.4446197"><ele>267.0</ele><time>2026-04-16T13:24:43.614Z</time></trkpt><trkpt lat="45.713154" lon="9.4445298"><ele>267.0</ele><time>2026-04-16T13:24:45.614Z</time></trkpt><trkpt lat="45.7131605" lon="9.4444286"><ele>267.00000000000006</ele><time>2026-04-16T13:24:48.614Z</time></trkpt><trkpt lat="45.7131949" lon="9.4443493"><ele>267.0</ele><time>2026-04-16T13:24:51.615Z</time></trkpt><trkpt lat="45.7132301" lon="9.4442549"><ele>272.3333333333333</ele><time>2026-04-16T13:24:54.614Z</time></trkpt><trkpt lat="45.7132642" lon="9.4441706"><ele>277.6666666666667</ele><time>2026-04-16T13:24:56.615Z</time></trkpt><trkpt lat="45.7133099" lon="9.4440658"><ele>283.0</ele><time>2026-04-16T13:24:59.614Z</time></trkpt><trkpt lat="45.713355" lon="9.4439611"><ele>288.33333333333337</ele><time>2026-04-16T13:25:02.614Z</time></trkpt><trkpt lat="45.7134129" lon="9.4438764"><ele>293.6666666666667</ele><time>2026-04-16T13:25:05.614Z</time></trkpt><trkpt lat="45.7134464" lon="9.4437872"><ele>299.0</ele><time>2026-04-16T13:25:08.614Z</time></trkpt><trkpt lat="45.7134999" lon="9.4437036"><ele>297.5</ele><time>2026-04-16T13:25:11.614Z</time></trkpt><trkpt lat="45.7135524" lon="9.4436178"><ele>296.0</ele><time>2026-04-16T13:25:14.615Z</time></trkpt><trkpt lat="45.7136121" lon="9.4435142"><ele>294.5</ele><time>2026-04-16T13:25:17.615Z</time></trkpt><trkpt lat="45.7136548" lon="9.4434264"><ele>293.0</ele><time>2026-04-16T13:25:20.615Z</time></trkpt><trkpt lat="45.7137015" lon="9.4433561"><ele>291.5</ele><time>2026-04-16T13:25:23.614Z</time></trkpt><trkpt lat="45.7137488" lon="9.4432522"><ele>290.0</ele><time>2026-04-16T13:25:26.614Z</time></trkpt><trkpt lat="45.7137903" lon="9.4431729"><ele>290.0</ele><time>2026-04-16T13:25:29.615Z</time></trkpt><trkpt lat="45.7138153" lon="9.4430709"><ele>290.0</ele><time>2026-04-16T13:25:32.614Z</time></trkpt><trkpt lat="45.7138305" lon="9.4429745"><ele>290.0</ele><time>2026-04-16T13:25:35.614Z</time></trkpt><trkpt lat="45.7138369" lon="9.4428265"><ele>290.0</ele><time>2026-04-16T13:25:37.614Z</time></trkpt><trkpt lat="45.7138541" lon="9.4427308"><ele>290.0</ele><time>2026-04-16T13:25:40.614Z</time></trkpt><trkpt lat="45.7138889" lon="9.4426538"><ele>290.0</ele><time>2026-04-16T13:25:43.615Z</time></trkpt><trkpt lat="45.7139577" lon="9.4426496"><ele>290.42857142857144</ele><time>2026-04-16T13:25:47.614Z</time></trkpt><trkpt lat="45.7140376" lon="9.4426026"><ele>290.8571428571429</ele><time>2026-04-16T13:25:51.614Z</time></trkpt><trkpt lat="45.7140958" lon="9.4425328"><ele>291.2857142857143</ele><time>2026-04-16T13:25:54.614Z</time></trkpt><trkpt lat="45.7141542" lon="9.4424897"><ele>291.7142857142857</ele><time>2026-04-16T13:25:57.615Z</time></trkpt><trkpt lat="45.7142021" lon="9.4424277"><ele>292.1428571428571</ele><time>2026-04-16T13:26:01.615Z</time></trkpt><trkpt lat="45.714277" lon="9.4423886"><ele>292.57142857142856</ele><time>2026-04-16T13:26:06.614Z</time></trkpt><trkpt lat="45.7143377" lon="9.4423419"><ele>293.0</ele><time>2026-04-16T13:26:10.614Z</time></trkpt><trkpt lat="45.7144191" lon="9.4423713"><ele>293.0</ele><time>2026-04-16T13:26:22.614Z</time></trkpt><trkpt lat="45.7144783" lon="9.4423199"><ele>293.0</ele><time>2026-04-16T13:26:30.615Z</time></trkpt><trkpt lat="45.7145492" lon="9.4422795"><ele>293.0</ele><time>2026-04-16T13:26:33.614Z</time></trkpt><trkpt lat="45.714729" lon="9.4422632"><ele>293.0</ele><time>2026-04-16T13:26:38.614Z</time></trkpt><trkpt lat="45.71485" lon="9.4422497"><ele>293.0</ele><time>2026-04-16T13:26:39.615Z</time></trkpt><trkpt lat="45.7149325" lon="9.4422334"><ele>293.0</ele><time>2026-04-16T13:26:40.615Z</time></trkpt><trkpt lat="45.7150144" lon="9.442211"><ele>293.0</ele><time>2026-04-16T13:26:42.614Z</time></trkpt><trkpt lat="45.7149786" lon="9.4422915"><ele>293.0</ele><time>2026-04-16T13:27:42.615Z</time></trkpt><trkpt lat="45.7149189" lon="9.4423274"><ele>293.0</ele><time>2026-04-16T13:27:58.614Z</time></trkpt><trkpt lat="45.7149417" lon="9.4426172"><ele>293.0</ele><time>2026-04-16T13:29:21.614Z</time></trkpt><trkpt lat="45.7149278" lon="9.4427099"><ele>293.0</ele><time>2026-04-16T13:29:22.614Z</time></trkpt><trkpt lat="45.7148759" lon="9.4427895"><ele>293.0</ele><time>2026-04-16T13:29:25.615Z</time></trkpt><trkpt lat="45.714807" lon="9.4428001"><ele>293.0</ele><time>2026-04-16T13:29:29.615Z</time></trkpt><trkpt lat="45.7147202" lon="9.4427348"><ele>293.0</ele><time>2026-04-16T13:29:31.614Z</time></trkpt><trkpt lat="45.7146652" lon="9.4426812"><ele>293.0</ele><time>2026-04-16T13:29:34.615Z</time></trkpt><trkpt lat="45.7146635" lon="9.4425822"><ele>293.0</ele><time>2026-04-16T13:29:37.614Z</time></trkpt><trkpt lat="45.7146325" lon="9.4424792"><ele>293.0</ele><time>2026-04-16T13:29:39.614Z</time></trkpt><trkpt lat="45.714608" lon="9.4423755"><ele>293.0</ele><time>2026-04-16T13:29:41.614Z</time></trkpt><trkpt lat="45.7146233" lon="9.442258"><ele>293.0</ele><time>2026-04-16T13:29:44.614Z</time></trkpt><trkpt lat="45.714626" lon="9.4421536"><ele>293.0</ele><time>2026-04-16T13:29:48.614Z</time></trkpt><trkpt lat="45.7145816" lon="9.4422654"><ele>293.0</ele><time>2026-04-16T13:29:49.614Z</time></trkpt><trkpt lat="45.7145243" lon="9.4421902"><ele>293.0</ele><time>2026-04-16T13:29:53.635Z</time></trkpt><trkpt lat="45.7144911" lon="9.4421121"><ele>297.75</ele><time>2026-04-16T13:29:57.615Z</time></trkpt><trkpt lat="45.7144899" lon="9.4420016"><ele>302.5</ele><time>2026-04-16T13:30:11.615Z</time></trkpt><trkpt lat="45.714468" lon="9.4419111"><ele>307.25</ele><time>2026-04-16T13:30:14.614Z</time></trkpt><trkpt lat="45.7145979" lon="9.4418769"><ele>312.0</ele><time>2026-04-16T13:30:15.614Z</time></trkpt><trkpt lat="45.7147956" lon="9.4418683"><ele>312.0</ele><time>2026-04-16T13:30:16.614Z</time></trkpt><trkpt lat="45.7149049" lon="9.4418594"><ele>312.0</ele><time>2026-04-16T13:30:17.615Z</time></trkpt><trkpt lat="45.7150113" lon="9.441833"><ele>312.0</ele><time>2026-04-16T13:30:19.614Z</time></trkpt><trkpt lat="45.7150857" lon="9.4417828"><ele>312.0</ele><time>2026-04-16T13:30:21.615Z</time></trkpt><trkpt lat="45.7151492" lon="9.441736"><ele>312.0</ele><time>2026-04-16T13:30:23.614Z</time></trkpt><trkpt lat="45.7152099" lon="9.4416749"><ele>312.0</ele><time>2026-04-16T13:30:25.614Z</time></trkpt><trkpt lat="45.7152658" lon="9.4416164"><ele>311.2857142857143</ele><time>2026-04-16T13:30:27.614Z</time></trkpt><trkpt lat="45.7153245" lon="9.4415678"><ele>310.57142857142856</ele><time>2026-04-16T13:30:29.614Z</time></trkpt><trkpt lat="45.7153817" lon="9.4415209"><ele>309.85714285714283</ele><time>2026-04-16T13:30:31.615Z</time></trkpt><trkpt lat="45.7154379" lon="9.4414626"><ele>309.1428571428571</ele><time>2026-04-16T13:30:33.614Z</time></trkpt><trkpt lat="45.7154913" lon="9.4414051"><ele>308.42857142857144</ele><time>2026-04-16T13:30:35.614Z</time></trkpt><trkpt lat="45.7155481" lon="9.4413508"><ele>307.71428571428567</ele><time>2026-04-16T13:30:37.614Z</time></trkpt><trkpt lat="45.7156025" lon="9.4412978"><ele>307.0</ele><time>2026-04-16T13:30:39.614Z</time></trkpt><trkpt lat="45.7156688" lon="9.4412732"><ele>308.16666666666663</ele><time>2026-04-16T13:30:41.614Z</time></trkpt><trkpt lat="45.7157763" lon="9.4412191"><ele>309.3333333333333</ele><time>2026-04-16T13:30:45.614Z</time></trkpt><trkpt lat="45.7158484" lon="9.4411821"><ele>310.5</ele><time>2026-04-16T13:30:47.615Z</time></trkpt><trkpt lat="45.7159121" lon="9.4411364"><ele>311.6666666666667</ele><time>2026-04-16T13:30:49.615Z</time></trkpt><trkpt lat="45.7159687" lon="9.4410814"><ele>312.83333333333337</ele><time>2026-04-16T13:30:51.614Z</time></trkpt><trkpt lat="45.7160219" lon="9.4410291"><ele>314.0</ele><time>2026-04-16T13:30:53.615Z</time></trkpt><trkpt lat="45.7160952" lon="9.440953"><ele>313.99999999999994</ele><time>2026-04-16T13:30:56.614Z</time></trkpt><trkpt lat="45.7161561" lon="9.440905"><ele>314.0</ele><time>2026-04-16T13:30:58.614Z</time></trkpt><trkpt lat="45.7162159" lon="9.4408588"><ele>314.0</ele><time>2026-04-16T13:31:00.615Z</time></trkpt><trkpt lat="45.7162791" lon="9.4408133"><ele>314.0</ele><time>2026-04-16T13:31:02.614Z</time></trkpt><trkpt lat="45.7163383" lon="9.4407641"><ele>314.0</ele><time>2026-04-16T13:31:04.614Z</time></trkpt><trkpt lat="45.7163939" lon="9.4407172"><ele>313.99999999999994</ele><time>2026-04-16T13:31:06.614Z</time></trkpt><trkpt lat="45.7164532" lon="9.4406682"><ele>314.0</ele><time>2026-04-16T13:31:08.614Z</time></trkpt><trkpt lat="45.7165195" lon="9.4406202"><ele>314.0</ele><time>2026-04-16T13:31:10.615Z</time></trkpt><trkpt lat="45.7165779" lon="9.440559"><ele>314.0</ele><time>2026-04-16T13:31:12.615Z</time></trkpt><trkpt lat="45.7166588" lon="9.4404825"><ele>314.0</ele><time>2026-04-16T13:31:15.615Z</time></trkpt><trkpt lat="45.7167288" lon="9.4404333"><ele>314.0</ele><time>2026-04-16T13:31:17.615Z</time></trkpt><trkpt lat="45.7167901" lon="9.44039"><ele>314.0</ele><time>2026-04-16T13:31:19.614Z</time></trkpt><trkpt lat="45.7168607" lon="9.4403125"><ele>314.0</ele><time>2026-04-16T13:31:22.614Z</time></trkpt><trkpt lat="45.716899" lon="9.4402308"><ele>314.83333333333337</ele><time>2026-04-16T13:31:25.614Z</time></trkpt><trkpt lat="45.7169639" lon="9.4401462"><ele>315.6666666666667</ele><time>2026-04-16T13:31:28.614Z</time></trkpt><trkpt lat="45.7170213" lon="9.4400744"><ele>316.5</ele><time>2026-04-16T13:31:31.614Z</time></trkpt><trkpt lat="45.7170762" lon="9.4399928"><ele>317.3333333333333</ele><time>2026-04-16T13:31:34.614Z</time></trkpt><trkpt lat="45.7171222" lon="9.4399102"><ele>318.16666666666663</ele><time>2026-04-16T13:31:38.614Z</time></trkpt><trkpt lat="45.7171857" lon="9.4398255"><ele>319.0</ele><time>2026-04-16T13:31:41.614Z</time></trkpt><trkpt lat="45.7172356" lon="9.4397473"><ele>319.0</ele><time>2026-04-16T13:31:44.614Z</time></trkpt><trkpt lat="45.7172826" lon="9.4396668"><ele>319.0</ele><time>2026-04-16T13:31:47.614Z</time></trkpt><trkpt lat="45.7173627" lon="9.4395973"><ele>319.0</ele><time>2026-04-16T13:31:50.615Z</time></trkpt><trkpt lat="45.7174306" lon="9.4395235"><ele>319.0</ele><time>2026-04-16T13:31:53.614Z</time></trkpt><trkpt lat="45.7174723" lon="9.4394328"><ele>319.0</ele><time>2026-04-16T13:31:56.615Z</time></trkpt><trkpt lat="45.7175223" lon="9.4393616"><ele>319.0</ele><time>2026-04-16T13:31:59.615Z</time></trkpt><trkpt lat="45.7175569" lon="9.4392835"><ele>319.8571428571429</ele><time>2026-04-16T13:32:01.615Z</time></trkpt><trkpt lat="45.7176025" lon="9.4392005"><ele>320.71428571428567</ele><time>2026-04-16T13:32:03.614Z</time></trkpt><trkpt lat="45.7176492" lon="9.4391341"><ele>321.57142857142856</ele><time>2026-04-16T13:32:05.614Z</time></trkpt><trkpt lat="45.7176898" lon="9.4390601"><ele>322.42857142857144</ele><time>2026-04-16T13:32:07.614Z</time></trkpt><trkpt lat="45.7177316" lon="9.4389666"><ele>323.28571428571433</ele><time>2026-04-16T13:32:09.615Z</time></trkpt><trkpt lat="45.7177755" lon="9.4388795"><ele>324.1428571428571</ele><time>2026-04-16T13:32:11.614Z</time></trkpt><trkpt lat="45.7178352" lon="9.4387949"><ele>325.0</ele><time>2026-04-16T13:32:13.614Z</time></trkpt><trkpt lat="45.7178974" lon="9.4387205"><ele>325.3333333333333</ele><time>2026-04-16T13:32:15.615Z</time></trkpt><trkpt lat="45.717964" lon="9.4386118"><ele>325.66666666666663</ele><time>2026-04-16T13:32:17.614Z</time></trkpt><trkpt lat="45.7180082" lon="9.4385129"><ele>326.0</ele><time>2026-04-16T13:32:19.614Z</time></trkpt><trkpt lat="45.7180286" lon="9.4384094"><ele>326.3333333333333</ele><time>2026-04-16T13:32:21.614Z</time></trkpt><trkpt lat="45.7180356" lon="9.438305"><ele>326.6666666666667</ele><time>2026-04-16T13:32:23.614Z</time></trkpt><trkpt lat="45.7180337" lon="9.4382105"><ele>327.0</ele><time>2026-04-16T13:32:25.615Z</time></trkpt><trkpt lat="45.7180143" lon="9.4381053"><ele>327.0</ele><time>2026-04-16T13:32:27.615Z</time></trkpt><trkpt lat="45.7179928" lon="9.4380025"><ele>327.0</ele><time>2026-04-16T13:32:29.614Z</time></trkpt><trkpt lat="45.7179909" lon="9.4378929"><ele>327.0</ele><time>2026-04-16T13:32:31.614Z</time></trkpt><trkpt lat="45.7179997" lon="9.4377759"><ele>327.0</ele><time>2026-04-16T13:32:33.615Z</time></trkpt><trkpt lat="45.7180188" lon="9.4376398"><ele>327.0</ele><time>2026-04-16T13:32:35.614Z</time></trkpt><trkpt lat="45.7180409" lon="9.4374927"><ele>327.0</ele><time>2026-04-16T13:32:37.614Z</time></trkpt><trkpt lat="45.7180578" lon="9.437364"><ele>327.1666666666667</ele><time>2026-04-16T13:32:39.614Z</time></trkpt><trkpt lat="45.7180585" lon="9.4372274"><ele>327.3333333333333</ele><time>2026-04-16T13:32:42.614Z</time></trkpt><trkpt lat="45.7180526" lon="9.437133"><ele>327.5</ele><time>2026-04-16T13:32:44.614Z</time></trkpt><trkpt lat="45.717998" lon="9.4370054"><ele>327.66666666666663</ele><time>2026-04-16T13:32:46.614Z</time></trkpt><trkpt lat="45.7179513" lon="9.4369302"><ele>327.8333333333333</ele><time>2026-04-16T13:32:47.614Z</time></trkpt><trkpt lat="45.7179041" lon="9.4368514"><ele>328.0</ele><time>2026-04-16T13:32:48.614Z</time></trkpt><trkpt lat="45.7178601" lon="9.4367779"><ele>327.59999999999997</ele><time>2026-04-16T13:32:49.615Z</time></trkpt><trkpt lat="45.7178184" lon="9.436699"><ele>327.2</ele><time>2026-04-16T13:32:50.614Z</time></trkpt><trkpt lat="45.7177476" lon="9.4364689"><ele>326.8</ele><time>2026-04-16T13:32:51.614Z</time></trkpt><trkpt lat="45.7176994" lon="9.4364059"><ele>326.4</ele><time>2026-04-16T13:32:52.614Z</time></trkpt><trkpt lat="45.7176018" lon="9.4363079"><ele>326.0</ele><time>2026-04-16T13:32:54.615Z</time></trkpt><trkpt lat="45.7175418" lon="9.4362559"><ele>327.20000000000005</ele><time>2026-04-16T13:32:55.614Z</time></trkpt><trkpt lat="45.7174432" lon="9.4361367"><ele>328.40000000000003</ele><time>2026-04-16T13:32:57.614Z</time></trkpt><trkpt lat="45.717383" lon="9.4360112"><ele>329.6</ele><time>2026-04-16T13:32:59.615Z</time></trkpt><trkpt lat="45.7173467" lon="9.4358746"><ele>330.8</ele><time>2026-04-16T13:33:01.614Z</time></trkpt><trkpt lat="45.7173301" lon="9.4357792"><ele>332.0</ele><time>2026-04-16T13:33:02.614Z</time></trkpt><trkpt lat="45.717332" lon="9.4356261"><ele>332.0</ele><time>2026-04-16T13:33:04.614Z</time></trkpt><trkpt lat="45.7173667" lon="9.4355304"><ele>332.0</ele><time>2026-04-16T13:33:05.614Z</time></trkpt><trkpt lat="45.7174017" lon="9.4353624"><ele>332.0</ele><time>2026-04-16T13:33:07.614Z</time></trkpt><trkpt lat="45.7174224" lon="9.4351996"><ele>332.0</ele><time>2026-04-16T13:33:09.615Z</time></trkpt><trkpt lat="45.717449" lon="9.4350882"><ele>332.0</ele><time>2026-04-16T13:33:10.614Z</time></trkpt><trkpt lat="45.7174602" lon="9.4349846"><ele>331.83333333333337</ele><time>2026-04-16T13:33:11.614Z</time></trkpt><trkpt lat="45.7174354" lon="9.4348447"><ele>331.6666666666667</ele><time>2026-04-16T13:33:13.614Z</time></trkpt><trkpt lat="45.7173838" lon="9.4347298"><ele>331.5</ele><time>2026-04-16T13:33:15.614Z</time></trkpt><trkpt lat="45.7173183" lon="9.4347251"><ele>331.3333333333333</ele><time>2026-04-16T13:33:20.615Z</time></trkpt><trkpt lat="45.7172595" lon="9.4347701"><ele>331.16666666666663</ele><time>2026-04-16T13:33:26.615Z</time></trkpt><trkpt lat="45.7172078" lon="9.4348595"><ele>331.0</ele><time>2026-04-16T13:33:33.614Z</time></trkpt><trkpt lat="45.7171461" lon="9.4348905"><ele>331.0</ele><time>2026-04-16T13:33:38.615Z</time></trkpt><trkpt lat="45.7171179" lon="9.4349925"><ele>331.0</ele><time>2026-04-16T13:33:42.614Z</time></trkpt><trkpt lat="45.7170686" lon="9.4350853"><ele>331.0</ele><time>2026-04-16T13:33:45.614Z</time></trkpt><trkpt lat="45.7170162" lon="9.4351641"><ele>331.0</ele><time>2026-04-16T13:33:48.614Z</time></trkpt><trkpt lat="45.7169835" lon="9.4352653"><ele>331.0</ele><time>2026-04-16T13:33:51.614Z</time></trkpt><trkpt lat="45.7169598" lon="9.4353878"><ele>331.0</ele><time>2026-04-16T13:33:54.614Z</time></trkpt><trkpt lat="45.7169393" lon="9.4355013"><ele>331.14285714285717</ele><time>2026-04-16T13:33:57.615Z</time></trkpt><trkpt lat="45.7169304" lon="9.4356127"><ele>331.2857142857143</ele><time>2026-04-16T13:34:01.614Z</time></trkpt><trkpt lat="45.7168874" lon="9.4357059"><ele>331.42857142857144</ele><time>2026-04-16T13:34:04.615Z</time></trkpt><trkpt lat="45.7168489" lon="9.4357874"><ele>331.57142857142856</ele><time>2026-04-16T13:34:07.614Z</time></trkpt><trkpt lat="45.7168504" lon="9.4358919"><ele>331.7142857142857</ele><time>2026-04-16T13:34:11.615Z</time></trkpt><trkpt lat="45.7168291" lon="9.4360068"><ele>331.85714285714283</ele><time>2026-04-16T13:34:14.615Z</time></trkpt><trkpt lat="45.7168376" lon="9.436099"><ele>332.0</ele><time>2026-04-16T13:34:18.614Z</time></trkpt><trkpt lat="45.7168312" lon="9.4362065"><ele>334.2857142857143</ele><time>2026-04-16T13:34:22.614Z</time></trkpt><trkpt lat="45.7168119" lon="9.4363003"><ele>336.5714285714286</ele><time>2026-04-16T13:34:25.615Z</time></trkpt><trkpt lat="45.7168058" lon="9.4363971"><ele>338.8571428571429</ele><time>2026-04-16T13:34:29.614Z</time></trkpt><trkpt lat="45.7167827" lon="9.4364877"><ele>341.1428571428571</ele><time>2026-04-16T13:34:32.614Z</time></trkpt><trkpt lat="45.7167568" lon="9.4365948"><ele>343.42857142857144</ele><time>2026-04-16T13:34:35.615Z</time></trkpt><trkpt lat="45.7167664" lon="9.436685"><ele>345.7142857142857</ele><time>2026-04-16T13:34:40.614Z</time></trkpt><trkpt lat="45.7167668" lon="9.4368145"><ele>348.0</ele><time>2026-04-16T13:34:43.614Z</time></trkpt><trkpt lat="45.7167275" lon="9.4369049"><ele>348.59999999999997</ele><time>2026-04-16T13:34:45.614Z</time></trkpt><trkpt lat="45.7166757" lon="9.4370326"><ele>349.2</ele><time>2026-04-16T13:34:47.615Z</time></trkpt><trkpt lat="45.7166291" lon="9.4371478"><ele>349.8</ele><time>2026-04-16T13:34:49.614Z</time></trkpt><trkpt lat="45.7165921" lon="9.4372719"><ele>350.4</ele><time>2026-04-16T13:34:51.614Z</time></trkpt><trkpt lat="45.7166086" lon="9.4373928"><ele>351.0</ele><time>2026-04-16T13:34:54.615Z</time></trkpt><trkpt lat="45.7165899" lon="9.4374968"><ele>351.5</ele><time>2026-04-16T13:34:58.614Z</time></trkpt><trkpt lat="45.7165917" lon="9.43759"><ele>352.0</ele><time>2026-04-16T13:35:01.615Z</time></trkpt><trkpt lat="45.716599" lon="9.4377016"><ele>352.5</ele><time>2026-04-16T13:35:04.614Z</time></trkpt><trkpt lat="45.7166141" lon="9.4378151"><ele>353.0</ele><time>2026-04-16T13:35:07.614Z</time></trkpt><trkpt lat="45.7166705" lon="9.4378576"><ele>353.5</ele><time>2026-04-16T13:35:09.614Z</time></trkpt><trkpt lat="45.7167422" lon="9.4379263"><ele>354.0</ele><time>2026-04-16T13:35:12.614Z</time></trkpt><trkpt lat="45.7168261" lon="9.4379739"><ele>354.42857142857144</ele><time>2026-04-16T13:35:14.614Z</time></trkpt><trkpt lat="45.7168851" lon="9.4380154"><ele>354.85714285714283</ele><time>2026-04-16T13:35:16.614Z</time></trkpt><trkpt lat="45.716925" lon="9.4381139"><ele>355.2857142857143</ele><time>2026-04-16T13:35:19.614Z</time></trkpt><trkpt lat="45.7169701" lon="9.4381953"><ele>355.7142857142857</ele><time>2026-04-16T13:35:22.615Z</time></trkpt><trkpt lat="45.7169562" lon="9.4382867"><ele>356.1428571428571</ele><time>2026-04-16T13:35:24.614Z</time></trkpt><trkpt lat="45.7169095" lon="9.4383853"><ele>356.57142857142856</ele><time>2026-04-16T13:35:26.615Z</time></trkpt><trkpt lat="45.7168797" lon="9.4384704"><ele>357.0</ele><time>2026-04-16T13:35:28.614Z</time></trkpt><trkpt lat="45.7168039" lon="9.4385825"><ele>357.0</ele><time>2026-04-16T13:35:30.615Z</time></trkpt><trkpt lat="45.7167484" lon="9.4386718"><ele>357.0</ele><time>2026-04-16T13:35:32.614Z</time></trkpt><trkpt lat="45.7166663" lon="9.4387811"><ele>357.0</ele><time>2026-04-16T13:35:34.615Z</time></trkpt><trkpt lat="45.7165799" lon="9.4388603"><ele>357.0</ele><time>2026-04-16T13:35:36.614Z</time></trkpt><trkpt lat="45.7164936" lon="9.438927"><ele>357.0</ele><time>2026-04-16T13:35:39.615Z</time></trkpt><trkpt lat="45.7164327" lon="9.4389587"><ele>356.40000000000003</ele><time>2026-04-16T13:35:41.614Z</time></trkpt><trkpt lat="45.7163441" lon="9.4390318"><ele>355.8</ele><time>2026-04-16T13:35:43.614Z</time></trkpt><trkpt lat="45.7162601" lon="9.4390814"><ele>355.2</ele><time>2026-04-16T13:35:45.614Z</time></trkpt><trkpt lat="45.716177" lon="9.4391609"><ele>354.6</ele><time>2026-04-16T13:35:47.615Z</time></trkpt><trkpt lat="45.7161019" lon="9.4392336"><ele>354.0</ele><time>2026-04-16T13:35:49.614Z</time></trkpt><trkpt lat="45.7160217" lon="9.4393413"><ele>354.0</ele><time>2026-04-16T13:35:51.615Z</time></trkpt><trkpt lat="45.7159167" lon="9.4394557"><ele>354.0</ele><time>2026-04-16T13:35:52.614Z</time></trkpt><trkpt lat="45.7158554" lon="9.4395589"><ele>354.0</ele><time>2026-04-16T13:35:53.615Z</time></trkpt><trkpt lat="45.7157612" lon="9.4397151"><ele>354.0</ele><time>2026-04-16T13:35:55.614Z</time></trkpt><trkpt lat="45.715716" lon="9.4397835"><ele>354.0</ele><time>2026-04-16T13:35:56.614Z</time></trkpt><trkpt lat="45.7156636" lon="9.4398362"><ele>352.0</ele><time>2026-04-16T13:35:57.614Z</time></trkpt><trkpt lat="45.7155977" lon="9.4398824"><ele>350.0</ele><time>2026-04-16T13:35:58.614Z</time></trkpt><trkpt lat="45.7154806" lon="9.4399843"><ele>348.0</ele><time>2026-04-16T13:36:00.614Z</time></trkpt><trkpt lat="45.7154004" lon="9.4400362"><ele>346.0</ele><time>2026-04-16T13:36:01.614Z</time></trkpt><trkpt lat="45.7153232" lon="9.4400771"><ele>344.0</ele><time>2026-04-16T13:36:03.615Z</time></trkpt><trkpt lat="45.7152741" lon="9.4401511"><ele>345.4</ele><time>2026-04-16T13:36:04.614Z</time></trkpt><trkpt lat="45.7152117" lon="9.4402041"><ele>346.79999999999995</ele><time>2026-04-16T13:36:05.615Z</time></trkpt><trkpt lat="45.7151286" lon="9.4403112"><ele>348.20000000000005</ele><time>2026-04-16T13:36:07.614Z</time></trkpt><trkpt lat="45.7150256" lon="9.4403895"><ele>349.6</ele><time>2026-04-16T13:36:09.615Z</time></trkpt><trkpt lat="45.7149367" lon="9.4404559"><ele>351.0</ele><time>2026-04-16T13:36:11.614Z</time></trkpt><trkpt lat="45.7148737" lon="9.4404933"><ele>348.5</ele><time>2026-04-16T13:36:13.615Z</time></trkpt><trkpt lat="45.7148181" lon="9.4405492"><ele>346.0</ele><time>2026-04-16T13:36:14.614Z</time></trkpt><trkpt lat="45.7147364" lon="9.4406148"><ele>343.5</ele><time>2026-04-16T13:36:16.615Z</time></trkpt><trkpt lat="45.7146765" lon="9.440643"><ele>341.0</ele><time>2026-04-16T13:36:17.614Z</time></trkpt><trkpt lat="45.7145863" lon="9.4407151"><ele>338.5</ele><time>2026-04-16T13:36:18.614Z</time></trkpt><trkpt lat="45.7145151" lon="9.4407641"><ele>336.0</ele><time>2026-04-16T13:36:19.614Z</time></trkpt><trkpt lat="45.714436" lon="9.4408277"><ele>338.8</ele><time>2026-04-16T13:36:21.614Z</time></trkpt><trkpt lat="45.7143443" lon="9.4408744"><ele>341.6</ele><time>2026-04-16T13:36:23.614Z</time></trkpt><trkpt lat="45.714283" lon="9.4409422"><ele>344.4</ele><time>2026-04-16T13:36:25.614Z</time></trkpt><trkpt lat="45.7142159" lon="9.4409547"><ele>347.2</ele><time>2026-04-16T13:36:27.614Z</time></trkpt><trkpt lat="45.7141275" lon="9.4409707"><ele>350.0</ele><time>2026-04-16T13:36:29.614Z</time></trkpt><trkpt lat="45.7140044" lon="9.4410024"><ele>350.0</ele><time>2026-04-16T13:36:30.614Z</time></trkpt><trkpt lat="45.7139091" lon="9.4410702"><ele>350.0</ele><time>2026-04-16T13:36:32.615Z</time></trkpt><trkpt lat="45.7138413" lon="9.4411042"><ele>350.0</ele><time>2026-04-16T13:36:33.615Z</time></trkpt><trkpt lat="45.7137771" lon="9.4411034"><ele>350.0</ele><time>2026-04-16T13:36:34.615Z</time></trkpt><trkpt lat="45.7136902" lon="9.4411254"><ele>350.0</ele><time>2026-04-16T13:36:35.614Z</time></trkpt><trkpt lat="45.7136172" lon="9.4410935"><ele>350.0</ele><time>2026-04-16T13:36:37.614Z</time></trkpt><trkpt lat="45.7135195" lon="9.4411111"><ele>348.6</ele><time>2026-04-16T13:36:39.614Z</time></trkpt><trkpt lat="45.713405" lon="9.4411508"><ele>347.2</ele><time>2026-04-16T13:36:41.614Z</time></trkpt><trkpt lat="45.7133289" lon="9.4411557"><ele>345.79999999999995</ele><time>2026-04-16T13:36:42.615Z</time></trkpt><trkpt lat="45.7132569" lon="9.4411427"><ele>344.4</ele><time>2026-04-16T13:36:43.614Z</time></trkpt><trkpt lat="45.7131086" lon="9.4410903"><ele>343.0</ele><time>2026-04-16T13:36:45.614Z</time></trkpt><trkpt lat="45.7130297" lon="9.4410352"><ele>343.0</ele><time>2026-04-16T13:36:46.614Z</time></trkpt><trkpt lat="45.7129541" lon="9.4409841"><ele>343.0</ele><time>2026-04-16T13:36:47.614Z</time></trkpt><trkpt lat="45.7128867" lon="9.4409443"><ele>343.0</ele><time>2026-04-16T13:36:48.615Z</time></trkpt><trkpt lat="45.7127779" lon="9.4408797"><ele>343.0</ele><time>2026-04-16T13:36:50.615Z</time></trkpt><trkpt lat="45.7127069" lon="9.4408483"><ele>343.0</ele><time>2026-04-16T13:36:51.614Z</time></trkpt><trkpt lat="45.7126284" lon="9.4407766"><ele>343.0</ele><time>2026-04-16T13:36:53.614Z</time></trkpt><trkpt lat="45.7125665" lon="9.4407499"><ele>340.79999999999995</ele><time>2026-04-16T13:36:55.615Z</time></trkpt><trkpt lat="45.7125105" lon="9.44082"><ele>338.6</ele><time>2026-04-16T13:36:57.614Z</time></trkpt><trkpt lat="45.7124666" lon="9.4409329"><ele>336.4</ele><time>2026-04-16T13:36:59.614Z</time></trkpt><trkpt lat="45.712394" lon="9.4410558"><ele>334.20000000000005</ele><time>2026-04-16T13:37:01.615Z</time></trkpt><trkpt lat="45.7123136" lon="9.4411764"><ele>332.0</ele><time>2026-04-16T13:37:03.614Z</time></trkpt><trkpt lat="45.7122773" lon="9.4412502"><ele>333.1666666666667</ele><time>2026-04-16T13:37:04.614Z</time></trkpt><trkpt lat="45.712227" lon="9.4413315"><ele>334.33333333333337</ele><time>2026-04-16T13:37:05.615Z</time></trkpt><trkpt lat="45.7121726" lon="9.4414228"><ele>335.5</ele><time>2026-04-16T13:37:06.615Z</time></trkpt><trkpt lat="45.7121096" lon="9.4414988"><ele>336.6666666666667</ele><time>2026-04-16T13:37:07.615Z</time></trkpt><trkpt lat="45.7120488" lon="9.4415726"><ele>337.8333333333333</ele><time>2026-04-16T13:37:08.614Z</time></trkpt><trkpt lat="45.7119971" lon="9.4417056"><ele>339.0</ele><time>2026-04-16T13:37:10.614Z</time></trkpt><trkpt lat="45.7119703" lon="9.4418087"><ele>339.0</ele><time>2026-04-16T13:37:12.615Z</time></trkpt><trkpt lat="45.7118787" lon="9.4418593"><ele>339.0</ele><time>2026-04-16T13:37:14.614Z</time></trkpt><trkpt lat="45.7119362" lon="9.4416472"><ele>339.0</ele><time>2026-04-16T13:37:18.614Z</time></trkpt><trkpt lat="45.7119825" lon="9.441528"><ele>339.0</ele><time>2026-04-16T13:37:19.615Z</time></trkpt><trkpt lat="45.7120417" lon="9.4413769"><ele>337.8333333333333</ele><time>2026-04-16T13:37:21.615Z</time></trkpt><trkpt lat="45.71205" lon="9.4412652"><ele>336.6666666666667</ele><time>2026-04-16T13:37:22.614Z</time></trkpt><trkpt lat="45.7120659" lon="9.4411602"><ele>335.5</ele><time>2026-04-16T13:37:23.614Z</time></trkpt><trkpt lat="45.7120583" lon="9.4410503"><ele>334.33333333333337</ele><time>2026-04-16T13:37:24.614Z</time></trkpt><trkpt lat="45.7120573" lon="9.4409467"><ele>333.1666666666667</ele><time>2026-04-16T13:37:25.614Z</time></trkpt><trkpt lat="45.7119817" lon="9.4407996"><ele>332.0</ele><time>2026-04-16T13:37:27.615Z</time></trkpt><trkpt lat="45.7119306" lon="9.4407432"><ele>331.0</ele><time>2026-04-16T13:37:28.614Z</time></trkpt><trkpt lat="45.7118485" lon="9.4406376"><ele>330.0</ele><time>2026-04-16T13:37:30.614Z</time></trkpt><trkpt lat="45.7117819" lon="9.4405442"><ele>329.0</ele><time>2026-04-16T13:37:32.614Z</time></trkpt><trkpt lat="45.7117111" lon="9.4404551"><ele>328.0</ele><time>2026-04-16T13:37:34.615Z</time></trkpt><trkpt lat="45.7116228" lon="9.4403759"><ele>327.0</ele><time>2026-04-16T13:37:36.614Z</time></trkpt><trkpt lat="45.7115502" lon="9.4402873"><ele>327.0</ele><time>2026-04-16T13:37:38.614Z</time></trkpt><trkpt lat="45.7114839" lon="9.4402139"><ele>327.0</ele><time>2026-04-16T13:37:40.614Z</time></trkpt><trkpt lat="45.7114228" lon="9.4401588"><ele>327.0</ele><time>2026-04-16T13:37:42.615Z</time></trkpt><trkpt lat="45.7113534" lon="9.4400864"><ele>327.0</ele><time>2026-04-16T13:37:44.614Z</time></trkpt><trkpt lat="45.7112639" lon="9.439979"><ele>327.0</ele><time>2026-04-16T13:37:46.614Z</time></trkpt><trkpt lat="45.711192" lon="9.4399096"><ele>327.0</ele><time>2026-04-16T13:37:48.615Z</time></trkpt><trkpt lat="45.7111254" lon="9.4397916"><ele>326.40000000000003</ele><time>2026-04-16T13:37:50.614Z</time></trkpt><trkpt lat="45.7110602" lon="9.4396867"><ele>325.8</ele><time>2026-04-16T13:37:52.615Z</time></trkpt><trkpt lat="45.7109856" lon="9.4396006"><ele>325.2</ele><time>2026-04-16T13:37:54.614Z</time></trkpt><trkpt lat="45.7108968" lon="9.4395096"><ele>324.6</ele><time>2026-04-16T13:37:56.614Z</time></trkpt><trkpt lat="45.7108107" lon="9.4394274"><ele>324.0</ele><time>2026-04-16T13:37:58.614Z</time></trkpt><trkpt lat="45.7107168" lon="9.4393738"><ele>324.0</ele><time>2026-04-16T13:38:00.614Z</time></trkpt><trkpt lat="45.7106084" lon="9.4393284"><ele>324.0</ele><time>2026-04-16T13:38:02.614Z</time></trkpt><trkpt lat="45.7105202" lon="9.4392475"><ele>324.0</ele><time>2026-04-16T13:38:04.614Z</time></trkpt><trkpt lat="45.7104527" lon="9.4390965"><ele>324.0</ele><time>2026-04-16T13:38:06.615Z</time></trkpt><trkpt lat="45.7104245" lon="9.439011"><ele>324.0</ele><time>2026-04-16T13:38:07.613Z</time></trkpt><trkpt lat="45.7103971" lon="9.4389088"><ele>323.1666666666667</ele><time>2026-04-16T13:38:08.615Z</time></trkpt><trkpt lat="45.7103758" lon="9.4387926"><ele>322.3333333333333</ele><time>2026-04-16T13:38:09.614Z</time></trkpt><trkpt lat="45.7103501" lon="9.4386961"><ele>321.5</ele><time>2026-04-16T13:38:10.614Z</time></trkpt><trkpt lat="45.7103259" lon="9.438592"><ele>320.66666666666663</ele><time>2026-04-16T13:38:11.614Z</time></trkpt><trkpt lat="45.7103043" lon="9.4385028"><ele>319.8333333333333</ele><time>2026-04-16T13:38:12.614Z</time></trkpt><trkpt lat="45.7102798" lon="9.4383954"><ele>319.0</ele><time>2026-04-16T13:38:13.615Z</time></trkpt><trkpt lat="45.7102868" lon="9.4382876"><ele>319.0</ele><time>2026-04-16T13:38:14.614Z</time></trkpt><trkpt lat="45.7102833" lon="9.438196"><ele>319.0</ele><time>2026-04-16T13:38:15.614Z</time></trkpt><trkpt lat="45.7102678" lon="9.4380951"><ele>319.0</ele><time>2026-04-16T13:38:16.615Z</time></trkpt><trkpt lat="45.7102638" lon="9.4379958"><ele>319.0</ele><time>2026-04-16T13:38:17.614Z</time></trkpt><trkpt lat="45.7102608" lon="9.4379045"><ele>319.0</ele><time>2026-04-16T13:38:18.614Z</time></trkpt><trkpt lat="45.710266" lon="9.4378098"><ele>319.0</ele><time>2026-04-16T13:38:19.615Z</time></trkpt><trkpt lat="45.7102808" lon="9.4377198"><ele>319.0</ele><time>2026-04-16T13:38:20.614Z</time></trkpt><trkpt lat="45.7102938" lon="9.437619"><ele>318.8333333333333</ele><time>2026-04-16T13:38:21.615Z</time></trkpt><trkpt lat="45.7103186" lon="9.4375212"><ele>318.66666666666663</ele><time>2026-04-16T13:38:22.614Z</time></trkpt><trkpt lat="45.7103383" lon="9.4374265"><ele>318.5</ele><time>2026-04-16T13:38:23.615Z</time></trkpt><trkpt lat="45.710357" lon="9.4373237"><ele>318.3333333333333</ele><time>2026-04-16T13:38:24.614Z</time></trkpt><trkpt lat="45.7103793" lon="9.437219"><ele>318.1666666666667</ele><time>2026-04-16T13:38:25.615Z</time></trkpt><trkpt lat="45.7103923" lon="9.4371155"><ele>318.0</ele><time>2026-04-16T13:38:26.615Z</time></trkpt><trkpt lat="45.7104177" lon="9.4369884"><ele>318.0</ele><time>2026-04-16T13:38:27.614Z</time></trkpt><trkpt lat="45.7104373" lon="9.4368895"><ele>318.0</ele><time>2026-04-16T13:38:28.614Z</time></trkpt><trkpt lat="45.7104629" lon="9.4367942"><ele>318.0</ele><time>2026-04-16T13:38:29.615Z</time></trkpt><trkpt lat="45.710481" lon="9.4366593"><ele>318.0</ele><time>2026-04-16T13:38:30.614Z</time></trkpt><trkpt lat="45.7104942" lon="9.4365388"><ele>318.0</ele><time>2026-04-16T13:38:31.614Z</time></trkpt><trkpt lat="45.7104992" lon="9.4364225"><ele>318.0</ele><time>2026-04-16T13:38:32.615Z</time></trkpt><trkpt lat="45.7105086" lon="9.4363026"><ele>317.5</ele><time>2026-04-16T13:38:33.614Z</time></trkpt><trkpt lat="45.7104824" lon="9.4361763"><ele>317.0</ele><time>2026-04-16T13:38:34.614Z</time></trkpt><trkpt lat="45.7104429" lon="9.4360538"><ele>316.5</ele><time>2026-04-16T13:38:35.614Z</time></trkpt><trkpt lat="45.7104029" lon="9.4359727"><ele>316.0</ele><time>2026-04-16T13:38:36.614Z</time></trkpt><trkpt lat="45.7103523" lon="9.4358661"><ele>315.5</ele><time>2026-04-16T13:38:37.615Z</time></trkpt><trkpt lat="45.7103157" lon="9.4357721"><ele>315.0</ele><time>2026-04-16T13:38:38.614Z</time></trkpt><trkpt lat="45.7102688" lon="9.4356833"><ele>315.6666666666667</ele><time>2026-04-16T13:38:39.615Z</time></trkpt><trkpt lat="45.7102333" lon="9.4355905"><ele>316.3333333333333</ele><time>2026-04-16T13:38:40.614Z</time></trkpt><trkpt lat="45.710202" lon="9.435504"><ele>317.0</ele><time>2026-04-16T13:38:41.614Z</time></trkpt><trkpt lat="45.7101627" lon="9.4354098"><ele>317.66666666666663</ele><time>2026-04-16T13:38:42.614Z</time></trkpt><trkpt lat="45.7101338" lon="9.4353174"><ele>318.3333333333333</ele><time>2026-04-16T13:38:43.615Z</time></trkpt><trkpt lat="45.7100891" lon="9.4352386"><ele>319.0</ele><time>2026-04-16T13:38:44.614Z</time></trkpt><trkpt lat="45.7100125" lon="9.4350886"><ele>319.0</ele><time>2026-04-16T13:38:46.614Z</time></trkpt><trkpt lat="45.7099249" lon="9.4349472"><ele>319.0</ele><time>2026-04-16T13:38:48.614Z</time></trkpt><trkpt lat="45.7098782" lon="9.4348776"><ele>319.0</ele><time>2026-04-16T13:38:49.614Z</time></trkpt><trkpt lat="45.7098329" lon="9.4348043"><ele>319.0</ele><time>2026-04-16T13:38:50.614Z</time></trkpt><trkpt lat="45.7097827" lon="9.434744"><ele>319.0</ele><time>2026-04-16T13:38:51.614Z</time></trkpt><trkpt lat="45.709693" lon="9.4346048"><ele>319.16666666666663</ele><time>2026-04-16T13:38:53.615Z</time></trkpt><trkpt lat="45.7096408" lon="9.4345506"><ele>319.3333333333333</ele><time>2026-04-16T13:38:54.614Z</time></trkpt><trkpt lat="45.7095607" lon="9.4344553"><ele>319.5</ele><time>2026-04-16T13:38:55.615Z</time></trkpt><trkpt lat="45.7094882" lon="9.4344242"><ele>319.6666666666667</ele><time>2026-04-16T13:38:56.614Z</time></trkpt><trkpt lat="45.7094338" lon="9.4343346"><ele>319.83333333333337</ele><time>2026-04-16T13:38:57.615Z</time></trkpt><trkpt lat="45.7093872" lon="9.4342394"><ele>320.0</ele><time>2026-04-16T13:38:58.614Z</time></trkpt><trkpt lat="45.709348" lon="9.4341351"><ele>320.0</ele><time>2026-04-16T13:38:59.614Z</time></trkpt><trkpt lat="45.7093123" lon="9.4340378"><ele>320.0</ele><time>2026-04-16T13:39:00.614Z</time></trkpt><trkpt lat="45.7092833" lon="9.4338977"><ele>320.0</ele><time>2026-04-16T13:39:01.614Z</time></trkpt><trkpt lat="45.7092383" lon="9.4337877"><ele>320.0</ele><time>2026-04-16T13:39:02.614Z</time></trkpt><trkpt lat="45.7092104" lon="9.4336621"><ele>320.0</ele><time>2026-04-16T13:39:03.614Z</time></trkpt><trkpt lat="45.709189" lon="9.433527"><ele>318.4</ele><time>2026-04-16T13:39:04.614Z</time></trkpt><trkpt lat="45.7091512" lon="9.4334018"><ele>316.8</ele><time>2026-04-16T13:39:05.614Z</time></trkpt><trkpt lat="45.7091303" lon="9.4332732"><ele>315.2</ele><time>2026-04-16T13:39:06.614Z</time></trkpt><trkpt lat="45.7091007" lon="9.4331349"><ele>313.6</ele><time>2026-04-16T13:39:07.614Z</time></trkpt><trkpt lat="45.7090698" lon="9.4330036"><ele>312.0</ele><time>2026-04-16T13:39:08.614Z</time></trkpt><trkpt lat="45.7090423" lon="9.4328832"><ele>311.6666666666667</ele><time>2026-04-16T13:39:09.614Z</time></trkpt><trkpt lat="45.7090194" lon="9.43277"><ele>311.3333333333333</ele><time>2026-04-16T13:39:10.614Z</time></trkpt><trkpt lat="45.708979" lon="9.4326667"><ele>311.0</ele><time>2026-04-16T13:39:11.614Z</time></trkpt><trkpt lat="45.708952" lon="9.4325738"><ele>310.66666666666663</ele><time>2026-04-16T13:39:12.615Z</time></trkpt><trkpt lat="45.7089293" lon="9.4324796"><ele>310.3333333333333</ele><time>2026-04-16T13:39:13.614Z</time></trkpt><trkpt lat="45.7089172" lon="9.4323602"><ele>310.0</ele><time>2026-04-16T13:39:14.614Z</time></trkpt><trkpt lat="45.7088854" lon="9.4322599"><ele>310.0</ele><time>2026-04-16T13:39:15.614Z</time></trkpt><trkpt lat="45.7088562" lon="9.4321607"><ele>310.0</ele><time>2026-04-16T13:39:16.615Z</time></trkpt><trkpt lat="45.708828" lon="9.4320623"><ele>310.0</ele><time>2026-04-16T13:39:17.614Z</time></trkpt><trkpt lat="45.7087773" lon="9.4319092"><ele>310.0</ele><time>2026-04-16T13:39:19.614Z</time></trkpt><trkpt lat="45.7087086" lon="9.4317606"><ele>310.0</ele><time>2026-04-16T13:39:21.614Z</time></trkpt><trkpt lat="45.7086385" lon="9.4316532"><ele>311.4</ele><time>2026-04-16T13:39:23.614Z</time></trkpt><trkpt lat="45.7085759" lon="9.4315495"><ele>312.8</ele><time>2026-04-16T13:39:25.614Z</time></trkpt><trkpt lat="45.7085175" lon="9.4314503"><ele>314.2</ele><time>2026-04-16T13:39:27.614Z</time></trkpt><trkpt lat="45.7084653" lon="9.4313345"><ele>315.6</ele><time>2026-04-16T13:39:29.614Z</time></trkpt><trkpt lat="45.7084213" lon="9.4312257"><ele>317.0</ele><time>2026-04-16T13:39:31.614Z</time></trkpt><trkpt lat="45.7083739" lon="9.4311262"><ele>317.5</ele><time>2026-04-16T13:39:33.615Z</time></trkpt><trkpt lat="45.7083335" lon="9.43103"><ele>318.0</ele><time>2026-04-16T13:39:35.614Z</time></trkpt><trkpt lat="45.708289" lon="9.4309621"><ele>318.5</ele><time>2026-04-16T13:39:37.615Z</time></trkpt><trkpt lat="45.7082443" lon="9.430873"><ele>319.0</ele><time>2026-04-16T13:39:39.615Z</time></trkpt><trkpt lat="45.7082181" lon="9.4307203"><ele>319.5</ele><time>2026-04-16T13:39:41.615Z</time></trkpt><trkpt lat="45.7082055" lon="9.4306243"><ele>320.0</ele><time>2026-04-16T13:39:42.615Z</time></trkpt><trkpt lat="45.7081806" lon="9.4305249"><ele>320.0</ele><time>2026-04-16T13:39:43.615Z</time></trkpt><trkpt lat="45.7081474" lon="9.4303748"><ele>320.0</ele><time>2026-04-16T13:39:45.614Z</time></trkpt><trkpt lat="45.7080993" lon="9.4302164"><ele>320.0</ele><time>2026-04-16T13:39:47.615Z</time></trkpt><trkpt lat="45.7080831" lon="9.430126"><ele>320.0</ele><time>2026-04-16T13:39:48.614Z</time></trkpt><trkpt lat="45.7080597" lon="9.4299698"><ele>320.0</ele><time>2026-04-16T13:39:49.615Z</time></trkpt><trkpt lat="45.7080243" lon="9.4297948"><ele>320.0</ele><time>2026-04-16T13:39:51.614Z</time></trkpt><trkpt lat="45.7079742" lon="9.4296969"><ele>320.0</ele><time>2026-04-16T13:39:53.615Z</time></trkpt><trkpt lat="45.7079212" lon="9.4295611"><ele>320.0</ele><time>2026-04-16T13:39:55.614Z</time></trkpt><trkpt lat="45.7078654" lon="9.429476"><ele>320.0</ele><time>2026-04-16T13:39:57.615Z</time></trkpt><trkpt lat="45.7078015" lon="9.4293864"><ele>320.0</ele><time>2026-04-16T13:39:59.614Z</time></trkpt><trkpt lat="45.7077793" lon="9.4292549"><ele>320.1666666666667</ele><time>2026-04-16T13:40:01.614Z</time></trkpt><trkpt lat="45.7077866" lon="9.4291292"><ele>320.33333333333337</ele><time>2026-04-16T13:40:03.615Z</time></trkpt><trkpt lat="45.7077805" lon="9.429007"><ele>320.5</ele><time>2026-04-16T13:40:05.614Z</time></trkpt><trkpt lat="45.7077945" lon="9.4288884"><ele>320.6666666666667</ele><time>2026-04-16T13:40:07.615Z</time></trkpt><trkpt lat="45.7078076" lon="9.4287818"><ele>320.8333333333333</ele><time>2026-04-16T13:40:09.614Z</time></trkpt><trkpt lat="45.7078329" lon="9.4286731"><ele>321.0</ele><time>2026-04-16T13:40:11.614Z</time></trkpt><trkpt lat="45.7078601" lon="9.4285598"><ele>321.0</ele><time>2026-04-16T13:40:13.615Z</time></trkpt><trkpt lat="45.7078795" lon="9.4284624"><ele>321.0</ele><time>2026-04-16T13:40:15.614Z</time></trkpt><trkpt lat="45.7078581" lon="9.4283457"><ele>321.0</ele><time>2026-04-16T13:40:24.614Z</time></trkpt><trkpt lat="45.7078143" lon="9.428249"><ele>321.0</ele><time>2026-04-16T13:40:26.614Z</time></trkpt><trkpt lat="45.7077495" lon="9.4281761"><ele>321.0</ele><time>2026-04-16T13:40:28.614Z</time></trkpt><trkpt lat="45.7076824" lon="9.4281219"><ele>321.0</ele><time>2026-04-16T13:40:30.614Z</time></trkpt><trkpt lat="45.7076049" lon="9.4280767"><ele>322.0</ele><time>2026-04-16T13:40:32.615Z</time></trkpt><trkpt lat="45.7075329" lon="9.4280397"><ele>323.0</ele><time>2026-04-16T13:40:34.614Z</time></trkpt><trkpt lat="45.7074626" lon="9.4280314"><ele>324.0</ele><time>2026-04-16T13:40:36.614Z</time></trkpt><trkpt lat="45.7073795" lon="9.4279791"><ele>325.0</ele><time>2026-04-16T13:40:39.614Z</time></trkpt><trkpt lat="45.7073427" lon="9.4278995"><ele>326.0</ele><time>2026-04-16T13:40:41.614Z</time></trkpt><trkpt lat="45.7074106" lon="9.4278176"><ele>327.0</ele><time>2026-04-16T13:40:42.615Z</time></trkpt><trkpt lat="45.7076132" lon="9.4277631"><ele>327.0</ele><time>2026-04-16T13:40:47.614Z</time></trkpt><trkpt lat="45.7076483" lon="9.4275001"><ele>327.0</ele><time>2026-04-16T13:40:48.615Z</time></trkpt><trkpt lat="45.7076204" lon="9.427337"><ele>327.0</ele><time>2026-04-16T13:40:50.615Z</time></trkpt><trkpt lat="45.7075823" lon="9.4272056"><ele>327.0</ele><time>2026-04-16T13:40:52.614Z</time></trkpt><trkpt lat="45.7075393" lon="9.4270345"><ele>326.6</ele><time>2026-04-16T13:40:54.614Z</time></trkpt><trkpt lat="45.7074894" lon="9.4268726"><ele>326.20000000000005</ele><time>2026-04-16T13:40:56.614Z</time></trkpt><trkpt lat="45.7074526" lon="9.4267184"><ele>325.8</ele><time>2026-04-16T13:40:58.614Z</time></trkpt><trkpt lat="45.7074745" lon="9.4265851"><ele>325.4</ele><time>2026-04-16T13:41:00.614Z</time></trkpt><trkpt lat="45.7075292" lon="9.4264609"><ele>325.0</ele><time>2026-04-16T13:41:02.615Z</time></trkpt><trkpt lat="45.7075536" lon="9.4263663"><ele>325.0</ele><time>2026-04-16T13:41:03.614Z</time></trkpt><trkpt lat="45.7075532" lon="9.426229"><ele>325.0</ele><time>2026-04-16T13:41:05.615Z</time></trkpt><trkpt lat="45.7075412" lon="9.4261272"><ele>325.0</ele><time>2026-04-16T13:41:06.614Z</time></trkpt><trkpt lat="45.7075008" lon="9.4259839"><ele>325.0</ele><time>2026-04-16T13:41:08.614Z</time></trkpt><trkpt lat="45.7074448" lon="9.4258497"><ele>325.0</ele><time>2026-04-16T13:41:10.615Z</time></trkpt><trkpt lat="45.7073847" lon="9.4257852"><ele>325.0</ele><time>2026-04-16T13:41:12.614Z</time></trkpt><trkpt lat="45.707288" lon="9.4256933"><ele>325.0</ele><time>2026-04-16T13:41:14.614Z</time></trkpt><trkpt lat="45.707245" lon="9.425573"><ele>325.0</ele><time>2026-04-16T13:41:16.614Z</time></trkpt><trkpt lat="45.7072346" lon="9.4254411"><ele>325.0</ele><time>2026-04-16T13:41:18.614Z</time></trkpt><trkpt lat="45.7072154" lon="9.4253283"><ele>325.0</ele><time>2026-04-16T13:41:20.614Z</time></trkpt><trkpt lat="45.7071802" lon="9.4252162"><ele>325.0</ele><time>2026-04-16T13:41:22.614Z</time></trkpt><trkpt lat="45.7071146" lon="9.4251182"><ele>325.0</ele><time>2026-04-16T13:41:24.614Z</time></trkpt><trkpt lat="45.7070492" lon="9.4250416"><ele>325.0</ele><time>2026-04-16T13:41:26.614Z</time></trkpt><trkpt lat="45.7069833" lon="9.4249468"><ele>325.0</ele><time>2026-04-16T13:41:28.615Z</time></trkpt><trkpt lat="45.7069375" lon="9.4248614"><ele>325.0</ele><time>2026-04-16T13:41:30.615Z</time></trkpt><trkpt lat="45.7069366" lon="9.4247416"><ele>325.0</ele><time>2026-04-16T13:41:32.614Z</time></trkpt><trkpt lat="45.7069802" lon="9.4246505"><ele>325.5</ele><time>2026-04-16T13:41:34.614Z</time></trkpt><trkpt lat="45.7070165" lon="9.4245644"><ele>326.0</ele><time>2026-04-16T13:41:35.614Z</time></trkpt><trkpt lat="45.7070257" lon="9.4244244"><ele>326.5</ele><time>2026-04-16T13:41:37.615Z</time></trkpt><trkpt lat="45.7070397" lon="9.4243126"><ele>327.0</ele><time>2026-04-16T13:41:39.614Z</time></trkpt><trkpt lat="45.7070695" lon="9.4242212"><ele>327.5</ele><time>2026-04-16T13:41:41.615Z</time></trkpt><trkpt lat="45.707089" lon="9.4240835"><ele>328.0</ele><time>2026-04-16T13:41:43.614Z</time></trkpt><trkpt lat="45.7070917" lon="9.423955"><ele>328.0</ele><time>2026-04-16T13:41:45.615Z</time></trkpt><trkpt lat="45.7070722" lon="9.4238458"><ele>328.0</ele><time>2026-04-16T13:41:47.615Z</time></trkpt><trkpt lat="45.707035" lon="9.4237447"><ele>328.0</ele><time>2026-04-16T13:41:49.614Z</time></trkpt><trkpt lat="45.7069527" lon="9.4236956"><ele>328.0</ele><time>2026-04-16T13:41:52.614Z</time></trkpt><trkpt lat="45.7068828" lon="9.4236185"><ele>328.0</ele><time>2026-04-16T13:41:55.614Z</time></trkpt><trkpt lat="45.706821" lon="9.423566"><ele>328.0</ele><time>2026-04-16T13:41:57.614Z</time></trkpt><trkpt lat="45.7067533" lon="9.4235306"><ele>330.1428571428571</ele><time>2026-04-16T13:41:59.614Z</time></trkpt><trkpt lat="45.7066791" lon="9.4235063"><ele>332.2857142857143</ele><time>2026-04-16T13:42:01.615Z</time></trkpt><trkpt lat="45.706607" lon="9.4234613"><ele>334.42857142857144</ele><time>2026-04-16T13:42:03.615Z</time></trkpt><trkpt lat="45.7065518" lon="9.4233997"><ele>336.57142857142856</ele><time>2026-04-16T13:42:05.614Z</time></trkpt><trkpt lat="45.7064965" lon="9.4234456"><ele>338.7142857142857</ele><time>2026-04-16T13:42:12.614Z</time></trkpt><trkpt lat="45.7064252" lon="9.423438"><ele>340.85714285714283</ele><time>2026-04-16T13:42:14.614Z</time></trkpt><trkpt lat="45.706349" lon="9.4234421"><ele>343.0</ele><time>2026-04-16T13:42:16.615Z</time></trkpt><trkpt lat="45.7062615" lon="9.4234091"><ele>343.0</ele><time>2026-04-16T13:42:18.615Z</time></trkpt><trkpt lat="45.7061914" lon="9.4233706"><ele>343.0</ele><time>2026-04-16T13:42:20.614Z</time></trkpt><trkpt lat="45.7061326" lon="9.4233166"><ele>343.0</ele><time>2026-04-16T13:42:22.614Z</time></trkpt><trkpt lat="45.7060769" lon="9.4232342"><ele>343.0</ele><time>2026-04-16T13:42:24.614Z</time></trkpt><trkpt lat="45.7060349" lon="9.4231593"><ele>343.0</ele><time>2026-04-16T13:42:26.614Z</time></trkpt><trkpt lat="45.7059775" lon="9.4230988"><ele>343.0</ele><time>2026-04-16T13:42:29.614Z</time></trkpt><trkpt lat="45.7058968" lon="9.4230573"><ele>343.0</ele><time>2026-04-16T13:42:32.614Z</time></trkpt><trkpt lat="45.7058294" lon="9.4230361"><ele>343.0</ele><time>2026-04-16T13:42:34.614Z</time></trkpt><trkpt lat="45.7057663" lon="9.4229836"><ele>343.0</ele><time>2026-04-16T13:42:37.615Z</time></trkpt><trkpt lat="45.7057045" lon="9.4229491"><ele>343.0</ele><time>2026-04-16T13:42:42.615Z</time></trkpt><trkpt lat="45.7056293" lon="9.4228768"><ele>343.0</ele><time>2026-04-16T13:42:45.614Z</time></trkpt><trkpt lat="45.7055288" lon="9.4228678"><ele>343.0</ele><time>2026-04-16T13:42:48.614Z</time></trkpt><trkpt lat="45.7054169" lon="9.4228592"><ele>343.0</ele><time>2026-04-16T13:42:50.614Z</time></trkpt><trkpt lat="45.7052962" lon="9.4228848"><ele>344.5</ele><time>2026-04-16T13:42:52.614Z</time></trkpt><trkpt lat="45.7051756" lon="9.4228497"><ele>346.0</ele><time>2026-04-16T13:42:54.614Z</time></trkpt><trkpt lat="45.7050589" lon="9.4228572"><ele>347.5</ele><time>2026-04-16T13:42:56.614Z</time></trkpt><trkpt lat="45.7049472" lon="9.4228564"><ele>349.0</ele><time>2026-04-16T13:42:58.614Z</time></trkpt><trkpt lat="45.7048238" lon="9.4228659"><ele>349.0</ele><time>2026-04-16T13:43:00.614Z</time></trkpt><trkpt lat="45.7047179" lon="9.4228727"><ele>349.0</ele><time>2026-04-16T13:43:02.614Z</time></trkpt><trkpt lat="45.7045877" lon="9.422862"><ele>349.0</ele><time>2026-04-16T13:43:04.615Z</time></trkpt><trkpt lat="45.7044789" lon="9.4228744"><ele>349.0</ele><time>2026-04-16T13:43:06.614Z</time></trkpt><trkpt lat="45.7043598" lon="9.4228601"><ele>348.2</ele><time>2026-04-16T13:43:08.614Z</time></trkpt><trkpt lat="45.70427" lon="9.4228329"><ele>347.4</ele><time>2026-04-16T13:43:10.614Z</time></trkpt><trkpt lat="45.7041987" lon="9.4227898"><ele>346.6</ele><time>2026-04-16T13:43:13.614Z</time></trkpt><trkpt lat="45.70413" lon="9.4227252"><ele>345.8</ele><time>2026-04-16T13:43:17.615Z</time></trkpt><trkpt lat="45.7040324" lon="9.4226497"><ele>345.0</ele><time>2026-04-16T13:43:19.614Z</time></trkpt><trkpt lat="45.7038364" lon="9.4225592"><ele>345.0</ele><time>2026-04-16T13:43:21.615Z</time></trkpt><trkpt lat="45.7037406" lon="9.4224759"><ele>345.0</ele><time>2026-04-16T13:43:23.615Z</time></trkpt><trkpt lat="45.7036346" lon="9.4224071"><ele>345.0</ele><time>2026-04-16T13:43:25.614Z</time></trkpt><trkpt lat="45.703572" lon="9.4223952"><ele>345.0</ele><time>2026-04-16T13:43:26.614Z</time></trkpt><trkpt lat="45.7035125" lon="9.4223375"><ele>345.0</ele><time>2026-04-16T13:43:27.615Z</time></trkpt><trkpt lat="45.7034449" lon="9.4222193"><ele>343.5</ele><time>2026-04-16T13:43:29.614Z</time></trkpt><trkpt lat="45.7033975" lon="9.4221545"><ele>342.0</ele><time>2026-04-16T13:43:30.615Z</time></trkpt><trkpt lat="45.7033368" lon="9.4220948"><ele>340.5</ele><time>2026-04-16T13:43:32.614Z</time></trkpt><trkpt lat="45.7032853" lon="9.4220098"><ele>339.0</ele><time>2026-04-16T13:43:35.614Z</time></trkpt><trkpt lat="45.7032077" lon="9.42192"><ele>337.5</ele><time>2026-04-16T13:43:39.615Z</time></trkpt><trkpt lat="45.7031252" lon="9.4218582"><ele>336.0</ele><time>2026-04-16T13:43:41.615Z</time></trkpt><trkpt lat="45.7030433" lon="9.421822"><ele>335.5</ele><time>2026-04-16T13:43:42.614Z</time></trkpt><trkpt lat="45.7029868" lon="9.421772"><ele>335.0</ele><time>2026-04-16T13:43:43.614Z</time></trkpt><trkpt lat="45.70293" lon="9.42172"><ele>334.5</ele><time>2026-04-16T13:43:44.615Z</time></trkpt><trkpt lat="45.7028684" lon="9.4216804"><ele>334.0</ele><time>2026-04-16T13:43:45.614Z</time></trkpt><trkpt lat="45.7028028" lon="9.4216548"><ele>333.5</ele><time>2026-04-16T13:43:46.614Z</time></trkpt><trkpt lat="45.7026733" lon="9.4216239"><ele>333.0</ele><time>2026-04-16T13:43:48.614Z</time></trkpt><trkpt lat="45.7026118" lon="9.421588"><ele>331.3333333333333</ele><time>2026-04-16T13:43:49.614Z</time></trkpt><trkpt lat="45.7025038" lon="9.4216127"><ele>329.6666666666667</ele><time>2026-04-16T13:43:51.615Z</time></trkpt><trkpt lat="45.7023974" lon="9.4215399"><ele>328.0</ele><time>2026-04-16T13:43:53.614Z</time></trkpt><trkpt lat="45.7023285" lon="9.4215349"><ele>326.33333333333337</ele><time>2026-04-16T13:43:56.614Z</time></trkpt><trkpt lat="45.7023268" lon="9.421626"><ele>324.6666666666667</ele><time>2026-04-16T13:43:59.615Z</time></trkpt><trkpt lat="45.7023563" lon="9.4217191"><ele>323.0</ele><time>2026-04-16T13:44:01.615Z</time></trkpt><trkpt lat="45.702407" lon="9.4218324"><ele>323.0</ele><time>2026-04-16T13:44:03.615Z</time></trkpt><trkpt lat="45.7024457" lon="9.4219338"><ele>323.0</ele><time>2026-04-16T13:44:05.615Z</time></trkpt><trkpt lat="45.7024713" lon="9.4220666"><ele>323.0</ele><time>2026-04-16T13:44:08.614Z</time></trkpt><trkpt lat="45.7025387" lon="9.42216"><ele>323.0</ele><time>2026-04-16T13:44:10.614Z</time></trkpt><trkpt lat="45.7025971" lon="9.422341"><ele>323.0</ele><time>2026-04-16T13:44:13.614Z</time></trkpt><trkpt lat="45.7026388" lon="9.4224976"><ele>323.0</ele><time>2026-04-16T13:44:15.614Z</time></trkpt><trkpt lat="45.7027155" lon="9.4225878"><ele>323.0</ele><time>2026-04-16T13:44:16.615Z</time></trkpt><trkpt lat="45.7027332" lon="9.4226843"><ele>323.0</ele><time>2026-04-16T13:44:17.614Z</time></trkpt><trkpt lat="45.7027227" lon="9.4228426"><ele>323.0</ele><time>2026-04-16T13:44:19.614Z</time></trkpt><trkpt lat="45.7026927" lon="9.4230019"><ele>323.0</ele><time>2026-04-16T13:44:21.614Z</time></trkpt><trkpt lat="45.702686" lon="9.4231241"><ele>322.79999999999995</ele><time>2026-04-16T13:44:23.614Z</time></trkpt><trkpt lat="45.7026857" lon="9.423277"><ele>322.6</ele><time>2026-04-16T13:44:25.615Z</time></trkpt><trkpt lat="45.7026583" lon="9.4234353"><ele>322.4</ele><time>2026-04-16T13:44:27.614Z</time></trkpt><trkpt lat="45.7026869" lon="9.4235879"><ele>322.20000000000005</ele><time>2026-04-16T13:44:29.615Z</time></trkpt><trkpt lat="45.7026747" lon="9.4237359"><ele>322.0</ele><time>2026-04-16T13:44:31.614Z</time></trkpt><trkpt lat="45.7026499" lon="9.4238873"><ele>322.0</ele><time>2026-04-16T13:44:33.615Z</time></trkpt><trkpt lat="45.7026612" lon="9.4240211"><ele>322.0</ele><time>2026-04-16T13:44:35.614Z</time></trkpt><trkpt lat="45.7026759" lon="9.4241465"><ele>322.0</ele><time>2026-04-16T13:44:37.615Z</time></trkpt><trkpt lat="45.7027132" lon="9.4242716"><ele>322.0</ele><time>2026-04-16T13:44:39.614Z</time></trkpt><trkpt lat="45.7027458" lon="9.4244278"><ele>322.0</ele><time>2026-04-16T13:44:41.614Z</time></trkpt><trkpt lat="45.7027912" lon="9.4245539"><ele>323.3333333333333</ele><time>2026-04-16T13:44:43.614Z</time></trkpt><trkpt lat="45.7028639" lon="9.424646"><ele>324.66666666666663</ele><time>2026-04-16T13:44:45.614Z</time></trkpt><trkpt lat="45.7029308" lon="9.4246901"><ele>326.0</ele><time>2026-04-16T13:44:47.615Z</time></trkpt><trkpt lat="45.7030039" lon="9.4247257"><ele>327.3333333333333</ele><time>2026-04-16T13:44:49.614Z</time></trkpt><trkpt lat="45.7030853" lon="9.4247525"><ele>328.6666666666667</ele><time>2026-04-16T13:44:51.614Z</time></trkpt><trkpt lat="45.7031522" lon="9.4247546"><ele>330.0</ele><time>2026-04-16T13:44:55.658Z</time></trkpt><trkpt lat="45.7032426" lon="9.4247795"><ele>330.0</ele><time>2026-04-16T13:44:58.615Z</time></trkpt><trkpt lat="45.7033194" lon="9.4248068"><ele>330.0</ele><time>2026-04-16T13:45:01.567Z</time></trkpt><trkpt lat="45.7034352" lon="9.4248284"><ele>330.0</ele><time>2026-04-16T13:45:02.614Z</time></trkpt><trkpt lat="45.7035327" lon="9.4248487"><ele>330.0</ele><time>2026-04-16T13:45:03.615Z</time></trkpt><trkpt lat="45.7036159" lon="9.4248669"><ele>330.0</ele><time>2026-04-16T13:45:04.614Z</time></trkpt><trkpt lat="45.7036819" lon="9.4248796"><ele>330.0</ele><time>2026-04-16T13:45:05.614Z</time></trkpt><trkpt lat="45.7037815" lon="9.4248927"><ele>331.0</ele><time>2026-04-16T13:45:07.615Z</time></trkpt><trkpt lat="45.7038757" lon="9.4249132"><ele>332.0</ele><time>2026-04-16T13:45:09.615Z</time></trkpt><trkpt lat="45.7039432" lon="9.4249423"><ele>333.0</ele><time>2026-04-16T13:45:11.614Z</time></trkpt><trkpt lat="45.7040295" lon="9.425017"><ele>334.0</ele><time>2026-04-16T13:45:13.614Z</time></trkpt><trkpt lat="45.7041087" lon="9.4250933"><ele>335.0</ele><time>2026-04-16T13:45:15.615Z</time></trkpt><trkpt lat="45.7042244" lon="9.4252076"><ele>334.99999999999994</ele><time>2026-04-16T13:45:17.614Z</time></trkpt><trkpt lat="45.7042804" lon="9.4252594"><ele>335.0</ele><time>2026-04-16T13:45:18.614Z</time></trkpt><trkpt lat="45.7043406" lon="9.4253155"><ele>335.0</ele><time>2026-04-16T13:45:19.615Z</time></trkpt><trkpt lat="45.7043955" lon="9.4253733"><ele>335.0</ele><time>2026-04-16T13:45:20.614Z</time></trkpt><trkpt lat="45.704446" lon="9.4254355"><ele>335.0</ele><time>2026-04-16T13:45:21.614Z</time></trkpt><trkpt lat="45.7044926" lon="9.4255102"><ele>334.99999999999994</ele><time>2026-04-16T13:45:22.614Z</time></trkpt><trkpt lat="45.7045334" lon="9.4256133"><ele>335.0</ele><time>2026-04-16T13:45:23.614Z</time></trkpt><trkpt lat="45.7045751" lon="9.4257677"><ele>335.0</ele><time>2026-04-16T13:45:25.614Z</time></trkpt><trkpt lat="45.7045867" lon="9.4258564"><ele>335.0</ele><time>2026-04-16T13:45:26.615Z</time></trkpt><trkpt lat="45.7046218" lon="9.4259433"><ele>335.0</ele><time>2026-04-16T13:45:27.614Z</time></trkpt><trkpt lat="45.7046252" lon="9.4261121"><ele>335.0</ele><time>2026-04-16T13:45:29.615Z</time></trkpt><trkpt lat="45.7046253" lon="9.4262907"><ele>335.0</ele><time>2026-04-16T13:45:31.614Z</time></trkpt><trkpt lat="45.7046501" lon="9.4264635"><ele>334.2</ele><time>2026-04-16T13:45:33.615Z</time></trkpt><trkpt lat="45.7047034" lon="9.4266191"><ele>333.4</ele><time>2026-04-16T13:45:35.614Z</time></trkpt><trkpt lat="45.7047269" lon="9.4267068"><ele>332.6</ele><time>2026-04-16T13:45:36.614Z</time></trkpt><trkpt lat="45.7047784" lon="9.4268823"><ele>331.8</ele><time>2026-04-16T13:45:38.614Z</time></trkpt><trkpt lat="45.7048565" lon="9.4270162"><ele>331.0</ele><time>2026-04-16T13:45:40.615Z</time></trkpt><trkpt lat="45.7049168" lon="9.4270808"><ele>331.0</ele><time>2026-04-16T13:45:41.614Z</time></trkpt><trkpt lat="45.7049903" lon="9.4271333"><ele>331.0</ele><time>2026-04-16T13:45:42.615Z</time></trkpt><trkpt lat="45.7050647" lon="9.4271852"><ele>331.0</ele><time>2026-04-16T13:45:43.615Z</time></trkpt><trkpt lat="45.7051412" lon="9.4272324"><ele>331.0</ele><time>2026-04-16T13:45:44.615Z</time></trkpt><trkpt lat="45.7052188" lon="9.4272901"><ele>331.0</ele><time>2026-04-16T13:45:45.615Z</time></trkpt><trkpt lat="45.7052849" lon="9.4273445"><ele>331.0</ele><time>2026-04-16T13:45:46.614Z</time></trkpt><trkpt lat="45.7053683" lon="9.4273956"><ele>330.3333333333333</ele><time>2026-04-16T13:45:47.615Z</time></trkpt><trkpt lat="45.7054273" lon="9.4274594"><ele>329.66666666666663</ele><time>2026-04-16T13:45:48.614Z</time></trkpt><trkpt lat="45.7054981" lon="9.427501"><ele>329.0</ele><time>2026-04-16T13:45:49.614Z</time></trkpt><trkpt lat="45.705581" lon="9.4275368"><ele>328.3333333333333</ele><time>2026-04-16T13:45:50.614Z</time></trkpt><trkpt lat="45.7056702" lon="9.4275808"><ele>327.6666666666667</ele><time>2026-04-16T13:45:51.615Z</time></trkpt><trkpt lat="45.7057608" lon="9.4276068"><ele>327.0</ele><time>2026-04-16T13:45:52.615Z</time></trkpt><trkpt lat="45.7058425" lon="9.4276115"><ele>327.0</ele><time>2026-04-16T13:45:53.614Z</time></trkpt><trkpt lat="45.7059246" lon="9.427637"><ele>327.0</ele><time>2026-04-16T13:45:54.615Z</time></trkpt><trkpt lat="45.7059879" lon="9.4276472"><ele>327.0</ele><time>2026-04-16T13:45:55.614Z</time></trkpt><trkpt lat="45.7060627" lon="9.4276613"><ele>327.0</ele><time>2026-04-16T13:45:56.614Z</time></trkpt><trkpt lat="45.7061439" lon="9.4276627"><ele>327.0</ele><time>2026-04-16T13:45:57.614Z</time></trkpt><trkpt lat="45.7062259" lon="9.4277025"><ele>327.0</ele><time>2026-04-16T13:45:58.615Z</time></trkpt><trkpt lat="45.7063064" lon="9.4277278"><ele>327.3333333333333</ele><time>2026-04-16T13:45:59.614Z</time></trkpt><trkpt lat="45.7063855" lon="9.4277437"><ele>327.6666666666667</ele><time>2026-04-16T13:46:00.614Z</time></trkpt><trkpt lat="45.7064706" lon="9.4277716"><ele>328.0</ele><time>2026-04-16T13:46:01.614Z</time></trkpt><trkpt lat="45.7065588" lon="9.4278077"><ele>328.33333333333337</ele><time>2026-04-16T13:46:02.614Z</time></trkpt><trkpt lat="45.7066379" lon="9.4278167"><ele>328.6666666666667</ele><time>2026-04-16T13:46:03.615Z</time></trkpt><trkpt lat="45.7067119" lon="9.4278383"><ele>329.0</ele><time>2026-04-16T13:46:04.614Z</time></trkpt><trkpt lat="45.7067993" lon="9.4278555"><ele>329.0</ele><time>2026-04-16T13:46:05.614Z</time></trkpt><trkpt lat="45.7068668" lon="9.4278691"><ele>329.0</ele><time>2026-04-16T13:46:06.614Z</time></trkpt><trkpt lat="45.706945" lon="9.4278732"><ele>329.0</ele><time>2026-04-16T13:46:07.614Z</time></trkpt><trkpt lat="45.7070159" lon="9.4278611"><ele>329.0</ele><time>2026-04-16T13:46:08.614Z</time></trkpt><trkpt lat="45.7070807" lon="9.4278552"><ele>329.0</ele><time>2026-04-16T13:46:09.614Z</time></trkpt><trkpt lat="45.7071579" lon="9.4278897"><ele>329.0</ele><time>2026-04-16T13:46:10.614Z</time></trkpt><trkpt lat="45.7072567" lon="9.4279359"><ele>328.75</ele><time>2026-04-16T13:46:12.614Z</time></trkpt><trkpt lat="45.707341" lon="9.428008"><ele>328.5</ele><time>2026-04-16T13:46:13.614Z</time></trkpt><trkpt lat="45.7074786" lon="9.428019"><ele>328.25</ele><time>2026-04-16T13:46:15.615Z</time></trkpt><trkpt lat="45.7075783" lon="9.4280942"><ele>328.0</ele><time>2026-04-16T13:46:16.614Z</time></trkpt><trkpt lat="45.7076789" lon="9.4281248"><ele>326.59999999999997</ele><time>2026-04-16T13:46:17.615Z</time></trkpt><trkpt lat="45.7077725" lon="9.4281782"><ele>325.2</ele><time>2026-04-16T13:46:19.615Z</time></trkpt><trkpt lat="45.7078185" lon="9.4282955"><ele>323.8</ele><time>2026-04-16T13:46:21.615Z</time></trkpt><trkpt lat="45.7078011" lon="9.428425"><ele>322.4</ele><time>2026-04-16T13:46:23.614Z</time></trkpt><trkpt lat="45.7077787" lon="9.4285139"><ele>321.0</ele><time>2026-04-16T13:46:24.614Z</time></trkpt><trkpt lat="45.7077834" lon="9.4286654"><ele>321.0</ele><time>2026-04-16T13:46:25.614Z</time></trkpt><trkpt lat="45.7077532" lon="9.4287676"><ele>321.0</ele><time>2026-04-16T13:46:26.615Z</time></trkpt><trkpt lat="45.707723" lon="9.4288957"><ele>321.0</ele><time>2026-04-16T13:46:27.614Z</time></trkpt><trkpt lat="45.7077042" lon="9.429011"><ele>321.0</ele><time>2026-04-16T13:46:28.614Z</time></trkpt><trkpt lat="45.7076992" lon="9.4291334"><ele>321.0</ele><time>2026-04-16T13:46:29.615Z</time></trkpt><trkpt lat="45.7076977" lon="9.4292496"><ele>321.0</ele><time>2026-04-16T13:46:30.615Z</time></trkpt><trkpt lat="45.7077172" lon="9.429354"><ele>320.8</ele><time>2026-04-16T13:46:31.614Z</time></trkpt><trkpt lat="45.7077425" lon="9.4294642"><ele>320.6</ele><time>2026-04-16T13:46:32.614Z</time></trkpt><trkpt lat="45.7077927" lon="9.4295634"><ele>320.4</ele><time>2026-04-16T13:46:33.614Z</time></trkpt><trkpt lat="45.7078653" lon="9.4296693"><ele>320.2</ele><time>2026-04-16T13:46:34.614Z</time></trkpt><trkpt lat="45.7079277" lon="9.4297789"><ele>320.0</ele><time>2026-04-16T13:46:35.614Z</time></trkpt><trkpt lat="45.7079828" lon="9.4298718"><ele>320.0</ele><time>2026-04-16T13:46:36.615Z</time></trkpt><trkpt lat="45.7080192" lon="9.4299762"><ele>320.0</ele><time>2026-04-16T13:46:37.614Z</time></trkpt><trkpt lat="45.7080521" lon="9.4300831"><ele>320.0</ele><time>2026-04-16T13:46:38.614Z</time></trkpt><trkpt lat="45.7080959" lon="9.4301672"><ele>320.0</ele><time>2026-04-16T13:46:39.615Z</time></trkpt><trkpt lat="45.7081177" lon="9.4302629"><ele>320.0</ele><time>2026-04-16T13:46:40.614Z</time></trkpt><trkpt lat="45.7081445" lon="9.4303833"><ele>320.0</ele><time>2026-04-16T13:46:41.614Z</time></trkpt><trkpt lat="45.7081551" lon="9.4305029"><ele>320.0</ele><time>2026-04-16T13:46:42.614Z</time></trkpt><trkpt lat="45.7081593" lon="9.4306124"><ele>320.0</ele><time>2026-04-16T13:46:43.614Z</time></trkpt><trkpt lat="45.7081902" lon="9.4307738"><ele>320.0</ele><time>2026-04-16T13:46:45.615Z</time></trkpt><trkpt lat="45.7082299" lon="9.4308643"><ele>320.0</ele><time>2026-04-16T13:46:46.614Z</time></trkpt><trkpt lat="45.7083248" lon="9.4309938"><ele>320.0</ele><time>2026-04-16T13:46:48.614Z</time></trkpt><trkpt lat="45.708396" lon="9.4310711"><ele>320.0</ele><time>2026-04-16T13:46:49.614Z</time></trkpt><trkpt lat="45.7084466" lon="9.4311809"><ele>320.0</ele><time>2026-04-16T13:46:50.615Z</time></trkpt><trkpt lat="45.7085095" lon="9.4312613"><ele>320.0</ele><time>2026-04-16T13:46:51.614Z</time></trkpt><trkpt lat="45.7085783" lon="9.43137"><ele>320.0</ele><time>2026-04-16T13:46:52.615Z</time></trkpt><trkpt lat="45.7086232" lon="9.4314869"><ele>320.0</ele><time>2026-04-16T13:46:53.614Z</time></trkpt><trkpt lat="45.7086829" lon="9.4316059"><ele>318.8</ele><time>2026-04-16T13:46:54.614Z</time></trkpt><trkpt lat="45.7087301" lon="9.4317266"><ele>317.6</ele><time>2026-04-16T13:46:55.614Z</time></trkpt><trkpt lat="45.7087892" lon="9.4318523"><ele>316.4</ele><time>2026-04-16T13:46:56.614Z</time></trkpt><trkpt lat="45.7088296" lon="9.4319818"><ele>315.2</ele><time>2026-04-16T13:46:57.614Z</time></trkpt><trkpt lat="45.7089006" lon="9.4320983"><ele>314.0</ele><time>2026-04-16T13:46:58.614Z</time></trkpt><trkpt lat="45.7089245" lon="9.4322306"><ele>313.2</ele><time>2026-04-16T13:46:59.614Z</time></trkpt><trkpt lat="45.7089384" lon="9.4323741"><ele>312.4</ele><time>2026-04-16T13:47:00.614Z</time></trkpt><trkpt lat="45.7089653" lon="9.4324999"><ele>311.6</ele><time>2026-04-16T13:47:01.615Z</time></trkpt><trkpt lat="45.7089781" lon="9.4326104"><ele>310.8</ele><time>2026-04-16T13:47:02.615Z</time></trkpt><trkpt lat="45.70901" lon="9.4327191"><ele>310.0</ele><time>2026-04-16T13:47:03.615Z</time></trkpt><trkpt lat="45.7090471" lon="9.4329062"><ele>310.2857142857143</ele><time>2026-04-16T13:47:05.614Z</time></trkpt><trkpt lat="45.7090767" lon="9.4330139"><ele>310.57142857142856</ele><time>2026-04-16T13:47:06.615Z</time></trkpt><trkpt lat="45.7090761" lon="9.4331048"><ele>310.8571428571429</ele><time>2026-04-16T13:47:07.615Z</time></trkpt><trkpt lat="45.7090837" lon="9.4332001"><ele>311.1428571428571</ele><time>2026-04-16T13:47:08.615Z</time></trkpt><trkpt lat="45.7090851" lon="9.4333079"><ele>311.4285714285714</ele><time>2026-04-16T13:47:09.615Z</time></trkpt><trkpt lat="45.7090984" lon="9.4333965"><ele>311.7142857142857</ele><time>2026-04-16T13:47:10.614Z</time></trkpt><trkpt lat="45.7091087" lon="9.4335046"><ele>312.0</ele><time>2026-04-16T13:47:11.614Z</time></trkpt><trkpt lat="45.7091251" lon="9.4336061"><ele>312.0</ele><time>2026-04-16T13:47:12.615Z</time></trkpt><trkpt lat="45.7091667" lon="9.4337496"><ele>312.0</ele><time>2026-04-16T13:47:14.614Z</time></trkpt><trkpt lat="45.7091782" lon="9.4338386"><ele>312.0</ele><time>2026-04-16T13:47:15.614Z</time></trkpt><trkpt lat="45.7092164" lon="9.4339306"><ele>312.0</ele><time>2026-04-16T13:47:16.614Z</time></trkpt><trkpt lat="45.7092553" lon="9.4340352"><ele>312.0</ele><time>2026-04-16T13:47:18.615Z</time></trkpt><trkpt lat="45.709294" lon="9.434142"><ele>312.0</ele><time>2026-04-16T13:47:20.614Z</time></trkpt><trkpt lat="45.7093738" lon="9.434246"><ele>312.0</ele><time>2026-04-16T13:47:22.614Z</time></trkpt><trkpt lat="45.7094684" lon="9.4343418"><ele>312.0</ele><time>2026-04-16T13:47:24.614Z</time></trkpt><trkpt lat="45.7095425" lon="9.4344261"><ele>312.0</ele><time>2026-04-16T13:47:26.615Z</time></trkpt><trkpt lat="45.7096088" lon="9.4345306"><ele>312.0</ele><time>2026-04-16T13:47:28.614Z</time></trkpt><trkpt lat="45.7096831" lon="9.4346478"><ele>312.0</ele><time>2026-04-16T13:47:30.614Z</time></trkpt><trkpt lat="45.709756" lon="9.4347251"><ele>313.4</ele><time>2026-04-16T13:47:32.615Z</time></trkpt><trkpt lat="45.7098603" lon="9.4348343"><ele>314.79999999999995</ele><time>2026-04-16T13:47:34.614Z</time></trkpt><trkpt lat="45.7099142" lon="9.4348956"><ele>316.2</ele><time>2026-04-16T13:47:35.614Z</time></trkpt><trkpt lat="45.7099645" lon="9.4349597"><ele>317.59999999999997</ele><time>2026-04-16T13:47:36.614Z</time></trkpt><trkpt lat="45.7100348" lon="9.4350578"><ele>319.0</ele><time>2026-04-16T13:47:37.614Z</time></trkpt><trkpt lat="45.7101205" lon="9.4351747"><ele>319.0</ele><time>2026-04-16T13:47:39.615Z</time></trkpt><trkpt lat="45.7101594" lon="9.4352457"><ele>319.0</ele><time>2026-04-16T13:47:40.614Z</time></trkpt><trkpt lat="45.710226" lon="9.4353959"><ele>319.0</ele><time>2026-04-16T13:47:42.614Z</time></trkpt><trkpt lat="45.7102623" lon="9.4354779"><ele>319.0</ele><time>2026-04-16T13:47:43.615Z</time></trkpt><trkpt lat="45.7102945" lon="9.435563"><ele>319.0</ele><time>2026-04-16T13:47:44.615Z</time></trkpt><trkpt lat="45.7103317" lon="9.4356372"><ele>319.0</ele><time>2026-04-16T13:47:45.614Z</time></trkpt><trkpt lat="45.7103698" lon="9.4357288"><ele>318.8</ele><time>2026-04-16T13:47:46.615Z</time></trkpt><trkpt lat="45.7104362" lon="9.4358882"><ele>318.59999999999997</ele><time>2026-04-16T13:47:48.614Z</time></trkpt><trkpt lat="45.7104741" lon="9.4359841"><ele>318.4</ele><time>2026-04-16T13:47:49.614Z</time></trkpt><trkpt lat="45.7105077" lon="9.4360635"><ele>318.2</ele><time>2026-04-16T13:47:50.614Z</time></trkpt><trkpt lat="45.7105426" lon="9.4362322"><ele>318.0</ele><time>2026-04-16T13:47:52.614Z</time></trkpt><trkpt lat="45.7105449" lon="9.4363244"><ele>318.0</ele><time>2026-04-16T13:47:53.614Z</time></trkpt><trkpt lat="45.7105301" lon="9.4364854"><ele>318.0</ele><time>2026-04-16T13:47:55.614Z</time></trkpt><trkpt lat="45.7105086" lon="9.4366327"><ele>318.0</ele><time>2026-04-16T13:47:57.614Z</time></trkpt><trkpt lat="45.7105067" lon="9.4367252"><ele>318.0</ele><time>2026-04-16T13:47:59.614Z</time></trkpt><trkpt lat="45.7104826" lon="9.4368435"><ele>318.0</ele><time>2026-04-16T13:48:01.614Z</time></trkpt><trkpt lat="45.7104491" lon="9.4369733"><ele>318.0</ele><time>2026-04-16T13:48:03.614Z</time></trkpt><trkpt lat="45.7104389" lon="9.437122"><ele>318.0</ele><time>2026-04-16T13:48:05.614Z</time></trkpt><trkpt lat="45.710431" lon="9.4372741"><ele>318.0</ele><time>2026-04-16T13:48:07.614Z</time></trkpt><trkpt lat="45.7103952" lon="9.4374129"><ele>318.0</ele><time>2026-04-16T13:48:09.614Z</time></trkpt><trkpt lat="45.7103778" lon="9.4375602"><ele>318.0</ele><time>2026-04-16T13:48:11.614Z</time></trkpt><trkpt lat="45.7103563" lon="9.4376472"><ele>317.8333333333333</ele><time>2026-04-16T13:48:12.615Z</time></trkpt><trkpt lat="45.7103367" lon="9.437802"><ele>317.6666666666667</ele><time>2026-04-16T13:48:14.614Z</time></trkpt><trkpt lat="45.71034" lon="9.4379511"><ele>317.5</ele><time>2026-04-16T13:48:16.614Z</time></trkpt><trkpt lat="45.7103426" lon="9.4380524"><ele>317.33333333333337</ele><time>2026-04-16T13:48:17.614Z</time></trkpt><trkpt lat="45.7103348" lon="9.4381422"><ele>317.1666666666667</ele><time>2026-04-16T13:48:18.615Z</time></trkpt><trkpt lat="45.7103245" lon="9.4382578"><ele>317.0</ele><time>2026-04-16T13:48:19.615Z</time></trkpt><trkpt lat="45.7103528" lon="9.4383592"><ele>317.4</ele><time>2026-04-16T13:48:20.615Z</time></trkpt><trkpt lat="45.7103482" lon="9.4384691"><ele>317.79999999999995</ele><time>2026-04-16T13:48:21.615Z</time></trkpt><trkpt lat="45.710353" lon="9.4385675"><ele>318.2</ele><time>2026-04-16T13:48:22.615Z</time></trkpt><trkpt lat="45.7103815" lon="9.4387183"><ele>318.59999999999997</ele><time>2026-04-16T13:48:24.614Z</time></trkpt><trkpt lat="45.7104124" lon="9.4388684"><ele>319.0</ele><time>2026-04-16T13:48:26.615Z</time></trkpt><trkpt lat="45.7104333" lon="9.4390304"><ele>320.0</ele><time>2026-04-16T13:48:28.614Z</time></trkpt><trkpt lat="45.710477" lon="9.4391446"><ele>321.0</ele><time>2026-04-16T13:48:30.614Z</time></trkpt><trkpt lat="45.7105429" lon="9.4392354"><ele>322.0</ele><time>2026-04-16T13:48:32.615Z</time></trkpt><trkpt lat="45.7106225" lon="9.4393054"><ele>323.0</ele><time>2026-04-16T13:48:34.615Z</time></trkpt><trkpt lat="45.7107221" lon="9.4393339"><ele>324.0</ele><time>2026-04-16T13:48:36.615Z</time></trkpt><trkpt lat="45.7108069" lon="9.4393747"><ele>324.0</ele><time>2026-04-16T13:48:38.614Z</time></trkpt><trkpt lat="45.7108912" lon="9.4394639"><ele>324.0</ele><time>2026-04-16T13:48:40.615Z</time></trkpt><trkpt lat="45.710977" lon="9.4395645"><ele>324.0</ele><time>2026-04-16T13:48:42.614Z</time></trkpt><trkpt lat="45.7110248" lon="9.4396307"><ele>324.0</ele><time>2026-04-16T13:48:43.615Z</time></trkpt><trkpt lat="45.711106" lon="9.439718"><ele>324.0</ele><time>2026-04-16T13:48:45.615Z</time></trkpt><trkpt lat="45.7112026" lon="9.4398316"><ele>324.75</ele><time>2026-04-16T13:48:47.615Z</time></trkpt><trkpt lat="45.7112914" lon="9.4399593"><ele>325.5</ele><time>2026-04-16T13:48:49.615Z</time></trkpt><trkpt lat="45.7113466" lon="9.4400308"><ele>326.25</ele><time>2026-04-16T13:48:50.614Z</time></trkpt><trkpt lat="45.7114382" lon="9.4401307"><ele>327.0</ele><time>2026-04-16T13:48:52.614Z</time></trkpt><trkpt lat="45.7115681" lon="9.4402335"><ele>327.0</ele><time>2026-04-16T13:48:54.614Z</time></trkpt><trkpt lat="45.711634" lon="9.4403334"><ele>327.0</ele><time>2026-04-16T13:48:55.614Z</time></trkpt><trkpt lat="45.7117693" lon="9.4404862"><ele>327.0</ele><time>2026-04-16T13:48:57.615Z</time></trkpt><trkpt lat="45.7118588" lon="9.4406228"><ele>327.0</ele><time>2026-04-16T13:48:58.614Z</time></trkpt><trkpt lat="45.7119228" lon="9.4406846"><ele>327.8333333333333</ele><time>2026-04-16T13:48:59.614Z</time></trkpt><trkpt lat="45.7119848" lon="9.4407987"><ele>328.6666666666667</ele><time>2026-04-16T13:49:01.614Z</time></trkpt><trkpt lat="45.7120094" lon="9.440976"><ele>329.5</ele><time>2026-04-16T13:49:03.614Z</time></trkpt><trkpt lat="45.7120034" lon="9.4410679"><ele>330.33333333333337</ele><time>2026-04-16T13:49:04.614Z</time></trkpt><trkpt lat="45.7119932" lon="9.4411685"><ele>331.1666666666667</ele><time>2026-04-16T13:49:05.614Z</time></trkpt><trkpt lat="45.7119544" lon="9.4412616"><ele>332.0</ele><time>2026-04-16T13:49:06.614Z</time></trkpt><trkpt lat="45.7119177" lon="9.4413428"><ele>329.5</ele><time>2026-04-16T13:49:07.614Z</time></trkpt><trkpt lat="45.7118743" lon="9.4414343"><ele>327.0</ele><time>2026-04-16T13:49:08.614Z</time></trkpt><trkpt lat="45.7118239" lon="9.4415129"><ele>324.5</ele><time>2026-04-16T13:49:09.614Z</time></trkpt><trkpt lat="45.7117536" lon="9.4415777"><ele>322.0</ele><time>2026-04-16T13:49:10.615Z</time></trkpt><trkpt lat="45.711701" lon="9.441642"><ele>319.5</ele><time>2026-04-16T13:49:11.614Z</time></trkpt><trkpt lat="45.7116294" lon="9.441717"><ele>317.0</ele><time>2026-04-16T13:49:12.614Z</time></trkpt><trkpt lat="45.7115126" lon="9.441777"><ele>317.0</ele><time>2026-04-16T13:49:13.614Z</time></trkpt><trkpt lat="45.7114397" lon="9.4418239"><ele>317.0</ele><time>2026-04-16T13:49:14.615Z</time></trkpt><trkpt lat="45.7113762" lon="9.4418854"><ele>317.0</ele><time>2026-04-16T13:49:15.614Z</time></trkpt><trkpt lat="45.7113009" lon="9.4419331"><ele>317.0</ele><time>2026-04-16T13:49:16.615Z</time></trkpt><trkpt lat="45.7110747" lon="9.4419946"><ele>313.25</ele><time>2026-04-16T13:49:18.614Z</time></trkpt><trkpt lat="45.7109532" lon="9.4419982"><ele>309.5</ele><time>2026-04-16T13:49:19.615Z</time></trkpt><trkpt lat="45.7108632" lon="9.4420032"><ele>305.75</ele><time>2026-04-16T13:49:20.615Z</time></trkpt><trkpt lat="45.7107269" lon="9.4420439"><ele>302.0</ele><time>2026-04-16T13:49:21.614Z</time></trkpt><trkpt lat="45.710617" lon="9.4420467"><ele>302.0</ele><time>2026-04-16T13:49:22.614Z</time></trkpt><trkpt lat="45.7105214" lon="9.442057"><ele>302.0</ele><time>2026-04-16T13:49:23.614Z</time></trkpt><trkpt lat="45.7104081" lon="9.4420742"><ele>302.0</ele><time>2026-04-16T13:49:24.614Z</time></trkpt><trkpt lat="45.7103092" lon="9.4420814"><ele>302.0</ele><time>2026-04-16T13:49:25.614Z</time></trkpt><trkpt lat="45.7102057" lon="9.4420872"><ele>302.0</ele><time>2026-04-16T13:49:26.615Z</time></trkpt><trkpt lat="45.7101103" lon="9.4421096"><ele>301.2</ele><time>2026-04-16T13:49:27.614Z</time></trkpt><trkpt lat="45.7100188" lon="9.4421195"><ele>300.4</ele><time>2026-04-16T13:49:28.614Z</time></trkpt><trkpt lat="45.7099395" lon="9.4421203"><ele>299.6</ele><time>2026-04-16T13:49:29.614Z</time></trkpt><trkpt lat="45.7098377" lon="9.4421364"><ele>298.8</ele><time>2026-04-16T13:49:30.615Z</time></trkpt><trkpt lat="45.7097592" lon="9.4421616"><ele>298.0</ele><time>2026-04-16T13:49:31.614Z</time></trkpt><trkpt lat="45.7096561" lon="9.4421701"><ele>297.6</ele><time>2026-04-16T13:49:32.615Z</time></trkpt><trkpt lat="45.709575" lon="9.4421749"><ele>297.20000000000005</ele><time>2026-04-16T13:49:33.614Z</time></trkpt><trkpt lat="45.7095063" lon="9.4422032"><ele>296.8</ele><time>2026-04-16T13:49:34.615Z</time></trkpt><trkpt lat="45.7094123" lon="9.4422462"><ele>296.40000000000003</ele><time>2026-04-16T13:49:35.615Z</time></trkpt><trkpt lat="45.7093352" lon="9.4422881"><ele>296.0</ele><time>2026-04-16T13:49:36.615Z</time></trkpt><trkpt lat="45.7092203" lon="9.4423593"><ele>295.2</ele><time>2026-04-16T13:49:37.615Z</time></trkpt><trkpt lat="45.7091057" lon="9.4424317"><ele>294.40000000000003</ele><time>2026-04-16T13:49:38.614Z</time></trkpt><trkpt lat="45.7090146" lon="9.4424984"><ele>293.6</ele><time>2026-04-16T13:49:39.615Z</time></trkpt><trkpt lat="45.708921" lon="9.4425393"><ele>292.8</ele><time>2026-04-16T13:49:40.614Z</time></trkpt><trkpt lat="45.7088481" lon="9.4425982"><ele>292.0</ele><time>2026-04-16T13:49:41.614Z</time></trkpt><trkpt lat="45.708754" lon="9.442685"><ele>292.0</ele><time>2026-04-16T13:49:42.614Z</time></trkpt><trkpt lat="45.7086763" lon="9.4427604"><ele>292.0</ele><time>2026-04-16T13:49:43.615Z</time></trkpt><trkpt lat="45.7085877" lon="9.4428398"><ele>292.0</ele><time>2026-04-16T13:49:44.615Z</time></trkpt><trkpt lat="45.7085099" lon="9.4429413"><ele>292.0</ele><time>2026-04-16T13:49:45.614Z</time></trkpt><trkpt lat="45.7084537" lon="9.4430604"><ele>292.0</ele><time>2026-04-16T13:49:46.614Z</time></trkpt><trkpt lat="45.7084094" lon="9.4431533"><ele>289.2</ele><time>2026-04-16T13:49:47.615Z</time></trkpt><trkpt lat="45.7083308" lon="9.4432271"><ele>286.4</ele><time>2026-04-16T13:49:48.614Z</time></trkpt><trkpt lat="45.7082653" lon="9.4433058"><ele>283.6</ele><time>2026-04-16T13:49:49.614Z</time></trkpt><trkpt lat="45.708207" lon="9.4434197"><ele>280.8</ele><time>2026-04-16T13:49:50.614Z</time></trkpt><trkpt lat="45.7081191" lon="9.4435045"><ele>278.0</ele><time>2026-04-16T13:49:51.615Z</time></trkpt><trkpt lat="45.7080119" lon="9.4435457"><ele>278.0</ele><time>2026-04-16T13:49:52.615Z</time></trkpt><trkpt lat="45.7079185" lon="9.4435597"><ele>278.0</ele><time>2026-04-16T13:49:53.614Z</time></trkpt><trkpt lat="45.70781" lon="9.4435742"><ele>278.0</ele><time>2026-04-16T13:49:54.614Z</time></trkpt><trkpt lat="45.7077084" lon="9.4435632"><ele>278.0</ele><time>2026-04-16T13:49:55.614Z</time></trkpt><trkpt lat="45.707602" lon="9.4435555"><ele>278.0</ele><time>2026-04-16T13:49:56.614Z</time></trkpt><trkpt lat="45.7074918" lon="9.4435386"><ele>276.4</ele><time>2026-04-16T13:49:57.614Z</time></trkpt><trkpt lat="45.7073883" lon="9.4435174"><ele>274.8</ele><time>2026-04-16T13:49:58.615Z</time></trkpt><trkpt lat="45.7072845" lon="9.4435361"><ele>273.2</ele><time>2026-04-16T13:49:59.614Z</time></trkpt><trkpt lat="45.7071737" lon="9.4435532"><ele>271.6</ele><time>2026-04-16T13:50:00.614Z</time></trkpt><trkpt lat="45.707067" lon="9.4435685"><ele>270.0</ele><time>2026-04-16T13:50:01.615Z</time></trkpt><trkpt lat="45.7069614" lon="9.443596"><ele>270.0</ele><time>2026-04-16T13:50:02.614Z</time></trkpt><trkpt lat="45.7068497" lon="9.4436191"><ele>270.0</ele><time>2026-04-16T13:50:03.615Z</time></trkpt><trkpt lat="45.7067592" lon="9.4436355"><ele>270.0</ele><time>2026-04-16T13:50:04.615Z</time></trkpt><trkpt lat="45.706667" lon="9.4436497"><ele>270.0</ele><time>2026-04-16T13:50:05.614Z</time></trkpt><trkpt lat="45.7065684" lon="9.4436802"><ele>270.0</ele><time>2026-04-16T13:50:06.614Z</time></trkpt><trkpt lat="45.7064363" lon="9.4436607"><ele>270.0</ele><time>2026-04-16T13:50:08.614Z</time></trkpt><trkpt lat="45.7063319" lon="9.4436598"><ele>270.0</ele><time>2026-04-16T13:50:10.614Z</time></trkpt><trkpt lat="45.7062641" lon="9.4436691"><ele>270.0</ele><time>2026-04-16T13:50:11.614Z</time></trkpt><trkpt lat="45.7061495" lon="9.4437316"><ele>270.0</ele><time>2026-04-16T13:50:13.614Z</time></trkpt><trkpt lat="45.7060829" lon="9.4437504"><ele>270.0</ele><time>2026-04-16T13:50:14.614Z</time></trkpt><trkpt lat="45.7060213" lon="9.4437745"><ele>270.0</ele><time>2026-04-16T13:50:15.615Z</time></trkpt><trkpt lat="45.7059738" lon="9.4438427"><ele>267.75</ele><time>2026-04-16T13:50:16.615Z</time></trkpt><trkpt lat="45.7058694" lon="9.4439889"><ele>265.5</ele><time>2026-04-16T13:50:18.614Z</time></trkpt><trkpt lat="45.7057968" lon="9.4441601"><ele>263.25</ele><time>2026-04-16T13:50:20.614Z</time></trkpt><trkpt lat="45.7057602" lon="9.4443099"><ele>261.0</ele><time>2026-04-16T13:50:22.614Z</time></trkpt><trkpt lat="45.7057666" lon="9.4444798"><ele>260.6</ele><time>2026-04-16T13:50:24.614Z</time></trkpt><trkpt lat="45.7057845" lon="9.4446341"><ele>260.20000000000005</ele><time>2026-04-16T13:50:26.615Z</time></trkpt><trkpt lat="45.7057837" lon="9.4447899"><ele>259.79999999999995</ele><time>2026-04-16T13:50:28.614Z</time></trkpt><trkpt lat="45.7057906" lon="9.4449455"><ele>259.4</ele><time>2026-04-16T13:50:30.614Z</time></trkpt><trkpt lat="45.7058023" lon="9.4450841"><ele>259.0</ele><time>2026-04-16T13:50:32.615Z</time></trkpt><trkpt lat="45.7058066" lon="9.445198"><ele>259.0</ele><time>2026-04-16T13:50:34.614Z</time></trkpt><trkpt lat="45.7058159" lon="9.4453238"><ele>259.0</ele><time>2026-04-16T13:50:36.614Z</time></trkpt><trkpt lat="45.7058202" lon="9.4455081"><ele>259.0</ele><time>2026-04-16T13:50:38.615Z</time></trkpt><trkpt lat="45.7058814" lon="9.4455995"><ele>259.0</ele><time>2026-04-16T13:50:39.614Z</time></trkpt><trkpt lat="45.7059176" lon="9.4457077"><ele>259.0</ele><time>2026-04-16T13:50:41.614Z</time></trkpt><trkpt lat="45.7058877" lon="9.4458231"><ele>257.8</ele><time>2026-04-16T13:50:46.614Z</time></trkpt><trkpt lat="45.7058158" lon="9.4458515"><ele>256.59999999999997</ele><time>2026-04-16T13:50:48.614Z</time></trkpt><trkpt lat="45.7057257" lon="9.4458532"><ele>255.4</ele><time>2026-04-16T13:50:50.615Z</time></trkpt><trkpt lat="45.705574" lon="9.4458607"><ele>254.2</ele><time>2026-04-16T13:50:52.614Z</time></trkpt><trkpt lat="45.7054865" lon="9.4458225"><ele>253.0</ele><time>2026-04-16T13:50:54.615Z</time></trkpt><trkpt lat="45.7053871" lon="9.4457958"><ele>253.0</ele><time>2026-04-16T13:50:56.614Z</time></trkpt><trkpt lat="45.7052848" lon="9.4457934"><ele>253.0</ele><time>2026-04-16T13:50:58.615Z</time></trkpt><trkpt lat="45.7052079" lon="9.4457189"><ele>253.0</ele><time>2026-04-16T13:51:00.615Z</time></trkpt><trkpt lat="45.7051094" lon="9.4457062"><ele>253.0</ele><time>2026-04-16T13:51:02.614Z</time></trkpt><trkpt lat="45.7050092" lon="9.4456497"><ele>253.0</ele><time>2026-04-16T13:51:04.615Z</time></trkpt><trkpt lat="45.7049314" lon="9.4455736"><ele>252.99999999999997</ele><time>2026-04-16T13:51:06.615Z</time></trkpt><trkpt lat="45.704859" lon="9.445465"><ele>253.0</ele><time>2026-04-16T13:51:08.614Z</time></trkpt><trkpt lat="45.7047948" lon="9.4453761"><ele>253.0</ele><time>2026-04-16T13:51:10.615Z</time></trkpt><trkpt lat="45.7047326" lon="9.4452782"><ele>253.0</ele><time>2026-04-16T13:51:12.615Z</time></trkpt><trkpt lat="45.7046846" lon="9.4452134"><ele>252.99999999999997</ele><time>2026-04-16T13:51:13.614Z</time></trkpt><trkpt lat="45.7046401" lon="9.4451318"><ele>253.0</ele><time>2026-04-16T13:51:14.614Z</time></trkpt><trkpt lat="45.7045622" lon="9.4450305"><ele>253.0</ele><time>2026-04-16T13:51:16.614Z</time></trkpt><trkpt lat="45.7044956" lon="9.444983"><ele>253.0</ele><time>2026-04-16T13:51:17.614Z</time></trkpt><trkpt lat="45.7044597" lon="9.4448975"><ele>253.0</ele><time>2026-04-16T13:51:18.615Z</time></trkpt><trkpt lat="45.7043593" lon="9.444833"><ele>253.0</ele><time>2026-04-16T13:51:20.614Z</time></trkpt><trkpt lat="45.7042523" lon="9.4447933"><ele>253.0</ele><time>2026-04-16T13:51:22.615Z</time></trkpt><trkpt lat="45.7041434" lon="9.4447677"><ele>253.0</ele><time>2026-04-16T13:51:24.614Z</time></trkpt><trkpt lat="45.7040328" lon="9.4447177"><ele>253.0</ele><time>2026-04-16T13:51:26.614Z</time></trkpt><trkpt lat="45.7039434" lon="9.4446812"><ele>253.0</ele><time>2026-04-16T13:51:28.615Z</time></trkpt><trkpt lat="45.7038633" lon="9.4446331"><ele>253.0</ele><time>2026-04-16T13:51:30.614Z</time></trkpt><trkpt lat="45.7037982" lon="9.4446211"><ele>253.0</ele><time>2026-04-16T13:51:31.615Z</time></trkpt><trkpt lat="45.7036907" lon="9.4445561"><ele>253.49999999999997</ele><time>2026-04-16T13:51:33.615Z</time></trkpt><trkpt lat="45.7036597" lon="9.4444619"><ele>254.0</ele><time>2026-04-16T13:51:35.614Z</time></trkpt><trkpt lat="45.7036419" lon="9.4443514"><ele>254.5</ele><time>2026-04-16T13:51:37.614Z</time></trkpt><trkpt lat="45.7036311" lon="9.4442123"><ele>255.0</ele><time>2026-04-16T13:51:39.615Z</time></trkpt><trkpt lat="45.7036237" lon="9.444091"><ele>255.49999999999997</ele><time>2026-04-16T13:51:41.615Z</time></trkpt><trkpt lat="45.7036124" lon="9.4439416"><ele>256.0</ele><time>2026-04-16T13:51:44.615Z</time></trkpt><trkpt lat="45.7036188" lon="9.4438116"><ele>256.40000000000003</ele><time>2026-04-16T13:51:46.614Z</time></trkpt><trkpt lat="45.703635" lon="9.4436603"><ele>256.8</ele><time>2026-04-16T13:51:48.615Z</time></trkpt><trkpt lat="45.7036371" lon="9.443518"><ele>257.20000000000005</ele><time>2026-04-16T13:51:50.615Z</time></trkpt><trkpt lat="45.7036472" lon="9.4433804"><ele>257.6</ele><time>2026-04-16T13:51:52.614Z</time></trkpt><trkpt lat="45.7036704" lon="9.443251"><ele>258.0</ele><time>2026-04-16T13:51:54.615Z</time></trkpt><trkpt lat="45.7036955" lon="9.4431214"><ele>258.0</ele><time>2026-04-16T13:51:56.614Z</time></trkpt><trkpt lat="45.703728" lon="9.4430118"><ele>258.0</ele><time>2026-04-16T13:51:58.614Z</time></trkpt><trkpt lat="45.7037722" lon="9.4428826"><ele>258.0</ele><time>2026-04-16T13:52:00.614Z</time></trkpt><trkpt lat="45.703789" lon="9.4427456"><ele>258.0</ele><time>2026-04-16T13:52:02.615Z</time></trkpt><trkpt lat="45.7038189" lon="9.4426474"><ele>258.0</ele><time>2026-04-16T13:52:04.614Z</time></trkpt><trkpt lat="45.7038459" lon="9.4425576"><ele>258.0</ele><time>2026-04-16T13:52:06.614Z</time></trkpt><trkpt lat="45.7038636" lon="9.4424619"><ele>258.71428571428567</ele><time>2026-04-16T13:52:08.614Z</time></trkpt><trkpt lat="45.703881" lon="9.4423741"><ele>259.42857142857144</ele><time>2026-04-16T13:52:10.615Z</time></trkpt><trkpt lat="45.7039062" lon="9.4422817"><ele>260.1428571428571</ele><time>2026-04-16T13:52:12.614Z</time></trkpt><trkpt lat="45.7039377" lon="9.4422003"><ele>260.85714285714283</ele><time>2026-04-16T13:52:14.614Z</time></trkpt><trkpt lat="45.7039648" lon="9.4421129"><ele>261.57142857142856</ele><time>2026-04-16T13:52:16.614Z</time></trkpt><trkpt lat="45.7040034" lon="9.4420281"><ele>262.2857142857143</ele><time>2026-04-16T13:52:18.614Z</time></trkpt><trkpt lat="45.704037" lon="9.4419482"><ele>263.0</ele><time>2026-04-16T13:52:20.614Z</time></trkpt><trkpt lat="45.7040842" lon="9.4418357"><ele>264.83333333333337</ele><time>2026-04-16T13:52:23.615Z</time></trkpt><trkpt lat="45.704121" lon="9.4417539"><ele>266.6666666666667</ele><time>2026-04-16T13:52:25.614Z</time></trkpt><trkpt lat="45.7041608" lon="9.4416815"><ele>268.5</ele><time>2026-04-16T13:52:27.614Z</time></trkpt><trkpt lat="45.7042171" lon="9.441589"><ele>270.3333333333333</ele><time>2026-04-16T13:52:30.614Z</time></trkpt><trkpt lat="45.7042695" lon="9.4415036"><ele>272.16666666666663</ele><time>2026-04-16T13:52:33.614Z</time></trkpt><trkpt lat="45.7043128" lon="9.4414025"><ele>274.0</ele><time>2026-04-16T13:52:36.615Z</time></trkpt><trkpt lat="45.7043477" lon="9.4412876"><ele>275.0</ele><time>2026-04-16T13:52:39.614Z</time></trkpt><trkpt lat="45.7043729" lon="9.4411654"><ele>276.0</ele><time>2026-04-16T13:52:42.614Z</time></trkpt><trkpt lat="45.7043963" lon="9.4410757"><ele>277.0</ele><time>2026-04-16T13:52:44.615Z</time></trkpt><trkpt lat="45.7044243" lon="9.4409882"><ele>278.0</ele><time>2026-04-16T13:52:46.615Z</time></trkpt><trkpt lat="45.7044569" lon="9.4408939"><ele>279.0</ele><time>2026-04-16T13:52:48.615Z</time></trkpt><trkpt lat="45.7044766" lon="9.4407842"><ele>280.0</ele><time>2026-04-16T13:52:50.615Z</time></trkpt><trkpt lat="45.7044976" lon="9.4406568"><ele>281.0</ele><time>2026-04-16T13:52:53.615Z</time></trkpt><trkpt lat="45.7045343" lon="9.4404915"><ele>282.0</ele><time>2026-04-16T13:52:56.615Z</time></trkpt><trkpt lat="45.7045608" lon="9.4403586"><ele>283.0</ele><time>2026-04-16T13:53:00.614Z</time></trkpt><trkpt lat="45.7045996" lon="9.4402723"><ele>284.0</ele><time>2026-04-16T13:53:02.614Z</time></trkpt><trkpt lat="45.7046132" lon="9.4401804"><ele>285.0</ele><time>2026-04-16T13:53:04.614Z</time></trkpt><trkpt lat="45.7046385" lon="9.4400911"><ele>286.0</ele><time>2026-04-16T13:53:06.614Z</time></trkpt><trkpt lat="45.7046783" lon="9.4400159"><ele>286.3333333333333</ele><time>2026-04-16T13:53:08.614Z</time></trkpt><trkpt lat="45.7047217" lon="9.4399428"><ele>286.66666666666663</ele><time>2026-04-16T13:53:10.614Z</time></trkpt><trkpt lat="45.7047682" lon="9.4398712"><ele>287.0</ele><time>2026-04-16T13:53:12.614Z</time></trkpt><trkpt lat="45.7048293" lon="9.4397853"><ele>287.3333333333333</ele><time>2026-04-16T13:53:14.614Z</time></trkpt><trkpt lat="45.7048777" lon="9.4396958"><ele>287.6666666666667</ele><time>2026-04-16T13:53:16.614Z</time></trkpt><trkpt lat="45.7049212" lon="9.4395962"><ele>288.0</ele><time>2026-04-16T13:53:18.615Z</time></trkpt><trkpt lat="45.7049564" lon="9.4395041"><ele>288.0</ele><time>2026-04-16T13:53:20.614Z</time></trkpt><trkpt lat="45.7049881" lon="9.4393975"><ele>288.0</ele><time>2026-04-16T13:53:22.615Z</time></trkpt><trkpt lat="45.7050163" lon="9.4393123"><ele>288.0</ele><time>2026-04-16T13:53:24.615Z</time></trkpt><trkpt lat="45.7050478" lon="9.43922"><ele>288.0</ele><time>2026-04-16T13:53:26.614Z</time></trkpt><trkpt lat="45.7050684" lon="9.43911"><ele>288.0</ele><time>2026-04-16T13:53:28.615Z</time></trkpt><trkpt lat="45.70511" lon="9.4389791"><ele>288.0</ele><time>2026-04-16T13:53:31.615Z</time></trkpt><trkpt lat="45.7051233" lon="9.4388866"><ele>288.0</ele><time>2026-04-16T13:53:33.614Z</time></trkpt><trkpt lat="45.7051276" lon="9.4387858"><ele>288.0</ele><time>2026-04-16T13:53:35.614Z</time></trkpt><trkpt lat="45.7051293" lon="9.4386532"><ele>288.0</ele><time>2026-04-16T13:53:37.614Z</time></trkpt><trkpt lat="45.7051231" lon="9.4385344"><ele>288.0</ele><time>2026-04-16T13:53:39.614Z</time></trkpt><trkpt lat="45.7051202" lon="9.4384174"><ele>288.0</ele><time>2026-04-16T13:53:41.614Z</time></trkpt><trkpt lat="45.705122" lon="9.4382962"><ele>288.0</ele><time>2026-04-16T13:53:43.614Z</time></trkpt><trkpt lat="45.705126" lon="9.4381757"><ele>288.00000000000006</ele><time>2026-04-16T13:53:45.614Z</time></trkpt><trkpt lat="45.7051004" lon="9.4380707"><ele>288.0</ele><time>2026-04-16T13:53:48.614Z</time></trkpt><trkpt lat="45.7051044" lon="9.4379779"><ele>288.0</ele><time>2026-04-16T13:53:52.614Z</time></trkpt><trkpt lat="45.705108" lon="9.4378823"><ele>288.0</ele><time>2026-04-16T13:53:55.615Z</time></trkpt><trkpt lat="45.7050788" lon="9.4377858"><ele>288.0</ele><time>2026-04-16T13:53:58.614Z</time></trkpt><trkpt lat="45.7050547" lon="9.4376806"><ele>288.00000000000006</ele><time>2026-04-16T13:54:01.614Z</time></trkpt><trkpt lat="45.70505" lon="9.4375898"><ele>288.0</ele><time>2026-04-16T13:54:03.614Z</time></trkpt><trkpt lat="45.7050601" lon="9.4374733"><ele>288.3333333333333</ele><time>2026-04-16T13:54:06.614Z</time></trkpt><trkpt lat="45.7050431" lon="9.4373733"><ele>288.6666666666667</ele><time>2026-04-16T13:54:09.615Z</time></trkpt><trkpt lat="45.7050202" lon="9.4372527"><ele>289.0</ele><time>2026-04-16T13:54:12.615Z</time></trkpt><trkpt lat="45.7049969" lon="9.4371356"><ele>289.33333333333337</ele><time>2026-04-16T13:54:15.615Z</time></trkpt><trkpt lat="45.7050156" lon="9.4370106"><ele>289.6666666666667</ele><time>2026-04-16T13:54:17.615Z</time></trkpt><trkpt lat="45.7050309" lon="9.4368874"><ele>290.0</ele><time>2026-04-16T13:54:19.614Z</time></trkpt><trkpt lat="45.7050108" lon="9.4367688"><ele>290.33333333333337</ele><time>2026-04-16T13:54:21.615Z</time></trkpt><trkpt lat="45.7049832" lon="9.43665"><ele>290.6666666666667</ele><time>2026-04-16T13:54:23.615Z</time></trkpt><trkpt lat="45.7049637" lon="9.4365372"><ele>291.0</ele><time>2026-04-16T13:54:25.614Z</time></trkpt><trkpt lat="45.7049259" lon="9.4364354"><ele>291.3333333333333</ele><time>2026-04-16T13:54:27.614Z</time></trkpt><trkpt lat="45.704895" lon="9.436311"><ele>291.66666666666663</ele><time>2026-04-16T13:54:30.614Z</time></trkpt><trkpt lat="45.7048727" lon="9.4362139"><ele>292.0</ele><time>2026-04-16T13:54:32.615Z</time></trkpt><trkpt lat="45.7048719" lon="9.4361195"><ele>292.2857142857143</ele><time>2026-04-16T13:54:34.614Z</time></trkpt><trkpt lat="45.7048922" lon="9.436017"><ele>292.57142857142856</ele><time>2026-04-16T13:54:36.614Z</time></trkpt><trkpt lat="45.7049299" lon="9.4359132"><ele>292.8571428571429</ele><time>2026-04-16T13:54:38.614Z</time></trkpt><trkpt lat="45.7049855" lon="9.4358374"><ele>293.1428571428571</ele><time>2026-04-16T13:54:41.614Z</time></trkpt><trkpt lat="45.7050596" lon="9.4358274"><ele>293.42857142857144</ele><time>2026-04-16T13:54:46.614Z</time></trkpt><trkpt lat="45.7051252" lon="9.4358038"><ele>293.7142857142857</ele><time>2026-04-16T13:54:49.614Z</time></trkpt><trkpt lat="45.7051808" lon="9.4357464"><ele>294.0</ele><time>2026-04-16T13:54:52.614Z</time></trkpt><trkpt lat="45.7052511" lon="9.435679"><ele>294.8333333333333</ele><time>2026-04-16T13:54:56.615Z</time></trkpt><trkpt lat="45.7053053" lon="9.4356265"><ele>295.6666666666667</ele><time>2026-04-16T13:54:59.614Z</time></trkpt><trkpt lat="45.7053602" lon="9.4355647"><ele>296.5</ele><time>2026-04-16T13:55:02.614Z</time></trkpt><trkpt lat="45.7054397" lon="9.4355027"><ele>297.33333333333337</ele><time>2026-04-16T13:55:05.615Z</time></trkpt><trkpt lat="45.7055012" lon="9.4354307"><ele>298.1666666666667</ele><time>2026-04-16T13:55:08.614Z</time></trkpt><trkpt lat="45.7055479" lon="9.4353429"><ele>299.0</ele><time>2026-04-16T13:55:12.614Z</time></trkpt><trkpt lat="45.7055902" lon="9.4352597"><ele>299.0</ele><time>2026-04-16T13:55:15.614Z</time></trkpt><trkpt lat="45.7056566" lon="9.4352223"><ele>299.0</ele><time>2026-04-16T13:55:18.614Z</time></trkpt><trkpt lat="45.7057202" lon="9.4351758"><ele>299.0</ele><time>2026-04-16T13:55:21.614Z</time></trkpt><trkpt lat="45.7057918" lon="9.4351699"><ele>299.0</ele><time>2026-04-16T13:55:25.615Z</time></trkpt><trkpt lat="45.7058603" lon="9.4352279"><ele>299.0</ele><time>2026-04-16T13:55:28.614Z</time></trkpt><trkpt lat="45.7059203" lon="9.4352899"><ele>299.0</ele><time>2026-04-16T13:55:32.614Z</time></trkpt><trkpt lat="45.7059878" lon="9.4353416"><ele>299.0</ele><time>2026-04-16T13:55:35.614Z</time></trkpt><trkpt lat="45.7060693" lon="9.4353897"><ele>301.33333333333337</ele><time>2026-04-16T13:55:38.614Z</time></trkpt><trkpt lat="45.7061345" lon="9.4354236"><ele>303.6666666666667</ele><time>2026-04-16T13:55:41.614Z</time></trkpt><trkpt lat="45.7061871" lon="9.435498"><ele>306.0</ele><time>2026-04-16T13:55:46.614Z</time></trkpt><trkpt lat="45.7061783" lon="9.435594"><ele>308.3333333333333</ele><time>2026-04-16T13:55:49.614Z</time></trkpt><trkpt lat="45.706161" lon="9.4356807"><ele>310.66666666666663</ele><time>2026-04-16T13:55:52.615Z</time></trkpt><trkpt lat="45.7061455" lon="9.4358614"><ele>313.0</ele><time>2026-04-16T13:55:56.615Z</time></trkpt><trkpt lat="45.7061093" lon="9.4359789"><ele>313.8333333333333</ele><time>2026-04-16T13:56:01.615Z</time></trkpt><trkpt lat="45.7060911" lon="9.4360919"><ele>314.66666666666663</ele><time>2026-04-16T13:56:04.615Z</time></trkpt><trkpt lat="45.7060615" lon="9.4361898"><ele>315.5</ele><time>2026-04-16T13:56:07.614Z</time></trkpt><trkpt lat="45.7060259" lon="9.4362758"><ele>316.3333333333333</ele><time>2026-04-16T13:56:10.614Z</time></trkpt><trkpt lat="45.7059893" lon="9.4363558"><ele>317.1666666666667</ele><time>2026-04-16T13:56:13.615Z</time></trkpt><trkpt lat="45.7059553" lon="9.4364641"><ele>318.0</ele><time>2026-04-16T13:56:16.614Z</time></trkpt><trkpt lat="45.7059478" lon="9.4365774"><ele>317.8333333333333</ele><time>2026-04-16T13:56:19.614Z</time></trkpt><trkpt lat="45.7059611" lon="9.4366807"><ele>317.6666666666667</ele><time>2026-04-16T13:56:23.614Z</time></trkpt><trkpt lat="45.705991" lon="9.4367899"><ele>317.5</ele><time>2026-04-16T13:56:27.615Z</time></trkpt><trkpt lat="45.7060192" lon="9.4368871"><ele>317.33333333333337</ele><time>2026-04-16T13:56:31.614Z</time></trkpt><trkpt lat="45.7060408" lon="9.4369797"><ele>317.1666666666667</ele><time>2026-04-16T13:56:34.614Z</time></trkpt><trkpt lat="45.7060841" lon="9.4370845"><ele>317.0</ele><time>2026-04-16T13:56:36.614Z</time></trkpt><trkpt lat="45.7061371" lon="9.4372046"><ele>317.0</ele><time>2026-04-16T13:56:38.614Z</time></trkpt><trkpt lat="45.7061867" lon="9.437325"><ele>317.0</ele><time>2026-04-16T13:56:40.614Z</time></trkpt><trkpt lat="45.706218" lon="9.4374506"><ele>317.0</ele><time>2026-04-16T13:56:42.614Z</time></trkpt><trkpt lat="45.7062448" lon="9.4375747"><ele>317.0</ele><time>2026-04-16T13:56:44.615Z</time></trkpt><trkpt lat="45.7062534" lon="9.4377074"><ele>317.0</ele><time>2026-04-16T13:56:46.614Z</time></trkpt><trkpt lat="45.70626" lon="9.4378292"><ele>315.0</ele><time>2026-04-16T13:56:48.614Z</time></trkpt><trkpt lat="45.7062599" lon="9.4379797"><ele>313.0</ele><time>2026-04-16T13:56:50.614Z</time></trkpt><trkpt lat="45.706284" lon="9.4381286"><ele>311.0</ele><time>2026-04-16T13:56:52.614Z</time></trkpt><trkpt lat="45.7063041" lon="9.4382298"><ele>309.0</ele><time>2026-04-16T13:56:53.614Z</time></trkpt><trkpt lat="45.7063674" lon="9.4384548"><ele>309.0</ele><time>2026-04-16T13:56:55.614Z</time></trkpt><trkpt lat="45.7063998" lon="9.4385375"><ele>309.0</ele><time>2026-04-16T13:56:56.614Z</time></trkpt><trkpt lat="45.7064317" lon="9.4386217"><ele>309.0</ele><time>2026-04-16T13:56:57.614Z</time></trkpt><trkpt lat="45.7064808" lon="9.4387882"><ele>309.0</ele><time>2026-04-16T13:56:59.614Z</time></trkpt><trkpt lat="45.7067632" lon="9.4395612"><ele>307.0</ele><time>2026-04-16T13:57:01.614Z</time></trkpt><trkpt lat="45.7067269" lon="9.4397127"><ele>305.0</ele><time>2026-04-16T13:57:03.615Z</time></trkpt><trkpt lat="45.7066943" lon="9.4398104"><ele>303.0</ele><time>2026-04-16T13:57:04.614Z</time></trkpt><trkpt lat="45.7067163" lon="9.4399216"><ele>301.0</ele><time>2026-04-16T13:57:05.615Z</time></trkpt><trkpt lat="45.7067374" lon="9.4400663"><ele>299.0</ele><time>2026-04-16T13:57:07.614Z</time></trkpt><trkpt lat="45.7067654" lon="9.4401588"><ele>297.0</ele><time>2026-04-16T13:57:08.614Z</time></trkpt><trkpt lat="45.7067772" lon="9.4402707"><ele>297.0</ele><time>2026-04-16T13:57:09.614Z</time></trkpt><trkpt lat="45.7068046" lon="9.4403689"><ele>297.0</ele><time>2026-04-16T13:57:10.614Z</time></trkpt><trkpt lat="45.7068343" lon="9.4404797"><ele>297.0</ele><time>2026-04-16T13:57:11.614Z</time></trkpt><trkpt lat="45.7068639" lon="9.4405823"><ele>297.0</ele><time>2026-04-16T13:57:12.614Z</time></trkpt><trkpt lat="45.7068994" lon="9.4406913"><ele>297.0</ele><time>2026-04-16T13:57:13.614Z</time></trkpt><trkpt lat="45.7069187" lon="9.4407787"><ele>297.0</ele><time>2026-04-16T13:57:14.615Z</time></trkpt><trkpt lat="45.7069305" lon="9.4409362"><ele>296.6</ele><time>2026-04-16T13:57:16.614Z</time></trkpt><trkpt lat="45.7069245" lon="9.4411244"><ele>296.2</ele><time>2026-04-16T13:57:18.615Z</time></trkpt><trkpt lat="45.7069047" lon="9.4412146"><ele>295.8</ele><time>2026-04-16T13:57:19.614Z</time></trkpt><trkpt lat="45.7068077" lon="9.4413479"><ele>295.4</ele><time>2026-04-16T13:57:21.614Z</time></trkpt><trkpt lat="45.7067264" lon="9.4413939"><ele>295.0</ele><time>2026-04-16T13:57:22.614Z</time></trkpt><trkpt lat="45.706659" lon="9.4414162"><ele>292.8333333333333</ele><time>2026-04-16T13:57:23.614Z</time></trkpt><trkpt lat="45.7065851" lon="9.4414309"><ele>290.66666666666663</ele><time>2026-04-16T13:57:24.614Z</time></trkpt><trkpt lat="45.7065224" lon="9.4414519"><ele>288.5</ele><time>2026-04-16T13:57:25.615Z</time></trkpt><trkpt lat="45.7064493" lon="9.4414793"><ele>286.3333333333333</ele><time>2026-04-16T13:57:26.614Z</time></trkpt><trkpt lat="45.7063714" lon="9.4415018"><ele>284.1666666666667</ele><time>2026-04-16T13:57:27.614Z</time></trkpt><trkpt lat="45.7062438" lon="9.4415595"><ele>282.0</ele><time>2026-04-16T13:57:29.615Z</time></trkpt><trkpt lat="45.7061697" lon="9.4416069"><ele>282.4</ele><time>2026-04-16T13:57:30.614Z</time></trkpt><trkpt lat="45.7060649" lon="9.4416897"><ele>282.79999999999995</ele><time>2026-04-16T13:57:32.614Z</time></trkpt><trkpt lat="45.7060154" lon="9.4417494"><ele>283.2</ele><time>2026-04-16T13:57:33.615Z</time></trkpt><trkpt lat="45.7059536" lon="9.4418966"><ele>283.59999999999997</ele><time>2026-04-16T13:57:35.614Z</time></trkpt><trkpt lat="45.7059629" lon="9.4420736"><ele>284.0</ele><time>2026-04-16T13:57:37.615Z</time></trkpt><trkpt lat="45.7059699" lon="9.4421653"><ele>283.1666666666667</ele><time>2026-04-16T13:57:38.615Z</time></trkpt><trkpt lat="45.7059301" lon="9.4423219"><ele>282.33333333333337</ele><time>2026-04-16T13:57:40.614Z</time></trkpt><trkpt lat="45.7059075" lon="9.4424072"><ele>281.5</ele><time>2026-04-16T13:57:41.614Z</time></trkpt><trkpt lat="45.705923" lon="9.4425015"><ele>280.6666666666667</ele><time>2026-04-16T13:57:42.614Z</time></trkpt><trkpt lat="45.7059658" lon="9.4426358"><ele>279.8333333333333</ele><time>2026-04-16T13:57:44.615Z</time></trkpt><trkpt lat="45.7060027" lon="9.4427388"><ele>279.0</ele><time>2026-04-16T13:57:45.615Z</time></trkpt><trkpt lat="45.7060386" lon="9.4428535"><ele>277.6666666666667</ele><time>2026-04-16T13:57:46.614Z</time></trkpt><trkpt lat="45.7060575" lon="9.4429982"><ele>276.3333333333333</ele><time>2026-04-16T13:57:48.614Z</time></trkpt><trkpt lat="45.7060671" lon="9.4431036"><ele>275.0</ele><time>2026-04-16T13:57:49.614Z</time></trkpt><trkpt lat="45.706076" lon="9.4432272"><ele>273.66666666666663</ele><time>2026-04-16T13:57:51.615Z</time></trkpt><trkpt lat="45.706106" lon="9.4433192"><ele>272.3333333333333</ele><time>2026-04-16T13:57:53.615Z</time></trkpt><trkpt lat="45.7061777" lon="9.4433835"><ele>271.0</ele><time>2026-04-16T13:57:55.614Z</time></trkpt><trkpt lat="45.7063096" lon="9.4434053"><ele>270.8</ele><time>2026-04-16T13:57:57.615Z</time></trkpt><trkpt lat="45.7063713" lon="9.4434357"><ele>270.6</ele><time>2026-04-16T13:57:58.615Z</time></trkpt><trkpt lat="45.7064693" lon="9.4434858"><ele>270.4</ele><time>2026-04-16T13:58:00.614Z</time></trkpt><trkpt lat="45.7065971" lon="9.4435097"><ele>270.2</ele><time>2026-04-16T13:58:02.614Z</time></trkpt><trkpt lat="45.706687" lon="9.4435237"><ele>270.0</ele><time>2026-04-16T13:58:04.615Z</time></trkpt><trkpt lat="45.7064878" lon="9.4436085"><ele>270.0</ele><time>2026-04-16T13:58:13.614Z</time></trkpt><trkpt lat="45.7063809" lon="9.4436115"><ele>270.0</ele><time>2026-04-16T13:58:15.615Z</time></trkpt><trkpt lat="45.706296" lon="9.4435989"><ele>270.0</ele><time>2026-04-16T13:58:17.615Z</time></trkpt><trkpt lat="45.7062336" lon="9.4436246"><ele>270.0</ele><time>2026-04-16T13:58:18.614Z</time></trkpt><trkpt lat="45.7061376" lon="9.4436445"><ele>270.0</ele><time>2026-04-16T13:58:20.614Z</time></trkpt><trkpt lat="45.7060402" lon="9.4436726"><ele>270.1666666666667</ele><time>2026-04-16T13:58:22.615Z</time></trkpt><trkpt lat="45.7059812" lon="9.4437285"><ele>270.3333333333333</ele><time>2026-04-16T13:58:23.614Z</time></trkpt><trkpt lat="45.7058757" lon="9.4438268"><ele>270.5</ele><time>2026-04-16T13:58:25.614Z</time></trkpt><trkpt lat="45.7058566" lon="9.4439366"><ele>270.66666666666663</ele><time>2026-04-16T13:58:26.615Z</time></trkpt><trkpt lat="45.7058335" lon="9.444035"><ele>270.8333333333333</ele><time>2026-04-16T13:58:27.614Z</time></trkpt><trkpt lat="45.7058051" lon="9.444138"><ele>271.0</ele><time>2026-04-16T13:58:28.615Z</time></trkpt><trkpt lat="45.7057841" lon="9.4442304"><ele>269.3333333333333</ele><time>2026-04-16T13:58:29.615Z</time></trkpt><trkpt lat="45.7057778" lon="9.4443435"><ele>267.66666666666663</ele><time>2026-04-16T13:58:30.614Z</time></trkpt><trkpt lat="45.7057878" lon="9.4444549"><ele>266.0</ele><time>2026-04-16T13:58:31.614Z</time></trkpt><trkpt lat="45.7057873" lon="9.4445602"><ele>264.3333333333333</ele><time>2026-04-16T13:58:32.614Z</time></trkpt><trkpt lat="45.705797" lon="9.4446661"><ele>262.6666666666667</ele><time>2026-04-16T13:58:33.614Z</time></trkpt><trkpt lat="45.7058029" lon="9.4447774"><ele>261.0</ele><time>2026-04-16T13:58:34.615Z</time></trkpt><trkpt lat="45.7058119" lon="9.4448844"><ele>260.6666666666667</ele><time>2026-04-16T13:58:35.614Z</time></trkpt><trkpt lat="45.7058163" lon="9.4449904"><ele>260.3333333333333</ele><time>2026-04-16T13:58:36.614Z</time></trkpt><trkpt lat="45.70581" lon="9.4450925"><ele>260.0</ele><time>2026-04-16T13:58:37.614Z</time></trkpt><trkpt lat="45.7058055" lon="9.4451923"><ele>259.66666666666663</ele><time>2026-04-16T13:58:38.615Z</time></trkpt><trkpt lat="45.7058096" lon="9.445301"><ele>259.3333333333333</ele><time>2026-04-16T13:58:39.614Z</time></trkpt><trkpt lat="45.7058141" lon="9.445401"><ele>259.0</ele><time>2026-04-16T13:58:40.614Z</time></trkpt><trkpt lat="45.7057952" lon="9.4455811"><ele>257.8</ele><time>2026-04-16T13:58:42.614Z</time></trkpt><trkpt lat="45.7057967" lon="9.4457292"><ele>256.59999999999997</ele><time>2026-04-16T13:58:44.614Z</time></trkpt><trkpt lat="45.7057948" lon="9.4458614"><ele>255.4</ele><time>2026-04-16T13:58:47.614Z</time></trkpt><trkpt lat="45.7056982" lon="9.4458703"><ele>254.2</ele><time>2026-04-16T13:58:50.614Z</time></trkpt><trkpt lat="45.7055808" lon="9.4458296"><ele>253.0</ele><time>2026-04-16T13:58:52.614Z</time></trkpt><trkpt lat="45.7055082" lon="9.4458038"><ele>253.0</ele><time>2026-04-16T13:58:54.615Z</time></trkpt><trkpt lat="45.7054093" lon="9.4457773"><ele>253.0</ele><time>2026-04-16T13:58:56.615Z</time></trkpt><trkpt lat="45.7052879" lon="9.4457728"><ele>253.0</ele><time>2026-04-16T13:58:58.614Z</time></trkpt><trkpt lat="45.7052184" lon="9.4457615"><ele>253.0</ele><time>2026-04-16T13:59:00.615Z</time></trkpt><trkpt lat="45.7051528" lon="9.4456985"><ele>253.0</ele><time>2026-04-16T13:59:02.615Z</time></trkpt><trkpt lat="45.7050731" lon="9.4456761"><ele>253.0</ele><time>2026-04-16T13:59:03.614Z</time></trkpt><trkpt lat="45.7050041" lon="9.4455769"><ele>253.0</ele><time>2026-04-16T13:59:05.614Z</time></trkpt><trkpt lat="45.7049137" lon="9.445493"><ele>253.0</ele><time>2026-04-16T13:59:07.614Z</time></trkpt><trkpt lat="45.7048463" lon="9.4453683"><ele>253.0</ele><time>2026-04-16T13:59:09.614Z</time></trkpt><trkpt lat="45.7047837" lon="9.4452374"><ele>253.0</ele><time>2026-04-16T13:59:11.614Z</time></trkpt><trkpt lat="45.7047025" lon="9.4451472"><ele>253.0</ele><time>2026-04-16T13:59:13.614Z</time></trkpt><trkpt lat="45.7046562" lon="9.4450593"><ele>253.0</ele><time>2026-04-16T13:59:14.614Z</time></trkpt><trkpt lat="45.704581" lon="9.4449561"><ele>253.0</ele><time>2026-04-16T13:59:16.614Z</time></trkpt><trkpt lat="45.704483" lon="9.444859"><ele>253.0</ele><time>2026-04-16T13:59:18.615Z</time></trkpt><trkpt lat="45.7043793" lon="9.4448028"><ele>253.0</ele><time>2026-04-16T13:59:20.615Z</time></trkpt><trkpt lat="45.7042736" lon="9.4447377"><ele>253.0</ele><time>2026-04-16T13:59:22.614Z</time></trkpt><trkpt lat="45.7042064" lon="9.4447305"><ele>253.0</ele><time>2026-04-16T13:59:23.614Z</time></trkpt><trkpt lat="45.7040926" lon="9.4446805"><ele>253.0</ele><time>2026-04-16T13:59:25.614Z</time></trkpt><trkpt lat="45.7039882" lon="9.4446466"><ele>253.0</ele><time>2026-04-16T13:59:27.614Z</time></trkpt><trkpt lat="45.703925" lon="9.4446395"><ele>253.0</ele><time>2026-04-16T13:59:28.614Z</time></trkpt><trkpt lat="45.7038307" lon="9.4445996"><ele>253.49999999999997</ele><time>2026-04-16T13:59:30.614Z</time></trkpt><trkpt lat="45.7037526" lon="9.4445949"><ele>254.0</ele><time>2026-04-16T13:59:32.614Z</time></trkpt><trkpt lat="45.7036757" lon="9.444567"><ele>254.5</ele><time>2026-04-16T13:59:34.615Z</time></trkpt><trkpt lat="45.703593" lon="9.4445248"><ele>255.0</ele><time>2026-04-16T13:59:36.615Z</time></trkpt><trkpt lat="45.7035195" lon="9.4444643"><ele>255.49999999999997</ele><time>2026-04-16T13:59:38.614Z</time></trkpt><trkpt lat="45.7034529" lon="9.4444463"><ele>256.0</ele><time>2026-04-16T13:59:40.615Z</time></trkpt><trkpt lat="45.7033796" lon="9.4444099"><ele>256.16666666666663</ele><time>2026-04-16T13:59:42.614Z</time></trkpt><trkpt lat="45.7033103" lon="9.4443726"><ele>256.3333333333333</ele><time>2026-04-16T13:59:44.614Z</time></trkpt><trkpt lat="45.7032356" lon="9.4443353"><ele>256.5</ele><time>2026-04-16T13:59:46.614Z</time></trkpt><trkpt lat="45.7031716" lon="9.4442926"><ele>256.6666666666667</ele><time>2026-04-16T13:59:48.615Z</time></trkpt><trkpt lat="45.7030922" lon="9.44426"><ele>256.83333333333337</ele><time>2026-04-16T13:59:51.614Z</time></trkpt><trkpt lat="45.7030304" lon="9.4442313"><ele>257.0</ele><time>2026-04-16T13:59:53.615Z</time></trkpt><trkpt lat="45.70294" lon="9.4441979"><ele>257.0</ele><time>2026-04-16T13:59:56.615Z</time></trkpt><trkpt lat="45.7028803" lon="9.4441678"><ele>257.0</ele><time>2026-04-16T13:59:58.614Z</time></trkpt><trkpt lat="45.7028157" lon="9.4441532"><ele>257.0</ele><time>2026-04-16T14:00:00.614Z</time></trkpt><trkpt lat="45.702754" lon="9.4441289"><ele>257.0</ele><time>2026-04-16T14:00:02.614Z</time></trkpt><trkpt lat="45.7026889" lon="9.4441099"><ele>257.0</ele><time>2026-04-16T14:00:04.615Z</time></trkpt><trkpt lat="45.7026213" lon="9.4440825"><ele>257.0</ele><time>2026-04-16T14:00:07.614Z</time></trkpt><trkpt lat="45.7025416" lon="9.4440274"><ele>257.0</ele><time>2026-04-16T14:00:10.614Z</time></trkpt><trkpt lat="45.7024907" lon="9.4439534"><ele>258.1666666666667</ele><time>2026-04-16T14:00:12.614Z</time></trkpt><trkpt lat="45.7024687" lon="9.4438344"><ele>259.33333333333337</ele><time>2026-04-16T14:00:15.615Z</time></trkpt><trkpt lat="45.7024604" lon="9.4437271"><ele>260.5</ele><time>2026-04-16T14:00:18.614Z</time></trkpt><trkpt lat="45.7024377" lon="9.4436427"><ele>261.6666666666667</ele><time>2026-04-16T14:00:21.614Z</time></trkpt><trkpt lat="45.7023999" lon="9.4435467"><ele>262.8333333333333</ele><time>2026-04-16T14:00:25.614Z</time></trkpt><trkpt lat="45.7023515" lon="9.4434422"><ele>264.0</ele><time>2026-04-16T14:00:29.614Z</time></trkpt><trkpt lat="45.7023068" lon="9.4433534"><ele>265.3333333333333</ele><time>2026-04-16T14:00:33.614Z</time></trkpt><trkpt lat="45.7022447" lon="9.4432726"><ele>266.6666666666667</ele><time>2026-04-16T14:00:37.614Z</time></trkpt><trkpt lat="45.7021938" lon="9.4431933"><ele>268.0</ele><time>2026-04-16T14:00:41.615Z</time></trkpt><trkpt lat="45.7021325" lon="9.4431574"><ele>269.33333333333337</ele><time>2026-04-16T14:00:45.615Z</time></trkpt><trkpt lat="45.7020768" lon="9.443107"><ele>270.6666666666667</ele><time>2026-04-16T14:00:48.614Z</time></trkpt><trkpt lat="45.7020216" lon="9.4430256"><ele>272.0</ele><time>2026-04-16T14:00:52.615Z</time></trkpt><trkpt lat="45.7019539" lon="9.4429567"><ele>274.6666666666667</ele><time>2026-04-16T14:00:59.519Z</time></trkpt><trkpt lat="45.701901" lon="9.4429006"><ele>277.33333333333337</ele><time>2026-04-16T14:01:02.405Z</time></trkpt><trkpt lat="45.7018462" lon="9.4428483"><ele>280.0</ele><time>2026-04-16T14:01:05.268Z</time></trkpt><trkpt lat="45.7017792" lon="9.4427921"><ele>282.6666666666667</ele><time>2026-04-16T14:01:08.614Z</time></trkpt><trkpt lat="45.7017232" lon="9.4427406"><ele>285.3333333333333</ele><time>2026-04-16T14:01:11.614Z</time></trkpt><trkpt lat="45.7016644" lon="9.4426741"><ele>288.0</ele><time>2026-04-16T14:01:14.615Z</time></trkpt><trkpt lat="45.7015782" lon="9.4425939"><ele>288.00000000000006</ele><time>2026-04-16T14:01:15.614Z</time></trkpt><trkpt lat="45.7015191" lon="9.4425333"><ele>288.0</ele><time>2026-04-16T14:01:18.614Z</time></trkpt><trkpt lat="45.7014512" lon="9.4424793"><ele>288.0</ele><time>2026-04-16T14:01:21.614Z</time></trkpt><trkpt lat="45.7013925" lon="9.442406"><ele>288.0</ele><time>2026-04-16T14:01:24.614Z</time></trkpt><trkpt lat="45.7013265" lon="9.4423335"><ele>288.0</ele><time>2026-04-16T14:01:27.614Z</time></trkpt><trkpt lat="45.7012724" lon="9.4422762"><ele>288.00000000000006</ele><time>2026-04-16T14:01:30.615Z</time></trkpt><trkpt lat="45.7012277" lon="9.4422087"><ele>288.0</ele><time>2026-04-16T14:01:33.614Z</time></trkpt><trkpt lat="45.7011727" lon="9.4421488"><ele>289.3333333333333</ele><time>2026-04-16T14:01:36.615Z</time></trkpt><trkpt lat="45.7011149" lon="9.4420953"><ele>290.6666666666667</ele><time>2026-04-16T14:01:39.614Z</time></trkpt><trkpt lat="45.7010482" lon="9.4420285"><ele>292.0</ele><time>2026-04-16T14:01:42.614Z</time></trkpt><trkpt lat="45.7009807" lon="9.4419595"><ele>293.33333333333337</ele><time>2026-04-16T14:01:45.615Z</time></trkpt><trkpt lat="45.7009195" lon="9.4418826"><ele>294.6666666666667</ele><time>2026-04-16T14:01:48.614Z</time></trkpt><trkpt lat="45.7008479" lon="9.4418175"><ele>296.0</ele><time>2026-04-16T14:01:51.614Z</time></trkpt><trkpt lat="45.700778" lon="9.4417713"><ele>296.33333333333337</ele><time>2026-04-16T14:01:54.615Z</time></trkpt><trkpt lat="45.7007104" lon="9.4417142"><ele>296.6666666666667</ele><time>2026-04-16T14:01:57.615Z</time></trkpt><trkpt lat="45.7006496" lon="9.4416606"><ele>297.0</ele><time>2026-04-16T14:02:00.614Z</time></trkpt><trkpt lat="45.7005822" lon="9.4416197"><ele>297.3333333333333</ele><time>2026-04-16T14:02:03.614Z</time></trkpt><trkpt lat="45.7005104" lon="9.4415834"><ele>297.66666666666663</ele><time>2026-04-16T14:02:06.614Z</time></trkpt><trkpt lat="45.7004376" lon="9.4415612"><ele>298.0</ele><time>2026-04-16T14:02:09.614Z</time></trkpt><trkpt lat="45.7003553" lon="9.4415356"><ele>298.0</ele><time>2026-04-16T14:02:12.614Z</time></trkpt><trkpt lat="45.7002771" lon="9.4415209"><ele>298.0</ele><time>2026-04-16T14:02:15.614Z</time></trkpt><trkpt lat="45.7001962" lon="9.4414916"><ele>298.0</ele><time>2026-04-16T14:02:18.614Z</time></trkpt><trkpt lat="45.7001116" lon="9.4414546"><ele>298.0</ele><time>2026-04-16T14:02:21.614Z</time></trkpt><trkpt lat="45.7000226" lon="9.4414325"><ele>298.0</ele><time>2026-04-16T14:02:24.614Z</time></trkpt><trkpt lat="45.6999586" lon="9.4413855"><ele>298.0</ele><time>2026-04-16T14:02:26.614Z</time></trkpt><trkpt lat="45.6998969" lon="9.441289"><ele>299.5</ele><time>2026-04-16T14:02:28.614Z</time></trkpt><trkpt lat="45.6998286" lon="9.4412155"><ele>301.0</ele><time>2026-04-16T14:02:30.614Z</time></trkpt><trkpt lat="45.6997609" lon="9.441167"><ele>302.5</ele><time>2026-04-16T14:02:32.614Z</time></trkpt><trkpt lat="45.6996832" lon="9.4411107"><ele>304.0</ele><time>2026-04-16T14:02:34.614Z</time></trkpt><trkpt lat="45.6996033" lon="9.441029"><ele>305.5</ele><time>2026-04-16T14:02:36.614Z</time></trkpt><trkpt lat="45.6995355" lon="9.4409701"><ele>307.0</ele><time>2026-04-16T14:02:38.614Z</time></trkpt><trkpt lat="45.6994712" lon="9.4409402"><ele>306.8333333333333</ele><time>2026-04-16T14:02:40.614Z</time></trkpt><trkpt lat="45.6994074" lon="9.4409077"><ele>306.66666666666663</ele><time>2026-04-16T14:02:42.614Z</time></trkpt><trkpt lat="45.6993388" lon="9.4408838"><ele>306.5</ele><time>2026-04-16T14:02:44.614Z</time></trkpt><trkpt lat="45.6992749" lon="9.4408343"><ele>306.3333333333333</ele><time>2026-04-16T14:02:46.614Z</time></trkpt><trkpt lat="45.6992005" lon="9.4408121"><ele>306.1666666666667</ele><time>2026-04-16T14:02:48.614Z</time></trkpt><trkpt lat="45.6991164" lon="9.440797"><ele>306.0</ele><time>2026-04-16T14:02:50.614Z</time></trkpt><trkpt lat="45.6990364" lon="9.440761"><ele>306.0</ele><time>2026-04-16T14:02:52.614Z</time></trkpt><trkpt lat="45.698956" lon="9.4407153"><ele>306.0</ele><time>2026-04-16T14:02:54.614Z</time></trkpt><trkpt lat="45.6988672" lon="9.4406684"><ele>306.0</ele><time>2026-04-16T14:02:56.615Z</time></trkpt><trkpt lat="45.6987846" lon="9.4406229"><ele>306.0</ele><time>2026-04-16T14:02:58.614Z</time></trkpt><trkpt lat="45.6987064" lon="9.4405618"><ele>306.0</ele><time>2026-04-16T14:03:00.614Z</time></trkpt><trkpt lat="45.6986281" lon="9.440511"><ele>306.0</ele><time>2026-04-16T14:03:02.615Z</time></trkpt><trkpt lat="45.6985484" lon="9.4404923"><ele>306.6</ele><time>2026-04-16T14:03:04.614Z</time></trkpt><trkpt lat="45.6984603" lon="9.4404832"><ele>307.20000000000005</ele><time>2026-04-16T14:03:06.615Z</time></trkpt><trkpt lat="45.698389" lon="9.4405474"><ele>307.79999999999995</ele><time>2026-04-16T14:03:11.614Z</time></trkpt><trkpt lat="45.6982336" lon="9.4406165"><ele>308.4</ele><time>2026-04-16T14:03:14.614Z</time></trkpt><trkpt lat="45.6981593" lon="9.4406547"><ele>309.0</ele><time>2026-04-16T14:03:15.614Z</time></trkpt><trkpt lat="45.6980793" lon="9.4406885"><ele>307.0</ele><time>2026-04-16T14:03:16.614Z</time></trkpt><trkpt lat="45.6976463" lon="9.4406044"><ele>305.0</ele><time>2026-04-16T14:03:17.614Z</time></trkpt><trkpt lat="45.6975675" lon="9.440612"><ele>305.0</ele><time>2026-04-16T14:03:18.614Z</time></trkpt><trkpt lat="45.6974997" lon="9.4406105"><ele>305.0</ele><time>2026-04-16T14:03:19.615Z</time></trkpt><trkpt lat="45.6974344" lon="9.4406116"><ele>305.0</ele><time>2026-04-16T14:03:20.614Z</time></trkpt><trkpt lat="45.6973651" lon="9.4406309"><ele>305.0</ele><time>2026-04-16T14:03:21.614Z</time></trkpt><trkpt lat="45.6973001" lon="9.4406551"><ele>305.0</ele><time>2026-04-16T14:03:22.615Z</time></trkpt><trkpt lat="45.6971722" lon="9.4407445"><ele>305.0</ele><time>2026-04-16T14:03:24.614Z</time></trkpt><trkpt lat="45.6970996" lon="9.4407781"><ele>305.0</ele><time>2026-04-16T14:03:25.614Z</time></trkpt><trkpt lat="45.6970159" lon="9.4408046"><ele>305.0</ele><time>2026-04-16T14:03:26.614Z</time></trkpt><trkpt lat="45.6969264" lon="9.4408262"><ele>305.0</ele><time>2026-04-16T14:03:27.614Z</time></trkpt><trkpt lat="45.6968519" lon="9.4408394"><ele>305.0</ele><time>2026-04-16T14:03:28.615Z</time></trkpt><trkpt lat="45.696747" lon="9.4408439"><ele>305.0</ele><time>2026-04-16T14:03:29.614Z</time></trkpt><trkpt lat="45.6966574" lon="9.4408551"><ele>305.0</ele><time>2026-04-16T14:03:30.614Z</time></trkpt><trkpt lat="45.6965752" lon="9.4408674"><ele>303.2</ele><time>2026-04-16T14:03:31.614Z</time></trkpt><trkpt lat="45.6964738" lon="9.4408793"><ele>301.4</ele><time>2026-04-16T14:03:32.614Z</time></trkpt><trkpt lat="45.6963807" lon="9.4408992"><ele>299.6</ele><time>2026-04-16T14:03:33.614Z</time></trkpt><trkpt lat="45.6962774" lon="9.4409149"><ele>297.8</ele><time>2026-04-16T14:03:34.615Z</time></trkpt><trkpt lat="45.6961643" lon="9.440938"><ele>296.0</ele><time>2026-04-16T14:03:35.615Z</time></trkpt><trkpt lat="45.696069" lon="9.4409402"><ele>295.2</ele><time>2026-04-16T14:03:36.614Z</time></trkpt><trkpt lat="45.695971" lon="9.4409577"><ele>294.40000000000003</ele><time>2026-04-16T14:03:37.614Z</time></trkpt><trkpt lat="45.6958709" lon="9.4409635"><ele>293.6</ele><time>2026-04-16T14:03:38.615Z</time></trkpt><trkpt lat="45.6957655" lon="9.4409541"><ele>292.8</ele><time>2026-04-16T14:03:39.614Z</time></trkpt><trkpt lat="45.6956653" lon="9.4409433"><ele>292.0</ele><time>2026-04-16T14:03:40.614Z</time></trkpt><trkpt lat="45.6955621" lon="9.4409502"><ele>292.0</ele><time>2026-04-16T14:03:41.615Z</time></trkpt><trkpt lat="45.6954597" lon="9.4409137"><ele>292.0</ele><time>2026-04-16T14:03:42.614Z</time></trkpt><trkpt lat="45.6953473" lon="9.4409032"><ele>292.0</ele><time>2026-04-16T14:03:43.614Z</time></trkpt><trkpt lat="45.6952382" lon="9.4408787"><ele>292.0</ele><time>2026-04-16T14:03:44.614Z</time></trkpt><trkpt lat="45.6951194" lon="9.4408363"><ele>290.8</ele><time>2026-04-16T14:03:45.614Z</time></trkpt><trkpt lat="45.6950192" lon="9.4408327"><ele>289.6</ele><time>2026-04-16T14:03:46.615Z</time></trkpt><trkpt lat="45.6949197" lon="9.440847"><ele>288.40000000000003</ele><time>2026-04-16T14:03:47.615Z</time></trkpt><trkpt lat="45.6948102" lon="9.4408673"><ele>287.2</ele><time>2026-04-16T14:03:48.614Z</time></trkpt><trkpt lat="45.694711" lon="9.4409149"><ele>286.0</ele><time>2026-04-16T14:03:49.614Z</time></trkpt><trkpt lat="45.6946185" lon="9.440969"><ele>286.0</ele><time>2026-04-16T14:03:50.614Z</time></trkpt><trkpt lat="45.6945427" lon="9.4410188"><ele>286.0</ele><time>2026-04-16T14:03:51.614Z</time></trkpt><trkpt lat="45.6944525" lon="9.4410828"><ele>286.0</ele><time>2026-04-16T14:03:52.614Z</time></trkpt><trkpt lat="45.6943727" lon="9.441132"><ele>286.0</ele><time>2026-04-16T14:03:53.615Z</time></trkpt><trkpt lat="45.694278" lon="9.44117"><ele>286.0</ele><time>2026-04-16T14:03:54.614Z</time></trkpt><trkpt lat="45.6942003" lon="9.4412114"><ele>285.40000000000003</ele><time>2026-04-16T14:03:55.614Z</time></trkpt><trkpt lat="45.694121" lon="9.4412494"><ele>284.8</ele><time>2026-04-16T14:03:56.614Z</time></trkpt><trkpt lat="45.6940274" lon="9.4412994"><ele>284.20000000000005</ele><time>2026-04-16T14:03:57.614Z</time></trkpt><trkpt lat="45.6939432" lon="9.4413187"><ele>283.6</ele><time>2026-04-16T14:03:58.614Z</time></trkpt><trkpt lat="45.6938551" lon="9.4413501"><ele>283.0</ele><time>2026-04-16T14:03:59.614Z</time></trkpt><trkpt lat="45.6937695" lon="9.4413928"><ele>283.0</ele><time>2026-04-16T14:04:00.614Z</time></trkpt><trkpt lat="45.6936731" lon="9.44142"><ele>283.0</ele><time>2026-04-16T14:04:01.614Z</time></trkpt><trkpt lat="45.693587" lon="9.4414447"><ele>283.0</ele><time>2026-04-16T14:04:02.614Z</time></trkpt><trkpt lat="45.6935083" lon="9.4414653"><ele>283.0</ele><time>2026-04-16T14:04:03.614Z</time></trkpt><trkpt lat="45.6934355" lon="9.4414875"><ele>283.0</ele><time>2026-04-16T14:04:04.615Z</time></trkpt><trkpt lat="45.6933395" lon="9.4415132"><ele>283.0</ele><time>2026-04-16T14:04:05.614Z</time></trkpt><trkpt lat="45.6932504" lon="9.4415477"><ele>282.6</ele><time>2026-04-16T14:04:06.614Z</time></trkpt><trkpt lat="45.6931508" lon="9.4415874"><ele>282.20000000000005</ele><time>2026-04-16T14:04:07.614Z</time></trkpt><trkpt lat="45.6930767" lon="9.4416439"><ele>281.8</ele><time>2026-04-16T14:04:08.614Z</time></trkpt><trkpt lat="45.6929892" lon="9.4416708"><ele>281.40000000000003</ele><time>2026-04-16T14:04:09.615Z</time></trkpt><trkpt lat="45.6929025" lon="9.4417024"><ele>281.0</ele><time>2026-04-16T14:04:10.614Z</time></trkpt><trkpt lat="45.692813" lon="9.4417326"><ele>280.0</ele><time>2026-04-16T14:04:11.614Z</time></trkpt><trkpt lat="45.6927411" lon="9.4417591"><ele>279.0</ele><time>2026-04-16T14:04:12.614Z</time></trkpt><trkpt lat="45.6926701" lon="9.4417891"><ele>278.0</ele><time>2026-04-16T14:04:13.614Z</time></trkpt><trkpt lat="45.6925711" lon="9.4418034"><ele>277.0</ele><time>2026-04-16T14:04:14.614Z</time></trkpt><trkpt lat="45.6924883" lon="9.4418103"><ele>276.0</ele><time>2026-04-16T14:04:15.615Z</time></trkpt><trkpt lat="45.6924176" lon="9.4418181"><ele>275.0</ele><time>2026-04-16T14:04:16.614Z</time></trkpt><trkpt lat="45.6923459" lon="9.4418174"><ele>275.0</ele><time>2026-04-16T14:04:17.614Z</time></trkpt><trkpt lat="45.6921985" lon="9.4418224"><ele>275.0</ele><time>2026-04-16T14:04:19.615Z</time></trkpt><trkpt lat="45.6921336" lon="9.4418154"><ele>275.0</ele><time>2026-04-16T14:04:20.614Z</time></trkpt><trkpt lat="45.6920171" lon="9.4418125"><ele>275.0</ele><time>2026-04-16T14:04:21.614Z</time></trkpt><trkpt lat="45.6919299" lon="9.4418053"><ele>275.0</ele><time>2026-04-16T14:04:22.614Z</time></trkpt><trkpt lat="45.6918573" lon="9.4417956"><ele>274.6666666666667</ele><time>2026-04-16T14:04:23.614Z</time></trkpt><trkpt lat="45.6917781" lon="9.4417664"><ele>274.33333333333337</ele><time>2026-04-16T14:04:24.614Z</time></trkpt><trkpt lat="45.6916928" lon="9.4417671"><ele>274.0</ele><time>2026-04-16T14:04:25.614Z</time></trkpt><trkpt lat="45.6916211" lon="9.4417505"><ele>273.6666666666667</ele><time>2026-04-16T14:04:26.614Z</time></trkpt><trkpt lat="45.6915535" lon="9.4417637"><ele>273.3333333333333</ele><time>2026-04-16T14:04:27.614Z</time></trkpt><trkpt lat="45.6914627" lon="9.4417846"><ele>273.0</ele><time>2026-04-16T14:04:29.614Z</time></trkpt><trkpt lat="45.6914523" lon="9.4418898"><ele>273.0</ele><time>2026-04-16T14:04:30.614Z</time></trkpt><trkpt lat="45.6914252" lon="9.4419734"><ele>273.0</ele><time>2026-04-16T14:04:31.614Z</time></trkpt><trkpt lat="45.6913368" lon="9.4420373"><ele>273.0</ele><time>2026-04-16T14:04:33.614Z</time></trkpt><trkpt lat="45.6912554" lon="9.4420692"><ele>273.0</ele><time>2026-04-16T14:04:35.614Z</time></trkpt><trkpt lat="45.6911479" lon="9.4421318"><ele>273.0</ele><time>2026-04-16T14:04:37.614Z</time></trkpt><trkpt lat="45.6910878" lon="9.4421772"><ele>273.0</ele><time>2026-04-16T14:04:39.614Z</time></trkpt><trkpt lat="45.6910089" lon="9.4421354"><ele>274.0</ele><time>2026-04-16T14:04:42.614Z</time></trkpt><trkpt lat="45.6909296" lon="9.4421923"><ele>275.0</ele><time>2026-04-16T14:04:43.614Z</time></trkpt><trkpt lat="45.6908367" lon="9.4422437"><ele>276.0</ele><time>2026-04-16T14:04:45.614Z</time></trkpt><trkpt lat="45.6907411" lon="9.4423018"><ele>277.0</ele><time>2026-04-16T14:04:47.614Z</time></trkpt><trkpt lat="45.6906346" lon="9.4423868"><ele>278.0</ele><time>2026-04-16T14:04:49.615Z</time></trkpt><trkpt lat="45.6905098" lon="9.4424585"><ele>278.0</ele><time>2026-04-16T14:04:51.614Z</time></trkpt><trkpt lat="45.6904339" lon="9.4425076"><ele>278.0</ele><time>2026-04-16T14:04:52.614Z</time></trkpt><trkpt lat="45.6903695" lon="9.4425408"><ele>278.0</ele><time>2026-04-16T14:04:53.615Z</time></trkpt><trkpt lat="45.6903073" lon="9.44258"><ele>278.0</ele><time>2026-04-16T14:04:54.614Z</time></trkpt><trkpt lat="45.6902431" lon="9.4426046"><ele>278.0</ele><time>2026-04-16T14:04:55.615Z</time></trkpt><trkpt lat="45.6901807" lon="9.4426712"><ele>278.0</ele><time>2026-04-16T14:04:56.615Z</time></trkpt><trkpt lat="45.6901196" lon="9.4427079"><ele>278.0</ele><time>2026-04-16T14:04:57.614Z</time></trkpt><trkpt lat="45.6899955" lon="9.4428218"><ele>277.83333333333337</ele><time>2026-04-16T14:04:59.615Z</time></trkpt><trkpt lat="45.6899394" lon="9.4428636"><ele>277.6666666666667</ele><time>2026-04-16T14:05:00.615Z</time></trkpt><trkpt lat="45.689876" lon="9.4429059"><ele>277.5</ele><time>2026-04-16T14:05:01.615Z</time></trkpt><trkpt lat="45.6898165" lon="9.4429735"><ele>277.3333333333333</ele><time>2026-04-16T14:05:02.615Z</time></trkpt><trkpt lat="45.6897414" lon="9.4430352"><ele>277.16666666666663</ele><time>2026-04-16T14:05:03.614Z</time></trkpt><trkpt lat="45.6896473" lon="9.4431305"><ele>277.0</ele><time>2026-04-16T14:05:05.614Z</time></trkpt><trkpt lat="45.6895438" lon="9.4432245"><ele>277.0</ele><time>2026-04-16T14:05:07.614Z</time></trkpt><trkpt lat="45.6894806" lon="9.4432662"><ele>277.0</ele><time>2026-04-16T14:05:08.615Z</time></trkpt><trkpt lat="45.6894142" lon="9.4433167"><ele>277.0</ele><time>2026-04-16T14:05:09.614Z</time></trkpt><trkpt lat="45.6893421" lon="9.4433773"><ele>277.0</ele><time>2026-04-16T14:05:10.614Z</time></trkpt><trkpt lat="45.6892348" lon="9.4434842"><ele>277.0</ele><time>2026-04-16T14:05:12.614Z</time></trkpt><trkpt lat="45.689171" lon="9.4435378"><ele>277.0</ele><time>2026-04-16T14:05:13.614Z</time></trkpt><trkpt lat="45.6890519" lon="9.4436494"><ele>277.0</ele><time>2026-04-16T14:05:15.614Z</time></trkpt><trkpt lat="45.688978" lon="9.4436965"><ele>277.0</ele><time>2026-04-16T14:05:16.615Z</time></trkpt><trkpt lat="45.6888879" lon="9.4437398"><ele>277.0</ele><time>2026-04-16T14:05:17.614Z</time></trkpt><trkpt lat="45.6888172" lon="9.4438006"><ele>277.0</ele><time>2026-04-16T14:05:18.615Z</time></trkpt><trkpt lat="45.6887153" lon="9.4438907"><ele>277.0</ele><time>2026-04-16T14:05:20.615Z</time></trkpt><trkpt lat="45.6886114" lon="9.4439971"><ele>276.85714285714283</ele><time>2026-04-16T14:05:22.614Z</time></trkpt><trkpt lat="45.6885528" lon="9.4440435"><ele>276.71428571428567</ele><time>2026-04-16T14:05:23.614Z</time></trkpt><trkpt lat="45.6884992" lon="9.4441079"><ele>276.57142857142856</ele><time>2026-04-16T14:05:24.615Z</time></trkpt><trkpt lat="45.6884312" lon="9.4441504"><ele>276.42857142857144</ele><time>2026-04-16T14:05:25.614Z</time></trkpt><trkpt lat="45.6883769" lon="9.4441975"><ele>276.28571428571433</ele><time>2026-04-16T14:05:26.614Z</time></trkpt><trkpt lat="45.6883223" lon="9.4442489"><ele>276.14285714285717</ele><time>2026-04-16T14:05:27.615Z</time></trkpt><trkpt lat="45.688265" lon="9.4442975"><ele>276.0</ele><time>2026-04-16T14:05:28.614Z</time></trkpt><trkpt lat="45.6881678" lon="9.4443966"><ele>276.0</ele><time>2026-04-16T14:05:30.614Z</time></trkpt><trkpt lat="45.6881037" lon="9.4444465"><ele>276.0</ele><time>2026-04-16T14:05:31.615Z</time></trkpt><trkpt lat="45.6879935" lon="9.4445059"><ele>276.0</ele><time>2026-04-16T14:05:33.614Z</time></trkpt><trkpt lat="45.6878669" lon="9.4445717"><ele>276.0</ele><time>2026-04-16T14:05:35.614Z</time></trkpt><trkpt lat="45.6877835" lon="9.4446205"><ele>276.0</ele><time>2026-04-16T14:05:36.614Z</time></trkpt><trkpt lat="45.6877317" lon="9.4446847"><ele>275.8</ele><time>2026-04-16T14:05:37.614Z</time></trkpt><trkpt lat="45.6876738" lon="9.4447387"><ele>275.6</ele><time>2026-04-16T14:05:38.615Z</time></trkpt><trkpt lat="45.6876029" lon="9.4448022"><ele>275.4</ele><time>2026-04-16T14:05:39.614Z</time></trkpt><trkpt lat="45.6875072" lon="9.4449103"><ele>275.2</ele><time>2026-04-16T14:05:41.615Z</time></trkpt><trkpt lat="45.687444" lon="9.4449667"><ele>275.0</ele><time>2026-04-16T14:05:42.614Z</time></trkpt><trkpt lat="45.6873422" lon="9.4450477"><ele>275.0</ele><time>2026-04-16T14:05:44.614Z</time></trkpt><trkpt lat="45.6872727" lon="9.445096"><ele>275.0</ele><time>2026-04-16T14:05:45.614Z</time></trkpt><trkpt lat="45.687206" lon="9.4451296"><ele>275.0</ele><time>2026-04-16T14:05:46.614Z</time></trkpt><trkpt lat="45.6871409" lon="9.4451557"><ele>275.0</ele><time>2026-04-16T14:05:47.614Z</time></trkpt><trkpt lat="45.687022" lon="9.4451809"><ele>275.0</ele><time>2026-04-16T14:05:49.614Z</time></trkpt><trkpt lat="45.6869032" lon="9.4451819"><ele>274.83333333333337</ele><time>2026-04-16T14:05:51.614Z</time></trkpt><trkpt lat="45.6868154" lon="9.4451845"><ele>274.6666666666667</ele><time>2026-04-16T14:05:52.614Z</time></trkpt><trkpt lat="45.6867498" lon="9.4451924"><ele>274.5</ele><time>2026-04-16T14:05:53.614Z</time></trkpt><trkpt lat="45.6866571" lon="9.4452061"><ele>274.3333333333333</ele><time>2026-04-16T14:05:54.615Z</time></trkpt><trkpt lat="45.6865778" lon="9.4452171"><ele>274.16666666666663</ele><time>2026-04-16T14:05:55.614Z</time></trkpt><trkpt lat="45.6864885" lon="9.4452136"><ele>274.0</ele><time>2026-04-16T14:05:56.614Z</time></trkpt><trkpt lat="45.6863813" lon="9.445192"><ele>274.0</ele><time>2026-04-16T14:05:58.614Z</time></trkpt><trkpt lat="45.6863031" lon="9.4451856"><ele>274.0</ele><time>2026-04-16T14:05:59.614Z</time></trkpt><trkpt lat="45.6861647" lon="9.4451587"><ele>274.0</ele><time>2026-04-16T14:06:01.615Z</time></trkpt><trkpt lat="45.6860909" lon="9.4451446"><ele>274.0</ele><time>2026-04-16T14:06:02.614Z</time></trkpt><trkpt lat="45.6860197" lon="9.445151"><ele>274.0</ele><time>2026-04-16T14:06:03.615Z</time></trkpt><trkpt lat="45.6859337" lon="9.4451506"><ele>273.66666666666663</ele><time>2026-04-16T14:06:04.614Z</time></trkpt><trkpt lat="45.6858073" lon="9.4451127"><ele>273.3333333333333</ele><time>2026-04-16T14:06:06.614Z</time></trkpt><trkpt lat="45.6857433" lon="9.4450943"><ele>273.0</ele><time>2026-04-16T14:06:07.614Z</time></trkpt><trkpt lat="45.6856715" lon="9.4450841"><ele>272.6666666666667</ele><time>2026-04-16T14:06:08.614Z</time></trkpt><trkpt lat="45.6856031" lon="9.4450713"><ele>272.33333333333337</ele><time>2026-04-16T14:06:09.614Z</time></trkpt><trkpt lat="45.685534" lon="9.4450682"><ele>272.0</ele><time>2026-04-16T14:06:10.614Z</time></trkpt><trkpt lat="45.6854583" lon="9.4450425"><ele>272.0</ele><time>2026-04-16T14:06:11.614Z</time></trkpt><trkpt lat="45.6853308" lon="9.4450096"><ele>272.0</ele><time>2026-04-16T14:06:13.614Z</time></trkpt><trkpt lat="45.6851939" lon="9.4449705"><ele>272.0</ele><time>2026-04-16T14:06:15.614Z</time></trkpt><trkpt lat="45.6851299" lon="9.4449503"><ele>272.0</ele><time>2026-04-16T14:06:16.615Z</time></trkpt><trkpt lat="45.6850217" lon="9.4449037"><ele>272.0</ele><time>2026-04-16T14:06:18.615Z</time></trkpt><trkpt lat="45.6849526" lon="9.4448547"><ele>272.1666666666667</ele><time>2026-04-16T14:06:20.614Z</time></trkpt><trkpt lat="45.684868" lon="9.4448199"><ele>272.33333333333337</ele><time>2026-04-16T14:06:22.614Z</time></trkpt><trkpt lat="45.6848048" lon="9.4447768"><ele>272.5</ele><time>2026-04-16T14:06:24.615Z</time></trkpt><trkpt lat="45.6848233" lon="9.4446621"><ele>272.6666666666667</ele><time>2026-04-16T14:06:27.614Z</time></trkpt><trkpt lat="45.6848647" lon="9.4445519"><ele>272.8333333333333</ele><time>2026-04-16T14:06:30.614Z</time></trkpt><trkpt lat="45.6848988" lon="9.4444673"><ele>273.0</ele><time>2026-04-16T14:06:32.615Z</time></trkpt><trkpt lat="45.6849386" lon="9.4443847"><ele>273.42857142857144</ele><time>2026-04-16T14:06:34.614Z</time></trkpt><trkpt lat="45.6849721" lon="9.4443045"><ele>273.8571428571429</ele><time>2026-04-16T14:06:36.615Z</time></trkpt><trkpt lat="45.6850069" lon="9.4442265"><ele>274.2857142857143</ele><time>2026-04-16T14:06:38.614Z</time></trkpt><trkpt lat="45.6850426" lon="9.4441497"><ele>274.7142857142857</ele><time>2026-04-16T14:06:40.614Z</time></trkpt><trkpt lat="45.6850767" lon="9.4440658"><ele>275.14285714285717</ele><time>2026-04-16T14:06:42.615Z</time></trkpt><trkpt lat="45.6851118" lon="9.4439785"><ele>275.57142857142856</ele><time>2026-04-16T14:06:44.614Z</time></trkpt><trkpt lat="45.6851572" lon="9.4438922"><ele>276.0</ele><time>2026-04-16T14:06:46.614Z</time></trkpt><trkpt lat="45.6852041" lon="9.4438093"><ele>276.5</ele><time>2026-04-16T14:06:48.614Z</time></trkpt><trkpt lat="45.6852546" lon="9.4437307"><ele>277.0</ele><time>2026-04-16T14:06:50.614Z</time></trkpt><trkpt lat="45.685315" lon="9.4436189"><ele>277.5</ele><time>2026-04-16T14:06:52.615Z</time></trkpt><trkpt lat="45.6853526" lon="9.4435335"><ele>278.0</ele><time>2026-04-16T14:06:54.614Z</time></trkpt><trkpt lat="45.6854035" lon="9.4434638"><ele>278.5</ele><time>2026-04-16T14:06:56.615Z</time></trkpt><trkpt lat="45.6854477" lon="9.443386"><ele>279.0</ele><time>2026-04-16T14:06:58.614Z</time></trkpt><trkpt lat="45.6854858" lon="9.4432976"><ele>279.5</ele><time>2026-04-16T14:07:00.614Z</time></trkpt><trkpt lat="45.6855183" lon="9.4432066"><ele>280.0</ele><time>2026-04-16T14:07:02.614Z</time></trkpt><trkpt lat="45.6855615" lon="9.4431164"><ele>280.5</ele><time>2026-04-16T14:07:04.614Z</time></trkpt><trkpt lat="45.6855866" lon="9.443006"><ele>281.0</ele><time>2026-04-16T14:07:06.614Z</time></trkpt><trkpt lat="45.6856081" lon="9.4429011"><ele>281.5</ele><time>2026-04-16T14:07:08.614Z</time></trkpt><trkpt lat="45.6856258" lon="9.4427924"><ele>282.0</ele><time>2026-04-16T14:07:10.614Z</time></trkpt><trkpt lat="45.6856442" lon="9.4426747"><ele>282.0</ele><time>2026-04-16T14:07:12.614Z</time></trkpt><trkpt lat="45.6856747" lon="9.4425575"><ele>282.0</ele><time>2026-04-16T14:07:14.614Z</time></trkpt><trkpt lat="45.6856893" lon="9.4424494"><ele>282.0</ele><time>2026-04-16T14:07:16.614Z</time></trkpt><trkpt lat="45.685702" lon="9.4423382"><ele>282.0</ele><time>2026-04-16T14:07:18.614Z</time></trkpt><trkpt lat="45.685716" lon="9.442217"><ele>282.0</ele><time>2026-04-16T14:07:20.614Z</time></trkpt><trkpt lat="45.6857346" lon="9.4420883"><ele>282.0</ele><time>2026-04-16T14:07:22.614Z</time></trkpt><trkpt lat="45.6857543" lon="9.4419653"><ele>282.2</ele><time>2026-04-16T14:07:24.614Z</time></trkpt><trkpt lat="45.6857948" lon="9.4418464"><ele>282.4</ele><time>2026-04-16T14:07:26.614Z</time></trkpt><trkpt lat="45.6858837" lon="9.4417914"><ele>282.6</ele><time>2026-04-16T14:07:28.615Z</time></trkpt><trkpt lat="45.6859748" lon="9.4417946"><ele>282.8</ele><time>2026-04-16T14:07:30.614Z</time></trkpt><trkpt lat="45.6860685" lon="9.4418224"><ele>283.0</ele><time>2026-04-16T14:07:32.614Z</time></trkpt><trkpt lat="45.6861614" lon="9.4418593"><ele>281.2</ele><time>2026-04-16T14:07:34.614Z</time></trkpt><trkpt lat="45.6862255" lon="9.4418795"><ele>279.4</ele><time>2026-04-16T14:07:35.615Z</time></trkpt><trkpt lat="45.686366" lon="9.441925"><ele>277.59999999999997</ele><time>2026-04-16T14:07:36.614Z</time></trkpt><trkpt lat="45.6864752" lon="9.4418468"><ele>275.8</ele><time>2026-04-16T14:07:38.614Z</time></trkpt><trkpt lat="45.6865384" lon="9.4417846"><ele>274.0</ele><time>2026-04-16T14:07:39.614Z</time></trkpt><trkpt lat="45.686598" lon="9.441704"><ele>274.0</ele><time>2026-04-16T14:07:40.614Z</time></trkpt><trkpt lat="45.6866393" lon="9.44155"><ele>274.0</ele><time>2026-04-16T14:07:42.614Z</time></trkpt><trkpt lat="45.6866657" lon="9.4414426"><ele>274.0</ele><time>2026-04-16T14:07:43.615Z</time></trkpt><trkpt lat="45.6867004" lon="9.4413397"><ele>274.0</ele><time>2026-04-16T14:07:44.614Z</time></trkpt><trkpt lat="45.6867456" lon="9.4411722"><ele>274.0</ele><time>2026-04-16T14:07:46.614Z</time></trkpt><trkpt lat="45.6867692" lon="9.4410596"><ele>272.8</ele><time>2026-04-16T14:07:47.614Z</time></trkpt><trkpt lat="45.6867984" lon="9.4409349"><ele>271.59999999999997</ele><time>2026-04-16T14:07:48.614Z</time></trkpt><trkpt lat="45.6868201" lon="9.4408107"><ele>270.4</ele><time>2026-04-16T14:07:49.614Z</time></trkpt><trkpt lat="45.6868628" lon="9.4406987"><ele>269.2</ele><time>2026-04-16T14:07:50.614Z</time></trkpt><trkpt lat="45.6868894" lon="9.4405746"><ele>268.0</ele><time>2026-04-16T14:07:51.614Z</time></trkpt><trkpt lat="45.6869255" lon="9.4404539"><ele>267.8333333333333</ele><time>2026-04-16T14:07:52.615Z</time></trkpt><trkpt lat="45.6869538" lon="9.4403387"><ele>267.66666666666663</ele><time>2026-04-16T14:07:53.615Z</time></trkpt><trkpt lat="45.6869857" lon="9.4402116"><ele>267.5</ele><time>2026-04-16T14:07:54.614Z</time></trkpt><trkpt lat="45.6870097" lon="9.4400942"><ele>267.3333333333333</ele><time>2026-04-16T14:07:55.615Z</time></trkpt><trkpt lat="45.6870238" lon="9.4399892"><ele>267.1666666666667</ele><time>2026-04-16T14:07:56.615Z</time></trkpt><trkpt lat="45.6870491" lon="9.4398766"><ele>267.0</ele><time>2026-04-16T14:07:57.614Z</time></trkpt><trkpt lat="45.6870786" lon="9.4397778"><ele>267.0</ele><time>2026-04-16T14:07:58.614Z</time></trkpt><trkpt lat="45.6871072" lon="9.4396738"><ele>267.0</ele><time>2026-04-16T14:07:59.614Z</time></trkpt><trkpt lat="45.6871297" lon="9.4395751"><ele>267.0</ele><time>2026-04-16T14:08:00.615Z</time></trkpt><trkpt lat="45.6871584" lon="9.4394203"><ele>267.0</ele><time>2026-04-16T14:08:02.614Z</time></trkpt><trkpt lat="45.6871893" lon="9.4393316"><ele>267.0</ele><time>2026-04-16T14:08:04.615Z</time></trkpt><trkpt lat="45.6872105" lon="9.4392378"><ele>267.0</ele><time>2026-04-16T14:08:09.615Z</time></trkpt><trkpt lat="45.6871335" lon="9.439158"><ele>266.8</ele><time>2026-04-16T14:08:14.614Z</time></trkpt><trkpt lat="45.6870374" lon="9.4391104"><ele>266.6</ele><time>2026-04-16T14:08:15.614Z</time></trkpt><trkpt lat="45.6869289" lon="9.4390709"><ele>266.40000000000003</ele><time>2026-04-16T14:08:17.615Z</time></trkpt><trkpt lat="45.6868381" lon="9.4390075"><ele>266.2</ele><time>2026-04-16T14:08:19.614Z</time></trkpt><trkpt lat="45.6867739" lon="9.438973"><ele>266.0</ele><time>2026-04-16T14:08:20.614Z</time></trkpt><trkpt lat="45.6866704" lon="9.4389198"><ele>265.83333333333337</ele><time>2026-04-16T14:08:22.615Z</time></trkpt><trkpt lat="45.6865433" lon="9.4388769"><ele>265.6666666666667</ele><time>2026-04-16T14:08:24.614Z</time></trkpt><trkpt lat="45.6864739" lon="9.4388295"><ele>265.5</ele><time>2026-04-16T14:08:25.614Z</time></trkpt><trkpt lat="45.6863769" lon="9.4387825"><ele>265.3333333333333</ele><time>2026-04-16T14:08:27.614Z</time></trkpt><trkpt lat="45.6863155" lon="9.438759"><ele>265.16666666666663</ele><time>2026-04-16T14:08:28.615Z</time></trkpt><trkpt lat="45.6862554" lon="9.438721"><ele>265.0</ele><time>2026-04-16T14:08:29.615Z</time></trkpt><trkpt lat="45.6861833" lon="9.43868"><ele>265.0</ele><time>2026-04-16T14:08:31.614Z</time></trkpt><trkpt lat="45.6861161" lon="9.4386134"><ele>265.0</ele><time>2026-04-16T14:08:34.615Z</time></trkpt><trkpt lat="45.6860394" lon="9.4385652"><ele>265.0</ele><time>2026-04-16T14:08:38.615Z</time></trkpt><trkpt lat="45.6859676" lon="9.4385103"><ele>265.0</ele><time>2026-04-16T14:08:40.614Z</time></trkpt><trkpt lat="45.6858792" lon="9.4384642"><ele>265.0</ele><time>2026-04-16T14:08:42.614Z</time></trkpt><trkpt lat="45.685818" lon="9.4383868"><ele>265.0</ele><time>2026-04-16T14:08:45.614Z</time></trkpt><trkpt lat="45.6857473" lon="9.4384053"><ele>265.0</ele><time>2026-04-16T14:08:47.614Z</time></trkpt><trkpt lat="45.6856739" lon="9.4384684"><ele>265.0</ele><time>2026-04-16T14:08:49.614Z</time></trkpt><trkpt lat="45.6855982" lon="9.4385399"><ele>265.0</ele><time>2026-04-16T14:08:50.614Z</time></trkpt><trkpt lat="45.6855469" lon="9.4387066"><ele>265.0</ele><time>2026-04-16T14:08:52.614Z</time></trkpt><trkpt lat="45.6854983" lon="9.438795"><ele>265.0</ele><time>2026-04-16T14:08:53.614Z</time></trkpt><trkpt lat="45.6854524" lon="9.438931"><ele>265.0</ele><time>2026-04-16T14:08:55.614Z</time></trkpt><trkpt lat="45.6853968" lon="9.4390951"><ele>265.0</ele><time>2026-04-16T14:08:57.615Z</time></trkpt><trkpt lat="45.6853537" lon="9.4391659"><ele>265.0</ele><time>2026-04-16T14:08:58.615Z</time></trkpt><trkpt lat="45.6853168" lon="9.439316"><ele>265.0</ele><time>2026-04-16T14:09:00.615Z</time></trkpt><trkpt lat="45.6852667" lon="9.439455"><ele>265.0</ele><time>2026-04-16T14:09:02.614Z</time></trkpt><trkpt lat="45.6852418" lon="9.4395436"><ele>265.4</ele><time>2026-04-16T14:09:03.614Z</time></trkpt><trkpt lat="45.6852038" lon="9.4397042"><ele>265.8</ele><time>2026-04-16T14:09:05.615Z</time></trkpt><trkpt lat="45.6851555" lon="9.4398433"><ele>266.2</ele><time>2026-04-16T14:09:07.614Z</time></trkpt><trkpt lat="45.6850915" lon="9.43999"><ele>266.6</ele><time>2026-04-16T14:09:09.614Z</time></trkpt><trkpt lat="45.6850555" lon="9.4401257"><ele>267.0</ele><time>2026-04-16T14:09:11.614Z</time></trkpt><trkpt lat="45.6849872" lon="9.4402539"><ele>267.0</ele><time>2026-04-16T14:09:13.614Z</time></trkpt><trkpt lat="45.6849418" lon="9.4403962"><ele>267.0</ele><time>2026-04-16T14:09:15.614Z</time></trkpt><trkpt lat="45.6848739" lon="9.4405346"><ele>267.0</ele><time>2026-04-16T14:09:17.614Z</time></trkpt><trkpt lat="45.6848165" lon="9.4406456"><ele>267.0</ele><time>2026-04-16T14:09:19.614Z</time></trkpt><trkpt lat="45.6847276" lon="9.440758"><ele>267.0</ele><time>2026-04-16T14:09:21.615Z</time></trkpt><trkpt lat="45.6846213" lon="9.440822"><ele>266.8571428571429</ele><time>2026-04-16T14:09:23.615Z</time></trkpt><trkpt lat="45.6845607" lon="9.4408616"><ele>266.7142857142857</ele><time>2026-04-16T14:09:24.615Z</time></trkpt><trkpt lat="45.6844865" lon="9.4409373"><ele>266.57142857142856</ele><time>2026-04-16T14:09:26.614Z</time></trkpt><trkpt lat="45.6844505" lon="9.441029"><ele>266.42857142857144</ele><time>2026-04-16T14:09:27.614Z</time></trkpt><trkpt lat="45.6844132" lon="9.4411068"><ele>266.2857142857143</ele><time>2026-04-16T14:09:28.615Z</time></trkpt><trkpt lat="45.6843967" lon="9.4412082"><ele>266.14285714285717</ele><time>2026-04-16T14:09:29.614Z</time></trkpt><trkpt lat="45.6843608" lon="9.4412872"><ele>266.0</ele><time>2026-04-16T14:09:30.614Z</time></trkpt><trkpt lat="45.6843172" lon="9.4413615"><ele>266.8</ele><time>2026-04-16T14:09:31.614Z</time></trkpt><trkpt lat="45.6842514" lon="9.4415069"><ele>267.6</ele><time>2026-04-16T14:09:33.615Z</time></trkpt><trkpt lat="45.6841943" lon="9.4416272"><ele>268.4</ele><time>2026-04-16T14:09:35.614Z</time></trkpt><trkpt lat="45.6841343" lon="9.4417684"><ele>269.2</ele><time>2026-04-16T14:09:37.614Z</time></trkpt><trkpt lat="45.6840963" lon="9.4418961"><ele>270.0</ele><time>2026-04-16T14:09:39.615Z</time></trkpt><trkpt lat="45.6840196" lon="9.4420032"><ele>271.25</ele><time>2026-04-16T14:09:41.614Z</time></trkpt><trkpt lat="45.6839672" lon="9.4421537"><ele>272.5</ele><time>2026-04-16T14:09:43.614Z</time></trkpt><trkpt lat="45.6839306" lon="9.442276"><ele>273.75</ele><time>2026-04-16T14:09:45.614Z</time></trkpt><trkpt lat="45.6838643" lon="9.4424654"><ele>275.0</ele><time>2026-04-16T14:09:47.615Z</time></trkpt><trkpt lat="45.6838052" lon="9.4425809"><ele>275.0</ele><time>2026-04-16T14:09:49.614Z</time></trkpt><trkpt lat="45.6837579" lon="9.4426657"><ele>275.0</ele><time>2026-04-16T14:09:50.614Z</time></trkpt><trkpt lat="45.6837419" lon="9.4427534"><ele>275.0</ele><time>2026-04-16T14:09:51.614Z</time></trkpt><trkpt lat="45.6836838" lon="9.442821"><ele>275.0</ele><time>2026-04-16T14:09:52.614Z</time></trkpt><trkpt lat="45.6836152" lon="9.4429482"><ele>275.0</ele><time>2026-04-16T14:09:54.615Z</time></trkpt><trkpt lat="45.6835837" lon="9.4430899"><ele>275.0</ele><time>2026-04-16T14:09:56.615Z</time></trkpt><trkpt lat="45.683546" lon="9.4432316"><ele>274.8</ele><time>2026-04-16T14:09:58.614Z</time></trkpt><trkpt lat="45.6834795" lon="9.4433629"><ele>274.6</ele><time>2026-04-16T14:10:00.614Z</time></trkpt><trkpt lat="45.6834467" lon="9.4434493"><ele>274.4</ele><time>2026-04-16T14:10:01.614Z</time></trkpt><trkpt lat="45.6833949" lon="9.4436085"><ele>274.2</ele><time>2026-04-16T14:10:03.614Z</time></trkpt><trkpt lat="45.6833468" lon="9.4437145"><ele>274.0</ele><time>2026-04-16T14:10:04.614Z</time></trkpt><trkpt lat="45.6832914" lon="9.4438506"><ele>274.0</ele><time>2026-04-16T14:10:06.614Z</time></trkpt><trkpt lat="45.6832289" lon="9.4439277"><ele>274.0</ele><time>2026-04-16T14:10:08.614Z</time></trkpt><trkpt lat="45.683199" lon="9.4440919"><ele>274.0</ele><time>2026-04-16T14:10:10.615Z</time></trkpt><trkpt lat="45.6831369" lon="9.4442508"><ele>274.0</ele><time>2026-04-16T14:10:12.614Z</time></trkpt><trkpt lat="45.6830951" lon="9.4443584"><ele>274.0</ele><time>2026-04-16T14:10:14.614Z</time></trkpt><trkpt lat="45.6830283" lon="9.444446"><ele>274.0</ele><time>2026-04-16T14:10:16.614Z</time></trkpt><trkpt lat="45.6829598" lon="9.4445053"><ele>274.0</ele><time>2026-04-16T14:10:18.614Z</time></trkpt><trkpt lat="45.6828631" lon="9.4445402"><ele>274.0</ele><time>2026-04-16T14:10:20.614Z</time></trkpt><trkpt lat="45.6827206" lon="9.4445537"><ele>274.0</ele><time>2026-04-16T14:10:22.614Z</time></trkpt><trkpt lat="45.6826139" lon="9.4445629"><ele>274.0</ele><time>2026-04-16T14:10:24.614Z</time></trkpt><trkpt lat="45.6824841" lon="9.4445644"><ele>273.5</ele><time>2026-04-16T14:10:26.615Z</time></trkpt><trkpt lat="45.6824052" lon="9.4446083"><ele>273.0</ele><time>2026-04-16T14:10:29.614Z</time></trkpt><trkpt lat="45.6823399" lon="9.4446165"><ele>272.5</ele><time>2026-04-16T14:10:30.615Z</time></trkpt><trkpt lat="45.6821857" lon="9.4446747"><ele>272.0</ele><time>2026-04-16T14:10:32.614Z</time></trkpt><trkpt lat="45.6820438" lon="9.4445972"><ele>272.0</ele><time>2026-04-16T14:10:34.614Z</time></trkpt><trkpt lat="45.6819682" lon="9.4445859"><ele>272.0</ele><time>2026-04-16T14:10:35.614Z</time></trkpt><trkpt lat="45.6818666" lon="9.4446278"><ele>272.0</ele><time>2026-04-16T14:10:36.615Z</time></trkpt><trkpt lat="45.6817596" lon="9.4446135"><ele>272.0</ele><time>2026-04-16T14:10:38.614Z</time></trkpt><trkpt lat="45.6816516" lon="9.4445835"><ele>272.0</ele><time>2026-04-16T14:10:40.614Z</time></trkpt><trkpt lat="45.6815426" lon="9.4445532"><ele>272.0</ele><time>2026-04-16T14:10:42.614Z</time></trkpt><trkpt lat="45.6814722" lon="9.4445536"><ele>272.0</ele><time>2026-04-16T14:10:44.615Z</time></trkpt><trkpt lat="45.6813657" lon="9.4445971"><ele>272.0</ele><time>2026-04-16T14:10:46.614Z</time></trkpt><trkpt lat="45.6812666" lon="9.44461"><ele>272.0</ele><time>2026-04-16T14:10:48.614Z</time></trkpt><trkpt lat="45.6811876" lon="9.4446151"><ele>272.0</ele><time>2026-04-16T14:10:49.614Z</time></trkpt><trkpt lat="45.6811044" lon="9.4446428"><ele>272.0</ele><time>2026-04-16T14:10:51.614Z</time></trkpt><trkpt lat="45.6809959" lon="9.4446508"><ele>272.25</ele><time>2026-04-16T14:10:53.614Z</time></trkpt><trkpt lat="45.6808864" lon="9.4444887"><ele>272.5</ele><time>2026-04-16T14:10:55.614Z</time></trkpt><trkpt lat="45.6807978" lon="9.444431"><ele>272.75</ele><time>2026-04-16T14:10:56.615Z</time></trkpt><trkpt lat="45.680662" lon="9.4443984"><ele>273.0</ele><time>2026-04-16T14:10:58.614Z</time></trkpt><trkpt lat="45.6805641" lon="9.4443972"><ele>273.0</ele><time>2026-04-16T14:11:01.614Z</time></trkpt><trkpt lat="45.6804583" lon="9.4443649"><ele>273.0</ele><time>2026-04-16T14:11:03.614Z</time></trkpt><trkpt lat="45.6803343" lon="9.4443401"><ele>273.0</ele><time>2026-04-16T14:11:05.614Z</time></trkpt><trkpt lat="45.6801637" lon="9.4443314"><ele>273.0</ele><time>2026-04-16T14:11:09.614Z</time></trkpt><trkpt lat="45.68014" lon="9.4444425"><ele>272.4</ele><time>2026-04-16T14:11:10.614Z</time></trkpt><trkpt lat="45.6800041" lon="9.444454"><ele>271.8</ele><time>2026-04-16T14:11:11.614Z</time></trkpt><trkpt lat="45.6799284" lon="9.4444373"><ele>271.2</ele><time>2026-04-16T14:11:12.614Z</time></trkpt><trkpt lat="45.6798337" lon="9.4444215"><ele>270.6</ele><time>2026-04-16T14:11:13.615Z</time></trkpt><trkpt lat="45.6797375" lon="9.4443719"><ele>270.0</ele><time>2026-04-16T14:11:15.614Z</time></trkpt><trkpt lat="45.6796422" lon="9.4443913"><ele>270.0</ele><time>2026-04-16T14:11:16.615Z</time></trkpt><trkpt lat="45.679549" lon="9.4443636"><ele>270.0</ele><time>2026-04-16T14:11:18.614Z</time></trkpt><trkpt lat="45.6794799" lon="9.4443444"><ele>270.0</ele><time>2026-04-16T14:11:19.614Z</time></trkpt><trkpt lat="45.6793562" lon="9.444303"><ele>270.0</ele><time>2026-04-16T14:11:21.614Z</time></trkpt><trkpt lat="45.679287" lon="9.4442856"><ele>270.0</ele><time>2026-04-16T14:11:22.614Z</time></trkpt><trkpt lat="45.6792137" lon="9.4442699"><ele>270.0</ele><time>2026-04-16T14:11:23.614Z</time></trkpt><trkpt lat="45.6791411" lon="9.4442669"><ele>269.4</ele><time>2026-04-16T14:11:24.614Z</time></trkpt><trkpt lat="45.6790161" lon="9.4442332"><ele>268.8</ele><time>2026-04-16T14:11:26.614Z</time></trkpt><trkpt lat="45.6789497" lon="9.444228"><ele>268.2</ele><time>2026-04-16T14:11:27.614Z</time></trkpt><trkpt lat="45.6788827" lon="9.4442286"><ele>267.6</ele><time>2026-04-16T14:11:28.615Z</time></trkpt><trkpt lat="45.6787589" lon="9.4442059"><ele>267.0</ele><time>2026-04-16T14:11:30.615Z</time></trkpt><trkpt lat="45.6786329" lon="9.4441582"><ele>267.00000000000006</ele><time>2026-04-16T14:11:32.615Z</time></trkpt><trkpt lat="45.6785572" lon="9.4441493"><ele>267.0</ele><time>2026-04-16T14:11:33.615Z</time></trkpt><trkpt lat="45.6784912" lon="9.4441308"><ele>267.0</ele><time>2026-04-16T14:11:34.614Z</time></trkpt><trkpt lat="45.6784186" lon="9.444085"><ele>267.0</ele><time>2026-04-16T14:11:35.615Z</time></trkpt><trkpt lat="45.6783433" lon="9.4440717"><ele>267.0</ele><time>2026-04-16T14:11:36.614Z</time></trkpt><trkpt lat="45.6782795" lon="9.4440747"><ele>267.00000000000006</ele><time>2026-04-16T14:11:37.615Z</time></trkpt><trkpt lat="45.6782117" lon="9.4440664"><ele>267.0</ele><time>2026-04-16T14:11:38.614Z</time></trkpt><trkpt lat="45.6780887" lon="9.4440388"><ele>267.0</ele><time>2026-04-16T14:11:40.615Z</time></trkpt><trkpt lat="45.6779991" lon="9.4440354"><ele>267.0</ele><time>2026-04-16T14:11:41.614Z</time></trkpt><trkpt lat="45.6779306" lon="9.4440158"><ele>267.0</ele><time>2026-04-16T14:11:42.615Z</time></trkpt><trkpt lat="45.6778161" lon="9.4439994"><ele>267.0</ele><time>2026-04-16T14:11:44.614Z</time></trkpt><trkpt lat="45.6777369" lon="9.4439733"><ele>267.0</ele><time>2026-04-16T14:11:45.614Z</time></trkpt><trkpt lat="45.6776656" lon="9.4439548"><ele>267.0</ele><time>2026-04-16T14:11:46.615Z</time></trkpt><trkpt lat="45.6776038" lon="9.4439312"><ele>266.8571428571429</ele><time>2026-04-16T14:11:47.614Z</time></trkpt><trkpt lat="45.677535" lon="9.4439168"><ele>266.7142857142857</ele><time>2026-04-16T14:11:48.614Z</time></trkpt><trkpt lat="45.6774783" lon="9.4438582"><ele>266.57142857142856</ele><time>2026-04-16T14:11:49.615Z</time></trkpt><trkpt lat="45.6773938" lon="9.4438361"><ele>266.42857142857144</ele><time>2026-04-16T14:11:50.614Z</time></trkpt><trkpt lat="45.6773282" lon="9.4438358"><ele>266.2857142857143</ele><time>2026-04-16T14:11:51.614Z</time></trkpt><trkpt lat="45.6772513" lon="9.4438254"><ele>266.14285714285717</ele><time>2026-04-16T14:11:52.614Z</time></trkpt><trkpt lat="45.6771801" lon="9.4438102"><ele>266.0</ele><time>2026-04-16T14:11:53.614Z</time></trkpt><trkpt lat="45.6770537" lon="9.4437929"><ele>266.0</ele><time>2026-04-16T14:11:55.614Z</time></trkpt><trkpt lat="45.6769889" lon="9.4437509"><ele>266.0</ele><time>2026-04-16T14:11:56.615Z</time></trkpt><trkpt lat="45.6769217" lon="9.443749"><ele>266.0</ele><time>2026-04-16T14:11:57.614Z</time></trkpt><trkpt lat="45.6768569" lon="9.4437438"><ele>266.0</ele><time>2026-04-16T14:11:58.614Z</time></trkpt><trkpt lat="45.6767757" lon="9.4437205"><ele>266.0</ele><time>2026-04-16T14:11:59.614Z</time></trkpt><trkpt lat="45.6767088" lon="9.4437037"><ele>266.0</ele><time>2026-04-16T14:12:00.614Z</time></trkpt><trkpt lat="45.6766157" lon="9.4436945"><ele>266.0</ele><time>2026-04-16T14:12:01.614Z</time></trkpt><trkpt lat="45.6764934" lon="9.4436748"><ele>265.83333333333337</ele><time>2026-04-16T14:12:03.614Z</time></trkpt><trkpt lat="45.6764197" lon="9.4436317"><ele>265.6666666666667</ele><time>2026-04-16T14:12:04.614Z</time></trkpt><trkpt lat="45.6763509" lon="9.4436051"><ele>265.5</ele><time>2026-04-16T14:12:05.614Z</time></trkpt><trkpt lat="45.6762784" lon="9.4435791"><ele>265.3333333333333</ele><time>2026-04-16T14:12:06.615Z</time></trkpt><trkpt lat="45.6762073" lon="9.4435414"><ele>265.16666666666663</ele><time>2026-04-16T14:12:07.615Z</time></trkpt><trkpt lat="45.6761314" lon="9.4434928"><ele>265.0</ele><time>2026-04-16T14:12:08.614Z</time></trkpt><trkpt lat="45.676057" lon="9.4434847"><ele>264.8333333333333</ele><time>2026-04-16T14:12:09.614Z</time></trkpt><trkpt lat="45.6759931" lon="9.4434602"><ele>264.66666666666663</ele><time>2026-04-16T14:12:10.615Z</time></trkpt><trkpt lat="45.6759265" lon="9.4434312"><ele>264.5</ele><time>2026-04-16T14:12:11.615Z</time></trkpt><trkpt lat="45.675863" lon="9.4434086"><ele>264.3333333333333</ele><time>2026-04-16T14:12:12.614Z</time></trkpt><trkpt lat="45.6757987" lon="9.4433782"><ele>264.1666666666667</ele><time>2026-04-16T14:12:13.615Z</time></trkpt><trkpt lat="45.6757266" lon="9.4433273"><ele>264.0</ele><time>2026-04-16T14:12:14.615Z</time></trkpt><trkpt lat="45.6755941" lon="9.4432977"><ele>264.0</ele><time>2026-04-16T14:12:16.615Z</time></trkpt><trkpt lat="45.6754806" lon="9.4432683"><ele>264.0</ele><time>2026-04-16T14:12:18.614Z</time></trkpt><trkpt lat="45.6754163" lon="9.4432469"><ele>264.0</ele><time>2026-04-16T14:12:19.614Z</time></trkpt><trkpt lat="45.6753292" lon="9.4432142"><ele>264.0</ele><time>2026-04-16T14:12:20.614Z</time></trkpt><trkpt lat="45.6752586" lon="9.4431872"><ele>264.0</ele><time>2026-04-16T14:12:21.614Z</time></trkpt><trkpt lat="45.675194" lon="9.4431856"><ele>264.0</ele><time>2026-04-16T14:12:22.614Z</time></trkpt><trkpt lat="45.6751221" lon="9.4431659"><ele>263.6666666666667</ele><time>2026-04-16T14:12:23.615Z</time></trkpt><trkpt lat="45.6750521" lon="9.4431217"><ele>263.3333333333333</ele><time>2026-04-16T14:12:24.614Z</time></trkpt><trkpt lat="45.674974" lon="9.4431207"><ele>263.0</ele><time>2026-04-16T14:12:25.614Z</time></trkpt><trkpt lat="45.6748965" lon="9.4431029"><ele>262.66666666666663</ele><time>2026-04-16T14:12:26.615Z</time></trkpt><trkpt lat="45.6748298" lon="9.4430761"><ele>262.3333333333333</ele><time>2026-04-16T14:12:27.614Z</time></trkpt><trkpt lat="45.674749" lon="9.4430299"><ele>262.0</ele><time>2026-04-16T14:12:28.614Z</time></trkpt><trkpt lat="45.6746687" lon="9.4430033"><ele>262.0</ele><time>2026-04-16T14:12:29.615Z</time></trkpt><trkpt lat="45.6745942" lon="9.442982"><ele>262.0</ele><time>2026-04-16T14:12:30.614Z</time></trkpt><trkpt lat="45.6745153" lon="9.4429509"><ele>262.0</ele><time>2026-04-16T14:12:31.614Z</time></trkpt><trkpt lat="45.6744495" lon="9.4429051"><ele>262.0</ele><time>2026-04-16T14:12:32.614Z</time></trkpt><trkpt lat="45.6743869" lon="9.4428796"><ele>262.0</ele><time>2026-04-16T14:12:33.614Z</time></trkpt><trkpt lat="45.6743123" lon="9.4428612"><ele>262.0</ele><time>2026-04-16T14:12:34.614Z</time></trkpt><trkpt lat="45.6742452" lon="9.4428486"><ele>262.0</ele><time>2026-04-16T14:12:35.614Z</time></trkpt><trkpt lat="45.6740271" lon="9.442852"><ele>261.8</ele><time>2026-04-16T14:12:39.601Z</time></trkpt><trkpt lat="45.6739648" lon="9.4427873"><ele>261.6</ele><time>2026-04-16T14:12:41.599Z</time></trkpt><trkpt lat="45.6738976" lon="9.4427358"><ele>261.40000000000003</ele><time>2026-04-16T14:12:43.61Z</time></trkpt><trkpt lat="45.6737887" lon="9.442662"><ele>261.2</ele><time>2026-04-16T14:12:45.6Z</time></trkpt><trkpt lat="45.6737291" lon="9.4425946"><ele>261.0</ele><time>2026-04-16T14:12:46.6Z</time></trkpt><trkpt lat="45.6736552" lon="9.4424599"><ele>260.8333333333333</ele><time>2026-04-16T14:12:48.6Z</time></trkpt><trkpt lat="45.673566" lon="9.4423563"><ele>260.6666666666667</ele><time>2026-04-16T14:12:50.599Z</time></trkpt><trkpt lat="45.673508" lon="9.4422947"><ele>260.5</ele><time>2026-04-16T14:12:51.6Z</time></trkpt><trkpt lat="45.6734642" lon="9.44221"><ele>260.33333333333337</ele><time>2026-04-16T14:12:52.599Z</time></trkpt><trkpt lat="45.6734155" lon="9.4421228"><ele>260.1666666666667</ele><time>2026-04-16T14:12:53.6Z</time></trkpt><trkpt lat="45.6733651" lon="9.4420328"><ele>260.0</ele><time>2026-04-16T14:12:54.599Z</time></trkpt><trkpt lat="45.6733135" lon="9.4419455"><ele>260.0</ele><time>2026-04-16T14:12:55.599Z</time></trkpt><trkpt lat="45.6732464" lon="9.4418634"><ele>260.0</ele><time>2026-04-16T14:12:56.599Z</time></trkpt><trkpt lat="45.6731795" lon="9.4417816"><ele>260.0</ele><time>2026-04-16T14:12:57.599Z</time></trkpt><trkpt lat="45.6731231" lon="9.4417017"><ele>260.0</ele><time>2026-04-16T14:12:58.599Z</time></trkpt><trkpt lat="45.6730719" lon="9.4416073"><ele>260.0</ele><time>2026-04-16T14:12:59.599Z</time></trkpt><trkpt lat="45.6730108" lon="9.4415238"><ele>260.0</ele><time>2026-04-16T14:13:00.6Z</time></trkpt><trkpt lat="45.6729604" lon="9.441441"><ele>260.0</ele><time>2026-04-16T14:13:01.599Z</time></trkpt><trkpt lat="45.6728624" lon="9.4413204"><ele>260.0</ele><time>2026-04-16T14:13:03.6Z</time></trkpt><trkpt lat="45.6728209" lon="9.4412434"><ele>260.0</ele><time>2026-04-16T14:13:04.599Z</time></trkpt><trkpt lat="45.6727767" lon="9.4411562"><ele>260.0</ele><time>2026-04-16T14:13:05.599Z</time></trkpt><trkpt lat="45.6727476" lon="9.4410447"><ele>260.0</ele><time>2026-04-16T14:13:06.599Z</time></trkpt><trkpt lat="45.6726521" lon="9.4409783"><ele>259.5</ele><time>2026-04-16T14:13:08.599Z</time></trkpt><trkpt lat="45.6725833" lon="9.4409726"><ele>259.0</ele><time>2026-04-16T14:13:09.6Z</time></trkpt><trkpt lat="45.6724916" lon="9.440873"><ele>258.5</ele><time>2026-04-16T14:13:11.599Z</time></trkpt><trkpt lat="45.6724378" lon="9.4407925"><ele>258.0</ele><time>2026-04-16T14:13:12.599Z</time></trkpt><trkpt lat="45.6723737" lon="9.4407609"><ele>257.5</ele><time>2026-04-16T14:13:13.599Z</time></trkpt><trkpt lat="45.6723227" lon="9.4407068"><ele>257.0</ele><time>2026-04-16T14:13:14.599Z</time></trkpt><trkpt lat="45.6722554" lon="9.4406188"><ele>257.0</ele><time>2026-04-16T14:13:15.599Z</time></trkpt><trkpt lat="45.6721934" lon="9.4405415"><ele>257.0</ele><time>2026-04-16T14:13:16.599Z</time></trkpt><trkpt lat="45.6721422" lon="9.4404849"><ele>257.0</ele><time>2026-04-16T14:13:17.599Z</time></trkpt><trkpt lat="45.6720819" lon="9.4404399"><ele>257.0</ele><time>2026-04-16T14:13:18.599Z</time></trkpt><trkpt lat="45.6720199" lon="9.4403769"><ele>257.0</ele><time>2026-04-16T14:13:19.6Z</time></trkpt><trkpt lat="45.6719603" lon="9.440304"><ele>257.0</ele><time>2026-04-16T14:13:20.599Z</time></trkpt><trkpt lat="45.6719021" lon="9.4402537"><ele>257.0</ele><time>2026-04-16T14:13:21.599Z</time></trkpt><trkpt lat="45.6718247" lon="9.4401884"><ele>256.5</ele><time>2026-04-16T14:13:22.599Z</time></trkpt><trkpt lat="45.6717203" lon="9.4400706"><ele>256.0</ele><time>2026-04-16T14:13:24.599Z</time></trkpt><trkpt lat="45.6716317" lon="9.4399789"><ele>255.5</ele><time>2026-04-16T14:13:26.599Z</time></trkpt><trkpt lat="45.6715392" lon="9.4398538"><ele>255.0</ele><time>2026-04-16T14:13:28.599Z</time></trkpt><trkpt lat="45.6714709" lon="9.4397731"><ele>255.0</ele><time>2026-04-16T14:13:29.6Z</time></trkpt><trkpt lat="45.6714047" lon="9.439717"><ele>255.0</ele><time>2026-04-16T14:13:30.599Z</time></trkpt><trkpt lat="45.6713454" lon="9.4396503"><ele>255.0</ele><time>2026-04-16T14:13:31.599Z</time></trkpt><trkpt lat="45.6712807" lon="9.4395887"><ele>255.0</ele><time>2026-04-16T14:13:32.6Z</time></trkpt><trkpt lat="45.671211" lon="9.439545"><ele>255.0</ele><time>2026-04-16T14:13:33.599Z</time></trkpt><trkpt lat="45.671167" lon="9.4394746"><ele>255.0</ele><time>2026-04-16T14:13:34.599Z</time></trkpt><trkpt lat="45.6710847" lon="9.4394052"><ele>254.66666666666666</ele><time>2026-04-16T14:13:35.599Z</time></trkpt><trkpt lat="45.6710132" lon="9.4393307"><ele>254.33333333333331</ele><time>2026-04-16T14:13:36.6Z</time></trkpt><trkpt lat="45.6709462" lon="9.4392702"><ele>254.0</ele><time>2026-04-16T14:13:37.599Z</time></trkpt><trkpt lat="45.6708626" lon="9.4392056"><ele>253.66666666666666</ele><time>2026-04-16T14:13:38.6Z</time></trkpt><trkpt lat="45.6707988" lon="9.4391488"><ele>253.33333333333331</ele><time>2026-04-16T14:13:39.599Z</time></trkpt><trkpt lat="45.6707349" lon="9.4390827"><ele>253.0</ele><time>2026-04-16T14:13:40.6Z</time></trkpt><trkpt lat="45.670667" lon="9.439018"><ele>253.0</ele><time>2026-04-16T14:13:41.6Z</time></trkpt><trkpt lat="45.6705968" lon="9.4389736"><ele>253.0</ele><time>2026-04-16T14:13:42.599Z</time></trkpt><trkpt lat="45.6705343" lon="9.4388888"><ele>253.0</ele><time>2026-04-16T14:13:43.6Z</time></trkpt><trkpt lat="45.6704921" lon="9.4388215"><ele>253.0</ele><time>2026-04-16T14:13:44.599Z</time></trkpt><trkpt lat="45.6704064" lon="9.4387814"><ele>253.0</ele><time>2026-04-16T14:13:45.599Z</time></trkpt><trkpt lat="45.6702961" lon="9.4386386"><ele>252.49999999999997</ele><time>2026-04-16T14:13:47.599Z</time></trkpt><trkpt lat="45.6702369" lon="9.4385974"><ele>252.0</ele><time>2026-04-16T14:13:48.599Z</time></trkpt><trkpt lat="45.6701554" lon="9.4385447"><ele>251.5</ele><time>2026-04-16T14:13:49.599Z</time></trkpt><trkpt lat="45.6700945" lon="9.4384919"><ele>251.0</ele><time>2026-04-16T14:13:50.6Z</time></trkpt><trkpt lat="45.6700205" lon="9.4384385"><ele>250.49999999999997</ele><time>2026-04-16T14:13:51.599Z</time></trkpt><trkpt lat="45.6699561" lon="9.4383788"><ele>250.0</ele><time>2026-04-16T14:13:52.599Z</time></trkpt><trkpt lat="45.6698521" lon="9.4382649"><ele>250.0</ele><time>2026-04-16T14:13:54.599Z</time></trkpt><trkpt lat="45.6697795" lon="9.4381345"><ele>250.0</ele><time>2026-04-16T14:13:56.599Z</time></trkpt><trkpt lat="45.6697555" lon="9.43796"><ele>250.0</ele><time>2026-04-16T14:13:58.599Z</time></trkpt><trkpt lat="45.6696796" lon="9.4378407"><ele>250.0</ele><time>2026-04-16T14:14:00.6Z</time></trkpt><trkpt lat="45.669581" lon="9.4378355"><ele>249.83333333333331</ele><time>2026-04-16T14:14:02.599Z</time></trkpt><trkpt lat="45.6695545" lon="9.4379217"><ele>249.66666666666666</ele><time>2026-04-16T14:14:03.599Z</time></trkpt><trkpt lat="45.669479" lon="9.4379594"><ele>249.5</ele><time>2026-04-16T14:14:05.599Z</time></trkpt><trkpt lat="45.6694062" lon="9.4379605"><ele>249.33333333333331</ele><time>2026-04-16T14:14:07.6Z</time></trkpt><trkpt lat="45.669323" lon="9.4378648"><ele>249.16666666666666</ele><time>2026-04-16T14:14:08.599Z</time></trkpt><trkpt lat="45.66927" lon="9.4378149"><ele>249.0</ele><time>2026-04-16T14:14:09.599Z</time></trkpt><trkpt lat="45.6691937" lon="9.4377874"><ele>249.0</ele><time>2026-04-16T14:14:10.599Z</time></trkpt><trkpt lat="45.6691418" lon="9.4377263"><ele>248.99999999999997</ele><time>2026-04-16T14:14:11.599Z</time></trkpt><trkpt lat="45.6690521" lon="9.4376183"><ele>248.99999999999997</ele><time>2026-04-16T14:14:13.599Z</time></trkpt><trkpt lat="45.6690003" lon="9.4375528"><ele>249.0</ele><time>2026-04-16T14:14:14.599Z</time></trkpt><trkpt lat="45.6689334" lon="9.4375058"><ele>249.0</ele><time>2026-04-16T14:14:15.6Z</time></trkpt><trkpt lat="45.668833" lon="9.4373949"><ele>249.0</ele><time>2026-04-16T14:14:17.599Z</time></trkpt><trkpt lat="45.6687715" lon="9.4373413"><ele>248.99999999999997</ele><time>2026-04-16T14:14:18.6Z</time></trkpt><trkpt lat="45.6687072" lon="9.4372914"><ele>248.99999999999997</ele><time>2026-04-16T14:14:19.6Z</time></trkpt><trkpt lat="45.6685915" lon="9.4371876"><ele>249.0</ele><time>2026-04-16T14:14:21.6Z</time></trkpt><trkpt lat="45.6684731" lon="9.437116"><ele>249.0</ele><time>2026-04-16T14:14:23.599Z</time></trkpt><trkpt lat="45.6683956" lon="9.4370992"><ele>249.16666666666666</ele><time>2026-04-16T14:14:24.599Z</time></trkpt><trkpt lat="45.6682806" lon="9.4370298"><ele>249.33333333333331</ele><time>2026-04-16T14:14:26.599Z</time></trkpt><trkpt lat="45.6682205" lon="9.4369764"><ele>249.5</ele><time>2026-04-16T14:14:27.599Z</time></trkpt><trkpt lat="45.6681609" lon="9.4369192"><ele>249.66666666666666</ele><time>2026-04-16T14:14:28.6Z</time></trkpt><trkpt lat="45.6680989" lon="9.4368662"><ele>249.83333333333331</ele><time>2026-04-16T14:14:29.599Z</time></trkpt><trkpt lat="45.6680363" lon="9.4368043"><ele>250.0</ele><time>2026-04-16T14:14:30.6Z</time></trkpt><trkpt lat="45.667983" lon="9.4367445"><ele>250.0</ele><time>2026-04-16T14:14:31.6Z</time></trkpt><trkpt lat="45.6679191" lon="9.4366903"><ele>250.0</ele><time>2026-04-16T14:14:32.599Z</time></trkpt><trkpt lat="45.6678582" lon="9.4366274"><ele>250.0</ele><time>2026-04-16T14:14:33.599Z</time></trkpt><trkpt lat="45.6678054" lon="9.4365628"><ele>250.0</ele><time>2026-04-16T14:14:34.599Z</time></trkpt><trkpt lat="45.6677454" lon="9.4365133"><ele>250.0</ele><time>2026-04-16T14:14:35.6Z</time></trkpt><trkpt lat="45.6676817" lon="9.4364621"><ele>250.0</ele><time>2026-04-16T14:14:36.599Z</time></trkpt><trkpt lat="45.667621" lon="9.4364089"><ele>250.0</ele><time>2026-04-16T14:14:37.599Z</time></trkpt><trkpt lat="45.6675603" lon="9.4363529"><ele>249.42857142857142</ele><time>2026-04-16T14:14:38.6Z</time></trkpt><trkpt lat="45.6675047" lon="9.4362866"><ele>248.8571428571429</ele><time>2026-04-16T14:14:39.599Z</time></trkpt><trkpt lat="45.6674469" lon="9.4362313"><ele>248.2857142857143</ele><time>2026-04-16T14:14:40.599Z</time></trkpt><trkpt lat="45.6673902" lon="9.4361736"><ele>247.71428571428572</ele><time>2026-04-16T14:14:41.6Z</time></trkpt><trkpt lat="45.6673271" lon="9.4361172"><ele>247.14285714285717</ele><time>2026-04-16T14:14:42.6Z</time></trkpt><trkpt lat="45.6672744" lon="9.4360491"><ele>246.5714285714286</ele><time>2026-04-16T14:14:43.6Z</time></trkpt><trkpt lat="45.6672178" lon="9.4359884"><ele>246.00000000000003</ele><time>2026-04-16T14:14:44.6Z</time></trkpt><trkpt lat="45.6671592" lon="9.4359308"><ele>246.00000000000003</ele><time>2026-04-16T14:14:45.599Z</time></trkpt><trkpt lat="45.6670981" lon="9.4358725"><ele>246.0</ele><time>2026-04-16T14:14:46.6Z</time></trkpt><trkpt lat="45.6670435" lon="9.4358083"><ele>246.00000000000003</ele><time>2026-04-16T14:14:47.599Z</time></trkpt><trkpt lat="45.6669876" lon="9.4357392"><ele>246.00000000000003</ele><time>2026-04-16T14:14:48.599Z</time></trkpt><trkpt lat="45.6669349" lon="9.4356678"><ele>246.0</ele><time>2026-04-16T14:14:49.599Z</time></trkpt><trkpt lat="45.6668851" lon="9.4356074"><ele>246.00000000000003</ele><time>2026-04-16T14:14:50.599Z</time></trkpt><trkpt lat="45.6668362" lon="9.4355416"><ele>246.00000000000003</ele><time>2026-04-16T14:14:51.6Z</time></trkpt><trkpt lat="45.6667912" lon="9.4354753"><ele>245.60000000000002</ele><time>2026-04-16T14:14:52.599Z</time></trkpt><trkpt lat="45.6667093" lon="9.4353784"><ele>245.20000000000002</ele><time>2026-04-16T14:14:54.599Z</time></trkpt><trkpt lat="45.6666426" lon="9.4352549"><ele>244.79999999999998</ele><time>2026-04-16T14:14:56.599Z</time></trkpt><trkpt lat="45.6665542" lon="9.4351467"><ele>244.39999999999998</ele><time>2026-04-16T14:14:58.599Z</time></trkpt><trkpt lat="45.6664628" lon="9.4350497"><ele>244.0</ele><time>2026-04-16T14:15:00.599Z</time></trkpt><trkpt lat="45.6663851" lon="9.4349348"><ele>244.0</ele><time>2026-04-16T14:15:02.599Z</time></trkpt><trkpt lat="45.6663007" lon="9.4348252"><ele>243.99999999999997</ele><time>2026-04-16T14:15:04.599Z</time></trkpt><trkpt lat="45.666253" lon="9.4347424"><ele>243.99999999999997</ele><time>2026-04-16T14:15:06.599Z</time></trkpt><trkpt lat="45.6662648" lon="9.4345802"><ele>244.0</ele><time>2026-04-16T14:15:09.005Z</time></trkpt><trkpt lat="45.6663242" lon="9.4344393"><ele>244.0</ele><time>2026-04-16T14:15:10.604Z</time></trkpt><trkpt lat="45.6663539" lon="9.4343598"><ele>243.66666666666666</ele><time>2026-04-16T14:15:11.604Z</time></trkpt><trkpt lat="45.666414" lon="9.4342065"><ele>243.33333333333331</ele><time>2026-04-16T14:15:13.607Z</time></trkpt><trkpt lat="45.6664439" lon="9.4341227"><ele>243.0</ele><time>2026-04-16T14:15:14.605Z</time></trkpt><trkpt lat="45.666506" lon="9.4339851"><ele>242.66666666666669</ele><time>2026-04-16T14:15:16.605Z</time></trkpt><trkpt lat="45.6665349" lon="9.4339038"><ele>242.33333333333334</ele><time>2026-04-16T14:15:17.605Z</time></trkpt><trkpt lat="45.6665667" lon="9.4338083"><ele>242.0</ele><time>2026-04-16T14:15:18.604Z</time></trkpt><trkpt lat="45.6665968" lon="9.4337281"><ele>242.0</ele><time>2026-04-16T14:15:19.604Z</time></trkpt><trkpt lat="45.6666275" lon="9.4336471"><ele>241.99999999999997</ele><time>2026-04-16T14:15:20.604Z</time></trkpt><trkpt lat="45.6666617" lon="9.4335682"><ele>242.0</ele><time>2026-04-16T14:15:21.604Z</time></trkpt><trkpt lat="45.6666922" lon="9.4334858"><ele>242.0</ele><time>2026-04-16T14:15:22.604Z</time></trkpt><trkpt lat="45.6667267" lon="9.4333934"><ele>241.99999999999997</ele><time>2026-04-16T14:15:23.604Z</time></trkpt><trkpt lat="45.6667525" lon="9.4333023"><ele>242.0</ele><time>2026-04-16T14:15:24.605Z</time></trkpt><trkpt lat="45.6667925" lon="9.4332113"><ele>242.0</ele><time>2026-04-16T14:15:25.604Z</time></trkpt><trkpt lat="45.666827" lon="9.4331341"><ele>242.00000000000003</ele><time>2026-04-16T14:15:26.605Z</time></trkpt><trkpt lat="45.6668507" lon="9.4330436"><ele>242.0</ele><time>2026-04-16T14:15:27.605Z</time></trkpt><trkpt lat="45.6668865" lon="9.4329582"><ele>242.0</ele><time>2026-04-16T14:15:28.604Z</time></trkpt><trkpt lat="45.6669163" lon="9.4328557"><ele>242.0</ele><time>2026-04-16T14:15:29.605Z</time></trkpt><trkpt lat="45.6669693" lon="9.4326951"><ele>242.00000000000003</ele><time>2026-04-16T14:15:31.604Z</time></trkpt><trkpt lat="45.6670176" lon="9.4326197"><ele>242.0</ele><time>2026-04-16T14:15:32.605Z</time></trkpt><trkpt lat="45.6670456" lon="9.4325326"><ele>242.16666666666669</ele><time>2026-04-16T14:15:33.604Z</time></trkpt><trkpt lat="45.6670588" lon="9.4324434"><ele>242.33333333333334</ele><time>2026-04-16T14:15:34.604Z</time></trkpt><trkpt lat="45.667009" lon="9.432289"><ele>242.5</ele><time>2026-04-16T14:15:36.604Z</time></trkpt><trkpt lat="45.6669542" lon="9.4322017"><ele>242.66666666666669</ele><time>2026-04-16T14:15:37.604Z</time></trkpt><trkpt lat="45.6669014" lon="9.4321406"><ele>242.83333333333334</ele><time>2026-04-16T14:15:38.604Z</time></trkpt><trkpt lat="45.6668438" lon="9.4320958"><ele>243.0</ele><time>2026-04-16T14:15:39.604Z</time></trkpt><trkpt lat="45.6667776" lon="9.4320574"><ele>242.71428571428572</ele><time>2026-04-16T14:15:40.605Z</time></trkpt><trkpt lat="45.6667187" lon="9.4319928"><ele>242.42857142857144</ele><time>2026-04-16T14:15:41.605Z</time></trkpt><trkpt lat="45.6666652" lon="9.4319288"><ele>242.14285714285717</ele><time>2026-04-16T14:15:42.604Z</time></trkpt><trkpt lat="45.666605" lon="9.4318719"><ele>241.85714285714286</ele><time>2026-04-16T14:15:43.605Z</time></trkpt><trkpt lat="45.6665516" lon="9.4318058"><ele>241.5714285714286</ele><time>2026-04-16T14:15:44.604Z</time></trkpt><trkpt lat="45.6664917" lon="9.4317597"><ele>241.2857142857143</ele><time>2026-04-16T14:15:45.605Z</time></trkpt><trkpt lat="45.6664348" lon="9.431693"><ele>241.0</ele><time>2026-04-16T14:15:46.604Z</time></trkpt><trkpt lat="45.6663264" lon="9.4315882"><ele>240.99999999999997</ele><time>2026-04-16T14:15:48.604Z</time></trkpt><trkpt lat="45.6662698" lon="9.4315271"><ele>241.0</ele><time>2026-04-16T14:15:49.604Z</time></trkpt><trkpt lat="45.6662275" lon="9.4314436"><ele>241.0</ele><time>2026-04-16T14:15:50.605Z</time></trkpt><trkpt lat="45.6661852" lon="9.4313637"><ele>241.0</ele><time>2026-04-16T14:15:51.604Z</time></trkpt><trkpt lat="45.6661389" lon="9.4312941"><ele>240.99999999999997</ele><time>2026-04-16T14:15:52.604Z</time></trkpt><trkpt lat="45.6660778" lon="9.4312451"><ele>241.0</ele><time>2026-04-16T14:15:53.604Z</time></trkpt><trkpt lat="45.6659551" lon="9.4311936"><ele>241.14285714285717</ele><time>2026-04-16T14:15:55.604Z</time></trkpt><trkpt lat="45.6658887" lon="9.4311395"><ele>241.2857142857143</ele><time>2026-04-16T14:15:56.604Z</time></trkpt><trkpt lat="45.6658307" lon="9.4310883"><ele>241.42857142857144</ele><time>2026-04-16T14:15:57.604Z</time></trkpt><trkpt lat="45.6657701" lon="9.431024"><ele>241.57142857142856</ele><time>2026-04-16T14:15:58.604Z</time></trkpt><trkpt lat="45.6657097" lon="9.4309675"><ele>241.7142857142857</ele><time>2026-04-16T14:15:59.604Z</time></trkpt><trkpt lat="45.6656564" lon="9.430915"><ele>241.85714285714283</ele><time>2026-04-16T14:16:00.604Z</time></trkpt><trkpt lat="45.665595" lon="9.4308622"><ele>242.0</ele><time>2026-04-16T14:16:01.604Z</time></trkpt><trkpt lat="45.6655408" lon="9.4308036"><ele>242.0</ele><time>2026-04-16T14:16:02.604Z</time></trkpt><trkpt lat="45.6654863" lon="9.430751"><ele>241.99999999999997</ele><time>2026-04-16T14:16:03.604Z</time></trkpt><trkpt lat="45.6654278" lon="9.4306903"><ele>242.0</ele><time>2026-04-16T14:16:04.604Z</time></trkpt><trkpt lat="45.6653659" lon="9.430642"><ele>242.0</ele><time>2026-04-16T14:16:05.604Z</time></trkpt><trkpt lat="45.6653099" lon="9.4305798"><ele>241.99999999999997</ele><time>2026-04-16T14:16:06.604Z</time></trkpt><trkpt lat="45.6652542" lon="9.43052"><ele>242.0</ele><time>2026-04-16T14:16:07.605Z</time></trkpt><trkpt lat="45.665195" lon="9.4304628"><ele>242.0</ele><time>2026-04-16T14:16:08.604Z</time></trkpt><trkpt lat="45.665091" lon="9.4303754"><ele>241.83333333333334</ele><time>2026-04-16T14:16:10.604Z</time></trkpt><trkpt lat="45.6650352" lon="9.4303218"><ele>241.66666666666669</ele><time>2026-04-16T14:16:11.605Z</time></trkpt><trkpt lat="45.6649787" lon="9.4302608"><ele>241.5</ele><time>2026-04-16T14:16:12.604Z</time></trkpt><trkpt lat="45.6649183" lon="9.4302108"><ele>241.33333333333331</ele><time>2026-04-16T14:16:13.604Z</time></trkpt><trkpt lat="45.6648582" lon="9.4301481"><ele>241.16666666666666</ele><time>2026-04-16T14:16:14.604Z</time></trkpt><trkpt lat="45.6647899" lon="9.430089"><ele>241.0</ele><time>2026-04-16T14:16:15.604Z</time></trkpt><trkpt lat="45.6646746" lon="9.4300047"><ele>241.0</ele><time>2026-04-16T14:16:17.605Z</time></trkpt><trkpt lat="45.6646237" lon="9.4299485"><ele>241.00000000000003</ele><time>2026-04-16T14:16:18.604Z</time></trkpt><trkpt lat="45.6645595" lon="9.4298766"><ele>241.0</ele><time>2026-04-16T14:16:19.604Z</time></trkpt><trkpt lat="45.6644878" lon="9.4298006"><ele>241.0</ele><time>2026-04-16T14:16:20.605Z</time></trkpt><trkpt lat="45.6644228" lon="9.4297387"><ele>241.00000000000003</ele><time>2026-04-16T14:16:21.604Z</time></trkpt><trkpt lat="45.6643695" lon="9.4296811"><ele>241.0</ele><time>2026-04-16T14:16:22.604Z</time></trkpt><trkpt lat="45.6643164" lon="9.4296231"><ele>241.0</ele><time>2026-04-16T14:16:23.604Z</time></trkpt><trkpt lat="45.6642613" lon="9.4295673"><ele>240.49999999999997</ele><time>2026-04-16T14:16:24.604Z</time></trkpt><trkpt lat="45.6641518" lon="9.4294433"><ele>240.0</ele><time>2026-04-16T14:16:26.604Z</time></trkpt><trkpt lat="45.6640893" lon="9.4293845"><ele>239.5</ele><time>2026-04-16T14:16:27.604Z</time></trkpt><trkpt lat="45.6640343" lon="9.4293294"><ele>239.0</ele><time>2026-04-16T14:16:28.604Z</time></trkpt><trkpt lat="45.6639725" lon="9.4292739"><ele>238.49999999999997</ele><time>2026-04-16T14:16:29.605Z</time></trkpt><trkpt lat="45.6639156" lon="9.4292204"><ele>238.0</ele><time>2026-04-16T14:16:30.605Z</time></trkpt><trkpt lat="45.6638559" lon="9.4291546"><ele>237.99999999999997</ele><time>2026-04-16T14:16:31.604Z</time></trkpt><trkpt lat="45.663805" lon="9.4290925"><ele>238.0</ele><time>2026-04-16T14:16:32.605Z</time></trkpt><trkpt lat="45.6637534" lon="9.4290379"><ele>238.0</ele><time>2026-04-16T14:16:33.604Z</time></trkpt><trkpt lat="45.6636906" lon="9.4289521"><ele>238.0</ele><time>2026-04-16T14:16:34.604Z</time></trkpt><trkpt lat="45.6635765" lon="9.4288791"><ele>237.99999999999997</ele><time>2026-04-16T14:16:36.604Z</time></trkpt><trkpt lat="45.6635218" lon="9.4288251"><ele>238.0</ele><time>2026-04-16T14:16:37.604Z</time></trkpt><trkpt lat="45.6634603" lon="9.4287739"><ele>238.16666666666666</ele><time>2026-04-16T14:16:38.605Z</time></trkpt><trkpt lat="45.6634022" lon="9.4287248"><ele>238.33333333333331</ele><time>2026-04-16T14:16:39.604Z</time></trkpt><trkpt lat="45.6633437" lon="9.4286852"><ele>238.5</ele><time>2026-04-16T14:16:40.604Z</time></trkpt><trkpt lat="45.6632328" lon="9.4286135"><ele>238.66666666666669</ele><time>2026-04-16T14:16:42.604Z</time></trkpt><trkpt lat="45.663149" lon="9.4284733"><ele>238.83333333333334</ele><time>2026-04-16T14:16:44.605Z</time></trkpt><trkpt lat="45.6631259" lon="9.4283886"><ele>239.0</ele><time>2026-04-16T14:16:45.604Z</time></trkpt><trkpt lat="45.6631102" lon="9.4282952"><ele>239.0</ele><time>2026-04-16T14:16:46.604Z</time></trkpt><trkpt lat="45.6631079" lon="9.428191"><ele>238.99999999999997</ele><time>2026-04-16T14:16:47.605Z</time></trkpt><trkpt lat="45.6631136" lon="9.4280863"><ele>238.99999999999997</ele><time>2026-04-16T14:16:48.604Z</time></trkpt><trkpt lat="45.6631313" lon="9.4278895"><ele>239.0</ele><time>2026-04-16T14:16:50.604Z</time></trkpt><trkpt lat="45.66314" lon="9.4277064"><ele>239.0</ele><time>2026-04-16T14:16:52.604Z</time></trkpt><trkpt lat="45.6631458" lon="9.4276105"><ele>239.25</ele><time>2026-04-16T14:16:53.604Z</time></trkpt><trkpt lat="45.6631762" lon="9.4274328"><ele>239.5</ele><time>2026-04-16T14:16:55.604Z</time></trkpt><trkpt lat="45.663213" lon="9.4272649"><ele>239.75</ele><time>2026-04-16T14:16:57.604Z</time></trkpt><trkpt lat="45.6632476" lon="9.427152"><ele>240.0</ele><time>2026-04-16T14:16:59.604Z</time></trkpt><trkpt lat="45.6630578" lon="9.4269512"><ele>240.4</ele><time>2026-04-16T14:17:11.604Z</time></trkpt><trkpt lat="45.6629714" lon="9.4268824"><ele>240.8</ele><time>2026-04-16T14:17:13.605Z</time></trkpt><trkpt lat="45.6628873" lon="9.4267849"><ele>241.2</ele><time>2026-04-16T14:17:15.604Z</time></trkpt><trkpt lat="45.6628363" lon="9.426714"><ele>241.6</ele><time>2026-04-16T14:17:16.604Z</time></trkpt><trkpt lat="45.6627514" lon="9.4266229"><ele>242.0</ele><time>2026-04-16T14:17:18.604Z</time></trkpt><trkpt lat="45.662651" lon="9.4265302"><ele>241.0</ele><time>2026-04-16T14:17:20.604Z</time></trkpt><trkpt lat="45.6625976" lon="9.4264815"><ele>240.0</ele><time>2026-04-16T14:17:21.604Z</time></trkpt><trkpt lat="45.6625375" lon="9.4264474"><ele>239.0</ele><time>2026-04-16T14:17:22.604Z</time></trkpt><trkpt lat="45.6624796" lon="9.4263923"><ele>238.0</ele><time>2026-04-16T14:17:23.604Z</time></trkpt><trkpt lat="45.6623662" lon="9.4262925"><ele>237.0</ele><time>2026-04-16T14:17:25.604Z</time></trkpt><trkpt lat="45.6622592" lon="9.4261764"><ele>237.0</ele><time>2026-04-16T14:17:27.605Z</time></trkpt><trkpt lat="45.6622069" lon="9.4261182"><ele>237.0</ele><time>2026-04-16T14:17:28.604Z</time></trkpt><trkpt lat="45.6621046" lon="9.4260301"><ele>237.0</ele><time>2026-04-16T14:17:30.604Z</time></trkpt><trkpt lat="45.6620351" lon="9.4259886"><ele>237.0</ele><time>2026-04-16T14:17:31.605Z</time></trkpt><trkpt lat="45.6619801" lon="9.425941"><ele>237.0</ele><time>2026-04-16T14:17:32.605Z</time></trkpt><trkpt lat="45.661874" lon="9.4258392"><ele>237.5</ele><time>2026-04-16T14:17:34.604Z</time></trkpt><trkpt lat="45.6618167" lon="9.4257801"><ele>238.0</ele><time>2026-04-16T14:17:35.604Z</time></trkpt><trkpt lat="45.6617075" lon="9.4257067"><ele>238.5</ele><time>2026-04-16T14:17:37.604Z</time></trkpt><trkpt lat="45.6616426" lon="9.4256649"><ele>239.0</ele><time>2026-04-16T14:17:38.605Z</time></trkpt><trkpt lat="45.6615946" lon="9.4256066"><ele>239.5</ele><time>2026-04-16T14:17:39.604Z</time></trkpt><trkpt lat="45.6615291" lon="9.4255451"><ele>240.0</ele><time>2026-04-16T14:17:40.604Z</time></trkpt><trkpt lat="45.6614746" lon="9.4254795"><ele>240.0</ele><time>2026-04-16T14:17:41.604Z</time></trkpt><trkpt lat="45.661419" lon="9.4254109"><ele>240.0</ele><time>2026-04-16T14:17:42.604Z</time></trkpt><trkpt lat="45.6613586" lon="9.4253499"><ele>240.0</ele><time>2026-04-16T14:17:43.604Z</time></trkpt><trkpt lat="45.6612992" lon="9.4252888"><ele>240.0</ele><time>2026-04-16T14:17:44.605Z</time></trkpt><trkpt lat="45.6612397" lon="9.4252277"><ele>240.0</ele><time>2026-04-16T14:17:45.604Z</time></trkpt><trkpt lat="45.6611261" lon="9.4251084"><ele>240.0</ele><time>2026-04-16T14:17:47.604Z</time></trkpt><trkpt lat="45.66102" lon="9.424987"><ele>240.16666666666666</ele><time>2026-04-16T14:17:49.604Z</time></trkpt><trkpt lat="45.6609541" lon="9.4249382"><ele>240.33333333333331</ele><time>2026-04-16T14:17:50.605Z</time></trkpt><trkpt lat="45.6608511" lon="9.4248669"><ele>240.5</ele><time>2026-04-16T14:17:52.604Z</time></trkpt><trkpt lat="45.6607945" lon="9.4248122"><ele>240.66666666666666</ele><time>2026-04-16T14:17:53.604Z</time></trkpt><trkpt lat="45.6607375" lon="9.4247422"><ele>240.83333333333331</ele><time>2026-04-16T14:17:54.604Z</time></trkpt><trkpt lat="45.6606741" lon="9.4246822"><ele>241.0</ele><time>2026-04-16T14:17:55.605Z</time></trkpt><trkpt lat="45.6606169" lon="9.4246208"><ele>241.0</ele><time>2026-04-16T14:17:56.605Z</time></trkpt><trkpt lat="45.6605607" lon="9.4245738"><ele>241.00000000000003</ele><time>2026-04-16T14:17:57.604Z</time></trkpt><trkpt lat="45.6605031" lon="9.4245274"><ele>241.0</ele><time>2026-04-16T14:17:58.604Z</time></trkpt><trkpt lat="45.6604479" lon="9.4244659"><ele>241.0</ele><time>2026-04-16T14:17:59.604Z</time></trkpt><trkpt lat="45.6603924" lon="9.4244079"><ele>241.00000000000003</ele><time>2026-04-16T14:18:00.604Z</time></trkpt><trkpt lat="45.6603361" lon="9.4243575"><ele>241.0</ele><time>2026-04-16T14:18:01.604Z</time></trkpt><trkpt lat="45.6602815" lon="9.4242922"><ele>241.0</ele><time>2026-04-16T14:18:02.604Z</time></trkpt><trkpt lat="45.6601692" lon="9.424186"><ele>240.49999999999997</ele><time>2026-04-16T14:18:04.605Z</time></trkpt><trkpt lat="45.660105" lon="9.4241287"><ele>240.0</ele><time>2026-04-16T14:18:05.604Z</time></trkpt><trkpt lat="45.6600487" lon="9.4240797"><ele>239.5</ele><time>2026-04-16T14:18:06.604Z</time></trkpt><trkpt lat="45.6599948" lon="9.4240289"><ele>239.0</ele><time>2026-04-16T14:18:07.604Z</time></trkpt><trkpt lat="45.6599366" lon="9.4239748"><ele>238.49999999999997</ele><time>2026-04-16T14:18:08.605Z</time></trkpt><trkpt lat="45.6598787" lon="9.423929"><ele>238.0</ele><time>2026-04-16T14:18:09.604Z</time></trkpt><trkpt lat="45.6597726" lon="9.4238422"><ele>238.0</ele><time>2026-04-16T14:18:11.604Z</time></trkpt><trkpt lat="45.6597164" lon="9.4238004"><ele>238.0</ele><time>2026-04-16T14:18:12.604Z</time></trkpt><trkpt lat="45.6596524" lon="9.4237796"><ele>238.0</ele><time>2026-04-16T14:18:13.604Z</time></trkpt><trkpt lat="45.6595147" lon="9.4237866"><ele>238.0</ele><time>2026-04-16T14:18:15.604Z</time></trkpt><trkpt lat="45.6594737" lon="9.4238671"><ele>238.0</ele><time>2026-04-16T14:18:16.604Z</time></trkpt><trkpt lat="45.6593814" lon="9.4239667"><ele>237.4</ele><time>2026-04-16T14:18:18.605Z</time></trkpt><trkpt lat="45.6593365" lon="9.424033"><ele>236.8</ele><time>2026-04-16T14:18:19.605Z</time></trkpt><trkpt lat="45.6592346" lon="9.4241178"><ele>236.2</ele><time>2026-04-16T14:18:21.604Z</time></trkpt><trkpt lat="45.6591353" lon="9.4240983"><ele>235.6</ele><time>2026-04-16T14:18:23.604Z</time></trkpt><trkpt lat="45.6590858" lon="9.4240392"><ele>235.0</ele><time>2026-04-16T14:18:24.604Z</time></trkpt><trkpt lat="45.6589855" lon="9.423925"><ele>235.0</ele><time>2026-04-16T14:18:26.605Z</time></trkpt><trkpt lat="45.658893" lon="9.4238277"><ele>235.0</ele><time>2026-04-16T14:18:28.604Z</time></trkpt><trkpt lat="45.6587845" lon="9.4237332"><ele>235.0</ele><time>2026-04-16T14:18:30.604Z</time></trkpt><trkpt lat="45.6586734" lon="9.4236505"><ele>235.0</ele><time>2026-04-16T14:18:32.605Z</time></trkpt><trkpt lat="45.6586154" lon="9.4236004"><ele>235.0</ele><time>2026-04-16T14:18:33.605Z</time></trkpt><trkpt lat="45.6585533" lon="9.4235365"><ele>235.0</ele><time>2026-04-16T14:18:34.605Z</time></trkpt><trkpt lat="45.6584933" lon="9.4234728"><ele>234.99999999999997</ele><time>2026-04-16T14:18:35.605Z</time></trkpt><trkpt lat="45.6584387" lon="9.4234151"><ele>235.0</ele><time>2026-04-16T14:18:36.604Z</time></trkpt><trkpt lat="45.6583779" lon="9.4233707"><ele>235.0</ele><time>2026-04-16T14:18:37.604Z</time></trkpt><trkpt lat="45.6583163" lon="9.42332"><ele>234.99999999999997</ele><time>2026-04-16T14:18:38.605Z</time></trkpt><trkpt lat="45.6582556" lon="9.4232701"><ele>235.0</ele><time>2026-04-16T14:18:39.605Z</time></trkpt><trkpt lat="45.6581985" lon="9.4232202"><ele>235.0</ele><time>2026-04-16T14:18:40.604Z</time></trkpt><trkpt lat="45.6581382" lon="9.4231834"><ele>235.0</ele><time>2026-04-16T14:18:41.604Z</time></trkpt><trkpt lat="45.6580798" lon="9.4231425"><ele>235.0</ele><time>2026-04-16T14:18:42.605Z</time></trkpt><trkpt lat="45.6579732" lon="9.4230729"><ele>235.0</ele><time>2026-04-16T14:18:44.604Z</time></trkpt><trkpt lat="45.6579069" lon="9.4230023"><ele>235.0</ele><time>2026-04-16T14:18:46.604Z</time></trkpt><trkpt lat="45.6577838" lon="9.4229918"><ele>235.0</ele><time>2026-04-16T14:18:48.605Z</time></trkpt><trkpt lat="45.65772" lon="9.4229784"><ele>235.16666666666666</ele><time>2026-04-16T14:18:49.604Z</time></trkpt><trkpt lat="45.6576443" lon="9.4229858"><ele>235.33333333333331</ele><time>2026-04-16T14:18:50.605Z</time></trkpt><trkpt lat="45.657565" lon="9.422974"><ele>235.5</ele><time>2026-04-16T14:18:51.605Z</time></trkpt><trkpt lat="45.6575003" lon="9.4229613"><ele>235.66666666666669</ele><time>2026-04-16T14:18:52.605Z</time></trkpt><trkpt lat="45.6574224" lon="9.4229523"><ele>235.83333333333334</ele><time>2026-04-16T14:18:53.605Z</time></trkpt><trkpt lat="45.6573018" lon="9.4229315"><ele>236.0</ele><time>2026-04-16T14:18:55.604Z</time></trkpt><trkpt lat="45.6571509" lon="9.4228917"><ele>236.0</ele><time>2026-04-16T14:18:57.604Z</time></trkpt><trkpt lat="45.6570254" lon="9.422874"><ele>236.00000000000003</ele><time>2026-04-16T14:18:59.604Z</time></trkpt><trkpt lat="45.6569612" lon="9.4228656"><ele>236.00000000000003</ele><time>2026-04-16T14:19:00.605Z</time></trkpt><trkpt lat="45.6568554" lon="9.4228071"><ele>236.0</ele><time>2026-04-16T14:19:02.605Z</time></trkpt><trkpt lat="45.656784" lon="9.4227798"><ele>236.0</ele><time>2026-04-16T14:19:03.605Z</time></trkpt><trkpt lat="45.6566888" lon="9.4227188"><ele>236.0</ele><time>2026-04-16T14:19:05.604Z</time></trkpt><trkpt lat="45.6565897" lon="9.4226697"><ele>236.00000000000003</ele><time>2026-04-16T14:19:07.604Z</time></trkpt><trkpt lat="45.6565267" lon="9.4226529"><ele>236.00000000000003</ele><time>2026-04-16T14:19:08.605Z</time></trkpt><trkpt lat="45.6564166" lon="9.4225928"><ele>236.0</ele><time>2026-04-16T14:19:10.604Z</time></trkpt><trkpt lat="45.6562993" lon="9.4225361"><ele>236.0</ele><time>2026-04-16T14:19:12.604Z</time></trkpt><trkpt lat="45.656198" lon="9.4224762"><ele>236.00000000000003</ele><time>2026-04-16T14:19:14.604Z</time></trkpt><trkpt lat="45.656134" lon="9.4224682"><ele>236.0</ele><time>2026-04-16T14:19:15.605Z</time></trkpt><trkpt lat="45.6560671" lon="9.4224335"><ele>236.0</ele><time>2026-04-16T14:19:16.604Z</time></trkpt><trkpt lat="45.6559954" lon="9.4224088"><ele>236.0</ele><time>2026-04-16T14:19:17.605Z</time></trkpt><trkpt lat="45.6558902" lon="9.4223553"><ele>236.00000000000003</ele><time>2026-04-16T14:19:19.605Z</time></trkpt><trkpt lat="45.6557996" lon="9.4222904"><ele>236.0</ele><time>2026-04-16T14:19:21.604Z</time></trkpt><trkpt lat="45.6557428" lon="9.4222391"><ele>235.8</ele><time>2026-04-16T14:19:22.605Z</time></trkpt><trkpt lat="45.6556755" lon="9.4221857"><ele>235.60000000000002</ele><time>2026-04-16T14:19:23.604Z</time></trkpt><trkpt lat="45.6555686" lon="9.422097"><ele>235.4</ele><time>2026-04-16T14:19:25.604Z</time></trkpt><trkpt lat="45.6554705" lon="9.4219985"><ele>235.2</ele><time>2026-04-16T14:19:27.604Z</time></trkpt><trkpt lat="45.6554175" lon="9.4219484"><ele>235.0</ele><time>2026-04-16T14:19:28.604Z</time></trkpt><trkpt lat="45.6553111" lon="9.4218728"><ele>235.16666666666666</ele><time>2026-04-16T14:19:30.604Z</time></trkpt><trkpt lat="45.6552402" lon="9.4218447"><ele>235.33333333333331</ele><time>2026-04-16T14:19:31.604Z</time></trkpt><trkpt lat="45.6551191" lon="9.421802"><ele>235.5</ele><time>2026-04-16T14:19:33.604Z</time></trkpt><trkpt lat="45.6550483" lon="9.421786"><ele>235.66666666666669</ele><time>2026-04-16T14:19:34.604Z</time></trkpt><trkpt lat="45.654977" lon="9.4217793"><ele>235.83333333333334</ele><time>2026-04-16T14:19:35.604Z</time></trkpt><trkpt lat="45.6549038" lon="9.4217604"><ele>236.0</ele><time>2026-04-16T14:19:36.604Z</time></trkpt><trkpt lat="45.6548338" lon="9.421747"><ele>236.0</ele><time>2026-04-16T14:19:37.604Z</time></trkpt><trkpt lat="45.6547628" lon="9.4217334"><ele>236.00000000000003</ele><time>2026-04-16T14:19:38.605Z</time></trkpt><trkpt lat="45.6546572" lon="9.421706"><ele>236.00000000000003</ele><time>2026-04-16T14:19:40.604Z</time></trkpt><trkpt lat="45.6545844" lon="9.4217025"><ele>236.0</ele><time>2026-04-16T14:19:42.605Z</time></trkpt><trkpt lat="45.6545017" lon="9.4216961"><ele>236.0</ele><time>2026-04-16T14:19:44.605Z</time></trkpt><trkpt lat="45.6543863" lon="9.4216942"><ele>235.8</ele><time>2026-04-16T14:19:46.604Z</time></trkpt><trkpt lat="45.6542639" lon="9.4217333"><ele>235.60000000000002</ele><time>2026-04-16T14:19:48.604Z</time></trkpt><trkpt lat="45.6541755" lon="9.4217814"><ele>235.4</ele><time>2026-04-16T14:19:49.605Z</time></trkpt><trkpt lat="45.6541114" lon="9.4218332"><ele>235.2</ele><time>2026-04-16T14:19:50.604Z</time></trkpt><trkpt lat="45.6540308" lon="9.4218667"><ele>235.0</ele><time>2026-04-16T14:19:51.605Z</time></trkpt><trkpt lat="45.653957" lon="9.4218831"><ele>234.99999999999997</ele><time>2026-04-16T14:19:52.605Z</time></trkpt><trkpt lat="45.6538439" lon="9.4218909"><ele>235.0</ele><time>2026-04-16T14:19:54.604Z</time></trkpt><trkpt lat="45.65378" lon="9.4219"><ele>235.0</ele><time>2026-04-16T14:19:55.604Z</time></trkpt><trkpt lat="45.6537149" lon="9.4219228"><ele>235.0</ele><time>2026-04-16T14:19:56.604Z</time></trkpt><trkpt lat="45.6536244" lon="9.4219242"><ele>234.99999999999997</ele><time>2026-04-16T14:19:57.604Z</time></trkpt><trkpt lat="45.6535551" lon="9.4219401"><ele>235.0</ele><time>2026-04-16T14:19:58.605Z</time></trkpt><trkpt lat="45.6534928" lon="9.4219547"><ele>235.4</ele><time>2026-04-16T14:19:59.605Z</time></trkpt><trkpt lat="45.6533832" lon="9.4219579"><ele>235.8</ele><time>2026-04-16T14:20:01.604Z</time></trkpt><trkpt lat="45.6532998" lon="9.4219547"><ele>236.2</ele><time>2026-04-16T14:20:03.604Z</time></trkpt><trkpt lat="45.6532164" lon="9.4219532"><ele>236.6</ele><time>2026-04-16T14:20:05.605Z</time></trkpt><trkpt lat="45.6531059" lon="9.421923"><ele>237.0</ele><time>2026-04-16T14:20:07.605Z</time></trkpt><trkpt lat="45.653" lon="9.421915"><ele>237.0</ele><time>2026-04-16T14:20:09.605Z</time></trkpt><trkpt lat="45.6528885" lon="9.4219006"><ele>237.0</ele><time>2026-04-16T14:20:11.604Z</time></trkpt><trkpt lat="45.6528246" lon="9.4218984"><ele>237.0</ele><time>2026-04-16T14:20:12.604Z</time></trkpt><trkpt lat="45.6526903" lon="9.4218833"><ele>237.0</ele><time>2026-04-16T14:20:14.605Z</time></trkpt><trkpt lat="45.6525635" lon="9.4218611"><ele>237.0</ele><time>2026-04-16T14:20:16.604Z</time></trkpt><trkpt lat="45.6524946" lon="9.4218266"><ele>237.16666666666666</ele><time>2026-04-16T14:20:17.604Z</time></trkpt><trkpt lat="45.6524319" lon="9.4218184"><ele>237.33333333333331</ele><time>2026-04-16T14:20:18.604Z</time></trkpt><trkpt lat="45.6523543" lon="9.421808"><ele>237.5</ele><time>2026-04-16T14:20:19.604Z</time></trkpt><trkpt lat="45.6522779" lon="9.4218033"><ele>237.66666666666666</ele><time>2026-04-16T14:20:20.605Z</time></trkpt><trkpt lat="45.6522113" lon="9.4217943"><ele>237.83333333333331</ele><time>2026-04-16T14:20:21.604Z</time></trkpt><trkpt lat="45.6521482" lon="9.421778"><ele>238.0</ele><time>2026-04-16T14:20:22.604Z</time></trkpt><trkpt lat="45.6520222" lon="9.4217496"><ele>237.60000000000002</ele><time>2026-04-16T14:20:24.605Z</time></trkpt><trkpt lat="45.6519126" lon="9.4217007"><ele>237.20000000000002</ele><time>2026-04-16T14:20:26.604Z</time></trkpt><trkpt lat="45.6517914" lon="9.4216706"><ele>236.8</ele><time>2026-04-16T14:20:28.604Z</time></trkpt><trkpt lat="45.6517173" lon="9.4217227"><ele>236.4</ele><time>2026-04-16T14:20:31.604Z</time></trkpt><trkpt lat="45.6516825" lon="9.4218177"><ele>236.0</ele><time>2026-04-16T14:20:34.604Z</time></trkpt><trkpt lat="45.651644" lon="9.421919"><ele>236.0</ele><time>2026-04-16T14:20:37.605Z</time></trkpt><trkpt lat="45.6516174" lon="9.4220415"><ele>236.00000000000003</ele><time>2026-04-16T14:20:39.604Z</time></trkpt><trkpt lat="45.651594" lon="9.4221641"><ele>236.00000000000003</ele><time>2026-04-16T14:20:41.604Z</time></trkpt><trkpt lat="45.6515675" lon="9.422317"><ele>236.0</ele><time>2026-04-16T14:20:43.605Z</time></trkpt><trkpt lat="45.6515261" lon="9.422453"><ele>236.0</ele><time>2026-04-16T14:20:45.604Z</time></trkpt><trkpt lat="45.6514547" lon="9.422489"><ele>235.50000000000003</ele><time>2026-04-16T14:20:47.605Z</time></trkpt><trkpt lat="45.6513761" lon="9.4225146"><ele>235.0</ele><time>2026-04-16T14:20:48.605Z</time></trkpt><trkpt lat="45.6513085" lon="9.4224802"><ele>234.5</ele><time>2026-04-16T14:20:50.604Z</time></trkpt><trkpt lat="45.6512142" lon="9.4224822"><ele>234.0</ele><time>2026-04-16T14:20:52.605Z</time></trkpt><trkpt lat="45.6511378" lon="9.4224681"><ele>233.50000000000003</ele><time>2026-04-16T14:20:54.604Z</time></trkpt><trkpt lat="45.6510489" lon="9.4224804"><ele>233.0</ele><time>2026-04-16T14:20:56.604Z</time></trkpt><trkpt lat="45.6509328" lon="9.4224607"><ele>233.00000000000003</ele><time>2026-04-16T14:20:58.605Z</time></trkpt><trkpt lat="45.65087" lon="9.4224516"><ele>233.0</ele><time>2026-04-16T14:20:59.604Z</time></trkpt><trkpt lat="45.650804" lon="9.4224328"><ele>233.0</ele><time>2026-04-16T14:21:00.604Z</time></trkpt><trkpt lat="45.6506857" lon="9.4224064"><ele>233.0</ele><time>2026-04-16T14:21:02.604Z</time></trkpt><trkpt lat="45.6506206" lon="9.4223794"><ele>233.00000000000003</ele><time>2026-04-16T14:21:03.604Z</time></trkpt><trkpt lat="45.6504962" lon="9.4223707"><ele>233.0</ele><time>2026-04-16T14:21:05.604Z</time></trkpt><trkpt lat="45.6504028" lon="9.4224152"><ele>233.00000000000003</ele><time>2026-04-16T14:21:07.604Z</time></trkpt><trkpt lat="45.650326" lon="9.422449"><ele>233.0</ele><time>2026-04-16T14:21:09.605Z</time></trkpt><trkpt lat="45.6502269" lon="9.4224693"><ele>233.0</ele><time>2026-04-16T14:21:11.604Z</time></trkpt><trkpt lat="45.6501249" lon="9.4224513"><ele>233.0</ele><time>2026-04-16T14:21:13.604Z</time></trkpt><trkpt lat="45.6500612" lon="9.4224323"><ele>233.00000000000003</ele><time>2026-04-16T14:21:15.605Z</time></trkpt><trkpt lat="45.6499668" lon="9.4224039"><ele>233.0</ele><time>2026-04-16T14:21:17.604Z</time></trkpt><trkpt lat="45.6498522" lon="9.4223491"><ele>233.16666666666669</ele><time>2026-04-16T14:21:19.604Z</time></trkpt><trkpt lat="45.6497373" lon="9.4223202"><ele>233.33333333333334</ele><time>2026-04-16T14:21:21.604Z</time></trkpt><trkpt lat="45.6496682" lon="9.4223125"><ele>233.5</ele><time>2026-04-16T14:21:22.604Z</time></trkpt><trkpt lat="45.6495977" lon="9.4223075"><ele>233.66666666666669</ele><time>2026-04-16T14:21:23.604Z</time></trkpt><trkpt lat="45.649531" lon="9.4223057"><ele>233.83333333333334</ele><time>2026-04-16T14:21:24.604Z</time></trkpt><trkpt lat="45.6494646" lon="9.4223021"><ele>234.0</ele><time>2026-04-16T14:21:25.605Z</time></trkpt><trkpt lat="45.6493979" lon="9.4222979"><ele>233.66666666666666</ele><time>2026-04-16T14:21:26.605Z</time></trkpt><trkpt lat="45.6493107" lon="9.4222853"><ele>233.33333333333331</ele><time>2026-04-16T14:21:27.604Z</time></trkpt><trkpt lat="45.6492469" lon="9.4222728"><ele>233.0</ele><time>2026-04-16T14:21:28.604Z</time></trkpt><trkpt lat="45.6491158" lon="9.4222586"><ele>232.66666666666666</ele><time>2026-04-16T14:21:30.604Z</time></trkpt><trkpt lat="45.6490523" lon="9.4222761"><ele>232.33333333333331</ele><time>2026-04-16T14:21:31.604Z</time></trkpt><trkpt lat="45.648995" lon="9.4223546"><ele>232.0</ele><time>2026-04-16T14:21:33.604Z</time></trkpt><trkpt lat="45.6489857" lon="9.4224629"><ele>231.99999999999997</ele><time>2026-04-16T14:21:35.605Z</time></trkpt><trkpt lat="45.6489576" lon="9.4225709"><ele>232.0</ele><time>2026-04-16T14:21:37.605Z</time></trkpt><trkpt lat="45.6489646" lon="9.4226889"><ele>232.0</ele><time>2026-04-16T14:21:39.604Z</time></trkpt><trkpt lat="45.6489665" lon="9.4228028"><ele>232.0</ele><time>2026-04-16T14:21:41.604Z</time></trkpt><trkpt lat="45.6489654" lon="9.422912"><ele>231.99999999999997</ele><time>2026-04-16T14:21:43.604Z</time></trkpt><trkpt lat="45.6489607" lon="9.4230176"><ele>232.0</ele><time>2026-04-16T14:21:45.605Z</time></trkpt><trkpt lat="45.6489589" lon="9.4231526"><ele>232.83333333333331</ele><time>2026-04-16T14:21:47.604Z</time></trkpt><trkpt lat="45.6489618" lon="9.4232758"><ele>233.66666666666666</ele><time>2026-04-16T14:21:49.605Z</time></trkpt><trkpt lat="45.64894" lon="9.4233788"><ele>234.5</ele><time>2026-04-16T14:21:51.604Z</time></trkpt><trkpt lat="45.6488756" lon="9.4234214"><ele>235.33333333333331</ele><time>2026-04-16T14:21:53.604Z</time></trkpt><trkpt lat="45.648792" lon="9.4234232"><ele>236.16666666666666</ele><time>2026-04-16T14:21:56.604Z</time></trkpt><trkpt lat="45.6486988" lon="9.4234432"><ele>237.0</ele><time>2026-04-16T14:21:58.604Z</time></trkpt><trkpt lat="45.6485795" lon="9.423456"><ele>237.0</ele><time>2026-04-16T14:22:00.605Z</time></trkpt><trkpt lat="45.6484557" lon="9.4234605"><ele>237.0</ele><time>2026-04-16T14:22:02.604Z</time></trkpt><trkpt lat="45.6483362" lon="9.4234723"><ele>237.0</ele><time>2026-04-16T14:22:04.604Z</time></trkpt><trkpt lat="45.6481274" lon="9.4234674"><ele>237.0</ele><time>2026-04-16T14:22:06.604Z</time></trkpt><trkpt lat="45.648017" lon="9.4234703"><ele>237.0</ele><time>2026-04-16T14:22:08.604Z</time></trkpt><trkpt lat="45.6479053" lon="9.4234887"><ele>237.0</ele><time>2026-04-16T14:22:10.604Z</time></trkpt><trkpt lat="45.6478048" lon="9.4234938"><ele>237.0</ele><time>2026-04-16T14:22:12.604Z</time></trkpt><trkpt lat="45.6476874" lon="9.4234982"><ele>237.0</ele><time>2026-04-16T14:22:14.604Z</time></trkpt><trkpt lat="45.6476226" lon="9.4235137"><ele>237.16666666666666</ele><time>2026-04-16T14:22:15.605Z</time></trkpt><trkpt lat="45.6475596" lon="9.4235192"><ele>237.33333333333331</ele><time>2026-04-16T14:22:16.604Z</time></trkpt><trkpt lat="45.6474519" lon="9.4235309"><ele>237.5</ele><time>2026-04-16T14:22:18.604Z</time></trkpt><trkpt lat="45.6473576" lon="9.4235287"><ele>237.66666666666666</ele><time>2026-04-16T14:22:20.604Z</time></trkpt><trkpt lat="45.6472933" lon="9.4235284"><ele>237.83333333333331</ele><time>2026-04-16T14:22:21.604Z</time></trkpt><trkpt lat="45.6471925" lon="9.4235109"><ele>238.0</ele><time>2026-04-16T14:22:23.605Z</time></trkpt><trkpt lat="45.6470964" lon="9.4234607"><ele>238.0</ele><time>2026-04-16T14:22:25.605Z</time></trkpt><trkpt lat="45.6470035" lon="9.4233893"><ele>238.0</ele><time>2026-04-16T14:22:27.605Z</time></trkpt><trkpt lat="45.6469133" lon="9.4233131"><ele>238.0</ele><time>2026-04-16T14:22:29.604Z</time></trkpt><trkpt lat="45.6468193" lon="9.4232283"><ele>238.0</ele><time>2026-04-16T14:22:31.605Z</time></trkpt><trkpt lat="45.6467262" lon="9.4231515"><ele>238.0</ele><time>2026-04-16T14:22:33.604Z</time></trkpt><trkpt lat="45.6466292" lon="9.4230704"><ele>238.2</ele><time>2026-04-16T14:22:35.604Z</time></trkpt><trkpt lat="45.6465335" lon="9.4229867"><ele>238.4</ele><time>2026-04-16T14:22:37.605Z</time></trkpt><trkpt lat="45.6464513" lon="9.4229092"><ele>238.59999999999997</ele><time>2026-04-16T14:22:39.605Z</time></trkpt><trkpt lat="45.6463512" lon="9.4228384"><ele>238.79999999999998</ele><time>2026-04-16T14:22:41.604Z</time></trkpt><trkpt lat="45.646294" lon="9.422794"><ele>239.0</ele><time>2026-04-16T14:22:42.604Z</time></trkpt><trkpt lat="45.6461958" lon="9.4227175"><ele>239.25</ele><time>2026-04-16T14:22:44.604Z</time></trkpt><trkpt lat="45.6460998" lon="9.4226333"><ele>239.5</ele><time>2026-04-16T14:22:46.604Z</time></trkpt><trkpt lat="45.6459984" lon="9.4225395"><ele>239.75</ele><time>2026-04-16T14:22:48.605Z</time></trkpt><trkpt lat="45.6458952" lon="9.4224503"><ele>240.0</ele><time>2026-04-16T14:22:50.604Z</time></trkpt><trkpt lat="45.6457866" lon="9.4223578"><ele>240.0</ele><time>2026-04-16T14:22:52.604Z</time></trkpt><trkpt lat="45.6456918" lon="9.4222506"><ele>240.0</ele><time>2026-04-16T14:22:54.604Z</time></trkpt><trkpt lat="45.6456379" lon="9.4221974"><ele>240.0</ele><time>2026-04-16T14:22:55.604Z</time></trkpt><trkpt lat="45.6455562" lon="9.4220819"><ele>240.0</ele><time>2026-04-16T14:22:57.605Z</time></trkpt><trkpt lat="45.6455147" lon="9.4220101"><ele>240.0</ele><time>2026-04-16T14:22:58.604Z</time></trkpt><trkpt lat="45.6454391" lon="9.4218576"><ele>239.66666666666666</ele><time>2026-04-16T14:23:00.605Z</time></trkpt><trkpt lat="45.6453706" lon="9.4217018"><ele>239.33333333333331</ele><time>2026-04-16T14:23:02.605Z</time></trkpt><trkpt lat="45.6453432" lon="9.4216171"><ele>239.0</ele><time>2026-04-16T14:23:03.604Z</time></trkpt><trkpt lat="45.6453165" lon="9.4215263"><ele>238.66666666666666</ele><time>2026-04-16T14:23:04.604Z</time></trkpt><trkpt lat="45.6452786" lon="9.4214428"><ele>238.33333333333331</ele><time>2026-04-16T14:23:05.604Z</time></trkpt><trkpt lat="45.6452465" lon="9.4213563"><ele>238.0</ele><time>2026-04-16T14:23:06.604Z</time></trkpt><trkpt lat="45.64522" lon="9.4212693"><ele>237.83333333333331</ele><time>2026-04-16T14:23:07.604Z</time></trkpt><trkpt lat="45.6451871" lon="9.4211823"><ele>237.66666666666666</ele><time>2026-04-16T14:23:08.605Z</time></trkpt><trkpt lat="45.645154" lon="9.4210906"><ele>237.5</ele><time>2026-04-16T14:23:09.605Z</time></trkpt><trkpt lat="45.6451215" lon="9.4209954"><ele>237.33333333333331</ele><time>2026-04-16T14:23:10.604Z</time></trkpt><trkpt lat="45.6450846" lon="9.4208966"><ele>237.16666666666666</ele><time>2026-04-16T14:23:11.605Z</time></trkpt><trkpt lat="45.6450427" lon="9.4207988"><ele>237.0</ele><time>2026-04-16T14:23:12.604Z</time></trkpt><trkpt lat="45.6450009" lon="9.4206899"><ele>237.0</ele><time>2026-04-16T14:23:13.604Z</time></trkpt><trkpt lat="45.6449637" lon="9.4205864"><ele>237.0</ele><time>2026-04-16T14:23:14.604Z</time></trkpt><trkpt lat="45.6449241" lon="9.4204792"><ele>237.0</ele><time>2026-04-16T14:23:15.605Z</time></trkpt><trkpt lat="45.6448871" lon="9.4203829"><ele>237.0</ele><time>2026-04-16T14:23:16.604Z</time></trkpt><trkpt lat="45.6448406" lon="9.420277"><ele>237.0</ele><time>2026-04-16T14:23:17.605Z</time></trkpt><trkpt lat="45.644802" lon="9.4201669"><ele>237.0</ele><time>2026-04-16T14:23:18.604Z</time></trkpt><trkpt lat="45.6447535" lon="9.4200589"><ele>236.33333333333334</ele><time>2026-04-16T14:23:19.605Z</time></trkpt><trkpt lat="45.6447164" lon="9.4199422"><ele>235.66666666666669</ele><time>2026-04-16T14:23:20.605Z</time></trkpt><trkpt lat="45.644678" lon="9.4198392"><ele>235.0</ele><time>2026-04-16T14:23:21.604Z</time></trkpt><trkpt lat="45.6446473" lon="9.4197366"><ele>234.33333333333334</ele><time>2026-04-16T14:23:22.605Z</time></trkpt><trkpt lat="45.6446026" lon="9.4196267"><ele>233.66666666666669</ele><time>2026-04-16T14:23:23.604Z</time></trkpt><trkpt lat="45.6445623" lon="9.4195268"><ele>233.0</ele><time>2026-04-16T14:23:24.604Z</time></trkpt><trkpt lat="45.6445215" lon="9.4194082"><ele>232.50000000000003</ele><time>2026-04-16T14:23:25.604Z</time></trkpt><trkpt lat="45.6444895" lon="9.4193039"><ele>232.0</ele><time>2026-04-16T14:23:26.604Z</time></trkpt><trkpt lat="45.6444577" lon="9.4192121"><ele>231.5</ele><time>2026-04-16T14:23:27.605Z</time></trkpt><trkpt lat="45.6444216" lon="9.4191107"><ele>231.0</ele><time>2026-04-16T14:23:28.604Z</time></trkpt><trkpt lat="45.6443923" lon="9.4190135"><ele>230.50000000000003</ele><time>2026-04-16T14:23:29.605Z</time></trkpt><trkpt lat="45.6443603" lon="9.4189084"><ele>230.0</ele><time>2026-04-16T14:23:30.605Z</time></trkpt><trkpt lat="45.6443234" lon="9.4188167"><ele>229.66666666666669</ele><time>2026-04-16T14:23:31.604Z</time></trkpt><trkpt lat="45.6442943" lon="9.4187152"><ele>229.33333333333334</ele><time>2026-04-16T14:23:32.604Z</time></trkpt><trkpt lat="45.6442593" lon="9.4186176"><ele>229.0</ele><time>2026-04-16T14:23:33.604Z</time></trkpt><trkpt lat="45.6442309" lon="9.4185222"><ele>228.66666666666669</ele><time>2026-04-16T14:23:34.604Z</time></trkpt><trkpt lat="45.6441927" lon="9.4184167"><ele>228.33333333333334</ele><time>2026-04-16T14:23:35.604Z</time></trkpt><trkpt lat="45.6441566" lon="9.4183297"><ele>228.0</ele><time>2026-04-16T14:23:36.604Z</time></trkpt><trkpt lat="45.6440691" lon="9.4181893"><ele>228.0</ele><time>2026-04-16T14:23:38.604Z</time></trkpt><trkpt lat="45.6440149" lon="9.418119"><ele>227.99999999999997</ele><time>2026-04-16T14:23:39.605Z</time></trkpt><trkpt lat="45.6439575" lon="9.418059"><ele>228.0</ele><time>2026-04-16T14:23:40.605Z</time></trkpt><trkpt lat="45.6438969" lon="9.4180126"><ele>228.0</ele><time>2026-04-16T14:23:41.604Z</time></trkpt><trkpt lat="45.6438337" lon="9.4179666"><ele>227.99999999999997</ele><time>2026-04-16T14:23:42.605Z</time></trkpt><trkpt lat="45.643769" lon="9.4179236"><ele>228.0</ele><time>2026-04-16T14:23:43.604Z</time></trkpt><trkpt lat="45.643707" lon="9.4178784"><ele>228.0</ele><time>2026-04-16T14:23:44.605Z</time></trkpt><trkpt lat="45.6435884" lon="9.4178017"><ele>228.16666666666666</ele><time>2026-04-16T14:23:46.605Z</time></trkpt><trkpt lat="45.6435274" lon="9.4177507"><ele>228.33333333333331</ele><time>2026-04-16T14:23:47.604Z</time></trkpt><trkpt lat="45.6434679" lon="9.4177082"><ele>228.5</ele><time>2026-04-16T14:23:48.605Z</time></trkpt><trkpt lat="45.6434045" lon="9.4176704"><ele>228.66666666666666</ele><time>2026-04-16T14:23:49.604Z</time></trkpt><trkpt lat="45.6433412" lon="9.4176231"><ele>228.83333333333331</ele><time>2026-04-16T14:23:50.604Z</time></trkpt><trkpt lat="45.6432756" lon="9.4175908"><ele>229.0</ele><time>2026-04-16T14:23:51.604Z</time></trkpt><trkpt lat="45.6431552" lon="9.4175052"><ele>229.0</ele><time>2026-04-16T14:23:53.604Z</time></trkpt><trkpt lat="45.643087" lon="9.4174479"><ele>229.0</ele><time>2026-04-16T14:23:54.604Z</time></trkpt><trkpt lat="45.6430241" lon="9.4174005"><ele>229.0</ele><time>2026-04-16T14:23:55.604Z</time></trkpt><trkpt lat="45.6429611" lon="9.417359"><ele>229.0</ele><time>2026-04-16T14:23:56.604Z</time></trkpt><trkpt lat="45.6429006" lon="9.4173012"><ele>229.0</ele><time>2026-04-16T14:23:57.604Z</time></trkpt><trkpt lat="45.6428301" lon="9.4172663"><ele>229.0</ele><time>2026-04-16T14:23:58.604Z</time></trkpt><trkpt lat="45.6427714" lon="9.417196"><ele>229.0</ele><time>2026-04-16T14:23:59.605Z</time></trkpt><trkpt lat="45.6427066" lon="9.4171548"><ele>229.0</ele><time>2026-04-16T14:24:00.604Z</time></trkpt><trkpt lat="45.642639" lon="9.417105"><ele>229.0</ele><time>2026-04-16T14:24:01.605Z</time></trkpt><trkpt lat="45.6425702" lon="9.4170608"><ele>229.0</ele><time>2026-04-16T14:24:02.604Z</time></trkpt><trkpt lat="45.6424986" lon="9.4169992"><ele>229.0</ele><time>2026-04-16T14:24:03.605Z</time></trkpt><trkpt lat="45.6424324" lon="9.4169517"><ele>229.0</ele><time>2026-04-16T14:24:04.604Z</time></trkpt><trkpt lat="45.6423707" lon="9.4169159"><ele>229.0</ele><time>2026-04-16T14:24:05.605Z</time></trkpt><trkpt lat="45.6423066" lon="9.4168789"><ele>229.0</ele><time>2026-04-16T14:24:06.605Z</time></trkpt><trkpt lat="45.6422535" lon="9.4168287"><ele>228.99999999999997</ele><time>2026-04-16T14:24:07.604Z</time></trkpt><trkpt lat="45.6421834" lon="9.4167836"><ele>229.0</ele><time>2026-04-16T14:24:08.604Z</time></trkpt><trkpt lat="45.6421173" lon="9.4167353"><ele>229.0</ele><time>2026-04-16T14:24:09.604Z</time></trkpt><trkpt lat="45.6420487" lon="9.4166849"><ele>229.0</ele><time>2026-04-16T14:24:10.604Z</time></trkpt><trkpt lat="45.6419853" lon="9.4166411"><ele>228.99999999999997</ele><time>2026-04-16T14:24:11.605Z</time></trkpt><trkpt lat="45.6419131" lon="9.4166003"><ele>229.0</ele><time>2026-04-16T14:24:12.604Z</time></trkpt><trkpt lat="45.6418433" lon="9.416562"><ele>228.99999999999997</ele><time>2026-04-16T14:24:13.605Z</time></trkpt><trkpt lat="45.6417724" lon="9.4165066"><ele>229.0</ele><time>2026-04-16T14:24:14.604Z</time></trkpt><trkpt lat="45.6417101" lon="9.4164809"><ele>229.0</ele><time>2026-04-16T14:24:15.604Z</time></trkpt><trkpt lat="45.6416416" lon="9.4164386"><ele>229.0</ele><time>2026-04-16T14:24:16.605Z</time></trkpt><trkpt lat="45.6415748" lon="9.4163938"><ele>228.99999999999997</ele><time>2026-04-16T14:24:17.605Z</time></trkpt><trkpt lat="45.6415144" lon="9.4163465"><ele>229.0</ele><time>2026-04-16T14:24:18.605Z</time></trkpt><trkpt lat="45.641402" lon="9.4162773"><ele>229.0</ele><time>2026-04-16T14:24:20.604Z</time></trkpt><trkpt lat="45.6413086" lon="9.416302"><ele>228.99999999999997</ele><time>2026-04-16T14:24:22.605Z</time></trkpt><trkpt lat="45.6412764" lon="9.4163906"><ele>228.99999999999997</ele><time>2026-04-16T14:24:23.605Z</time></trkpt><trkpt lat="45.6411946" lon="9.4166033"><ele>229.0</ele><time>2026-04-16T14:24:26.604Z</time></trkpt><trkpt lat="45.6411637" lon="9.4166832"><ele>229.0</ele><time>2026-04-16T14:24:27.604Z</time></trkpt><trkpt lat="45.6411107" lon="9.416838"><ele>229.0</ele><time>2026-04-16T14:24:29.605Z</time></trkpt><trkpt lat="45.6410718" lon="9.4169828"><ele>228.99999999999997</ele><time>2026-04-16T14:24:31.604Z</time></trkpt><trkpt lat="45.6410498" lon="9.4170862"><ele>228.99999999999997</ele><time>2026-04-16T14:24:32.604Z</time></trkpt><trkpt lat="45.640992" lon="9.4172351"><ele>229.0</ele><time>2026-04-16T14:24:34.604Z</time></trkpt><trkpt lat="45.6409576" lon="9.4174188"><ele>229.0</ele><time>2026-04-16T14:24:36.605Z</time></trkpt><trkpt lat="45.6409179" lon="9.4174963"><ele>228.99999999999997</ele><time>2026-04-16T14:24:37.605Z</time></trkpt><trkpt lat="45.6408767" lon="9.4175889"><ele>229.0</ele><time>2026-04-16T14:24:38.605Z</time></trkpt><trkpt lat="45.6408502" lon="9.4176842"><ele>229.0</ele><time>2026-04-16T14:24:39.604Z</time></trkpt><trkpt lat="45.6407609" lon="9.4177931"><ele>229.0</ele><time>2026-04-16T14:24:41.604Z</time></trkpt><trkpt lat="45.6406973" lon="9.4179119"><ele>228.99999999999997</ele><time>2026-04-16T14:24:43.604Z</time></trkpt><trkpt lat="45.6406437" lon="9.4179673"><ele>229.0</ele><time>2026-04-16T14:24:44.604Z</time></trkpt><trkpt lat="45.6405529" lon="9.4180723"><ele>229.0</ele><time>2026-04-16T14:24:46.604Z</time></trkpt><trkpt lat="45.640459" lon="9.4181869"><ele>228.99999999999997</ele><time>2026-04-16T14:24:48.604Z</time></trkpt><trkpt lat="45.6403562" lon="9.4182189"><ele>228.99999999999997</ele><time>2026-04-16T14:24:50.604Z</time></trkpt><trkpt lat="45.6402869" lon="9.4182198"><ele>229.0</ele><time>2026-04-16T14:24:51.605Z</time></trkpt><trkpt lat="45.6402138" lon="9.4182428"><ele>229.0</ele><time>2026-04-16T14:24:52.604Z</time></trkpt><trkpt lat="45.6400915" lon="9.4182647"><ele>228.99999999999997</ele><time>2026-04-16T14:24:54.605Z</time></trkpt><trkpt lat="45.6400241" lon="9.4182668"><ele>229.0</ele><time>2026-04-16T14:24:55.604Z</time></trkpt><trkpt lat="45.6399574" lon="9.4182565"><ele>229.0</ele><time>2026-04-16T14:24:56.604Z</time></trkpt><trkpt lat="45.639843" lon="9.4182659"><ele>229.0</ele><time>2026-04-16T14:24:58.604Z</time></trkpt><trkpt lat="45.6397728" lon="9.4182339"><ele>228.99999999999997</ele><time>2026-04-16T14:24:59.604Z</time></trkpt><trkpt lat="45.639698" lon="9.4182139"><ele>229.0</ele><time>2026-04-16T14:25:00.604Z</time></trkpt><trkpt lat="45.6396126" lon="9.4181919"><ele>229.0</ele><time>2026-04-16T14:25:01.605Z</time></trkpt><trkpt lat="45.6395377" lon="9.4181763"><ele>229.0</ele><time>2026-04-16T14:25:02.604Z</time></trkpt><trkpt lat="45.6394698" lon="9.4181468"><ele>229.0</ele><time>2026-04-16T14:25:03.604Z</time></trkpt><trkpt lat="45.6393948" lon="9.418128"><ele>229.0</ele><time>2026-04-16T14:25:04.604Z</time></trkpt><trkpt lat="45.6393302" lon="9.4181118"><ele>229.0</ele><time>2026-04-16T14:25:05.604Z</time></trkpt><trkpt lat="45.6392613" lon="9.4181005"><ele>229.0</ele><time>2026-04-16T14:25:06.604Z</time></trkpt><trkpt lat="45.6391891" lon="9.4180869"><ele>229.0</ele><time>2026-04-16T14:25:07.604Z</time></trkpt><trkpt lat="45.6391165" lon="9.4180693"><ele>228.66666666666666</ele><time>2026-04-16T14:25:08.605Z</time></trkpt><trkpt lat="45.6390447" lon="9.4180547"><ele>228.33333333333331</ele><time>2026-04-16T14:25:09.604Z</time></trkpt><trkpt lat="45.6389747" lon="9.4180392"><ele>228.0</ele><time>2026-04-16T14:25:10.604Z</time></trkpt><trkpt lat="45.6389055" lon="9.4180312"><ele>227.66666666666669</ele><time>2026-04-16T14:25:11.604Z</time></trkpt><trkpt lat="45.6388385" lon="9.4180152"><ele>227.33333333333334</ele><time>2026-04-16T14:25:12.604Z</time></trkpt><trkpt lat="45.6387233" lon="9.4179878"><ele>227.0</ele><time>2026-04-16T14:25:14.604Z</time></trkpt><trkpt lat="45.6386408" lon="9.4179762"><ele>226.6</ele><time>2026-04-16T14:25:16.604Z</time></trkpt><trkpt lat="45.6385794" lon="9.4179489"><ele>226.2</ele><time>2026-04-16T14:25:19.604Z</time></trkpt><trkpt lat="45.6384171" lon="9.4180779"><ele>225.8</ele><time>2026-04-16T14:25:29.604Z</time></trkpt><trkpt lat="45.6383533" lon="9.4181008"><ele>225.4</ele><time>2026-04-16T14:25:30.605Z</time></trkpt><trkpt lat="45.6382849" lon="9.4181317"><ele>225.0</ele><time>2026-04-16T14:25:31.605Z</time></trkpt><trkpt lat="45.6381671" lon="9.4181547"><ele>224.8</ele><time>2026-04-16T14:25:33.604Z</time></trkpt><trkpt lat="45.6380394" lon="9.4181425"><ele>224.6</ele><time>2026-04-16T14:25:35.604Z</time></trkpt><trkpt lat="45.6379173" lon="9.418104"><ele>224.39999999999998</ele><time>2026-04-16T14:25:37.604Z</time></trkpt><trkpt lat="45.6378536" lon="9.4180814"><ele>224.2</ele><time>2026-04-16T14:25:38.605Z</time></trkpt><trkpt lat="45.637784" lon="9.4180543"><ele>224.0</ele><time>2026-04-16T14:25:39.604Z</time></trkpt><trkpt lat="45.6377214" lon="9.4180375"><ele>224.00000000000003</ele><time>2026-04-16T14:25:40.604Z</time></trkpt><trkpt lat="45.6376567" lon="9.418015"><ele>224.0</ele><time>2026-04-16T14:25:41.604Z</time></trkpt><trkpt lat="45.6375906" lon="9.4179958"><ele>224.0</ele><time>2026-04-16T14:25:42.605Z</time></trkpt><trkpt lat="45.6374698" lon="9.4179455"><ele>224.0</ele><time>2026-04-16T14:25:44.604Z</time></trkpt><trkpt lat="45.6374067" lon="9.4179221"><ele>224.00000000000003</ele><time>2026-04-16T14:25:45.604Z</time></trkpt><trkpt lat="45.637338" lon="9.4179116"><ele>224.0</ele><time>2026-04-16T14:25:46.604Z</time></trkpt><trkpt lat="45.637275" lon="9.4178954"><ele>224.00000000000003</ele><time>2026-04-16T14:25:47.604Z</time></trkpt><trkpt lat="45.6372087" lon="9.4179011"><ele>224.0</ele><time>2026-04-16T14:25:48.605Z</time></trkpt><trkpt lat="45.6370829" lon="9.4178929"><ele>224.0</ele><time>2026-04-16T14:25:50.604Z</time></trkpt><trkpt lat="45.6370122" lon="9.4178812"><ele>224.0</ele><time>2026-04-16T14:25:51.604Z</time></trkpt><trkpt lat="45.6369476" lon="9.4178554"><ele>224.00000000000003</ele><time>2026-04-16T14:25:52.604Z</time></trkpt><trkpt lat="45.636887" lon="9.4178173"><ele>224.0</ele><time>2026-04-16T14:25:53.604Z</time></trkpt><trkpt lat="45.636766" lon="9.4177589"><ele>223.83333333333334</ele><time>2026-04-16T14:25:55.604Z</time></trkpt><trkpt lat="45.6366465" lon="9.4176907"><ele>223.66666666666669</ele><time>2026-04-16T14:25:57.605Z</time></trkpt><trkpt lat="45.6365875" lon="9.4176486"><ele>223.5</ele><time>2026-04-16T14:25:58.605Z</time></trkpt><trkpt lat="45.6365178" lon="9.4176218"><ele>223.33333333333331</ele><time>2026-04-16T14:25:59.604Z</time></trkpt><trkpt lat="45.636453" lon="9.4175883"><ele>223.16666666666666</ele><time>2026-04-16T14:26:00.604Z</time></trkpt><trkpt lat="45.6363921" lon="9.4175502"><ele>223.0</ele><time>2026-04-16T14:26:01.605Z</time></trkpt><trkpt lat="45.6363013" lon="9.417562"><ele>223.0</ele><time>2026-04-16T14:26:03.605Z</time></trkpt><trkpt lat="45.6362522" lon="9.4176536"><ele>223.0</ele><time>2026-04-16T14:26:05.605Z</time></trkpt><trkpt lat="45.6362019" lon="9.4177786"><ele>223.0</ele><time>2026-04-16T14:26:07.605Z</time></trkpt><trkpt lat="45.6361519" lon="9.4179201"><ele>223.0</ele><time>2026-04-16T14:26:09.605Z</time></trkpt><trkpt lat="45.6360959" lon="9.4180658"><ele>223.0</ele><time>2026-04-16T14:26:11.604Z</time></trkpt><trkpt lat="45.6360643" lon="9.4181512"><ele>223.4</ele><time>2026-04-16T14:26:12.604Z</time></trkpt><trkpt lat="45.6360068" lon="9.418283"><ele>223.8</ele><time>2026-04-16T14:26:14.604Z</time></trkpt><trkpt lat="45.635952" lon="9.4184304"><ele>224.2</ele><time>2026-04-16T14:26:16.605Z</time></trkpt><trkpt lat="45.6358849" lon="9.418566"><ele>224.6</ele><time>2026-04-16T14:26:18.605Z</time></trkpt><trkpt lat="45.6358093" lon="9.4186515"><ele>225.0</ele><time>2026-04-16T14:26:20.604Z</time></trkpt><trkpt lat="45.6357613" lon="9.4187761"><ele>225.33333333333334</ele><time>2026-04-16T14:26:22.604Z</time></trkpt><trkpt lat="45.6357277" lon="9.4188857"><ele>225.66666666666669</ele><time>2026-04-16T14:26:24.604Z</time></trkpt><trkpt lat="45.6357022" lon="9.4190025"><ele>226.0</ele><time>2026-04-16T14:26:26.604Z</time></trkpt><trkpt lat="45.6356596" lon="9.4191357"><ele>226.33333333333334</ele><time>2026-04-16T14:26:28.604Z</time></trkpt><trkpt lat="45.6356438" lon="9.4192539"><ele>226.66666666666669</ele><time>2026-04-16T14:26:30.604Z</time></trkpt><trkpt lat="45.6356047" lon="9.4193661"><ele>227.0</ele><time>2026-04-16T14:26:33.604Z</time></trkpt><trkpt lat="45.6355332" lon="9.4194177"><ele>227.0</ele><time>2026-04-16T14:26:36.605Z</time></trkpt><trkpt lat="45.6354201" lon="9.4193974"><ele>227.0</ele><time>2026-04-16T14:26:38.604Z</time></trkpt><trkpt lat="45.6353172" lon="9.4193477"><ele>227.0</ele><time>2026-04-16T14:26:40.604Z</time></trkpt><trkpt lat="45.6352387" lon="9.419277"><ele>227.0</ele><time>2026-04-16T14:26:42.605Z</time></trkpt><trkpt lat="45.635121" lon="9.4192016"><ele>227.0</ele><time>2026-04-16T14:26:44.604Z</time></trkpt><trkpt lat="45.635054" lon="9.4191592"><ele>227.2857142857143</ele><time>2026-04-16T14:26:45.604Z</time></trkpt><trkpt lat="45.634989" lon="9.4191332"><ele>227.5714285714286</ele><time>2026-04-16T14:26:46.604Z</time></trkpt><trkpt lat="45.6349264" lon="9.419094"><ele>227.85714285714286</ele><time>2026-04-16T14:26:47.604Z</time></trkpt><trkpt lat="45.6348603" lon="9.4190594"><ele>228.14285714285717</ele><time>2026-04-16T14:26:48.604Z</time></trkpt><trkpt lat="45.634801" lon="9.4190239"><ele>228.42857142857144</ele><time>2026-04-16T14:26:49.604Z</time></trkpt><trkpt lat="45.6347371" lon="9.4189927"><ele>228.71428571428572</ele><time>2026-04-16T14:26:50.605Z</time></trkpt><trkpt lat="45.6346755" lon="9.4189577"><ele>229.0</ele><time>2026-04-16T14:26:51.605Z</time></trkpt><trkpt lat="45.6346121" lon="9.4189183"><ele>229.0</ele><time>2026-04-16T14:26:52.605Z</time></trkpt><trkpt lat="45.6345503" lon="9.4188849"><ele>229.0</ele><time>2026-04-16T14:26:53.605Z</time></trkpt><trkpt lat="45.6344827" lon="9.4188484"><ele>229.0</ele><time>2026-04-16T14:26:54.604Z</time></trkpt><trkpt lat="45.6344204" lon="9.4188074"><ele>229.0</ele><time>2026-04-16T14:26:55.604Z</time></trkpt><trkpt lat="45.6343432" lon="9.4187893"><ele>229.0</ele><time>2026-04-16T14:26:56.605Z</time></trkpt><trkpt lat="45.6342727" lon="9.4187645"><ele>229.0</ele><time>2026-04-16T14:26:57.604Z</time></trkpt><trkpt lat="45.6342077" lon="9.4187491"><ele>229.0</ele><time>2026-04-16T14:26:58.604Z</time></trkpt><trkpt lat="45.634138" lon="9.4187264"><ele>228.28571428571428</ele><time>2026-04-16T14:26:59.604Z</time></trkpt><trkpt lat="45.6340705" lon="9.418707"><ele>227.57142857142858</ele><time>2026-04-16T14:27:00.604Z</time></trkpt><trkpt lat="45.633996" lon="9.4186883"><ele>226.85714285714286</ele><time>2026-04-16T14:27:01.604Z</time></trkpt><trkpt lat="45.6339284" lon="9.4186671"><ele>226.14285714285714</ele><time>2026-04-16T14:27:02.605Z</time></trkpt><trkpt lat="45.6338581" lon="9.4186636"><ele>225.42857142857144</ele><time>2026-04-16T14:27:03.605Z</time></trkpt><trkpt lat="45.6337839" lon="9.418632"><ele>224.71428571428572</ele><time>2026-04-16T14:27:04.604Z</time></trkpt><trkpt lat="45.6337096" lon="9.4186104"><ele>224.0</ele><time>2026-04-16T14:27:05.604Z</time></trkpt><trkpt lat="45.6336382" lon="9.4185974"><ele>223.85714285714286</ele><time>2026-04-16T14:27:06.604Z</time></trkpt><trkpt lat="45.6335722" lon="9.4185835"><ele>223.71428571428572</ele><time>2026-04-16T14:27:07.604Z</time></trkpt><trkpt lat="45.6335095" lon="9.4185624"><ele>223.57142857142856</ele><time>2026-04-16T14:27:08.604Z</time></trkpt><trkpt lat="45.6334443" lon="9.4185481"><ele>223.42857142857144</ele><time>2026-04-16T14:27:09.604Z</time></trkpt><trkpt lat="45.6333794" lon="9.4185373"><ele>223.28571428571428</ele><time>2026-04-16T14:27:10.604Z</time></trkpt><trkpt lat="45.6333089" lon="9.4185215"><ele>223.14285714285714</ele><time>2026-04-16T14:27:11.605Z</time></trkpt><trkpt lat="45.6332455" lon="9.4185188"><ele>223.0</ele><time>2026-04-16T14:27:12.605Z</time></trkpt><trkpt lat="45.6331773" lon="9.418509"><ele>222.99999999999997</ele><time>2026-04-16T14:27:13.604Z</time></trkpt><trkpt lat="45.6331044" lon="9.4185007"><ele>223.0</ele><time>2026-04-16T14:27:14.605Z</time></trkpt><trkpt lat="45.6330356" lon="9.4184827"><ele>223.0</ele><time>2026-04-16T14:27:15.605Z</time></trkpt><trkpt lat="45.6329683" lon="9.4184653"><ele>223.0</ele><time>2026-04-16T14:27:16.604Z</time></trkpt><trkpt lat="45.6328968" lon="9.4184493"><ele>222.99999999999997</ele><time>2026-04-16T14:27:17.604Z</time></trkpt><trkpt lat="45.6327749" lon="9.4184341"><ele>223.0</ele><time>2026-04-16T14:27:19.604Z</time></trkpt><trkpt lat="45.6327038" lon="9.4184272"><ele>223.2</ele><time>2026-04-16T14:27:20.604Z</time></trkpt><trkpt lat="45.6326374" lon="9.4183993"><ele>223.4</ele><time>2026-04-16T14:27:21.604Z</time></trkpt><trkpt lat="45.6324878" lon="9.4183793"><ele>223.59999999999997</ele><time>2026-04-16T14:27:23.604Z</time></trkpt><trkpt lat="45.6324134" lon="9.4183601"><ele>223.79999999999998</ele><time>2026-04-16T14:27:24.605Z</time></trkpt><trkpt lat="45.6323426" lon="9.4183415"><ele>224.0</ele><time>2026-04-16T14:27:25.604Z</time></trkpt><trkpt lat="45.6322052" lon="9.4183"><ele>224.0</ele><time>2026-04-16T14:27:27.604Z</time></trkpt><trkpt lat="45.6321269" lon="9.4182785"><ele>224.0</ele><time>2026-04-16T14:27:28.605Z</time></trkpt><trkpt lat="45.6320484" lon="9.418259"><ele>224.0</ele><time>2026-04-16T14:27:29.604Z</time></trkpt><trkpt lat="45.6319839" lon="9.4182416"><ele>224.0</ele><time>2026-04-16T14:27:30.604Z</time></trkpt><trkpt lat="45.631911" lon="9.4182231"><ele>224.0</ele><time>2026-04-16T14:27:31.604Z</time></trkpt><trkpt lat="45.6318419" lon="9.4182096"><ele>224.0</ele><time>2026-04-16T14:27:32.604Z</time></trkpt><trkpt lat="45.6317707" lon="9.4181905"><ele>224.0</ele><time>2026-04-16T14:27:33.604Z</time></trkpt><trkpt lat="45.6316969" lon="9.4181905"><ele>223.83333333333334</ele><time>2026-04-16T14:27:34.605Z</time></trkpt><trkpt lat="45.6316187" lon="9.4181753"><ele>223.66666666666669</ele><time>2026-04-16T14:27:35.604Z</time></trkpt><trkpt lat="45.631539" lon="9.418163"><ele>223.5</ele><time>2026-04-16T14:27:36.605Z</time></trkpt><trkpt lat="45.6314649" lon="9.4181569"><ele>223.33333333333331</ele><time>2026-04-16T14:27:37.604Z</time></trkpt><trkpt lat="45.6313834" lon="9.4181582"><ele>223.16666666666666</ele><time>2026-04-16T14:27:38.605Z</time></trkpt><trkpt lat="45.6313007" lon="9.4181411"><ele>223.0</ele><time>2026-04-16T14:27:39.604Z</time></trkpt><trkpt lat="45.6311707" lon="9.4181129"><ele>223.33333333333331</ele><time>2026-04-16T14:27:41.604Z</time></trkpt><trkpt lat="45.6310888" lon="9.4180969"><ele>223.66666666666666</ele><time>2026-04-16T14:27:42.604Z</time></trkpt><trkpt lat="45.6310113" lon="9.4180823"><ele>224.0</ele><time>2026-04-16T14:27:43.604Z</time></trkpt><trkpt lat="45.6309432" lon="9.4180874"><ele>224.33333333333331</ele><time>2026-04-16T14:27:44.604Z</time></trkpt><trkpt lat="45.6308735" lon="9.4180796"><ele>224.66666666666666</ele><time>2026-04-16T14:27:45.605Z</time></trkpt><trkpt lat="45.6307989" lon="9.4180781"><ele>225.0</ele><time>2026-04-16T14:27:46.604Z</time></trkpt><trkpt lat="45.6307167" lon="9.4180947"><ele>225.0</ele><time>2026-04-16T14:27:47.604Z</time></trkpt><trkpt lat="45.6306357" lon="9.4181066"><ele>225.0</ele><time>2026-04-16T14:27:48.605Z</time></trkpt><trkpt lat="45.6305599" lon="9.418116"><ele>225.0</ele><time>2026-04-16T14:27:49.604Z</time></trkpt><trkpt lat="45.6304832" lon="9.418133"><ele>225.0</ele><time>2026-04-16T14:27:50.605Z</time></trkpt><trkpt lat="45.6304155" lon="9.4181393"><ele>225.0</ele><time>2026-04-16T14:27:51.604Z</time></trkpt><trkpt lat="45.6303405" lon="9.4181553"><ele>225.0</ele><time>2026-04-16T14:27:52.605Z</time></trkpt><trkpt lat="45.6302693" lon="9.4181664"><ele>224.33333333333334</ele><time>2026-04-16T14:27:53.605Z</time></trkpt><trkpt lat="45.6301859" lon="9.4181874"><ele>223.66666666666669</ele><time>2026-04-16T14:27:54.605Z</time></trkpt><trkpt lat="45.6300591" lon="9.4182012"><ele>223.0</ele><time>2026-04-16T14:27:56.604Z</time></trkpt><trkpt lat="45.6299921" lon="9.4181822"><ele>222.33333333333334</ele><time>2026-04-16T14:27:57.605Z</time></trkpt><trkpt lat="45.6299208" lon="9.4181589"><ele>221.66666666666669</ele><time>2026-04-16T14:27:58.604Z</time></trkpt><trkpt lat="45.6298364" lon="9.4181534"><ele>221.0</ele><time>2026-04-16T14:27:59.604Z</time></trkpt><trkpt lat="45.6297675" lon="9.4181765"><ele>221.00000000000003</ele><time>2026-04-16T14:28:00.604Z</time></trkpt><trkpt lat="45.6297068" lon="9.4182082"><ele>221.0</ele><time>2026-04-16T14:28:01.604Z</time></trkpt><trkpt lat="45.6296437" lon="9.4182508"><ele>221.0</ele><time>2026-04-16T14:28:02.604Z</time></trkpt><trkpt lat="45.6295686" lon="9.4182944"><ele>221.0</ele><time>2026-04-16T14:28:03.605Z</time></trkpt><trkpt lat="45.6294965" lon="9.4183168"><ele>221.00000000000003</ele><time>2026-04-16T14:28:04.604Z</time></trkpt><trkpt lat="45.6294155" lon="9.4183206"><ele>221.0</ele><time>2026-04-16T14:28:05.604Z</time></trkpt><trkpt lat="45.6293333" lon="9.4183381"><ele>220.66666666666669</ele><time>2026-04-16T14:28:06.604Z</time></trkpt><trkpt lat="45.6292541" lon="9.4183479"><ele>220.33333333333334</ele><time>2026-04-16T14:28:07.604Z</time></trkpt><trkpt lat="45.6291742" lon="9.4183554"><ele>220.0</ele><time>2026-04-16T14:28:08.605Z</time></trkpt><trkpt lat="45.6290967" lon="9.4183698"><ele>219.66666666666669</ele><time>2026-04-16T14:28:09.604Z</time></trkpt><trkpt lat="45.629015" lon="9.4183721"><ele>219.33333333333334</ele><time>2026-04-16T14:28:10.604Z</time></trkpt><trkpt lat="45.6289406" lon="9.4183797"><ele>219.0</ele><time>2026-04-16T14:28:11.604Z</time></trkpt><trkpt lat="45.6288471" lon="9.4183895"><ele>219.0</ele><time>2026-04-16T14:28:12.605Z</time></trkpt><trkpt lat="45.6287634" lon="9.4183961"><ele>218.99999999999997</ele><time>2026-04-16T14:28:13.605Z</time></trkpt><trkpt lat="45.6286846" lon="9.4184026"><ele>218.99999999999997</ele><time>2026-04-16T14:28:14.604Z</time></trkpt><trkpt lat="45.6285906" lon="9.4184099"><ele>219.0</ele><time>2026-04-16T14:28:15.605Z</time></trkpt><trkpt lat="45.6284961" lon="9.4184164"><ele>219.0</ele><time>2026-04-16T14:28:16.605Z</time></trkpt><trkpt lat="45.6283596" lon="9.4184123"><ele>218.33333333333334</ele><time>2026-04-16T14:28:18.604Z</time></trkpt><trkpt lat="45.6282911" lon="9.4184062"><ele>217.66666666666669</ele><time>2026-04-16T14:28:19.605Z</time></trkpt><trkpt lat="45.6282141" lon="9.4183966"><ele>217.0</ele><time>2026-04-16T14:28:20.605Z</time></trkpt><trkpt lat="45.6281292" lon="9.4183963"><ele>216.33333333333334</ele><time>2026-04-16T14:28:21.604Z</time></trkpt><trkpt lat="45.6280421" lon="9.4183828"><ele>215.66666666666669</ele><time>2026-04-16T14:28:22.604Z</time></trkpt><trkpt lat="45.6279705" lon="9.4183782"><ele>215.0</ele><time>2026-04-16T14:28:23.604Z</time></trkpt><trkpt lat="45.627886" lon="9.4183618"><ele>215.00000000000003</ele><time>2026-04-16T14:28:24.604Z</time></trkpt><trkpt lat="45.6278112" lon="9.4183571"><ele>215.0</ele><time>2026-04-16T14:28:25.604Z</time></trkpt><trkpt lat="45.6277264" lon="9.4183394"><ele>215.0</ele><time>2026-04-16T14:28:26.604Z</time></trkpt><trkpt lat="45.6276485" lon="9.4183307"><ele>215.0</ele><time>2026-04-16T14:28:27.604Z</time></trkpt><trkpt lat="45.6275681" lon="9.4183277"><ele>215.00000000000003</ele><time>2026-04-16T14:28:28.604Z</time></trkpt><trkpt lat="45.6274812" lon="9.4183199"><ele>215.0</ele><time>2026-04-16T14:28:29.604Z</time></trkpt><trkpt lat="45.6274035" lon="9.4183198"><ele>215.00000000000003</ele><time>2026-04-16T14:28:30.605Z</time></trkpt><trkpt lat="45.6273169" lon="9.4183287"><ele>215.0</ele><time>2026-04-16T14:28:31.604Z</time></trkpt><trkpt lat="45.6272447" lon="9.4183226"><ele>215.0</ele><time>2026-04-16T14:28:32.604Z</time></trkpt><trkpt lat="45.6271663" lon="9.4183231"><ele>215.0</ele><time>2026-04-16T14:28:33.604Z</time></trkpt><trkpt lat="45.6270795" lon="9.4183179"><ele>215.00000000000003</ele><time>2026-04-16T14:28:34.604Z</time></trkpt><trkpt lat="45.6269975" lon="9.4183028"><ele>215.0</ele><time>2026-04-16T14:28:35.604Z</time></trkpt><trkpt lat="45.626921" lon="9.4182944"><ele>215.16666666666669</ele><time>2026-04-16T14:28:36.604Z</time></trkpt><trkpt lat="45.6268378" lon="9.4182962"><ele>215.33333333333334</ele><time>2026-04-16T14:28:37.604Z</time></trkpt><trkpt lat="45.6267454" lon="9.4183066"><ele>215.5</ele><time>2026-04-16T14:28:38.604Z</time></trkpt><trkpt lat="45.6266604" lon="9.4182851"><ele>215.66666666666669</ele><time>2026-04-16T14:28:39.604Z</time></trkpt><trkpt lat="45.6265695" lon="9.4182728"><ele>215.83333333333334</ele><time>2026-04-16T14:28:40.604Z</time></trkpt><trkpt lat="45.6264944" lon="9.4182622"><ele>216.0</ele><time>2026-04-16T14:28:41.604Z</time></trkpt><trkpt lat="45.6264054" lon="9.4182555"><ele>216.0</ele><time>2026-04-16T14:28:42.604Z</time></trkpt><trkpt lat="45.6263234" lon="9.4182397"><ele>216.0</ele><time>2026-04-16T14:28:43.605Z</time></trkpt><trkpt lat="45.6262355" lon="9.4182223"><ele>216.0</ele><time>2026-04-16T14:28:44.604Z</time></trkpt><trkpt lat="45.6261591" lon="9.4182042"><ele>216.0</ele><time>2026-04-16T14:28:45.604Z</time></trkpt><trkpt lat="45.6260779" lon="9.4181841"><ele>216.0</ele><time>2026-04-16T14:28:46.604Z</time></trkpt><trkpt lat="45.6259959" lon="9.4181773"><ele>216.0</ele><time>2026-04-16T14:28:47.605Z</time></trkpt><trkpt lat="45.6259116" lon="9.4181658"><ele>215.66666666666666</ele><time>2026-04-16T14:28:48.604Z</time></trkpt><trkpt lat="45.6258316" lon="9.4181564"><ele>215.33333333333331</ele><time>2026-04-16T14:28:49.604Z</time></trkpt><trkpt lat="45.625747" lon="9.418149"><ele>215.0</ele><time>2026-04-16T14:28:50.604Z</time></trkpt><trkpt lat="45.6256723" lon="9.4181432"><ele>214.66666666666666</ele><time>2026-04-16T14:28:51.604Z</time></trkpt><trkpt lat="45.6255879" lon="9.418134"><ele>214.33333333333331</ele><time>2026-04-16T14:28:52.604Z</time></trkpt><trkpt lat="45.6255178" lon="9.418126"><ele>214.0</ele><time>2026-04-16T14:28:53.604Z</time></trkpt><trkpt lat="45.6254378" lon="9.418122"><ele>213.99999999999997</ele><time>2026-04-16T14:28:54.604Z</time></trkpt><trkpt lat="45.625365" lon="9.4180996"><ele>214.0</ele><time>2026-04-16T14:28:55.604Z</time></trkpt><trkpt lat="45.6253039" lon="9.4180548"><ele>214.0</ele><time>2026-04-16T14:28:56.604Z</time></trkpt><trkpt lat="45.625241" lon="9.4180088"><ele>214.0</ele><time>2026-04-16T14:28:57.605Z</time></trkpt><trkpt lat="45.6251888" lon="9.4179455"><ele>213.99999999999997</ele><time>2026-04-16T14:28:58.604Z</time></trkpt><trkpt lat="45.6251178" lon="9.41783"><ele>214.0</ele><time>2026-04-16T14:29:00.604Z</time></trkpt><trkpt lat="45.6250585" lon="9.4177986"><ele>213.79999999999998</ele><time>2026-04-16T14:29:02.604Z</time></trkpt><trkpt lat="45.6249664" lon="9.4177683"><ele>213.59999999999997</ele><time>2026-04-16T14:29:13.604Z</time></trkpt><trkpt lat="45.6248838" lon="9.4177874"><ele>213.4</ele><time>2026-04-16T14:29:15.604Z</time></trkpt><trkpt lat="45.6248109" lon="9.4179025"><ele>213.2</ele><time>2026-04-16T14:29:17.604Z</time></trkpt><trkpt lat="45.6247405" lon="9.4180058"><ele>213.0</ele><time>2026-04-16T14:29:19.605Z</time></trkpt><trkpt lat="45.6246516" lon="9.4180126"><ele>213.60000000000002</ele><time>2026-04-16T14:29:21.605Z</time></trkpt><trkpt lat="45.6245647" lon="9.4179965"><ele>214.20000000000002</ele><time>2026-04-16T14:29:23.605Z</time></trkpt><trkpt lat="45.6244506" lon="9.4179933"><ele>214.8</ele><time>2026-04-16T14:29:25.604Z</time></trkpt><trkpt lat="45.6243539" lon="9.4179923"><ele>215.4</ele><time>2026-04-16T14:29:27.604Z</time></trkpt><trkpt lat="45.6242467" lon="9.4179525"><ele>216.0</ele><time>2026-04-16T14:29:29.604Z</time></trkpt><trkpt lat="45.6241278" lon="9.4179189"><ele>216.0</ele><time>2026-04-16T14:29:31.604Z</time></trkpt><trkpt lat="45.624063" lon="9.417908"><ele>216.0</ele><time>2026-04-16T14:29:32.604Z</time></trkpt><trkpt lat="45.6239976" lon="9.4178969"><ele>216.0</ele><time>2026-04-16T14:29:33.604Z</time></trkpt><trkpt lat="45.6238768" lon="9.4178771"><ele>216.0</ele><time>2026-04-16T14:29:35.605Z</time></trkpt><trkpt lat="45.6238126" lon="9.417871"><ele>216.0</ele><time>2026-04-16T14:29:36.605Z</time></trkpt><trkpt lat="45.623748" lon="9.4178638"><ele>216.0</ele><time>2026-04-16T14:29:37.605Z</time></trkpt><trkpt lat="45.6236281" lon="9.4178436"><ele>215.8</ele><time>2026-04-16T14:29:39.605Z</time></trkpt><trkpt lat="45.623564" lon="9.4178281"><ele>215.60000000000002</ele><time>2026-04-16T14:29:40.605Z</time></trkpt><trkpt lat="45.6234535" lon="9.4178174"><ele>215.4</ele><time>2026-04-16T14:29:42.604Z</time></trkpt><trkpt lat="45.623385" lon="9.4178028"><ele>215.2</ele><time>2026-04-16T14:29:43.605Z</time></trkpt><trkpt lat="45.6232611" lon="9.4177888"><ele>215.0</ele><time>2026-04-16T14:29:45.604Z</time></trkpt><trkpt lat="45.6231404" lon="9.4177783"><ele>215.0</ele><time>2026-04-16T14:29:47.604Z</time></trkpt><trkpt lat="45.6230752" lon="9.4177799"><ele>215.0</ele><time>2026-04-16T14:29:48.604Z</time></trkpt><trkpt lat="45.6230065" lon="9.417759"><ele>215.0</ele><time>2026-04-16T14:29:49.604Z</time></trkpt><trkpt lat="45.6228742" lon="9.4177291"><ele>215.0</ele><time>2026-04-16T14:29:51.604Z</time></trkpt><trkpt lat="45.6228072" lon="9.4176968"><ele>215.0</ele><time>2026-04-16T14:29:52.605Z</time></trkpt><trkpt lat="45.6226983" lon="9.4176683"><ele>214.8</ele><time>2026-04-16T14:29:54.604Z</time></trkpt><trkpt lat="45.6225814" lon="9.417652"><ele>214.6</ele><time>2026-04-16T14:29:56.604Z</time></trkpt><trkpt lat="45.6224714" lon="9.417725"><ele>214.39999999999998</ele><time>2026-04-16T14:29:58.605Z</time></trkpt><trkpt lat="45.6224179" lon="9.4177847"><ele>214.2</ele><time>2026-04-16T14:29:59.605Z</time></trkpt><trkpt lat="45.6223459" lon="9.4179123"><ele>214.0</ele><time>2026-04-16T14:30:01.604Z</time></trkpt><trkpt lat="45.6222742" lon="9.4180381"><ele>214.0</ele><time>2026-04-16T14:30:03.605Z</time></trkpt><trkpt lat="45.6221868" lon="9.4180934"><ele>213.99999999999997</ele><time>2026-04-16T14:30:05.604Z</time></trkpt><trkpt lat="45.6220859" lon="9.4181224"><ele>213.99999999999997</ele><time>2026-04-16T14:30:07.604Z</time></trkpt><trkpt lat="45.6219774" lon="9.4181384"><ele>214.0</ele><time>2026-04-16T14:30:09.604Z</time></trkpt><trkpt lat="45.6219116" lon="9.4181458"><ele>214.0</ele><time>2026-04-16T14:30:10.604Z</time></trkpt><trkpt lat="45.6218016" lon="9.4181775"><ele>213.79999999999998</ele><time>2026-04-16T14:30:12.604Z</time></trkpt><trkpt lat="45.6217235" lon="9.418243"><ele>213.59999999999997</ele><time>2026-04-16T14:30:13.604Z</time></trkpt><trkpt lat="45.6216322" lon="9.4181558"><ele>213.4</ele><time>2026-04-16T14:30:14.605Z</time></trkpt><trkpt lat="45.6215457" lon="9.4181334"><ele>213.2</ele><time>2026-04-16T14:30:15.604Z</time></trkpt><trkpt lat="45.6214945" lon="9.418196"><ele>213.0</ele><time>2026-04-16T14:30:17.605Z</time></trkpt><trkpt lat="45.621401" lon="9.4182118"><ele>213.0</ele><time>2026-04-16T14:30:20.604Z</time></trkpt><trkpt lat="45.6213346" lon="9.4182382"><ele>213.0</ele><time>2026-04-16T14:30:22.604Z</time></trkpt><trkpt lat="45.6212722" lon="9.4182521"><ele>213.0</ele><time>2026-04-16T14:30:25.604Z</time></trkpt><trkpt lat="45.6211882" lon="9.4182619"><ele>213.0</ele><time>2026-04-16T14:30:34.604Z</time></trkpt><trkpt lat="45.621098" lon="9.4182918"><ele>213.0</ele><time>2026-04-16T14:30:37.604Z</time></trkpt><trkpt lat="45.6210252" lon="9.4183293"><ele>213.0</ele><time>2026-04-16T14:30:39.604Z</time></trkpt><trkpt lat="45.6209399" lon="9.4183757"><ele>212.8</ele><time>2026-04-16T14:30:41.605Z</time></trkpt><trkpt lat="45.6208634" lon="9.4184037"><ele>212.60000000000002</ele><time>2026-04-16T14:30:43.605Z</time></trkpt><trkpt lat="45.6208188" lon="9.4184845"><ele>212.39999999999998</ele><time>2026-04-16T14:30:46.605Z</time></trkpt><trkpt lat="45.620761" lon="9.4186438"><ele>212.2</ele><time>2026-04-16T14:30:48.605Z</time></trkpt><trkpt lat="45.6207474" lon="9.4187758"><ele>212.0</ele><time>2026-04-16T14:30:50.604Z</time></trkpt><trkpt lat="45.6207502" lon="9.4189224"><ele>211.6</ele><time>2026-04-16T14:30:52.605Z</time></trkpt><trkpt lat="45.6207486" lon="9.4190779"><ele>211.2</ele><time>2026-04-16T14:30:54.605Z</time></trkpt><trkpt lat="45.6207493" lon="9.4192209"><ele>210.8</ele><time>2026-04-16T14:30:56.604Z</time></trkpt><trkpt lat="45.6207519" lon="9.4193557"><ele>210.4</ele><time>2026-04-16T14:30:58.605Z</time></trkpt><trkpt lat="45.6207607" lon="9.4194981"><ele>210.0</ele><time>2026-04-16T14:31:00.605Z</time></trkpt><trkpt lat="45.6207669" lon="9.4196369"><ele>210.0</ele><time>2026-04-16T14:31:02.605Z</time></trkpt><trkpt lat="45.620766" lon="9.4197357"><ele>210.0</ele><time>2026-04-16T14:31:04.604Z</time></trkpt><trkpt lat="45.6206982" lon="9.4197737"><ele>210.0</ele><time>2026-04-16T14:31:08.604Z</time></trkpt><trkpt lat="45.6205971" lon="9.4197761"><ele>210.0</ele><time>2026-04-16T14:31:09.604Z</time></trkpt><trkpt lat="45.6205343" lon="9.4197626"><ele>210.0</ele><time>2026-04-16T14:31:10.605Z</time></trkpt><trkpt lat="45.6204593" lon="9.4197589"><ele>210.0</ele><time>2026-04-16T14:31:11.604Z</time></trkpt><trkpt lat="45.6203804" lon="9.4197582"><ele>210.0</ele><time>2026-04-16T14:31:12.605Z</time></trkpt><trkpt lat="45.6203176" lon="9.4197676"><ele>210.0</ele><time>2026-04-16T14:31:13.604Z</time></trkpt><trkpt lat="45.6202104" lon="9.4197761"><ele>210.0</ele><time>2026-04-16T14:31:15.605Z</time></trkpt><trkpt lat="45.6201391" lon="9.4197831"><ele>210.0</ele><time>2026-04-16T14:31:16.604Z</time></trkpt><trkpt lat="45.6200711" lon="9.4197972"><ele>210.0</ele><time>2026-04-16T14:31:17.604Z</time></trkpt><trkpt lat="45.6200047" lon="9.4198045"><ele>210.0</ele><time>2026-04-16T14:31:18.604Z</time></trkpt><trkpt lat="45.6199379" lon="9.4198047"><ele>210.0</ele><time>2026-04-16T14:31:19.604Z</time></trkpt><trkpt lat="45.6198677" lon="9.4198036"><ele>209.5</ele><time>2026-04-16T14:31:20.604Z</time></trkpt><trkpt lat="45.6197591" lon="9.419853"><ele>209.0</ele><time>2026-04-16T14:31:22.604Z</time></trkpt><trkpt lat="45.6197393" lon="9.4199988"><ele>208.5</ele><time>2026-04-16T14:31:24.604Z</time></trkpt><trkpt lat="45.6197185" lon="9.4201578"><ele>208.0</ele><time>2026-04-16T14:31:26.604Z</time></trkpt><trkpt lat="45.6196928" lon="9.4203296"><ele>208.2</ele><time>2026-04-16T14:31:28.605Z</time></trkpt><trkpt lat="45.6196762" lon="9.4204952"><ele>208.4</ele><time>2026-04-16T14:31:30.604Z</time></trkpt><trkpt lat="45.6196602" lon="9.4206681"><ele>208.6</ele><time>2026-04-16T14:31:32.604Z</time></trkpt><trkpt lat="45.6196621" lon="9.4208043"><ele>208.79999999999998</ele><time>2026-04-16T14:31:34.604Z</time></trkpt><trkpt lat="45.6196339" lon="9.4209155"><ele>209.0</ele><time>2026-04-16T14:31:35.604Z</time></trkpt><trkpt lat="45.6196169" lon="9.4210929"><ele>209.0</ele><time>2026-04-16T14:31:37.604Z</time></trkpt><trkpt lat="45.6196091" lon="9.4212674"><ele>209.0</ele><time>2026-04-16T14:31:39.604Z</time></trkpt><trkpt lat="45.6196092" lon="9.4213584"><ele>209.0</ele><time>2026-04-16T14:31:40.604Z</time></trkpt><trkpt lat="45.6196134" lon="9.4215284"><ele>209.0</ele><time>2026-04-16T14:31:42.605Z</time></trkpt><trkpt lat="45.6196069" lon="9.421702"><ele>209.0</ele><time>2026-04-16T14:31:44.605Z</time></trkpt><trkpt lat="45.6195986" lon="9.4218777"><ele>209.25</ele><time>2026-04-16T14:31:46.604Z</time></trkpt><trkpt lat="45.6195838" lon="9.4220446"><ele>209.5</ele><time>2026-04-16T14:31:48.605Z</time></trkpt><trkpt lat="45.619578" lon="9.4222143"><ele>209.75</ele><time>2026-04-16T14:31:50.604Z</time></trkpt><trkpt lat="45.6195722" lon="9.4223898"><ele>210.0</ele><time>2026-04-16T14:31:52.604Z</time></trkpt><trkpt lat="45.6195662" lon="9.422558"><ele>210.0</ele><time>2026-04-16T14:31:54.604Z</time></trkpt><trkpt lat="45.6195595" lon="9.422652"><ele>210.0</ele><time>2026-04-16T14:31:55.604Z</time></trkpt><trkpt lat="45.6195544" lon="9.4228236"><ele>210.0</ele><time>2026-04-16T14:31:57.604Z</time></trkpt><trkpt lat="45.6195415" lon="9.4229849"><ele>210.0</ele><time>2026-04-16T14:31:59.604Z</time></trkpt><trkpt lat="45.6195288" lon="9.4231056"><ele>210.0</ele><time>2026-04-16T14:32:01.604Z</time></trkpt><trkpt lat="45.6194794" lon="9.4232042"><ele>210.0</ele><time>2026-04-16T14:32:04.604Z</time></trkpt><trkpt lat="45.6194417" lon="9.4233206"><ele>210.0</ele><time>2026-04-16T14:32:37.604Z</time></trkpt><trkpt lat="45.6194875" lon="9.4234281"><ele>210.0</ele><time>2026-04-16T14:32:40.605Z</time></trkpt><trkpt lat="45.6195071" lon="9.4235352"><ele>210.0</ele><time>2026-04-16T14:32:42.604Z</time></trkpt><trkpt lat="45.6195282" lon="9.4236677"><ele>210.0</ele><time>2026-04-16T14:32:44.605Z</time></trkpt><trkpt lat="45.6195348" lon="9.4238197"><ele>209.8</ele><time>2026-04-16T14:32:46.604Z</time></trkpt><trkpt lat="45.6195474" lon="9.423957"><ele>209.6</ele><time>2026-04-16T14:32:48.604Z</time></trkpt><trkpt lat="45.6195441" lon="9.4240993"><ele>209.39999999999998</ele><time>2026-04-16T14:32:50.604Z</time></trkpt><trkpt lat="45.6195357" lon="9.4242533"><ele>209.2</ele><time>2026-04-16T14:32:52.604Z</time></trkpt><trkpt lat="45.6195207" lon="9.4243945"><ele>209.0</ele><time>2026-04-16T14:32:54.604Z</time></trkpt><trkpt lat="45.6194995" lon="9.4245374"><ele>209.0</ele><time>2026-04-16T14:32:56.604Z</time></trkpt><trkpt lat="45.6194876" lon="9.4246887"><ele>209.0</ele><time>2026-04-16T14:32:58.604Z</time></trkpt><trkpt lat="45.619474" lon="9.424853"><ele>209.0</ele><time>2026-04-16T14:33:00.605Z</time></trkpt><trkpt lat="45.619471" lon="9.4249477"><ele>209.0</ele><time>2026-04-16T14:33:01.604Z</time></trkpt><trkpt lat="45.6194631" lon="9.4251209"><ele>209.0</ele><time>2026-04-16T14:33:03.604Z</time></trkpt><trkpt lat="45.6194697" lon="9.4252328"><ele>209.00000000000003</ele><time>2026-04-16T14:33:04.604Z</time></trkpt><trkpt lat="45.6194642" lon="9.4253286"><ele>209.0</ele><time>2026-04-16T14:33:05.604Z</time></trkpt><trkpt lat="45.6194648" lon="9.4254189"><ele>209.0</ele><time>2026-04-16T14:33:06.604Z</time></trkpt><trkpt lat="45.6194651" lon="9.4255373"><ele>209.0</ele><time>2026-04-16T14:33:07.605Z</time></trkpt><trkpt lat="45.6194629" lon="9.4256386"><ele>209.00000000000003</ele><time>2026-04-16T14:33:08.604Z</time></trkpt><trkpt lat="45.6194613" lon="9.4257969"><ele>209.0</ele><time>2026-04-16T14:33:10.605Z</time></trkpt><trkpt lat="45.6194648" lon="9.4259741"><ele>209.0</ele><time>2026-04-16T14:33:12.605Z</time></trkpt><trkpt lat="45.6194529" lon="9.4261412"><ele>209.0</ele><time>2026-04-16T14:33:14.605Z</time></trkpt><trkpt lat="45.6194441" lon="9.4263037"><ele>209.0</ele><time>2026-04-16T14:33:16.604Z</time></trkpt><trkpt lat="45.6194596" lon="9.4264765"><ele>209.0</ele><time>2026-04-16T14:33:18.604Z</time></trkpt><trkpt lat="45.6194833" lon="9.426644"><ele>209.0</ele><time>2026-04-16T14:33:20.604Z</time></trkpt><trkpt lat="45.6194598" lon="9.426797"><ele>209.0</ele><time>2026-04-16T14:33:22.604Z</time></trkpt><trkpt lat="45.6194655" lon="9.4268892"><ele>209.0</ele><time>2026-04-16T14:33:23.605Z</time></trkpt><trkpt lat="45.6194941" lon="9.427056"><ele>209.0</ele><time>2026-04-16T14:33:25.604Z</time></trkpt><trkpt lat="45.6194977" lon="9.4272226"><ele>209.0</ele><time>2026-04-16T14:33:27.605Z</time></trkpt><trkpt lat="45.6194922" lon="9.4273658"><ele>209.00000000000003</ele><time>2026-04-16T14:33:29.604Z</time></trkpt><trkpt lat="45.6194749" lon="9.4274915"><ele>209.0</ele><time>2026-04-16T14:33:31.605Z</time></trkpt><trkpt lat="45.619515" lon="9.427578"><ele>209.0</ele><time>2026-04-16T14:33:33.605Z</time></trkpt><trkpt lat="45.619571" lon="9.4276722"><ele>209.0</ele><time>2026-04-16T14:33:35.605Z</time></trkpt><trkpt lat="45.6196283" lon="9.4277576"><ele>209.00000000000003</ele><time>2026-04-16T14:33:37.604Z</time></trkpt><trkpt lat="45.6196742" lon="9.427838"><ele>209.0</ele><time>2026-04-16T14:33:39.605Z</time></trkpt><trkpt lat="45.619719" lon="9.4279642"><ele>208.75</ele><time>2026-04-16T14:33:41.605Z</time></trkpt><trkpt lat="45.6197816" lon="9.4281015"><ele>208.5</ele><time>2026-04-16T14:33:43.604Z</time></trkpt><trkpt lat="45.6198726" lon="9.428217"><ele>208.25</ele><time>2026-04-16T14:33:45.605Z</time></trkpt><trkpt lat="45.6199304" lon="9.4283623"><ele>208.0</ele><time>2026-04-16T14:33:47.604Z</time></trkpt><trkpt lat="45.619957" lon="9.4285321"><ele>208.0</ele><time>2026-04-16T14:33:49.604Z</time></trkpt><trkpt lat="45.6199412" lon="9.4287187"><ele>208.0</ele><time>2026-04-16T14:33:51.604Z</time></trkpt><trkpt lat="45.6199088" lon="9.4288867"><ele>208.0</ele><time>2026-04-16T14:33:53.604Z</time></trkpt><trkpt lat="45.6198908" lon="9.4289853"><ele>208.0</ele><time>2026-04-16T14:33:54.605Z</time></trkpt><trkpt lat="45.6198786" lon="9.4290882"><ele>208.0</ele><time>2026-04-16T14:33:55.604Z</time></trkpt><trkpt lat="45.6198505" lon="9.4292488"><ele>208.0</ele><time>2026-04-16T14:33:57.604Z</time></trkpt><trkpt lat="45.6198178" lon="9.4294023"><ele>208.0</ele><time>2026-04-16T14:33:59.604Z</time></trkpt><trkpt lat="45.6197942" lon="9.4295074"><ele>208.0</ele><time>2026-04-16T14:34:00.604Z</time></trkpt><trkpt lat="45.6197818" lon="9.4296026"><ele>208.0</ele><time>2026-04-16T14:34:01.604Z</time></trkpt><trkpt lat="45.6197462" lon="9.4297667"><ele>208.0</ele><time>2026-04-16T14:34:03.604Z</time></trkpt><trkpt lat="45.6196997" lon="9.4299204"><ele>208.0</ele><time>2026-04-16T14:34:05.604Z</time></trkpt><trkpt lat="45.6196218" lon="9.4300413"><ele>208.0</ele><time>2026-04-16T14:34:07.605Z</time></trkpt><trkpt lat="45.6195674" lon="9.4301375"><ele>208.0</ele><time>2026-04-16T14:34:09.604Z</time></trkpt><trkpt lat="45.6194566" lon="9.4302044"><ele>208.0</ele><time>2026-04-16T14:34:11.604Z</time></trkpt><trkpt lat="45.6193982" lon="9.4302408"><ele>208.0</ele><time>2026-04-16T14:34:12.604Z</time></trkpt><trkpt lat="45.6192857" lon="9.4303095"><ele>208.0</ele><time>2026-04-16T14:34:14.604Z</time></trkpt><trkpt lat="45.6191649" lon="9.4303684"><ele>208.0</ele><time>2026-04-16T14:34:16.605Z</time></trkpt><trkpt lat="45.6190395" lon="9.4304136"><ele>208.0</ele><time>2026-04-16T14:34:18.605Z</time></trkpt><trkpt lat="45.618974" lon="9.4304385"><ele>208.0</ele><time>2026-04-16T14:34:19.604Z</time></trkpt><trkpt lat="45.6188508" lon="9.430495"><ele>208.0</ele><time>2026-04-16T14:34:21.604Z</time></trkpt><trkpt lat="45.6187829" lon="9.4304963"><ele>208.0</ele><time>2026-04-16T14:34:22.604Z</time></trkpt><trkpt lat="45.6187223" lon="9.4305397"><ele>208.0</ele><time>2026-04-16T14:34:23.604Z</time></trkpt><trkpt lat="45.6186547" lon="9.4305736"><ele>208.0</ele><time>2026-04-16T14:34:24.604Z</time></trkpt><trkpt lat="45.6185963" lon="9.4306099"><ele>208.0</ele><time>2026-04-16T14:34:25.604Z</time></trkpt><trkpt lat="45.6185293" lon="9.4306417"><ele>208.0</ele><time>2026-04-16T14:34:26.604Z</time></trkpt><trkpt lat="45.6184689" lon="9.4306705"><ele>208.0</ele><time>2026-04-16T14:34:27.604Z</time></trkpt><trkpt lat="45.6184099" lon="9.4307076"><ele>207.99999999999997</ele><time>2026-04-16T14:34:28.604Z</time></trkpt><trkpt lat="45.6183475" lon="9.4307509"><ele>208.0</ele><time>2026-04-16T14:34:29.605Z</time></trkpt><trkpt lat="45.6182936" lon="9.4308028"><ele>208.0</ele><time>2026-04-16T14:34:30.604Z</time></trkpt><trkpt lat="45.6182164" lon="9.4309291"><ele>208.0</ele><time>2026-04-16T14:34:32.604Z</time></trkpt><trkpt lat="45.6181679" lon="9.4310029"><ele>207.99999999999997</ele><time>2026-04-16T14:34:33.604Z</time></trkpt><trkpt lat="45.6180967" lon="9.4311501"><ele>208.0</ele><time>2026-04-16T14:34:35.604Z</time></trkpt><trkpt lat="45.6180636" lon="9.431229"><ele>207.75</ele><time>2026-04-16T14:34:36.604Z</time></trkpt><trkpt lat="45.6179999" lon="9.4313952"><ele>207.5</ele><time>2026-04-16T14:34:38.604Z</time></trkpt><trkpt lat="45.6179462" lon="9.4315532"><ele>207.25</ele><time>2026-04-16T14:34:40.604Z</time></trkpt><trkpt lat="45.6178937" lon="9.431713"><ele>207.0</ele><time>2026-04-16T14:34:42.604Z</time></trkpt><trkpt lat="45.6178391" lon="9.4318627"><ele>206.83333333333334</ele><time>2026-04-16T14:34:44.604Z</time></trkpt><trkpt lat="45.6178096" lon="9.4319464"><ele>206.66666666666669</ele><time>2026-04-16T14:34:45.605Z</time></trkpt><trkpt lat="45.6177831" lon="9.4320304"><ele>206.5</ele><time>2026-04-16T14:34:46.604Z</time></trkpt><trkpt lat="45.6177174" lon="9.4321756"><ele>206.33333333333334</ele><time>2026-04-16T14:34:48.604Z</time></trkpt><trkpt lat="45.6176599" lon="9.4323309"><ele>206.16666666666669</ele><time>2026-04-16T14:34:50.604Z</time></trkpt><trkpt lat="45.6176252" lon="9.432418"><ele>206.0</ele><time>2026-04-16T14:34:51.605Z</time></trkpt><trkpt lat="45.6175879" lon="9.4324909"><ele>206.0</ele><time>2026-04-16T14:34:52.605Z</time></trkpt><trkpt lat="45.6175224" lon="9.4326282"><ele>206.0</ele><time>2026-04-16T14:34:54.605Z</time></trkpt><trkpt lat="45.6174404" lon="9.4327562"><ele>206.0</ele><time>2026-04-16T14:34:56.605Z</time></trkpt><trkpt lat="45.6173602" lon="9.4329035"><ele>206.0</ele><time>2026-04-16T14:34:58.604Z</time></trkpt><trkpt lat="45.6173145" lon="9.4329754"><ele>206.0</ele><time>2026-04-16T14:34:59.604Z</time></trkpt><trkpt lat="45.6172433" lon="9.4331031"><ele>206.0</ele><time>2026-04-16T14:35:01.604Z</time></trkpt><trkpt lat="45.6171576" lon="9.4332386"><ele>206.0</ele><time>2026-04-16T14:35:03.605Z</time></trkpt><trkpt lat="45.6170691" lon="9.433372"><ele>206.0</ele><time>2026-04-16T14:35:05.604Z</time></trkpt><trkpt lat="45.6170274" lon="9.4334408"><ele>206.0</ele><time>2026-04-16T14:35:06.604Z</time></trkpt><trkpt lat="45.6169829" lon="9.4335143"><ele>206.0</ele><time>2026-04-16T14:35:07.604Z</time></trkpt><trkpt lat="45.6169393" lon="9.433588"><ele>206.0</ele><time>2026-04-16T14:35:08.605Z</time></trkpt><trkpt lat="45.6169089" lon="9.433673"><ele>206.0</ele><time>2026-04-16T14:35:09.604Z</time></trkpt><trkpt lat="45.6168669" lon="9.4337433"><ele>206.0</ele><time>2026-04-16T14:35:10.604Z</time></trkpt><trkpt lat="45.6167807" lon="9.433868"><ele>206.0</ele><time>2026-04-16T14:35:12.604Z</time></trkpt><trkpt lat="45.6166794" lon="9.4339454"><ele>206.0</ele><time>2026-04-16T14:35:14.604Z</time></trkpt><trkpt lat="45.616574" lon="9.4339336"><ele>206.0</ele><time>2026-04-16T14:35:16.605Z</time></trkpt><trkpt lat="45.6164803" lon="9.4338895"><ele>206.0</ele><time>2026-04-16T14:35:18.604Z</time></trkpt><trkpt lat="45.6164232" lon="9.4338051"><ele>206.0</ele><time>2026-04-16T14:35:20.604Z</time></trkpt><trkpt lat="45.6163648" lon="9.43369"><ele>206.0</ele><time>2026-04-16T14:35:22.604Z</time></trkpt><trkpt lat="45.6163121" lon="9.4335508"><ele>206.0</ele><time>2026-04-16T14:35:24.605Z</time></trkpt><trkpt lat="45.6162703" lon="9.4334052"><ele>205.8</ele><time>2026-04-16T14:35:26.605Z</time></trkpt><trkpt lat="45.6162608" lon="9.4332555"><ele>205.60000000000002</ele><time>2026-04-16T14:35:28.604Z</time></trkpt><trkpt lat="45.616236" lon="9.4330901"><ele>205.4</ele><time>2026-04-16T14:35:30.604Z</time></trkpt><trkpt lat="45.6162208" lon="9.4329272"><ele>205.2</ele><time>2026-04-16T14:35:32.605Z</time></trkpt><trkpt lat="45.6161969" lon="9.4327927"><ele>205.0</ele><time>2026-04-16T14:35:34.604Z</time></trkpt><trkpt lat="45.6161711" lon="9.4326395"><ele>205.0</ele><time>2026-04-16T14:35:36.604Z</time></trkpt><trkpt lat="45.6161756" lon="9.4324765"><ele>205.0</ele><time>2026-04-16T14:35:38.605Z</time></trkpt><trkpt lat="45.6161681" lon="9.4323172"><ele>205.0</ele><time>2026-04-16T14:35:40.604Z</time></trkpt><trkpt lat="45.6161615" lon="9.4321756"><ele>205.0</ele><time>2026-04-16T14:35:42.604Z</time></trkpt><trkpt lat="45.6161305" lon="9.4320756"><ele>205.0</ele><time>2026-04-16T14:35:44.604Z</time></trkpt><trkpt lat="45.6160664" lon="9.4320337"><ele>205.0</ele><time>2026-04-16T14:35:46.604Z</time></trkpt><trkpt lat="45.6160055" lon="9.4320722"><ele>205.0</ele><time>2026-04-16T14:35:48.605Z</time></trkpt><trkpt lat="45.6159801" lon="9.4321859"><ele>205.0</ele><time>2026-04-16T14:35:50.604Z</time></trkpt><trkpt lat="45.6159466" lon="9.4323315"><ele>205.0</ele><time>2026-04-16T14:35:52.604Z</time></trkpt><trkpt lat="45.615943" lon="9.4324698"><ele>205.0</ele><time>2026-04-16T14:35:54.604Z</time></trkpt><trkpt lat="45.6159171" lon="9.432613"><ele>204.66666666666666</ele><time>2026-04-16T14:35:56.604Z</time></trkpt><trkpt lat="45.6158858" lon="9.4327332"><ele>204.33333333333331</ele><time>2026-04-16T14:35:58.604Z</time></trkpt><trkpt lat="45.61584" lon="9.4328243"><ele>204.0</ele><time>2026-04-16T14:36:01.604Z</time></trkpt><trkpt lat="45.61558" lon="9.4330874"><ele>204.0</ele><time>2026-04-16T14:36:08.6Z</time></trkpt><trkpt lat="45.615549" lon="9.4332261"><ele>204.0</ele><time>2026-04-16T14:36:09.595Z</time></trkpt><trkpt lat="45.6155581" lon="9.4333835"><ele>204.0</ele><time>2026-04-16T14:36:10.598Z</time></trkpt><trkpt lat="45.6156134" lon="9.4334422"><ele>204.0</ele><time>2026-04-16T14:36:12.601Z</time></trkpt><trkpt lat="45.6156154" lon="9.4335667"><ele>204.0</ele><time>2026-04-16T14:36:15.606Z</time></trkpt><trkpt lat="45.615542" lon="9.433533"><ele>204.0</ele><time>2026-04-16T14:36:17.607Z</time></trkpt><trkpt lat="45.6154571" lon="9.4334856"><ele>204.0</ele><time>2026-04-16T14:36:19.607Z</time></trkpt><trkpt lat="45.6153491" lon="9.4334589"><ele>204.0</ele><time>2026-04-16T14:36:21.607Z</time></trkpt><trkpt lat="45.6152469" lon="9.433408"><ele>204.0</ele><time>2026-04-16T14:36:23.606Z</time></trkpt><trkpt lat="45.6151828" lon="9.4333806"><ele>204.0</ele><time>2026-04-16T14:36:24.607Z</time></trkpt><trkpt lat="45.6150746" lon="9.4333413"><ele>204.0</ele><time>2026-04-16T14:36:26.606Z</time></trkpt><trkpt lat="45.6149581" lon="9.4332898"><ele>204.0</ele><time>2026-04-16T14:36:28.606Z</time></trkpt><trkpt lat="45.6148475" lon="9.4332308"><ele>204.0</ele><time>2026-04-16T14:36:30.606Z</time></trkpt><trkpt lat="45.614726" lon="9.433158"><ele>204.0</ele><time>2026-04-16T14:36:32.606Z</time></trkpt><trkpt lat="45.6146629" lon="9.4331302"><ele>204.0</ele><time>2026-04-16T14:36:33.606Z</time></trkpt><trkpt lat="45.6145535" lon="9.4330623"><ele>204.0</ele><time>2026-04-16T14:36:35.606Z</time></trkpt><trkpt lat="45.6144406" lon="9.433016"><ele>203.83333333333334</ele><time>2026-04-16T14:36:37.607Z</time></trkpt><trkpt lat="45.6143439" lon="9.4329575"><ele>203.66666666666669</ele><time>2026-04-16T14:36:39.606Z</time></trkpt><trkpt lat="45.6142819" lon="9.4329245"><ele>203.5</ele><time>2026-04-16T14:36:40.606Z</time></trkpt><trkpt lat="45.6142208" lon="9.4328895"><ele>203.33333333333334</ele><time>2026-04-16T14:36:41.606Z</time></trkpt><trkpt lat="45.6141503" lon="9.4328561"><ele>203.16666666666669</ele><time>2026-04-16T14:36:42.606Z</time></trkpt><trkpt lat="45.6140408" lon="9.4328226"><ele>203.0</ele><time>2026-04-16T14:36:44.606Z</time></trkpt><trkpt lat="45.6139484" lon="9.432852"><ele>203.0</ele><time>2026-04-16T14:36:46.606Z</time></trkpt><trkpt lat="45.6138772" lon="9.4328968"><ele>203.0</ele><time>2026-04-16T14:36:47.607Z</time></trkpt><trkpt lat="45.6138123" lon="9.4329168"><ele>203.0</ele><time>2026-04-16T14:36:48.606Z</time></trkpt><trkpt lat="45.613735" lon="9.4329217"><ele>203.0</ele><time>2026-04-16T14:36:49.606Z</time></trkpt><trkpt lat="45.6136008" lon="9.432881"><ele>203.0</ele><time>2026-04-16T14:36:51.606Z</time></trkpt><trkpt lat="45.6134799" lon="9.4328229"><ele>203.00000000000003</ele><time>2026-04-16T14:36:53.606Z</time></trkpt><trkpt lat="45.6134185" lon="9.4327983"><ele>203.0</ele><time>2026-04-16T14:36:54.607Z</time></trkpt><trkpt lat="45.6133156" lon="9.4327451"><ele>203.0</ele><time>2026-04-16T14:36:56.606Z</time></trkpt><trkpt lat="45.6131999" lon="9.4326664"><ele>203.0</ele><time>2026-04-16T14:36:58.606Z</time></trkpt><trkpt lat="45.6131394" lon="9.4326288"><ele>203.00000000000003</ele><time>2026-04-16T14:36:59.607Z</time></trkpt><trkpt lat="45.6130786" lon="9.4325995"><ele>203.0</ele><time>2026-04-16T14:37:00.606Z</time></trkpt><trkpt lat="45.612958" lon="9.4325534"><ele>203.00000000000003</ele><time>2026-04-16T14:37:02.606Z</time></trkpt><trkpt lat="45.6128896" lon="9.4325283"><ele>203.0</ele><time>2026-04-16T14:37:03.606Z</time></trkpt><trkpt lat="45.6128257" lon="9.4325096"><ele>203.0</ele><time>2026-04-16T14:37:04.607Z</time></trkpt><trkpt lat="45.6127611" lon="9.4324615"><ele>203.0</ele><time>2026-04-16T14:37:05.606Z</time></trkpt><trkpt lat="45.6126858" lon="9.4323467"><ele>203.00000000000003</ele><time>2026-04-16T14:37:07.606Z</time></trkpt><trkpt lat="45.6127119" lon="9.4322467"><ele>203.0</ele><time>2026-04-16T14:37:08.606Z</time></trkpt><trkpt lat="45.6127486" lon="9.4320823"><ele>202.85714285714286</ele><time>2026-04-16T14:37:10.606Z</time></trkpt><trkpt lat="45.6127651" lon="9.4319813"><ele>202.71428571428572</ele><time>2026-04-16T14:37:11.606Z</time></trkpt><trkpt lat="45.6127753" lon="9.4318918"><ele>202.57142857142856</ele><time>2026-04-16T14:37:12.606Z</time></trkpt><trkpt lat="45.6127932" lon="9.4317946"><ele>202.42857142857144</ele><time>2026-04-16T14:37:13.607Z</time></trkpt><trkpt lat="45.6128066" lon="9.4317051"><ele>202.28571428571428</ele><time>2026-04-16T14:37:14.606Z</time></trkpt><trkpt lat="45.6128243" lon="9.4316098"><ele>202.14285714285714</ele><time>2026-04-16T14:37:15.606Z</time></trkpt><trkpt lat="45.6128434" lon="9.4315186"><ele>202.0</ele><time>2026-04-16T14:37:16.607Z</time></trkpt><trkpt lat="45.6128543" lon="9.4314287"><ele>202.16666666666666</ele><time>2026-04-16T14:37:17.606Z</time></trkpt><trkpt lat="45.6128747" lon="9.4312532"><ele>202.33333333333331</ele><time>2026-04-16T14:37:19.606Z</time></trkpt><trkpt lat="45.6128858" lon="9.4311611"><ele>202.5</ele><time>2026-04-16T14:37:20.606Z</time></trkpt><trkpt lat="45.6128973" lon="9.4310696"><ele>202.66666666666669</ele><time>2026-04-16T14:37:21.607Z</time></trkpt><trkpt lat="45.6129099" lon="9.4309782"><ele>202.83333333333334</ele><time>2026-04-16T14:37:22.607Z</time></trkpt><trkpt lat="45.6129219" lon="9.4308865"><ele>203.0</ele><time>2026-04-16T14:37:23.606Z</time></trkpt><trkpt lat="45.6129315" lon="9.4307949"><ele>203.0</ele><time>2026-04-16T14:37:24.606Z</time></trkpt><trkpt lat="45.6129374" lon="9.4307053"><ele>203.0</ele><time>2026-04-16T14:37:25.607Z</time></trkpt><trkpt lat="45.6129507" lon="9.4306133"><ele>203.0</ele><time>2026-04-16T14:37:26.606Z</time></trkpt><trkpt lat="45.612962" lon="9.4305099"><ele>203.0</ele><time>2026-04-16T14:37:27.606Z</time></trkpt><trkpt lat="45.6129685" lon="9.4304122"><ele>203.0</ele><time>2026-04-16T14:37:28.607Z</time></trkpt><trkpt lat="45.6129736" lon="9.4303016"><ele>203.0</ele><time>2026-04-16T14:37:29.607Z</time></trkpt><trkpt lat="45.6129638" lon="9.4302123"><ele>203.0</ele><time>2026-04-16T14:37:30.606Z</time></trkpt><trkpt lat="45.6129673" lon="9.4301128"><ele>202.83333333333334</ele><time>2026-04-16T14:37:31.606Z</time></trkpt><trkpt lat="45.612975" lon="9.4300166"><ele>202.66666666666669</ele><time>2026-04-16T14:37:32.607Z</time></trkpt><trkpt lat="45.612967" lon="9.4298333"><ele>202.5</ele><time>2026-04-16T14:37:34.606Z</time></trkpt><trkpt lat="45.6129387" lon="9.4297331"><ele>202.33333333333331</ele><time>2026-04-16T14:37:35.607Z</time></trkpt><trkpt lat="45.6129003" lon="9.4296565"><ele>202.16666666666666</ele><time>2026-04-16T14:37:36.606Z</time></trkpt><trkpt lat="45.6128623" lon="9.4295784"><ele>202.0</ele><time>2026-04-16T14:37:37.606Z</time></trkpt><trkpt lat="45.6128143" lon="9.429501"><ele>201.99999999999997</ele><time>2026-04-16T14:37:38.606Z</time></trkpt><trkpt lat="45.6127692" lon="9.4294138"><ele>202.0</ele><time>2026-04-16T14:37:39.606Z</time></trkpt><trkpt lat="45.6127351" lon="9.4293293"><ele>202.0</ele><time>2026-04-16T14:37:40.607Z</time></trkpt><trkpt lat="45.6127188" lon="9.4292378"><ele>202.0</ele><time>2026-04-16T14:37:41.606Z</time></trkpt><trkpt lat="45.6127371" lon="9.4290674"><ele>201.99999999999997</ele><time>2026-04-16T14:37:43.607Z</time></trkpt><trkpt lat="45.6127574" lon="9.4289809"><ele>202.0</ele><time>2026-04-16T14:37:44.607Z</time></trkpt><trkpt lat="45.6127756" lon="9.4288853"><ele>201.85714285714286</ele><time>2026-04-16T14:37:45.606Z</time></trkpt><trkpt lat="45.6127998" lon="9.4287897"><ele>201.71428571428572</ele><time>2026-04-16T14:37:46.606Z</time></trkpt><trkpt lat="45.6128211" lon="9.4286937"><ele>201.57142857142856</ele><time>2026-04-16T14:37:47.606Z</time></trkpt><trkpt lat="45.6128346" lon="9.4286027"><ele>201.42857142857144</ele><time>2026-04-16T14:37:48.607Z</time></trkpt><trkpt lat="45.6128608" lon="9.4285043"><ele>201.2857142857143</ele><time>2026-04-16T14:37:49.606Z</time></trkpt><trkpt lat="45.6128783" lon="9.4284115"><ele>201.14285714285714</ele><time>2026-04-16T14:37:50.606Z</time></trkpt><trkpt lat="45.6128908" lon="9.4283154"><ele>201.0</ele><time>2026-04-16T14:37:51.607Z</time></trkpt><trkpt lat="45.6129089" lon="9.428218"><ele>201.0</ele><time>2026-04-16T14:37:52.606Z</time></trkpt><trkpt lat="45.6129288" lon="9.4281266"><ele>201.0</ele><time>2026-04-16T14:37:53.606Z</time></trkpt><trkpt lat="45.6129495" lon="9.4280232"><ele>201.0</ele><time>2026-04-16T14:37:54.606Z</time></trkpt><trkpt lat="45.6129659" lon="9.4279315"><ele>201.0</ele><time>2026-04-16T14:37:55.607Z</time></trkpt><trkpt lat="45.6129852" lon="9.4278316"><ele>201.0</ele><time>2026-04-16T14:37:56.606Z</time></trkpt><trkpt lat="45.6130019" lon="9.4277395"><ele>201.0</ele><time>2026-04-16T14:37:57.606Z</time></trkpt><trkpt lat="45.6130194" lon="9.4276409"><ele>201.0</ele><time>2026-04-16T14:37:58.606Z</time></trkpt><trkpt lat="45.613036" lon="9.4275481"><ele>201.16666666666666</ele><time>2026-04-16T14:37:59.607Z</time></trkpt><trkpt lat="45.6130515" lon="9.4274541"><ele>201.33333333333331</ele><time>2026-04-16T14:38:00.606Z</time></trkpt><trkpt lat="45.61307" lon="9.4273592"><ele>201.5</ele><time>2026-04-16T14:38:01.606Z</time></trkpt><trkpt lat="45.6130829" lon="9.427266"><ele>201.66666666666666</ele><time>2026-04-16T14:38:02.606Z</time></trkpt><trkpt lat="45.6131008" lon="9.4271787"><ele>201.83333333333331</ele><time>2026-04-16T14:38:03.606Z</time></trkpt><trkpt lat="45.613115" lon="9.4270105"><ele>202.0</ele><time>2026-04-16T14:38:05.607Z</time></trkpt><trkpt lat="45.6130927" lon="9.4268469"><ele>202.0</ele><time>2026-04-16T14:38:07.607Z</time></trkpt><trkpt lat="45.6130215" lon="9.4267071"><ele>202.0</ele><time>2026-04-16T14:38:09.607Z</time></trkpt><trkpt lat="45.6129237" lon="9.4266827"><ele>202.0</ele><time>2026-04-16T14:38:11.606Z</time></trkpt><trkpt lat="45.6128003" lon="9.4266651"><ele>202.0</ele><time>2026-04-16T14:38:13.606Z</time></trkpt><trkpt lat="45.6126857" lon="9.426631"><ele>201.99999999999997</ele><time>2026-04-16T14:38:15.606Z</time></trkpt><trkpt lat="45.6125744" lon="9.4265913"><ele>202.0</ele><time>2026-04-16T14:38:17.606Z</time></trkpt><trkpt lat="45.612472" lon="9.4264938"><ele>202.0</ele><time>2026-04-16T14:38:19.607Z</time></trkpt><trkpt lat="45.6124262" lon="9.4264311"><ele>202.0</ele><time>2026-04-16T14:38:20.607Z</time></trkpt><trkpt lat="45.6123693" lon="9.4263799"><ele>201.99999999999997</ele><time>2026-04-16T14:38:21.606Z</time></trkpt><trkpt lat="45.6123091" lon="9.4263417"><ele>202.0</ele><time>2026-04-16T14:38:22.606Z</time></trkpt><trkpt lat="45.6122454" lon="9.4263143"><ele>201.0</ele><time>2026-04-16T14:38:23.606Z</time></trkpt><trkpt lat="45.6121195" lon="9.426248"><ele>200.0</ele><time>2026-04-16T14:38:25.606Z</time></trkpt><trkpt lat="45.6120118" lon="9.4261522"><ele>199.0</ele><time>2026-04-16T14:38:27.607Z</time></trkpt><trkpt lat="45.6118887" lon="9.4260969"><ele>198.0</ele><time>2026-04-16T14:38:29.607Z</time></trkpt><trkpt lat="45.6118265" lon="9.4260818"><ele>198.0</ele><time>2026-04-16T14:38:30.606Z</time></trkpt><trkpt lat="45.6117614" lon="9.4260744"><ele>198.0</ele><time>2026-04-16T14:38:31.606Z</time></trkpt><trkpt lat="45.6116963" lon="9.4260552"><ele>198.0</ele><time>2026-04-16T14:38:32.606Z</time></trkpt><trkpt lat="45.6116232" lon="9.4260478"><ele>198.0</ele><time>2026-04-16T14:38:33.606Z</time></trkpt><trkpt lat="45.6115086" lon="9.4260483"><ele>198.0</ele><time>2026-04-16T14:38:35.606Z</time></trkpt><trkpt lat="45.6113989" lon="9.426049"><ele>198.0</ele><time>2026-04-16T14:38:37.607Z</time></trkpt><trkpt lat="45.6112823" lon="9.4260231"><ele>198.0</ele><time>2026-04-16T14:38:39.607Z</time></trkpt><trkpt lat="45.6111674" lon="9.4259955"><ele>198.0</ele><time>2026-04-16T14:38:41.606Z</time></trkpt><trkpt lat="45.611038" lon="9.4259535"><ele>198.0</ele><time>2026-04-16T14:38:43.607Z</time></trkpt><trkpt lat="45.6109412" lon="9.425911"><ele>198.0</ele><time>2026-04-16T14:38:45.606Z</time></trkpt><trkpt lat="45.6108674" lon="9.4258578"><ele>198.0</ele><time>2026-04-16T14:38:48.606Z</time></trkpt><trkpt lat="45.6108092" lon="9.425792"><ele>198.66666666666666</ele><time>2026-04-16T14:38:52.606Z</time></trkpt><trkpt lat="45.6107746" lon="9.4256907"><ele>199.33333333333331</ele><time>2026-04-16T14:38:54.607Z</time></trkpt><trkpt lat="45.6107447" lon="9.4255654"><ele>200.0</ele><time>2026-04-16T14:38:56.606Z</time></trkpt><trkpt lat="45.6107026" lon="9.4254966"><ele>200.66666666666666</ele><time>2026-04-16T14:38:58.606Z</time></trkpt><trkpt lat="45.6106297" lon="9.4255077"><ele>201.33333333333331</ele><time>2026-04-16T14:39:00.607Z</time></trkpt><trkpt lat="45.6105573" lon="9.4255062"><ele>202.0</ele><time>2026-04-16T14:39:02.606Z</time></trkpt><trkpt lat="45.6104588" lon="9.4254797"><ele>201.0</ele><time>2026-04-16T14:39:04.607Z</time></trkpt><trkpt lat="45.6103592" lon="9.4254584"><ele>200.0</ele><time>2026-04-16T14:39:06.606Z</time></trkpt><trkpt lat="45.610247" lon="9.4254132"><ele>199.0</ele><time>2026-04-16T14:39:08.606Z</time></trkpt><trkpt lat="45.6101512" lon="9.4253758"><ele>198.0</ele><time>2026-04-16T14:39:10.606Z</time></trkpt><trkpt lat="45.610045" lon="9.4253325"><ele>197.0</ele><time>2026-04-16T14:39:12.606Z</time></trkpt><trkpt lat="45.609941" lon="9.4252938"><ele>197.00000000000003</ele><time>2026-04-16T14:39:14.606Z</time></trkpt><trkpt lat="45.6098535" lon="9.4252673"><ele>197.0</ele><time>2026-04-16T14:39:16.606Z</time></trkpt><trkpt lat="45.6097643" lon="9.4252489"><ele>197.0</ele><time>2026-04-16T14:39:18.606Z</time></trkpt><trkpt lat="45.6097063" lon="9.4253141"><ele>197.0</ele><time>2026-04-16T14:39:20.606Z</time></trkpt><trkpt lat="45.6096561" lon="9.4254094"><ele>197.00000000000003</ele><time>2026-04-16T14:39:22.606Z</time></trkpt><trkpt lat="45.6096082" lon="9.425519"><ele>197.0</ele><time>2026-04-16T14:39:24.606Z</time></trkpt><trkpt lat="45.6095742" lon="9.4256401"><ele>197.83333333333334</ele><time>2026-04-16T14:39:26.606Z</time></trkpt><trkpt lat="45.6095508" lon="9.4257627"><ele>198.66666666666669</ele><time>2026-04-16T14:39:28.607Z</time></trkpt><trkpt lat="45.6095438" lon="9.4258765"><ele>199.5</ele><time>2026-04-16T14:39:30.607Z</time></trkpt><trkpt lat="45.6095718" lon="9.4259642"><ele>200.33333333333331</ele><time>2026-04-16T14:39:32.607Z</time></trkpt><trkpt lat="45.6096316" lon="9.4260052"><ele>201.16666666666666</ele><time>2026-04-16T14:39:34.607Z</time></trkpt><trkpt lat="45.6097128" lon="9.4260305"><ele>202.0</ele><time>2026-04-16T14:39:37.606Z</time></trkpt><trkpt lat="45.6097091" lon="9.4261564"><ele>202.0</ele><time>2026-04-16T14:39:40.607Z</time></trkpt><trkpt lat="45.609701" lon="9.426249"><ele>202.0</ele><time>2026-04-16T14:39:42.606Z</time></trkpt><trkpt lat="45.6096997" lon="9.4263438"><ele>202.0</ele><time>2026-04-16T14:39:44.606Z</time></trkpt><trkpt lat="45.609694" lon="9.4264354"><ele>202.0</ele><time>2026-04-16T14:39:46.607Z</time></trkpt><trkpt lat="45.6096928" lon="9.4265265"><ele>202.0</ele><time>2026-04-16T14:39:48.606Z</time></trkpt><trkpt lat="45.6096905" lon="9.4266421"><ele>202.0</ele><time>2026-04-16T14:39:51.606Z</time></trkpt><trkpt lat="45.6096865" lon="9.4267533"><ele>202.0</ele><time>2026-04-16T14:39:54.607Z</time></trkpt><trkpt lat="45.6096943" lon="9.4268535"><ele>202.0</ele><time>2026-04-16T14:39:57.606Z</time></trkpt><trkpt lat="45.6096674" lon="9.4269781"><ele>202.0</ele><time>2026-04-16T14:40:00.606Z</time></trkpt><trkpt lat="45.6096558" lon="9.4270954"><ele>202.0</ele><time>2026-04-16T14:40:03.606Z</time></trkpt><trkpt lat="45.6097181" lon="9.427148"><ele>202.0</ele><time>2026-04-16T14:40:12.607Z</time></trkpt><trkpt lat="45.6100537" lon="9.4272603"><ele>200.0</ele><time>2026-04-16T14:42:50.828Z</time></trkpt><trkpt lat="45.6099436" lon="9.4272313"><ele>200.0</ele><time>2026-04-16T14:43:18.45Z</time></trkpt><trkpt lat="45.6099792" lon="9.4271072"><ele>202.0</ele><time>2026-04-16T14:43:25.634Z</time></trkpt><trkpt lat="45.6100299" lon="9.4271682"><ele>200.0</ele><time>2026-04-16T14:44:16.598Z</time></trkpt><trkpt lat="45.6100299" lon="9.4271682"><ele>200.0</ele><time>2026-04-16T14:44:16.598Z</time></trkpt><trkpt lat="45.6100299" lon="9.4271682"><ele>200.0</ele><time>2026-04-16T14:44:16.598Z</time></trkpt><trkpt lat="45.6100299" lon="9.4271682"><ele>200.0</ele><time>2026-04-16T14:44:16.598Z</time></trkpt><trkpt lat="45.6100299" lon="9.4271682"><ele>200.0</ele><time>2026-04-16T14:44:16.598Z</time></trkpt></trkseg></trk></gpx>